<?xml version="1.0" encoding="UTF-8" standalone="no" ?>
<gpx xmlns="http://www.topografix.com/GPX/1/1" xmlns:xsi="http://www.w3.org/2001/XMLSchema-instance" xsi:schemaLocation="http://www.topografix.com/GPX/1/1 http://www.topografix.com/GPX/1/1/gpx.xsd" version="1.1" creator="VisuGPX - https://www.visugpx.com">
  <metadata>
    <name>Rando VTT La Motte Servolex</name>
    <desc><![CDATA[Rando autour de Chambéry]]></desc>
  </metadata>
  <trk>
    <name><![CDATA[Rando VTT]]></name>
    <desc><![CDATA[8 août 2010  2:49 pm]]></desc>
    <trkseg>
      <trkpt lat="45.58561" lon="5.84816">
        <ele>512.182453</ele>
        <time>2010-08-08T12:49:56Z</time>
      </trkpt>
      <trkpt lat="45.58561" lon="5.84785">
        <ele>511.959692</ele>
        <time>2010-08-08T12:50:24Z</time>
      </trkpt>
      <trkpt lat="45.58556" lon="5.84782">
        <ele>511.842315</ele>
        <time>2010-08-08T12:50:27Z</time>
      </trkpt>
      <trkpt lat="45.58551" lon="5.84778">
        <ele>512.031948</ele>
        <time>2010-08-08T12:50:30Z</time>
      </trkpt>
      <trkpt lat="45.58544" lon="5.84775">
        <ele>512.605234</ele>
        <time>2010-08-08T12:50:33Z</time>
      </trkpt>
      <trkpt lat="45.58537" lon="5.84773">
        <ele>512.982295</ele>
        <time>2010-08-08T12:50:36Z</time>
      </trkpt>
      <trkpt lat="45.58532" lon="5.84772">
        <ele>512.695943</ele>
        <time>2010-08-08T12:50:39Z</time>
      </trkpt>
      <trkpt lat="45.58528" lon="5.8477">
        <ele>512.088894</ele>
        <time>2010-08-08T12:50:42Z</time>
      </trkpt>
      <trkpt lat="45.58526" lon="5.84769">
        <ele>511.607205</ele>
        <time>2010-08-08T12:50:46Z</time>
      </trkpt>
      <trkpt lat="45.58526" lon="5.84769">
        <ele>511.311051</ele>
        <time>2010-08-08T12:50:57Z</time>
      </trkpt>
      <trkpt lat="45.58505" lon="5.84765">
        <ele>511.125047</ele>
        <time>2010-08-08T12:51:24Z</time>
      </trkpt>
      <trkpt lat="45.585" lon="5.8475">
        <ele>511.015284</ele>
        <time>2010-08-08T12:51:30Z</time>
      </trkpt>
      <trkpt lat="45.585" lon="5.84745">
        <ele>510.985742</ele>
        <time>2010-08-08T12:51:32Z</time>
      </trkpt>
      <trkpt lat="45.585" lon="5.84733">
        <ele>511.463611</ele>
        <time>2010-08-08T12:51:37Z</time>
      </trkpt>
      <trkpt lat="45.58498" lon="5.84716">
        <ele>512.838059</ele>
        <time>2010-08-08T12:51:45Z</time>
      </trkpt>
      <trkpt lat="45.58496" lon="5.84706">
        <ele>514.460239</ele>
        <time>2010-08-08T12:51:50Z</time>
      </trkpt>
      <trkpt lat="45.58492" lon="5.84692">
        <ele>515.564809</ele>
        <time>2010-08-08T12:51:58Z</time>
      </trkpt>
      <trkpt lat="45.58488" lon="5.84692">
        <ele>516.189199</ele>
        <time>2010-08-08T12:52:03Z</time>
      </trkpt>
      <trkpt lat="45.58485" lon="5.84689">
        <ele>516.482181</ele>
        <time>2010-08-08T12:52:08Z</time>
      </trkpt>
      <trkpt lat="45.58483" lon="5.84685">
        <ele>516.52459</ele>
        <time>2010-08-08T12:52:11Z</time>
      </trkpt>
      <trkpt lat="45.58481" lon="5.84683">
        <ele>516.334826</ele>
        <time>2010-08-08T12:52:14Z</time>
      </trkpt>
      <trkpt lat="45.58477" lon="5.84683">
        <ele>515.924059</ele>
        <time>2010-08-08T12:52:17Z</time>
      </trkpt>
      <trkpt lat="45.58471" lon="5.84683">
        <ele>515.531066</ele>
        <time>2010-08-08T12:52:20Z</time>
      </trkpt>
      <trkpt lat="45.58467" lon="5.84686">
        <ele>515.214407</ele>
        <time>2010-08-08T12:52:22Z</time>
      </trkpt>
      <trkpt lat="45.58462" lon="5.84689">
        <ele>514.832276</ele>
        <time>2010-08-08T12:52:25Z</time>
      </trkpt>
      <trkpt lat="45.58456" lon="5.84693">
        <ele>514.496971</ele>
        <time>2010-08-08T12:52:27Z</time>
      </trkpt>
      <trkpt lat="45.58452" lon="5.84696">
        <ele>514.353711</ele>
        <time>2010-08-08T12:52:29Z</time>
      </trkpt>
      <trkpt lat="45.58446" lon="5.847">
        <ele>514.341521</ele>
        <time>2010-08-08T12:52:32Z</time>
      </trkpt>
      <trkpt lat="45.58439" lon="5.84704">
        <ele>514.373172</ele>
        <time>2010-08-08T12:52:35Z</time>
      </trkpt>
      <trkpt lat="45.58432" lon="5.84707">
        <ele>514.400446</ele>
        <time>2010-08-08T12:52:38Z</time>
      </trkpt>
      <trkpt lat="45.58426" lon="5.84708">
        <ele>514.411937</ele>
        <time>2010-08-08T12:52:41Z</time>
      </trkpt>
      <trkpt lat="45.58421" lon="5.84708">
        <ele>514.412806</ele>
        <time>2010-08-08T12:52:43Z</time>
      </trkpt>
      <trkpt lat="45.58416" lon="5.84708">
        <ele>514.410186</ele>
        <time>2010-08-08T12:52:46Z</time>
      </trkpt>
      <trkpt lat="45.58412" lon="5.84709">
        <ele>514.407969</ele>
        <time>2010-08-08T12:52:48Z</time>
      </trkpt>
      <trkpt lat="45.58405" lon="5.8471">
        <ele>514.407047</ele>
        <time>2010-08-08T12:52:51Z</time>
      </trkpt>
      <trkpt lat="45.58396" lon="5.84713">
        <ele>514.268808</ele>
        <time>2010-08-08T12:52:54Z</time>
      </trkpt>
      <trkpt lat="45.58385" lon="5.84716">
        <ele>513.909133</ele>
        <time>2010-08-08T12:52:57Z</time>
      </trkpt>
      <trkpt lat="45.58379" lon="5.84718">
        <ele>513.539878</ele>
        <time>2010-08-08T12:52:59Z</time>
      </trkpt>
      <trkpt lat="45.58369" lon="5.8472">
        <ele>513.364691</ele>
        <time>2010-08-08T12:53:02Z</time>
      </trkpt>
      <trkpt lat="45.58359" lon="5.84722">
        <ele>513.338165</ele>
        <time>2010-08-08T12:53:05Z</time>
      </trkpt>
      <trkpt lat="45.58348" lon="5.84722">
        <ele>513.368133</ele>
        <time>2010-08-08T12:53:08Z</time>
      </trkpt>
      <trkpt lat="45.58342" lon="5.84721">
        <ele>513.398226</ele>
        <time>2010-08-08T12:53:10Z</time>
      </trkpt>
      <trkpt lat="45.58335" lon="5.84718">
        <ele>513.412316</ele>
        <time>2010-08-08T12:53:12Z</time>
      </trkpt>
      <trkpt lat="45.58326" lon="5.84717">
        <ele>513.414338</ele>
        <time>2010-08-08T12:53:14Z</time>
      </trkpt>
      <trkpt lat="45.5831" lon="5.84716">
        <ele>513.411843</ele>
        <time>2010-08-08T12:53:17Z</time>
      </trkpt>
      <trkpt lat="45.58291" lon="5.84717">
        <ele>513.409391</ele>
        <time>2010-08-08T12:53:20Z</time>
      </trkpt>
      <trkpt lat="45.5828" lon="5.84717">
        <ele>513.408258</ele>
        <time>2010-08-08T12:53:22Z</time>
      </trkpt>
      <trkpt lat="45.58263" lon="5.84718">
        <ele>513.408105</ele>
        <time>2010-08-08T12:53:25Z</time>
      </trkpt>
      <trkpt lat="45.58252" lon="5.84719">
        <ele>513.408312</ele>
        <time>2010-08-08T12:53:27Z</time>
      </trkpt>
      <trkpt lat="45.5824" lon="5.84722">
        <ele>513.408512</ele>
        <time>2010-08-08T12:53:29Z</time>
      </trkpt>
      <trkpt lat="45.58223" lon="5.84726">
        <ele>513.546781</ele>
        <time>2010-08-08T12:53:32Z</time>
      </trkpt>
      <trkpt lat="45.58212" lon="5.84728">
        <ele>513.906685</ele>
        <time>2010-08-08T12:53:34Z</time>
      </trkpt>
      <trkpt lat="45.58194" lon="5.84725">
        <ele>514.276102</ele>
        <time>2010-08-08T12:53:37Z</time>
      </trkpt>
      <trkpt lat="45.58181" lon="5.84719">
        <ele>514.451347</ele>
        <time>2010-08-08T12:53:39Z</time>
      </trkpt>
      <trkpt lat="45.58164" lon="5.84714">
        <ele>514.47787</ele>
        <time>2010-08-08T12:53:42Z</time>
      </trkpt>
      <trkpt lat="45.58155" lon="5.84729">
        <ele>514.447883</ele>
        <time>2010-08-08T12:53:45Z</time>
      </trkpt>
      <trkpt lat="45.58157" lon="5.84751">
        <ele>514.417777</ele>
        <time>2010-08-08T12:53:47Z</time>
      </trkpt>
      <trkpt lat="45.58162" lon="5.8479">
        <ele>514.265504</ele>
        <time>2010-08-08T12:53:50Z</time>
      </trkpt>
      <trkpt lat="45.58169" lon="5.84835">
        <ele>513.903591</ele>
        <time>2010-08-08T12:53:53Z</time>
      </trkpt>
      <trkpt lat="45.58178" lon="5.84879">
        <ele>513.398475</ele>
        <time>2010-08-08T12:53:56Z</time>
      </trkpt>
      <trkpt lat="45.58197" lon="5.84916">
        <ele>512.865774</ele>
        <time>2010-08-08T12:53:59Z</time>
      </trkpt>
      <trkpt lat="45.58218" lon="5.8495">
        <ele>512.194587</ele>
        <time>2010-08-08T12:54:02Z</time>
      </trkpt>
      <trkpt lat="45.58231" lon="5.84975">
        <ele>511.053324</ele>
        <time>2010-08-08T12:54:04Z</time>
      </trkpt>
      <trkpt lat="45.58248" lon="5.85015">
        <ele>509.459862</ele>
        <time>2010-08-08T12:54:07Z</time>
      </trkpt>
      <trkpt lat="45.58262" lon="5.85041">
        <ele>507.916282</ele>
        <time>2010-08-08T12:54:09Z</time>
      </trkpt>
      <trkpt lat="45.58287" lon="5.85077">
        <ele>506.815411</ele>
        <time>2010-08-08T12:54:12Z</time>
      </trkpt>
      <trkpt lat="45.58303" lon="5.851">
        <ele>505.874681</ele>
        <time>2010-08-08T12:54:14Z</time>
      </trkpt>
      <trkpt lat="45.58316" lon="5.85126">
        <ele>504.574808</ele>
        <time>2010-08-08T12:54:16Z</time>
      </trkpt>
      <trkpt lat="45.58321" lon="5.85172">
        <ele>502.918506</ele>
        <time>2010-08-08T12:54:19Z</time>
      </trkpt>
      <trkpt lat="45.58312" lon="5.85201">
        <ele>501.116877</ele>
        <time>2010-08-08T12:54:21Z</time>
      </trkpt>
      <trkpt lat="45.58302" lon="5.85232">
        <ele>499.169345</ele>
        <time>2010-08-08T12:54:23Z</time>
      </trkpt>
      <trkpt lat="45.58305" lon="5.85289">
        <ele>497.153505</ele>
        <time>2010-08-08T12:54:26Z</time>
      </trkpt>
      <trkpt lat="45.58314" lon="5.85349">
        <ele>495.266049</ele>
        <time>2010-08-08T12:54:29Z</time>
      </trkpt>
      <trkpt lat="45.58307" lon="5.85407">
        <ele>493.888761</ele>
        <time>2010-08-08T12:54:32Z</time>
      </trkpt>
      <trkpt lat="45.58283" lon="5.85452">
        <ele>493.252687</ele>
        <time>2010-08-08T12:54:35Z</time>
      </trkpt>
      <trkpt lat="45.58271" lon="5.85507">
        <ele>492.890446</ele>
        <time>2010-08-08T12:54:38Z</time>
      </trkpt>
      <trkpt lat="45.58276" lon="5.85547">
        <ele>492.287311</ele>
        <time>2010-08-08T12:54:40Z</time>
      </trkpt>
      <trkpt lat="45.58284" lon="5.85585">
        <ele>491.384272</ele>
        <time>2010-08-08T12:54:42Z</time>
      </trkpt>
      <trkpt lat="45.58301" lon="5.8564">
        <ele>490.36509</ele>
        <time>2010-08-08T12:54:45Z</time>
      </trkpt>
      <trkpt lat="45.58318" lon="5.85693">
        <ele>489.441462</ele>
        <time>2010-08-08T12:54:48Z</time>
      </trkpt>
      <trkpt lat="45.58335" lon="5.8575">
        <ele>488.643147</ele>
        <time>2010-08-08T12:54:51Z</time>
      </trkpt>
      <trkpt lat="45.58347" lon="5.85789">
        <ele>487.359127</ele>
        <time>2010-08-08T12:54:53Z</time>
      </trkpt>
      <trkpt lat="45.58363" lon="5.85842">
        <ele>484.906207</ele>
        <time>2010-08-08T12:54:56Z</time>
      </trkpt>
      <trkpt lat="45.58378" lon="5.85887">
        <ele>481.159991</ele>
        <time>2010-08-08T12:54:59Z</time>
      </trkpt>
      <trkpt lat="45.58392" lon="5.85922">
        <ele>476.93285</ele>
        <time>2010-08-08T12:55:02Z</time>
      </trkpt>
      <trkpt lat="45.58408" lon="5.85946">
        <ele>472.927811</ele>
        <time>2010-08-08T12:55:05Z</time>
      </trkpt>
      <trkpt lat="45.58426" lon="5.85963">
        <ele>468.873383</ele>
        <time>2010-08-08T12:55:08Z</time>
      </trkpt>
      <trkpt lat="45.58437" lon="5.85978">
        <ele>464.580356</ele>
        <time>2010-08-08T12:55:10Z</time>
      </trkpt>
      <trkpt lat="45.58447" lon="5.85995">
        <ele>460.49578</ele>
        <time>2010-08-08T12:55:12Z</time>
      </trkpt>
      <trkpt lat="45.58465" lon="5.86023">
        <ele>456.656302</ele>
        <time>2010-08-08T12:55:15Z</time>
      </trkpt>
      <trkpt lat="45.58486" lon="5.86056">
        <ele>452.941738</ele>
        <time>2010-08-08T12:55:18Z</time>
      </trkpt>
      <trkpt lat="45.585" lon="5.86078">
        <ele>449.783614</ele>
        <time>2010-08-08T12:55:20Z</time>
      </trkpt>
      <trkpt lat="45.58512" lon="5.8612">
        <ele>447.105763</ele>
        <time>2010-08-08T12:55:23Z</time>
      </trkpt>
      <trkpt lat="45.58515" lon="5.86153">
        <ele>443.882927</ele>
        <time>2010-08-08T12:55:25Z</time>
      </trkpt>
      <trkpt lat="45.58517" lon="5.86185">
        <ele>439.837085</ele>
        <time>2010-08-08T12:55:27Z</time>
      </trkpt>
      <trkpt lat="45.58521" lon="5.86234">
        <ele>435.701443</ele>
        <time>2010-08-08T12:55:30Z</time>
      </trkpt>
      <trkpt lat="45.58528" lon="5.86264">
        <ele>432.029493</ele>
        <time>2010-08-08T12:55:32Z</time>
      </trkpt>
      <trkpt lat="45.58548" lon="5.863">
        <ele>428.967428</ele>
        <time>2010-08-08T12:55:35Z</time>
      </trkpt>
      <trkpt lat="45.58561" lon="5.86324">
        <ele>426.390406</ele>
        <time>2010-08-08T12:55:37Z</time>
      </trkpt>
      <trkpt lat="45.5858" lon="5.8636">
        <ele>424.260339</ele>
        <time>2010-08-08T12:55:40Z</time>
      </trkpt>
      <trkpt lat="45.58593" lon="5.86385">
        <ele>422.72233</ele>
        <time>2010-08-08T12:55:42Z</time>
      </trkpt>
      <trkpt lat="45.58603" lon="5.86413">
        <ele>421.778539</ele>
        <time>2010-08-08T12:55:44Z</time>
      </trkpt>
      <trkpt lat="45.58611" lon="5.86459">
        <ele>421.230697</ele>
        <time>2010-08-08T12:55:47Z</time>
      </trkpt>
      <trkpt lat="45.5861" lon="5.86507">
        <ele>420.693481</ele>
        <time>2010-08-08T12:55:50Z</time>
      </trkpt>
      <trkpt lat="45.58611" lon="5.86537">
        <ele>420.05144</ele>
        <time>2010-08-08T12:55:52Z</time>
      </trkpt>
      <trkpt lat="45.58612" lon="5.86564">
        <ele>419.583534</ele>
        <time>2010-08-08T12:55:54Z</time>
      </trkpt>
      <trkpt lat="45.58607" lon="5.8659">
        <ele>419.276438</ele>
        <time>2010-08-08T12:55:57Z</time>
      </trkpt>
      <trkpt lat="45.58606" lon="5.86608">
        <ele>418.784665</ele>
        <time>2010-08-08T12:55:59Z</time>
      </trkpt>
      <trkpt lat="45.58606" lon="5.86637">
        <ele>418.108201</ele>
        <time>2010-08-08T12:56:02Z</time>
      </trkpt>
      <trkpt lat="45.586" lon="5.86671">
        <ele>417.186928</ele>
        <time>2010-08-08T12:56:05Z</time>
      </trkpt>
      <trkpt lat="45.58589" lon="5.86709">
        <ele>415.504407</ele>
        <time>2010-08-08T12:56:08Z</time>
      </trkpt>
      <trkpt lat="45.58575" lon="5.86749">
        <ele>412.904671</ele>
        <time>2010-08-08T12:56:11Z</time>
      </trkpt>
      <trkpt lat="45.58566" lon="5.86777">
        <ele>409.832115</ele>
        <time>2010-08-08T12:56:13Z</time>
      </trkpt>
      <trkpt lat="45.58556" lon="5.86807">
        <ele>406.803529</ele>
        <time>2010-08-08T12:56:15Z</time>
      </trkpt>
      <trkpt lat="45.58546" lon="5.8686">
        <ele>404.198711</ele>
        <time>2010-08-08T12:56:18Z</time>
      </trkpt>
      <trkpt lat="45.58544" lon="5.86919">
        <ele>402.17638</ele>
        <time>2010-08-08T12:56:21Z</time>
      </trkpt>
      <trkpt lat="45.58543" lon="5.86959">
        <ele>400.727305</ele>
        <time>2010-08-08T12:56:23Z</time>
      </trkpt>
      <trkpt lat="45.5854" lon="5.87017">
        <ele>399.819693</ele>
        <time>2010-08-08T12:56:26Z</time>
      </trkpt>
      <trkpt lat="45.58544" lon="5.8707">
        <ele>399.135539</ele>
        <time>2010-08-08T12:56:29Z</time>
      </trkpt>
      <trkpt lat="45.58558" lon="5.87103">
        <ele>397.814992</ele>
        <time>2010-08-08T12:56:32Z</time>
      </trkpt>
      <trkpt lat="45.58567" lon="5.87117">
        <ele>395.1639</ele>
        <time>2010-08-08T12:56:35Z</time>
      </trkpt>
      <trkpt lat="45.58572" lon="5.87127">
        <ele>391.555428</ele>
        <time>2010-08-08T12:56:38Z</time>
      </trkpt>
      <trkpt lat="45.58575" lon="5.87138">
        <ele>388.138482</ele>
        <time>2010-08-08T12:56:41Z</time>
      </trkpt>
      <trkpt lat="45.58577" lon="5.87146">
        <ele>385.78849</ele>
        <time>2010-08-08T12:56:43Z</time>
      </trkpt>
      <trkpt lat="45.5858" lon="5.87157">
        <ele>384.32442</ele>
        <time>2010-08-08T12:56:46Z</time>
      </trkpt>
      <trkpt lat="45.58583" lon="5.87169">
        <ele>382.828368</ele>
        <time>2010-08-08T12:56:49Z</time>
      </trkpt>
      <trkpt lat="45.58584" lon="5.87176">
        <ele>380.938039</ele>
        <time>2010-08-08T12:56:51Z</time>
      </trkpt>
      <trkpt lat="45.58585" lon="5.87188">
        <ele>378.995957</ele>
        <time>2010-08-08T12:56:54Z</time>
      </trkpt>
      <trkpt lat="45.58586" lon="5.87196">
        <ele>377.009489</ele>
        <time>2010-08-08T12:56:56Z</time>
      </trkpt>
      <trkpt lat="45.58587" lon="5.87204">
        <ele>374.886579</ele>
        <time>2010-08-08T12:56:58Z</time>
      </trkpt>
      <trkpt lat="45.58589" lon="5.87216">
        <ele>373.047513</ele>
        <time>2010-08-08T12:57:01Z</time>
      </trkpt>
      <trkpt lat="45.58591" lon="5.87224">
        <ele>371.875297</ele>
        <time>2010-08-08T12:57:03Z</time>
      </trkpt>
      <trkpt lat="45.58595" lon="5.87236">
        <ele>371.241466</ele>
        <time>2010-08-08T12:57:06Z</time>
      </trkpt>
      <trkpt lat="45.58598" lon="5.87244">
        <ele>370.566494</ele>
        <time>2010-08-08T12:57:08Z</time>
      </trkpt>
      <trkpt lat="45.58602" lon="5.87255">
        <ele>369.589379</ele>
        <time>2010-08-08T12:57:11Z</time>
      </trkpt>
      <trkpt lat="45.58607" lon="5.87267">
        <ele>368.494223</ele>
        <time>2010-08-08T12:57:14Z</time>
      </trkpt>
      <trkpt lat="45.58613" lon="5.87277">
        <ele>367.298954</ele>
        <time>2010-08-08T12:57:17Z</time>
      </trkpt>
      <trkpt lat="45.58618" lon="5.87283">
        <ele>366.179843</ele>
        <time>2010-08-08T12:57:19Z</time>
      </trkpt>
      <trkpt lat="45.58626" lon="5.87292">
        <ele>365.402512</ele>
        <time>2010-08-08T12:57:22Z</time>
      </trkpt>
      <trkpt lat="45.58633" lon="5.87302">
        <ele>364.880859</ele>
        <time>2010-08-08T12:57:25Z</time>
      </trkpt>
      <trkpt lat="45.58639" lon="5.87314">
        <ele>364.571894</ele>
        <time>2010-08-08T12:57:28Z</time>
      </trkpt>
      <trkpt lat="45.58644" lon="5.87325">
        <ele>364.350016</ele>
        <time>2010-08-08T12:57:31Z</time>
      </trkpt>
      <trkpt lat="45.58646" lon="5.87332">
        <ele>363.877037</ele>
        <time>2010-08-08T12:57:33Z</time>
      </trkpt>
      <trkpt lat="45.5865" lon="5.87344">
        <ele>363.190426</ele>
        <time>2010-08-08T12:57:36Z</time>
      </trkpt>
      <trkpt lat="45.58651" lon="5.87351">
        <ele>362.670702</ele>
        <time>2010-08-08T12:57:38Z</time>
      </trkpt>
      <trkpt lat="45.58653" lon="5.87363">
        <ele>362.475517</ele>
        <time>2010-08-08T12:57:41Z</time>
      </trkpt>
      <trkpt lat="45.58654" lon="5.8737">
        <ele>362.476827</ele>
        <time>2010-08-08T12:57:43Z</time>
      </trkpt>
      <trkpt lat="45.58655" lon="5.87382">
        <ele>362.533424</ele>
        <time>2010-08-08T12:57:46Z</time>
      </trkpt>
      <trkpt lat="45.58656" lon="5.87393">
        <ele>362.57561</ele>
        <time>2010-08-08T12:57:49Z</time>
      </trkpt>
      <trkpt lat="45.58656" lon="5.87404">
        <ele>362.591206</ele>
        <time>2010-08-08T12:57:52Z</time>
      </trkpt>
      <trkpt lat="45.58656" lon="5.87411">
        <ele>362.590915</ele>
        <time>2010-08-08T12:57:54Z</time>
      </trkpt>
      <trkpt lat="45.58656" lon="5.87419">
        <ele>362.586252</ele>
        <time>2010-08-08T12:57:56Z</time>
      </trkpt>
      <trkpt lat="45.58657" lon="5.8743">
        <ele>362.582828</ele>
        <time>2010-08-08T12:57:59Z</time>
      </trkpt>
      <trkpt lat="45.58657" lon="5.87437">
        <ele>362.581583</ele>
        <time>2010-08-08T12:58:01Z</time>
      </trkpt>
      <trkpt lat="45.58657" lon="5.87448">
        <ele>362.581621</ele>
        <time>2010-08-08T12:58:04Z</time>
      </trkpt>
      <trkpt lat="45.58656" lon="5.87459">
        <ele>362.720183</ele>
        <time>2010-08-08T12:58:07Z</time>
      </trkpt>
      <trkpt lat="45.58656" lon="5.8747">
        <ele>363.080353</ele>
        <time>2010-08-08T12:58:10Z</time>
      </trkpt>
      <trkpt lat="45.58655" lon="5.87481">
        <ele>363.449888</ele>
        <time>2010-08-08T12:58:13Z</time>
      </trkpt>
      <trkpt lat="45.58654" lon="5.87492">
        <ele>363.625144</ele>
        <time>2010-08-08T12:58:16Z</time>
      </trkpt>
      <trkpt lat="45.58652" lon="5.87503">
        <ele>363.651643</ele>
        <time>2010-08-08T12:58:19Z</time>
      </trkpt>
      <trkpt lat="45.58651" lon="5.87509">
        <ele>363.621634</ele>
        <time>2010-08-08T12:58:21Z</time>
      </trkpt>
      <trkpt lat="45.58649" lon="5.87515">
        <ele>363.591519</ele>
        <time>2010-08-08T12:58:23Z</time>
      </trkpt>
      <trkpt lat="45.58643" lon="5.8752">
        <ele>363.577423</ele>
        <time>2010-08-08T12:58:26Z</time>
      </trkpt>
      <trkpt lat="45.5864" lon="5.87519">
        <ele>363.575404</ele>
        <time>2010-08-08T12:58:28Z</time>
      </trkpt>
      <trkpt lat="45.58636" lon="5.87517">
        <ele>363.577902</ele>
        <time>2010-08-08T12:58:31Z</time>
      </trkpt>
      <trkpt lat="45.5861" lon="5.87507">
        <ele>363.580356</ele>
        <time>2010-08-08T12:58:45Z</time>
      </trkpt>
      <trkpt lat="45.5861" lon="5.87507">
        <ele>363.581489</ele>
        <time>2010-08-08T12:58:48Z</time>
      </trkpt>
      <trkpt lat="45.5858" lon="5.87476">
        <ele>363.581642</ele>
        <time>2010-08-08T12:59:04Z</time>
      </trkpt>
      <trkpt lat="45.58575" lon="5.87465">
        <ele>363.523449</ele>
        <time>2010-08-08T12:59:10Z</time>
      </trkpt>
      <trkpt lat="45.58565" lon="5.87465">
        <ele>363.29203</ele>
        <time>2010-08-08T12:59:17Z</time>
      </trkpt>
      <trkpt lat="45.58562" lon="5.87479">
        <ele>362.928042</ele>
        <time>2010-08-08T12:59:23Z</time>
      </trkpt>
      <trkpt lat="45.58565" lon="5.87493">
        <ele>362.64008</ele>
        <time>2010-08-08T12:59:28Z</time>
      </trkpt>
      <trkpt lat="45.5857" lon="5.87507">
        <ele>362.607442</ele>
        <time>2010-08-08T12:59:33Z</time>
      </trkpt>
      <trkpt lat="45.58572" lon="5.87516">
        <ele>362.871496</ele>
        <time>2010-08-08T12:59:36Z</time>
      </trkpt>
      <trkpt lat="45.58572" lon="5.87522">
        <ele>363.266971</ele>
        <time>2010-08-08T12:59:38Z</time>
      </trkpt>
      <trkpt lat="45.58572" lon="5.87532">
        <ele>364.099817</ele>
        <time>2010-08-08T12:59:41Z</time>
      </trkpt>
      <trkpt lat="45.58572" lon="5.87538">
        <ele>365.913714</ele>
        <time>2010-08-08T12:59:43Z</time>
      </trkpt>
      <trkpt lat="45.5857" lon="5.87546">
        <ele>368.105093</ele>
        <time>2010-08-08T12:59:46Z</time>
      </trkpt>
      <trkpt lat="45.58567" lon="5.87555">
        <ele>369.512472</ele>
        <time>2010-08-08T12:59:49Z</time>
      </trkpt>
      <trkpt lat="45.58565" lon="5.8756">
        <ele>369.9464</ele>
        <time>2010-08-08T12:59:51Z</time>
      </trkpt>
      <trkpt lat="45.58562" lon="5.87564">
        <ele>370.009884</ele>
        <time>2010-08-08T12:59:53Z</time>
      </trkpt>
      <trkpt lat="45.58558" lon="5.87567">
        <ele>370.32815</ele>
        <time>2010-08-08T12:59:55Z</time>
      </trkpt>
      <trkpt lat="45.58553" lon="5.87572">
        <ele>370.943552</ele>
        <time>2010-08-08T12:59:58Z</time>
      </trkpt>
      <trkpt lat="45.58547" lon="5.87575">
        <ele>371.591989</ele>
        <time>2010-08-08T13:00:01Z</time>
      </trkpt>
      <trkpt lat="45.58544" lon="5.87577">
        <ele>372.160237</ele>
        <time>2010-08-08T13:00:03Z</time>
      </trkpt>
      <trkpt lat="45.58539" lon="5.87579">
        <ele>372.540964</ele>
        <time>2010-08-08T13:00:05Z</time>
      </trkpt>
      <trkpt lat="45.58535" lon="5.87579">
        <ele>372.665351</ele>
        <time>2010-08-08T13:00:07Z</time>
      </trkpt>
      <trkpt lat="45.58528" lon="5.8758">
        <ele>372.788586</ele>
        <time>2010-08-08T13:00:10Z</time>
      </trkpt>
      <trkpt lat="45.58524" lon="5.8758">
        <ele>373.101801</ele>
        <time>2010-08-08T13:00:12Z</time>
      </trkpt>
      <trkpt lat="45.58521" lon="5.87579">
        <ele>373.578572</ele>
        <time>2010-08-08T13:00:16Z</time>
      </trkpt>
      <trkpt lat="45.58516" lon="5.87578">
        <ele>374.103832</ele>
        <time>2010-08-08T13:00:19Z</time>
      </trkpt>
      <trkpt lat="45.58507" lon="5.87576">
        <ele>374.639324</ele>
        <time>2010-08-08T13:00:24Z</time>
      </trkpt>
      <trkpt lat="45.58503" lon="5.87569">
        <ele>375.148324</ele>
        <time>2010-08-08T13:00:27Z</time>
      </trkpt>
      <trkpt lat="45.58509" lon="5.87558">
        <ele>375.516679</ele>
        <time>2010-08-08T13:00:38Z</time>
      </trkpt>
      <trkpt lat="45.58518" lon="5.8755">
        <ele>375.648644</ele>
        <time>2010-08-08T13:00:44Z</time>
      </trkpt>
      <trkpt lat="45.5852" lon="5.87534">
        <ele>375.642925</ele>
        <time>2010-08-08T13:00:50Z</time>
      </trkpt>
      <trkpt lat="45.58518" lon="5.8753">
        <ele>375.324668</ele>
        <time>2010-08-08T13:00:53Z</time>
      </trkpt>
      <trkpt lat="45.58511" lon="5.87523">
        <ele>374.29865</ele>
        <time>2010-08-08T13:00:56Z</time>
      </trkpt>
      <trkpt lat="45.58508" lon="5.87519">
        <ele>372.553111</ele>
        <time>2010-08-08T13:00:59Z</time>
      </trkpt>
      <trkpt lat="45.58504" lon="5.8752">
        <ele>370.74453</ele>
        <time>2010-08-08T13:01:04Z</time>
      </trkpt>
      <trkpt lat="45.58502" lon="5.87518">
        <ele>369.605525</ele>
        <time>2010-08-08T13:01:07Z</time>
      </trkpt>
      <trkpt lat="45.58493" lon="5.87515">
        <ele>369.264337</ele>
        <time>2010-08-08T13:01:12Z</time>
      </trkpt>
      <trkpt lat="45.58489" lon="5.87513">
        <ele>369.332304</ele>
        <time>2010-08-08T13:01:14Z</time>
      </trkpt>
      <trkpt lat="45.58472" lon="5.87504">
        <ele>369.480625</ele>
        <time>2010-08-08T13:01:22Z</time>
      </trkpt>
      <trkpt lat="45.58465" lon="5.87499">
        <ele>369.849148</ele>
        <time>2010-08-08T13:01:25Z</time>
      </trkpt>
      <trkpt lat="45.58451" lon="5.87492">
        <ele>370.595979</ele>
        <time>2010-08-08T13:01:28Z</time>
      </trkpt>
      <trkpt lat="45.58444" lon="5.87488">
        <ele>371.605282</ele>
        <time>2010-08-08T13:01:31Z</time>
      </trkpt>
      <trkpt lat="45.58441" lon="5.87486">
        <ele>372.663429</ele>
        <time>2010-08-08T13:01:34Z</time>
      </trkpt>
      <trkpt lat="45.58435" lon="5.87483">
        <ele>373.447903</ele>
        <time>2010-08-08T13:01:36Z</time>
      </trkpt>
      <trkpt lat="45.58432" lon="5.87481">
        <ele>373.736311</ele>
        <time>2010-08-08T13:01:38Z</time>
      </trkpt>
      <trkpt lat="45.58417" lon="5.87471">
        <ele>373.72967</ele>
        <time>2010-08-08T13:01:46Z</time>
      </trkpt>
      <trkpt lat="45.58414" lon="5.87468">
        <ele>373.642502</ele>
        <time>2010-08-08T13:01:48Z</time>
      </trkpt>
      <trkpt lat="45.58401" lon="5.87464">
        <ele>373.717024</ele>
        <time>2010-08-08T13:01:51Z</time>
      </trkpt>
      <trkpt lat="45.58395" lon="5.87462">
        <ele>374.053886</ele>
        <time>2010-08-08T13:01:53Z</time>
      </trkpt>
      <trkpt lat="45.58389" lon="5.8746">
        <ele>374.42414</ele>
        <time>2010-08-08T13:01:56Z</time>
      </trkpt>
      <trkpt lat="45.58383" lon="5.87456">
        <ele>374.606578</ele>
        <time>2010-08-08T13:01:59Z</time>
      </trkpt>
      <trkpt lat="45.58378" lon="5.87452">
        <ele>374.638273</ele>
        <time>2010-08-08T13:02:02Z</time>
      </trkpt>
      <trkpt lat="45.58374" lon="5.87449">
        <ele>374.610125</ele>
        <time>2010-08-08T13:02:05Z</time>
      </trkpt>
      <trkpt lat="45.58374" lon="5.87449">
        <ele>374.526056</ele>
        <time>2010-08-08T13:02:17Z</time>
      </trkpt>
      <trkpt lat="45.58352" lon="5.87425">
        <ele>374.28675</ele>
        <time>2010-08-08T13:02:28Z</time>
      </trkpt>
      <trkpt lat="45.58345" lon="5.8742">
        <ele>373.782519</ele>
        <time>2010-08-08T13:02:32Z</time>
      </trkpt>
      <trkpt lat="45.58341" lon="5.87418">
        <ele>373.131245</ele>
        <time>2010-08-08T13:02:35Z</time>
      </trkpt>
      <trkpt lat="45.58337" lon="5.87414">
        <ele>372.50882</ele>
        <time>2010-08-08T13:02:37Z</time>
      </trkpt>
      <trkpt lat="45.58327" lon="5.87408">
        <ele>371.832174</ele>
        <time>2010-08-08T13:02:40Z</time>
      </trkpt>
      <trkpt lat="45.58318" lon="5.87402">
        <ele>371.106538</ele>
        <time>2010-08-08T13:02:42Z</time>
      </trkpt>
      <trkpt lat="45.58305" lon="5.87394">
        <ele>370.615497</ele>
        <time>2010-08-08T13:02:45Z</time>
      </trkpt>
      <trkpt lat="45.58298" lon="5.87389">
        <ele>370.314823</ele>
        <time>2010-08-08T13:02:47Z</time>
      </trkpt>
      <trkpt lat="45.58293" lon="5.87386">
        <ele>369.972648</ele>
        <time>2010-08-08T13:02:49Z</time>
      </trkpt>
      <trkpt lat="45.58282" lon="5.87378">
        <ele>369.662835</ele>
        <time>2010-08-08T13:02:52Z</time>
      </trkpt>
      <trkpt lat="45.58276" lon="5.87375">
        <ele>369.527359</ele>
        <time>2010-08-08T13:02:54Z</time>
      </trkpt>
      <trkpt lat="45.5827" lon="5.8737">
        <ele>369.513759</ele>
        <time>2010-08-08T13:02:57Z</time>
      </trkpt>
      <trkpt lat="45.58263" lon="5.87365">
        <ele>369.542132</ele>
        <time>2010-08-08T13:02:59Z</time>
      </trkpt>
      <trkpt lat="45.58259" lon="5.87363">
        <ele>369.567343</ele>
        <time>2010-08-08T13:03:02Z</time>
      </trkpt>
      <trkpt lat="45.58255" lon="5.87362">
        <ele>369.578216</ele>
        <time>2010-08-08T13:03:05Z</time>
      </trkpt>
      <trkpt lat="45.58251" lon="5.87361">
        <ele>369.579209</ele>
        <time>2010-08-08T13:03:08Z</time>
      </trkpt>
      <trkpt lat="45.58246" lon="5.8736">
        <ele>369.576858</ele>
        <time>2010-08-08T13:03:11Z</time>
      </trkpt>
      <trkpt lat="45.58241" lon="5.87358">
        <ele>369.712985</ele>
        <time>2010-08-08T13:03:14Z</time>
      </trkpt>
      <trkpt lat="45.58235" lon="5.87355">
        <ele>370.072005</ele>
        <time>2010-08-08T13:03:17Z</time>
      </trkpt>
      <trkpt lat="45.5823" lon="5.87352">
        <ele>370.579546</ele>
        <time>2010-08-08T13:03:20Z</time>
      </trkpt>
      <trkpt lat="45.58223" lon="5.87348">
        <ele>371.114894</ele>
        <time>2010-08-08T13:03:23Z</time>
      </trkpt>
      <trkpt lat="45.5822" lon="5.87347">
        <ele>371.649204</ele>
        <time>2010-08-08T13:03:25Z</time>
      </trkpt>
      <trkpt lat="45.58213" lon="5.87343">
        <ele>372.154441</ele>
        <time>2010-08-08T13:03:28Z</time>
      </trkpt>
      <trkpt lat="45.58208" lon="5.8734">
        <ele>372.520304</ele>
        <time>2010-08-08T13:03:31Z</time>
      </trkpt>
      <trkpt lat="45.58201" lon="5.87338">
        <ele>372.651467</ele>
        <time>2010-08-08T13:03:34Z</time>
      </trkpt>
      <trkpt lat="45.58193" lon="5.87335">
        <ele>372.507676</ele>
        <time>2010-08-08T13:03:39Z</time>
      </trkpt>
      <trkpt lat="45.5819" lon="5.87335">
        <ele>372.106192</ele>
        <time>2010-08-08T13:03:41Z</time>
      </trkpt>
      <trkpt lat="45.58185" lon="5.87334">
        <ele>371.707081</ele>
        <time>2010-08-08T13:03:43Z</time>
      </trkpt>
      <trkpt lat="45.5818" lon="5.87333">
        <ele>371.521354</ele>
        <time>2010-08-08T13:03:45Z</time>
      </trkpt>
      <trkpt lat="45.58167" lon="5.87329">
        <ele>371.49541</ele>
        <time>2010-08-08T13:03:50Z</time>
      </trkpt>
      <trkpt lat="45.58159" lon="5.87326">
        <ele>371.666997</ele>
        <time>2010-08-08T13:03:54Z</time>
      </trkpt>
      <trkpt lat="45.58153" lon="5.87324">
        <ele>372.059403</ele>
        <time>2010-08-08T13:03:56Z</time>
      </trkpt>
      <trkpt lat="45.58146" lon="5.87321">
        <ele>372.581947</ele>
        <time>2010-08-08T13:03:59Z</time>
      </trkpt>
      <trkpt lat="45.58141" lon="5.8732">
        <ele>373.119063</ele>
        <time>2010-08-08T13:04:02Z</time>
      </trkpt>
      <trkpt lat="45.58128" lon="5.87316">
        <ele>373.650429</ele>
        <time>2010-08-08T13:04:06Z</time>
      </trkpt>
      <trkpt lat="45.58122" lon="5.87315">
        <ele>374.152948</ele>
        <time>2010-08-08T13:04:08Z</time>
      </trkpt>
      <trkpt lat="45.58114" lon="5.87313">
        <ele>374.517605</ele>
        <time>2010-08-08T13:04:11Z</time>
      </trkpt>
      <trkpt lat="45.58106" lon="5.87311">
        <ele>375.06317</ele>
        <time>2010-08-08T13:04:14Z</time>
      </trkpt>
      <trkpt lat="45.58101" lon="5.8731">
        <ele>376.275657</ele>
        <time>2010-08-08T13:04:16Z</time>
      </trkpt>
      <trkpt lat="45.58092" lon="5.87308">
        <ele>377.840661</ele>
        <time>2010-08-08T13:04:19Z</time>
      </trkpt>
      <trkpt lat="45.58085" lon="5.87306">
        <ele>379.20437</ele>
        <time>2010-08-08T13:04:22Z</time>
      </trkpt>
      <trkpt lat="45.58078" lon="5.87304">
        <ele>380.316271</ele>
        <time>2010-08-08T13:04:25Z</time>
      </trkpt>
      <trkpt lat="45.58074" lon="5.87302">
        <ele>381.296175</ele>
        <time>2010-08-08T13:04:27Z</time>
      </trkpt>
      <trkpt lat="45.5807" lon="5.87301">
        <ele>382.386745</ele>
        <time>2010-08-08T13:04:29Z</time>
      </trkpt>
      <trkpt lat="45.58064" lon="5.87299">
        <ele>383.577772</ele>
        <time>2010-08-08T13:04:32Z</time>
      </trkpt>
      <trkpt lat="45.5806" lon="5.87298">
        <ele>384.439012</ele>
        <time>2010-08-08T13:04:35Z</time>
      </trkpt>
      <trkpt lat="45.58055" lon="5.87295">
        <ele>384.747286</ele>
        <time>2010-08-08T13:04:39Z</time>
      </trkpt>
      <trkpt lat="45.58044" lon="5.87291">
        <ele>384.73371</ele>
        <time>2010-08-08T13:04:46Z</time>
      </trkpt>
      <trkpt lat="45.58035" lon="5.8729">
        <ele>384.635667</ele>
        <time>2010-08-08T13:04:53Z</time>
      </trkpt>
      <trkpt lat="45.58032" lon="5.87289">
        <ele>384.56581</ele>
        <time>2010-08-08T13:04:56Z</time>
      </trkpt>
      <trkpt lat="45.58029" lon="5.87288">
        <ele>384.541215</ele>
        <time>2010-08-08T13:04:58Z</time>
      </trkpt>
      <trkpt lat="45.58024" lon="5.87287">
        <ele>384.542624</ele>
        <time>2010-08-08T13:05:02Z</time>
      </trkpt>
      <trkpt lat="45.58012" lon="5.87284">
        <ele>384.550691</ele>
        <time>2010-08-08T13:05:08Z</time>
      </trkpt>
      <trkpt lat="45.58" lon="5.87281">
        <ele>384.556356</ele>
        <time>2010-08-08T13:05:14Z</time>
      </trkpt>
      <trkpt lat="45.57988" lon="5.87276">
        <ele>384.558317</ele>
        <time>2010-08-08T13:05:20Z</time>
      </trkpt>
      <trkpt lat="45.57979" lon="5.87272">
        <ele>384.558178</ele>
        <time>2010-08-08T13:05:23Z</time>
      </trkpt>
      <trkpt lat="45.57969" lon="5.87266">
        <ele>384.557514</ele>
        <time>2010-08-08T13:05:26Z</time>
      </trkpt>
      <trkpt lat="45.57959" lon="5.87261">
        <ele>384.557055</ele>
        <time>2010-08-08T13:05:29Z</time>
      </trkpt>
      <trkpt lat="45.5795" lon="5.87255">
        <ele>384.556899</ele>
        <time>2010-08-08T13:05:32Z</time>
      </trkpt>
      <trkpt lat="45.57944" lon="5.87251">
        <ele>384.556912</ele>
        <time>2010-08-08T13:05:34Z</time>
      </trkpt>
      <trkpt lat="45.57936" lon="5.87245">
        <ele>384.833323</ele>
        <time>2010-08-08T13:05:37Z</time>
      </trkpt>
      <trkpt lat="45.57928" lon="5.8724">
        <ele>385.691322</ele>
        <time>2010-08-08T13:05:40Z</time>
      </trkpt>
      <trkpt lat="45.57923" lon="5.87236">
        <ele>387.066452</ele>
        <time>2010-08-08T13:05:42Z</time>
      </trkpt>
      <trkpt lat="45.57915" lon="5.87232">
        <ele>388.782549</ele>
        <time>2010-08-08T13:05:45Z</time>
      </trkpt>
      <trkpt lat="45.5791" lon="5.87229">
        <ele>390.607698</ele>
        <time>2010-08-08T13:05:47Z</time>
      </trkpt>
      <trkpt lat="45.57903" lon="5.87225">
        <ele>392.161715</ele>
        <time>2010-08-08T13:05:50Z</time>
      </trkpt>
      <trkpt lat="45.57896" lon="5.87221">
        <ele>393.618956</ele>
        <time>2010-08-08T13:05:53Z</time>
      </trkpt>
      <trkpt lat="45.57889" lon="5.87217">
        <ele>395.316295</ele>
        <time>2010-08-08T13:05:56Z</time>
      </trkpt>
      <trkpt lat="45.57882" lon="5.87213">
        <ele>396.986135</ele>
        <time>2010-08-08T13:05:59Z</time>
      </trkpt>
      <trkpt lat="45.57876" lon="5.87209">
        <ele>398.290531</ele>
        <time>2010-08-08T13:06:02Z</time>
      </trkpt>
      <trkpt lat="45.57871" lon="5.87206">
        <ele>399.327961</ele>
        <time>2010-08-08T13:06:04Z</time>
      </trkpt>
      <trkpt lat="45.57864" lon="5.87202">
        <ele>400.406943</ele>
        <time>2010-08-08T13:06:07Z</time>
      </trkpt>
      <trkpt lat="45.57857" lon="5.87199">
        <ele>401.711043</ele>
        <time>2010-08-08T13:06:10Z</time>
      </trkpt>
      <trkpt lat="45.57853" lon="5.87196">
        <ele>403.054778</ele>
        <time>2010-08-08T13:06:12Z</time>
      </trkpt>
      <trkpt lat="45.57848" lon="5.87194">
        <ele>404.225996</ele>
        <time>2010-08-08T13:06:14Z</time>
      </trkpt>
      <trkpt lat="45.57842" lon="5.8719">
        <ele>405.256196</ele>
        <time>2010-08-08T13:06:17Z</time>
      </trkpt>
      <trkpt lat="45.57835" lon="5.87186">
        <ele>406.367685</ele>
        <time>2010-08-08T13:06:20Z</time>
      </trkpt>
      <trkpt lat="45.57829" lon="5.87181">
        <ele>407.698291</ele>
        <time>2010-08-08T13:06:23Z</time>
      </trkpt>
      <trkpt lat="45.57824" lon="5.87179">
        <ele>409.190872</ele>
        <time>2010-08-08T13:06:25Z</time>
      </trkpt>
      <trkpt lat="45.57818" lon="5.87175">
        <ele>410.722454</ele>
        <time>2010-08-08T13:06:28Z</time>
      </trkpt>
      <trkpt lat="45.57811" lon="5.87172">
        <ele>412.119402</ele>
        <time>2010-08-08T13:06:31Z</time>
      </trkpt>
      <trkpt lat="45.57803" lon="5.87168">
        <ele>413.127643</ele>
        <time>2010-08-08T13:06:34Z</time>
      </trkpt>
      <trkpt lat="45.57796" lon="5.87165">
        <ele>413.764141</ele>
        <time>2010-08-08T13:06:37Z</time>
      </trkpt>
      <trkpt lat="45.57791" lon="5.87162">
        <ele>414.211481</ele>
        <time>2010-08-08T13:06:39Z</time>
      </trkpt>
      <trkpt lat="45.57783" lon="5.87159">
        <ele>414.504692</ele>
        <time>2010-08-08T13:06:42Z</time>
      </trkpt>
      <trkpt lat="45.57778" lon="5.87157">
        <ele>414.735897</ele>
        <time>2010-08-08T13:06:44Z</time>
      </trkpt>
      <trkpt lat="45.5777" lon="5.87155">
        <ele>415.0822</ele>
        <time>2010-08-08T13:06:47Z</time>
      </trkpt>
      <trkpt lat="45.57763" lon="5.87152">
        <ele>415.414911</ele>
        <time>2010-08-08T13:06:50Z</time>
      </trkpt>
      <trkpt lat="45.57756" lon="5.87149">
        <ele>415.566429</ele>
        <time>2010-08-08T13:06:53Z</time>
      </trkpt>
      <trkpt lat="45.57751" lon="5.87147">
        <ele>415.585568</ele>
        <time>2010-08-08T13:06:55Z</time>
      </trkpt>
      <trkpt lat="45.57746" lon="5.87145">
        <ele>415.55679</ele>
        <time>2010-08-08T13:06:58Z</time>
      </trkpt>
      <trkpt lat="45.57718" lon="5.87132">
        <ele>415.529696</ele>
        <time>2010-08-08T13:07:10Z</time>
      </trkpt>
      <trkpt lat="45.5771" lon="5.87128">
        <ele>415.517522</ele>
        <time>2010-08-08T13:07:13Z</time>
      </trkpt>
      <trkpt lat="45.57702" lon="5.87124">
        <ele>415.377909</ele>
        <time>2010-08-08T13:07:16Z</time>
      </trkpt>
      <trkpt lat="45.57693" lon="5.8712">
        <ele>414.467695</ele>
        <time>2010-08-08T13:07:19Z</time>
      </trkpt>
      <trkpt lat="45.57684" lon="5.87115">
        <ele>412.522719</ele>
        <time>2010-08-08T13:07:22Z</time>
      </trkpt>
      <trkpt lat="45.57674" lon="5.8711">
        <ele>410.510804</ele>
        <time>2010-08-08T13:07:25Z</time>
      </trkpt>
      <trkpt lat="45.57664" lon="5.87107">
        <ele>409.413901</ele>
        <time>2010-08-08T13:07:28Z</time>
      </trkpt>
      <trkpt lat="45.57656" lon="5.87103">
        <ele>409.162307</ele>
        <time>2010-08-08T13:07:31Z</time>
      </trkpt>
      <trkpt lat="45.57651" lon="5.87101">
        <ele>409.285649</ele>
        <time>2010-08-08T13:07:33Z</time>
      </trkpt>
      <trkpt lat="45.57646" lon="5.871">
        <ele>409.450083</ele>
        <time>2010-08-08T13:07:35Z</time>
      </trkpt>
      <trkpt lat="45.57636" lon="5.87097">
        <ele>409.400411</ele>
        <time>2010-08-08T13:07:39Z</time>
      </trkpt>
      <trkpt lat="45.57631" lon="5.87096">
        <ele>408.922044</ele>
        <time>2010-08-08T13:07:41Z</time>
      </trkpt>
      <trkpt lat="45.57624" lon="5.87095">
        <ele>408.182315</ele>
        <time>2010-08-08T13:07:44Z</time>
      </trkpt>
      <trkpt lat="45.57617" lon="5.87093">
        <ele>407.486006</ele>
        <time>2010-08-08T13:07:47Z</time>
      </trkpt>
      <trkpt lat="45.57608" lon="5.8709">
        <ele>406.917183</ele>
        <time>2010-08-08T13:07:50Z</time>
      </trkpt>
      <trkpt lat="45.57598" lon="5.87086">
        <ele>406.549663</ele>
        <time>2010-08-08T13:07:53Z</time>
      </trkpt>
      <trkpt lat="45.57588" lon="5.87082">
        <ele>406.435371</ele>
        <time>2010-08-08T13:07:56Z</time>
      </trkpt>
      <trkpt lat="45.57578" lon="5.87079">
        <ele>406.454143</ele>
        <time>2010-08-08T13:07:59Z</time>
      </trkpt>
      <trkpt lat="45.57567" lon="5.87074">
        <ele>406.500822</ele>
        <time>2010-08-08T13:08:02Z</time>
      </trkpt>
      <trkpt lat="45.57557" lon="5.87069">
        <ele>406.668753</ele>
        <time>2010-08-08T13:08:05Z</time>
      </trkpt>
      <trkpt lat="45.57546" lon="5.87063">
        <ele>407.175897</ele>
        <time>2010-08-08T13:08:08Z</time>
      </trkpt>
      <trkpt lat="45.57536" lon="5.87058">
        <ele>408.041747</ele>
        <time>2010-08-08T13:08:11Z</time>
      </trkpt>
      <trkpt lat="45.57529" lon="5.87056">
        <ele>409.080684</ele>
        <time>2010-08-08T13:08:13Z</time>
      </trkpt>
      <trkpt lat="45.57519" lon="5.87053">
        <ele>410.28575</ele>
        <time>2010-08-08T13:08:16Z</time>
      </trkpt>
      <trkpt lat="45.57509" lon="5.8705">
        <ele>411.684233</ele>
        <time>2010-08-08T13:08:19Z</time>
      </trkpt>
      <trkpt lat="45.57499" lon="5.87046">
        <ele>412.924837</ele>
        <time>2010-08-08T13:08:22Z</time>
      </trkpt>
      <trkpt lat="45.5749" lon="5.87043">
        <ele>413.735627</ele>
        <time>2010-08-08T13:08:25Z</time>
      </trkpt>
      <trkpt lat="45.57481" lon="5.87039">
        <ele>414.247824</ele>
        <time>2010-08-08T13:08:28Z</time>
      </trkpt>
      <trkpt lat="45.57472" lon="5.87034">
        <ele>414.816501</ele>
        <time>2010-08-08T13:08:31Z</time>
      </trkpt>
      <trkpt lat="45.57464" lon="5.87029">
        <ele>415.88652</ele>
        <time>2010-08-08T13:08:34Z</time>
      </trkpt>
      <trkpt lat="45.57457" lon="5.87022">
        <ele>417.455617</ele>
        <time>2010-08-08T13:08:37Z</time>
      </trkpt>
      <trkpt lat="45.57455" lon="5.87019">
        <ele>419.001175</ele>
        <time>2010-08-08T13:08:39Z</time>
      </trkpt>
      <trkpt lat="45.5745" lon="5.87014">
        <ele>420.248653</ele>
        <time>2010-08-08T13:08:41Z</time>
      </trkpt>
      <trkpt lat="45.5744" lon="5.87006">
        <ele>421.278694</ele>
        <time>2010-08-08T13:08:44Z</time>
      </trkpt>
      <trkpt lat="45.57431" lon="5.87001">
        <ele>422.09198</ele>
        <time>2010-08-08T13:08:46Z</time>
      </trkpt>
      <trkpt lat="45.57419" lon="5.86995">
        <ele>422.54824</ele>
        <time>2010-08-08T13:08:49Z</time>
      </trkpt>
      <trkpt lat="45.57407" lon="5.86989">
        <ele>422.797787</ele>
        <time>2010-08-08T13:08:52Z</time>
      </trkpt>
      <trkpt lat="45.57395" lon="5.86983">
        <ele>423.249603</ele>
        <time>2010-08-08T13:08:55Z</time>
      </trkpt>
      <trkpt lat="45.57387" lon="5.86979">
        <ele>423.912418</ele>
        <time>2010-08-08T13:08:57Z</time>
      </trkpt>
      <trkpt lat="45.5738" lon="5.86976">
        <ele>424.420277</ele>
        <time>2010-08-08T13:08:59Z</time>
      </trkpt>
      <trkpt lat="45.57372" lon="5.86973">
        <ele>424.751498</ele>
        <time>2010-08-08T13:09:01Z</time>
      </trkpt>
      <trkpt lat="45.57362" lon="5.8697">
        <ele>425.111851</ele>
        <time>2010-08-08T13:09:04Z</time>
      </trkpt>
      <trkpt lat="45.57351" lon="5.86968">
        <ele>425.564808</ele>
        <time>2010-08-08T13:09:07Z</time>
      </trkpt>
      <trkpt lat="45.57341" lon="5.86966">
        <ele>426.058731</ele>
        <time>2010-08-08T13:09:10Z</time>
      </trkpt>
      <trkpt lat="45.57332" lon="5.86964">
        <ele>426.439264</ele>
        <time>2010-08-08T13:09:13Z</time>
      </trkpt>
      <trkpt lat="45.57322" lon="5.86962">
        <ele>426.584683</ele>
        <time>2010-08-08T13:09:16Z</time>
      </trkpt>
      <trkpt lat="45.57312" lon="5.8696">
        <ele>426.723788</ele>
        <time>2010-08-08T13:09:19Z</time>
      </trkpt>
      <trkpt lat="45.57301" lon="5.86958">
        <ele>427.181123</ele>
        <time>2010-08-08T13:09:22Z</time>
      </trkpt>
      <trkpt lat="45.57289" lon="5.86958">
        <ele>427.879554</ele>
        <time>2010-08-08T13:09:25Z</time>
      </trkpt>
      <trkpt lat="45.57278" lon="5.86958">
        <ele>428.550801</ele>
        <time>2010-08-08T13:09:28Z</time>
      </trkpt>
      <trkpt lat="45.57271" lon="5.86957">
        <ele>429.112545</ele>
        <time>2010-08-08T13:09:30Z</time>
      </trkpt>
      <trkpt lat="45.57264" lon="5.86957">
        <ele>429.481882</ele>
        <time>2010-08-08T13:09:32Z</time>
      </trkpt>
      <trkpt lat="45.57254" lon="5.86955">
        <ele>429.599558</ele>
        <time>2010-08-08T13:09:35Z</time>
      </trkpt>
      <trkpt lat="45.57244" lon="5.86953">
        <ele>429.582813</ele>
        <time>2010-08-08T13:09:38Z</time>
      </trkpt>
      <trkpt lat="45.57233" lon="5.86951">
        <ele>429.674871</ele>
        <time>2010-08-08T13:09:41Z</time>
      </trkpt>
      <trkpt lat="45.57225" lon="5.8695">
        <ele>430.004854</ele>
        <time>2010-08-08T13:09:43Z</time>
      </trkpt>
      <trkpt lat="45.57213" lon="5.86947">
        <ele>430.364938</ele>
        <time>2010-08-08T13:09:46Z</time>
      </trkpt>
      <trkpt lat="45.57205" lon="5.86945">
        <ele>430.54169</ele>
        <time>2010-08-08T13:09:48Z</time>
      </trkpt>
      <trkpt lat="45.57193" lon="5.86942">
        <ele>430.710183</ele>
        <time>2010-08-08T13:09:51Z</time>
      </trkpt>
      <trkpt lat="45.57185" lon="5.86941">
        <ele>431.180689</ele>
        <time>2010-08-08T13:09:53Z</time>
      </trkpt>
      <trkpt lat="45.57174" lon="5.86938">
        <ele>431.880651</ele>
        <time>2010-08-08T13:09:56Z</time>
      </trkpt>
      <trkpt lat="45.57163" lon="5.86934">
        <ele>432.411119</ele>
        <time>2010-08-08T13:09:59Z</time>
      </trkpt>
      <trkpt lat="45.57153" lon="5.86932">
        <ele>432.610578</ele>
        <time>2010-08-08T13:10:02Z</time>
      </trkpt>
      <trkpt lat="45.57144" lon="5.8693">
        <ele>432.609423</ele>
        <time>2010-08-08T13:10:05Z</time>
      </trkpt>
      <trkpt lat="45.57136" lon="5.86928">
        <ele>432.551723</ele>
        <time>2010-08-08T13:10:08Z</time>
      </trkpt>
      <trkpt lat="45.5713" lon="5.86926">
        <ele>432.646842</ele>
        <time>2010-08-08T13:10:11Z</time>
      </trkpt>
      <trkpt lat="45.57124" lon="5.86924">
        <ele>432.990795</ele>
        <time>2010-08-08T13:10:14Z</time>
      </trkpt>
      <trkpt lat="45.57118" lon="5.86923">
        <ele>433.498691</ele>
        <time>2010-08-08T13:10:17Z</time>
      </trkpt>
      <trkpt lat="45.57112" lon="5.8692">
        <ele>434.176777</ele>
        <time>2010-08-08T13:10:20Z</time>
      </trkpt>
      <trkpt lat="45.57107" lon="5.86917">
        <ele>434.936128</ele>
        <time>2010-08-08T13:10:23Z</time>
      </trkpt>
      <trkpt lat="45.57104" lon="5.86914">
        <ele>435.590289</ele>
        <time>2010-08-08T13:10:25Z</time>
      </trkpt>
      <trkpt lat="45.57082" lon="5.86889">
        <ele>436.260005</ele>
        <time>2010-08-08T13:10:39Z</time>
      </trkpt>
      <trkpt lat="45.57079" lon="5.86885">
        <ele>436.971388</ele>
        <time>2010-08-08T13:10:41Z</time>
      </trkpt>
      <trkpt lat="45.57075" lon="5.86881">
        <ele>437.591863</ele>
        <time>2010-08-08T13:10:43Z</time>
      </trkpt>
      <trkpt lat="45.5707" lon="5.86875">
        <ele>438.802627</ele>
        <time>2010-08-08T13:10:46Z</time>
      </trkpt>
      <trkpt lat="45.57065" lon="5.86869">
        <ele>441.092585</ele>
        <time>2010-08-08T13:10:49Z</time>
      </trkpt>
      <trkpt lat="45.57061" lon="5.86865">
        <ele>443.416459</ele>
        <time>2010-08-08T13:10:51Z</time>
      </trkpt>
      <trkpt lat="45.57055" lon="5.86858">
        <ele>444.78783</ele>
        <time>2010-08-08T13:10:54Z</time>
      </trkpt>
      <trkpt lat="45.57051" lon="5.86854">
        <ele>445.412917</ele>
        <time>2010-08-08T13:10:56Z</time>
      </trkpt>
      <trkpt lat="45.57046" lon="5.86847">
        <ele>445.768583</ele>
        <time>2010-08-08T13:10:59Z</time>
      </trkpt>
      <trkpt lat="45.57042" lon="5.8684">
        <ele>446.113918</ele>
        <time>2010-08-08T13:11:02Z</time>
      </trkpt>
      <trkpt lat="45.57038" lon="5.86834">
        <ele>446.410438</ele>
        <time>2010-08-08T13:11:05Z</time>
      </trkpt>
      <trkpt lat="45.57032" lon="5.8682">
        <ele>446.535018</ele>
        <time>2010-08-08T13:11:12Z</time>
      </trkpt>
      <trkpt lat="45.57031" lon="5.86816">
        <ele>446.68239</ele>
        <time>2010-08-08T13:11:14Z</time>
      </trkpt>
      <trkpt lat="45.57028" lon="5.86809">
        <ele>447.151879</ele>
        <time>2010-08-08T13:11:17Z</time>
      </trkpt>
      <trkpt lat="45.57027" lon="5.86805">
        <ele>447.995272</ele>
        <time>2010-08-08T13:11:20Z</time>
      </trkpt>
      <trkpt lat="45.57023" lon="5.86798">
        <ele>448.889872</ele>
        <time>2010-08-08T13:11:23Z</time>
      </trkpt>
      <trkpt lat="45.57015" lon="5.86789">
        <ele>449.460458</ele>
        <time>2010-08-08T13:11:33Z</time>
      </trkpt>
      <trkpt lat="45.57013" lon="5.86787">
        <ele>449.634627</ele>
        <time>2010-08-08T13:11:35Z</time>
      </trkpt>
      <trkpt lat="45.57008" lon="5.86785">
        <ele>449.603024</ele>
        <time>2010-08-08T13:11:38Z</time>
      </trkpt>
      <trkpt lat="45.57004" lon="5.86783">
        <ele>449.391456</ele>
        <time>2010-08-08T13:11:41Z</time>
      </trkpt>
      <trkpt lat="45.56998" lon="5.86781">
        <ele>448.985382</ele>
        <time>2010-08-08T13:11:44Z</time>
      </trkpt>
      <trkpt lat="45.56994" lon="5.8678">
        <ele>448.325775</ele>
        <time>2010-08-08T13:11:47Z</time>
      </trkpt>
      <trkpt lat="45.56981" lon="5.86777">
        <ele>447.295319</ele>
        <time>2010-08-08T13:11:50Z</time>
      </trkpt>
      <trkpt lat="45.56973" lon="5.86775">
        <ele>446.037868</ele>
        <time>2010-08-08T13:11:53Z</time>
      </trkpt>
      <trkpt lat="45.56959" lon="5.86772">
        <ele>444.853563</ele>
        <time>2010-08-08T13:11:56Z</time>
      </trkpt>
      <trkpt lat="45.56947" lon="5.86769">
        <ele>443.78894</ele>
        <time>2010-08-08T13:11:59Z</time>
      </trkpt>
      <trkpt lat="45.56933" lon="5.86767">
        <ele>442.793471</ele>
        <time>2010-08-08T13:12:02Z</time>
      </trkpt>
      <trkpt lat="45.56923" lon="5.86767">
        <ele>441.815904</ele>
        <time>2010-08-08T13:12:04Z</time>
      </trkpt>
      <trkpt lat="45.56907" lon="5.8677">
        <ele>440.970273</ele>
        <time>2010-08-08T13:12:07Z</time>
      </trkpt>
      <trkpt lat="45.56889" lon="5.86769">
        <ele>440.336562</ele>
        <time>2010-08-08T13:12:10Z</time>
      </trkpt>
      <trkpt lat="45.56875" lon="5.86765">
        <ele>439.844985</ele>
        <time>2010-08-08T13:12:13Z</time>
      </trkpt>
      <trkpt lat="45.56865" lon="5.86763">
        <ele>439.517716</ele>
        <time>2010-08-08T13:12:16Z</time>
      </trkpt>
      <trkpt lat="45.56865" lon="5.86763">
        <ele>439.345041</ele>
        <time>2010-08-08T13:12:17Z</time>
      </trkpt>
      <trkpt lat="45.56835" lon="5.86754">
        <ele>438.975269</ele>
        <time>2010-08-08T13:12:30Z</time>
      </trkpt>
      <trkpt lat="45.56835" lon="5.86754">
        <ele>438.291254</ele>
        <time>2010-08-08T13:12:33Z</time>
      </trkpt>
      <trkpt lat="45.56807" lon="5.86744">
        <ele>437.396184</ele>
        <time>2010-08-08T13:12:45Z</time>
      </trkpt>
      <trkpt lat="45.56801" lon="5.86744">
        <ele>435.991505</ele>
        <time>2010-08-08T13:12:47Z</time>
      </trkpt>
      <trkpt lat="45.56798" lon="5.86744">
        <ele>433.869586</ele>
        <time>2010-08-08T13:12:48Z</time>
      </trkpt>
      <trkpt lat="45.56776" lon="5.86747">
        <ele>431.609513</ele>
        <time>2010-08-08T13:12:55Z</time>
      </trkpt>
      <trkpt lat="45.56773" lon="5.86748">
        <ele>429.982254</ele>
        <time>2010-08-08T13:12:58Z</time>
      </trkpt>
      <trkpt lat="45.56747" lon="5.86756">
        <ele>429.264377</ele>
        <time>2010-08-08T13:13:06Z</time>
      </trkpt>
      <trkpt lat="45.56722" lon="5.86759">
        <ele>429.188201</ele>
        <time>2010-08-08T13:13:17Z</time>
      </trkpt>
      <trkpt lat="45.56709" lon="5.86759">
        <ele>429.335459</ele>
        <time>2010-08-08T13:13:23Z</time>
      </trkpt>
      <trkpt lat="45.567" lon="5.86756">
        <ele>429.467896</ele>
        <time>2010-08-08T13:13:27Z</time>
      </trkpt>
      <trkpt lat="45.567" lon="5.86756">
        <ele>429.525527</ele>
        <time>2010-08-08T13:13:41Z</time>
      </trkpt>
      <trkpt lat="45.5668" lon="5.86725">
        <ele>429.53113</ele>
        <time>2010-08-08T13:13:44Z</time>
      </trkpt>
      <trkpt lat="45.56664" lon="5.86691">
        <ele>429.6571</ele>
        <time>2010-08-08T13:14:01Z</time>
      </trkpt>
      <trkpt lat="45.56658" lon="5.86679">
        <ele>430.006216</ele>
        <time>2010-08-08T13:14:04Z</time>
      </trkpt>
      <trkpt lat="45.56652" lon="5.86662">
        <ele>430.371026</ele>
        <time>2010-08-08T13:14:07Z</time>
      </trkpt>
      <trkpt lat="45.56648" lon="5.86648">
        <ele>430.54588</ele>
        <time>2010-08-08T13:14:09Z</time>
      </trkpt>
      <trkpt lat="45.56644" lon="5.86635">
        <ele>430.711599</ele>
        <time>2010-08-08T13:14:11Z</time>
      </trkpt>
      <trkpt lat="45.56638" lon="5.86615">
        <ele>431.318738</ele>
        <time>2010-08-08T13:14:14Z</time>
      </trkpt>
      <trkpt lat="45.56633" lon="5.86598">
        <ele>432.516398</ele>
        <time>2010-08-08T13:14:17Z</time>
      </trkpt>
      <trkpt lat="45.56631" lon="5.86588">
        <ele>434.05271</ele>
        <time>2010-08-08T13:14:19Z</time>
      </trkpt>
      <trkpt lat="45.56628" lon="5.86576">
        <ele>435.655055</ele>
        <time>2010-08-08T13:14:22Z</time>
      </trkpt>
      <trkpt lat="45.56625" lon="5.86566">
        <ele>437.369111</ele>
        <time>2010-08-08T13:14:25Z</time>
      </trkpt>
      <trkpt lat="45.56623" lon="5.8656">
        <ele>439.245797</ele>
        <time>2010-08-08T13:14:27Z</time>
      </trkpt>
      <trkpt lat="45.56621" lon="5.86554">
        <ele>441.115505</ele>
        <time>2010-08-08T13:14:29Z</time>
      </trkpt>
      <trkpt lat="45.56618" lon="5.86546">
        <ele>442.91326</ele>
        <time>2010-08-08T13:14:32Z</time>
      </trkpt>
      <trkpt lat="45.56615" lon="5.86539">
        <ele>444.797076</ele>
        <time>2010-08-08T13:14:35Z</time>
      </trkpt>
      <trkpt lat="45.56611" lon="5.86531">
        <ele>446.627928</ele>
        <time>2010-08-08T13:14:38Z</time>
      </trkpt>
      <trkpt lat="45.56608" lon="5.86526">
        <ele>448.276626</ele>
        <time>2010-08-08T13:14:40Z</time>
      </trkpt>
      <trkpt lat="45.56604" lon="5.8652">
        <ele>449.921247</ele>
        <time>2010-08-08T13:14:43Z</time>
      </trkpt>
      <trkpt lat="45.56602" lon="5.86515">
        <ele>451.752882</ele>
        <time>2010-08-08T13:14:45Z</time>
      </trkpt>
      <trkpt lat="45.56596" lon="5.86505">
        <ele>453.726306</ele>
        <time>2010-08-08T13:14:48Z</time>
      </trkpt>
      <trkpt lat="45.56588" lon="5.86491">
        <ele>455.614888</ele>
        <time>2010-08-08T13:14:51Z</time>
      </trkpt>
      <trkpt lat="45.56579" lon="5.86476">
        <ele>457.143287</ele>
        <time>2010-08-08T13:14:54Z</time>
      </trkpt>
      <trkpt lat="45.56571" lon="5.86463">
        <ele>458.148656</ele>
        <time>2010-08-08T13:14:56Z</time>
      </trkpt>
      <trkpt lat="45.56561" lon="5.86439">
        <ele>458.607363</ele>
        <time>2010-08-08T13:14:59Z</time>
      </trkpt>
      <trkpt lat="45.56553" lon="5.86415">
        <ele>458.665842</ele>
        <time>2010-08-08T13:15:02Z</time>
      </trkpt>
      <trkpt lat="45.56553" lon="5.86396">
        <ele>458.579121</ele>
        <time>2010-08-08T13:15:05Z</time>
      </trkpt>
      <trkpt lat="45.56552" lon="5.86385">
        <ele>458.497247</ele>
        <time>2010-08-08T13:15:08Z</time>
      </trkpt>
      <trkpt lat="45.56564" lon="5.86337">
        <ele>458.322212</ele>
        <time>2010-08-08T13:15:44Z</time>
      </trkpt>
      <trkpt lat="45.56568" lon="5.86317">
        <ele>457.957932</ele>
        <time>2010-08-08T13:15:52Z</time>
      </trkpt>
      <trkpt lat="45.56573" lon="5.86299">
        <ele>457.595699</ele>
        <time>2010-08-08T13:16:00Z</time>
      </trkpt>
      <trkpt lat="45.56576" lon="5.86287">
        <ele>457.427103</ele>
        <time>2010-08-08T13:16:07Z</time>
      </trkpt>
      <trkpt lat="45.56578" lon="5.86273">
        <ele>457.67989</ele>
        <time>2010-08-08T13:16:14Z</time>
      </trkpt>
      <trkpt lat="45.5658" lon="5.86259">
        <ele>458.568165</ele>
        <time>2010-08-08T13:16:20Z</time>
      </trkpt>
      <trkpt lat="45.56581" lon="5.86252">
        <ele>459.696437</ele>
        <time>2010-08-08T13:16:23Z</time>
      </trkpt>
      <trkpt lat="45.56582" lon="5.86247">
        <ele>460.568126</ele>
        <time>2010-08-08T13:16:25Z</time>
      </trkpt>
      <trkpt lat="45.56582" lon="5.8624">
        <ele>461.572657</ele>
        <time>2010-08-08T13:16:28Z</time>
      </trkpt>
      <trkpt lat="45.56583" lon="5.8623">
        <ele>463.262162</ele>
        <time>2010-08-08T13:16:32Z</time>
      </trkpt>
      <trkpt lat="45.56584" lon="5.86223">
        <ele>465.311085</ele>
        <time>2010-08-08T13:16:35Z</time>
      </trkpt>
      <trkpt lat="45.56586" lon="5.86198">
        <ele>467.04095</ele>
        <time>2010-08-08T13:16:45Z</time>
      </trkpt>
      <trkpt lat="45.56587" lon="5.86184">
        <ele>468.290308</ele>
        <time>2010-08-08T13:16:50Z</time>
      </trkpt>
      <trkpt lat="45.56587" lon="5.8617">
        <ele>469.131071</ele>
        <time>2010-08-08T13:16:55Z</time>
      </trkpt>
      <trkpt lat="45.56587" lon="5.8617">
        <ele>469.545504</ele>
        <time>2010-08-08T13:17:09Z</time>
      </trkpt>
      <trkpt lat="45.56588" lon="5.86114">
        <ele>470.308481</ele>
        <time>2010-08-08T13:17:19Z</time>
      </trkpt>
      <trkpt lat="45.56598" lon="5.861">
        <ele>472.320424</ele>
        <time>2010-08-08T13:17:24Z</time>
      </trkpt>
      <trkpt lat="45.56605" lon="5.8609">
        <ele>474.95699</ele>
        <time>2010-08-08T13:17:27Z</time>
      </trkpt>
      <trkpt lat="45.56609" lon="5.86085">
        <ele>477.036872</ele>
        <time>2010-08-08T13:17:29Z</time>
      </trkpt>
      <trkpt lat="45.56611" lon="5.86082">
        <ele>478.520177</ele>
        <time>2010-08-08T13:17:32Z</time>
      </trkpt>
      <trkpt lat="45.56619" lon="5.8607">
        <ele>479.693119</ele>
        <time>2010-08-08T13:17:35Z</time>
      </trkpt>
      <trkpt lat="45.56627" lon="5.86058">
        <ele>480.567039</ele>
        <time>2010-08-08T13:17:38Z</time>
      </trkpt>
      <trkpt lat="45.56631" lon="5.86051">
        <ele>481.145987</ele>
        <time>2010-08-08T13:17:40Z</time>
      </trkpt>
      <trkpt lat="45.56636" lon="5.8604">
        <ele>481.470514</ele>
        <time>2010-08-08T13:17:43Z</time>
      </trkpt>
      <trkpt lat="45.56641" lon="5.86031">
        <ele>481.549593</ele>
        <time>2010-08-08T13:17:46Z</time>
      </trkpt>
      <trkpt lat="45.56643" lon="5.86027">
        <ele>481.65477</ele>
        <time>2010-08-08T13:17:49Z</time>
      </trkpt>
      <trkpt lat="45.56643" lon="5.86023">
        <ele>482.105493</ele>
        <time>2010-08-08T13:17:52Z</time>
      </trkpt>
      <trkpt lat="45.56631" lon="5.85987">
        <ele>483.689867</ele>
        <time>2010-08-08T13:24:05Z</time>
      </trkpt>
      <trkpt lat="45.56634" lon="5.85979">
        <ele>484.050175</ele>
        <time>2010-08-08T13:24:07Z</time>
      </trkpt>
      <trkpt lat="45.56637" lon="5.85968">
        <ele>484.499808</ele>
        <time>2010-08-08T13:24:10Z</time>
      </trkpt>
      <trkpt lat="45.5664" lon="5.85957">
        <ele>485.405779</ele>
        <time>2010-08-08T13:24:13Z</time>
      </trkpt>
      <trkpt lat="45.5664" lon="5.85949">
        <ele>486.865067</ele>
        <time>2010-08-08T13:24:15Z</time>
      </trkpt>
      <trkpt lat="45.5664" lon="5.85942">
        <ele>488.118805</ele>
        <time>2010-08-08T13:24:17Z</time>
      </trkpt>
      <trkpt lat="45.56637" lon="5.85931">
        <ele>488.64579</ele>
        <time>2010-08-08T13:24:20Z</time>
      </trkpt>
      <trkpt lat="45.56632" lon="5.8592">
        <ele>488.684846</ele>
        <time>2010-08-08T13:24:23Z</time>
      </trkpt>
      <trkpt lat="45.56629" lon="5.85909">
        <ele>488.564065</ele>
        <time>2010-08-08T13:24:26Z</time>
      </trkpt>
      <trkpt lat="45.56628" lon="5.85898">
        <ele>488.323936</ele>
        <time>2010-08-08T13:24:29Z</time>
      </trkpt>
      <trkpt lat="45.56629" lon="5.85888">
        <ele>487.921793</ele>
        <time>2010-08-08T13:24:32Z</time>
      </trkpt>
      <trkpt lat="45.56631" lon="5.85877">
        <ele>487.549635</ele>
        <time>2010-08-08T13:24:35Z</time>
      </trkpt>
      <trkpt lat="45.56632" lon="5.8587">
        <ele>487.384365</ele>
        <time>2010-08-08T13:24:37Z</time>
      </trkpt>
      <trkpt lat="45.56634" lon="5.8586">
        <ele>487.366123</ele>
        <time>2010-08-08T13:24:40Z</time>
      </trkpt>
      <trkpt lat="45.56636" lon="5.85853">
        <ele>487.399495</ele>
        <time>2010-08-08T13:24:42Z</time>
      </trkpt>
      <trkpt lat="45.56638" lon="5.85843">
        <ele>487.567966</ele>
        <time>2010-08-08T13:24:45Z</time>
      </trkpt>
      <trkpt lat="45.5664" lon="5.85838">
        <ele>487.941128</ele>
        <time>2010-08-08T13:24:47Z</time>
      </trkpt>
      <trkpt lat="45.56643" lon="5.8583">
        <ele>488.311911</ele>
        <time>2010-08-08T13:24:50Z</time>
      </trkpt>
      <trkpt lat="45.56646" lon="5.85821">
        <ele>488.484405</ele>
        <time>2010-08-08T13:24:53Z</time>
      </trkpt>
      <trkpt lat="45.56647" lon="5.85813">
        <ele>488.50847</ele>
        <time>2010-08-08T13:24:56Z</time>
      </trkpt>
      <trkpt lat="45.56647" lon="5.85804">
        <ele>488.753774</ele>
        <time>2010-08-08T13:24:59Z</time>
      </trkpt>
      <trkpt lat="45.56646" lon="5.85799">
        <ele>489.443352</ele>
        <time>2010-08-08T13:25:01Z</time>
      </trkpt>
      <trkpt lat="45.56633" lon="5.85764">
        <ele>490.168355</ele>
        <time>2010-08-08T13:25:17Z</time>
      </trkpt>
      <trkpt lat="45.56632" lon="5.8576">
        <ele>490.517057</ele>
        <time>2010-08-08T13:25:19Z</time>
      </trkpt>
      <trkpt lat="45.5663" lon="5.85755">
        <ele>490.572699</ele>
        <time>2010-08-08T13:25:21Z</time>
      </trkpt>
      <trkpt lat="45.56628" lon="5.85747">
        <ele>490.515187</ele>
        <time>2010-08-08T13:25:24Z</time>
      </trkpt>
      <trkpt lat="45.56627" lon="5.85741">
        <ele>490.456086</ele>
        <time>2010-08-08T13:25:26Z</time>
      </trkpt>
      <trkpt lat="45.56625" lon="5.85733">
        <ele>490.428031</ele>
        <time>2010-08-08T13:25:29Z</time>
      </trkpt>
      <trkpt lat="45.56624" lon="5.85721">
        <ele>490.423773</ele>
        <time>2010-08-08T13:25:33Z</time>
      </trkpt>
      <trkpt lat="45.56623" lon="5.85716">
        <ele>490.566743</ele>
        <time>2010-08-08T13:25:35Z</time>
      </trkpt>
      <trkpt lat="45.56621" lon="5.85708">
        <ele>490.931452</ele>
        <time>2010-08-08T13:25:38Z</time>
      </trkpt>
      <trkpt lat="45.5662" lon="5.85703">
        <ele>491.303143</ele>
        <time>2010-08-08T13:25:41Z</time>
      </trkpt>
      <trkpt lat="45.56616" lon="5.85688">
        <ele>491.478729</ele>
        <time>2010-08-08T13:25:45Z</time>
      </trkpt>
      <trkpt lat="45.56614" lon="5.85682">
        <ele>491.50486</ele>
        <time>2010-08-08T13:25:47Z</time>
      </trkpt>
      <trkpt lat="45.56609" lon="5.85674">
        <ele>491.474482</ele>
        <time>2010-08-08T13:25:50Z</time>
      </trkpt>
      <trkpt lat="45.56604" lon="5.85669">
        <ele>491.444192</ele>
        <time>2010-08-08T13:25:53Z</time>
      </trkpt>
      <trkpt lat="45.56594" lon="5.85662">
        <ele>491.430072</ele>
        <time>2010-08-08T13:25:58Z</time>
      </trkpt>
      <trkpt lat="45.56588" lon="5.85659">
        <ele>491.428083</ele>
        <time>2010-08-08T13:26:01Z</time>
      </trkpt>
      <trkpt lat="45.56582" lon="5.85657">
        <ele>491.154256</ele>
        <time>2010-08-08T13:26:04Z</time>
      </trkpt>
      <trkpt lat="45.56578" lon="5.85655">
        <ele>490.298761</ele>
        <time>2010-08-08T13:26:06Z</time>
      </trkpt>
      <trkpt lat="45.56567" lon="5.85652">
        <ele>489.062956</ele>
        <time>2010-08-08T13:26:11Z</time>
      </trkpt>
      <trkpt lat="45.56561" lon="5.85649">
        <ele>487.983257</ele>
        <time>2010-08-08T13:26:14Z</time>
      </trkpt>
      <trkpt lat="45.56557" lon="5.85647">
        <ele>487.247113</ele>
        <time>2010-08-08T13:26:16Z</time>
      </trkpt>
      <trkpt lat="45.56552" lon="5.85644">
        <ele>486.468845</ele>
        <time>2010-08-08T13:26:19Z</time>
      </trkpt>
      <trkpt lat="45.56548" lon="5.85642">
        <ele>485.443205</ele>
        <time>2010-08-08T13:26:22Z</time>
      </trkpt>
      <trkpt lat="45.56537" lon="5.85634">
        <ele>484.617349</ele>
        <time>2010-08-08T13:26:30Z</time>
      </trkpt>
      <trkpt lat="45.56535" lon="5.85631">
        <ele>484.150383</ele>
        <time>2010-08-08T13:26:32Z</time>
      </trkpt>
      <trkpt lat="45.5653" lon="5.85626">
        <ele>483.778558</ele>
        <time>2010-08-08T13:26:35Z</time>
      </trkpt>
      <trkpt lat="45.56524" lon="5.85621">
        <ele>483.079296</ele>
        <time>2010-08-08T13:26:38Z</time>
      </trkpt>
      <trkpt lat="45.56513" lon="5.85619">
        <ele>481.615098</ele>
        <time>2010-08-08T13:26:41Z</time>
      </trkpt>
      <trkpt lat="45.56503" lon="5.85618">
        <ele>479.510443</ele>
        <time>2010-08-08T13:26:43Z</time>
      </trkpt>
      <trkpt lat="45.56491" lon="5.85618">
        <ele>477.418487</ele>
        <time>2010-08-08T13:26:46Z</time>
      </trkpt>
      <trkpt lat="45.56484" lon="5.85618">
        <ele>475.912728</ele>
        <time>2010-08-08T13:26:48Z</time>
      </trkpt>
      <trkpt lat="45.56477" lon="5.85618">
        <ele>475.238315</ele>
        <time>2010-08-08T13:26:50Z</time>
      </trkpt>
      <trkpt lat="45.56468" lon="5.85618">
        <ele>475.022026</ele>
        <time>2010-08-08T13:26:53Z</time>
      </trkpt>
      <trkpt lat="45.56462" lon="5.85618">
        <ele>474.795553</ele>
        <time>2010-08-08T13:26:55Z</time>
      </trkpt>
      <trkpt lat="45.56454" lon="5.85618">
        <ele>474.5487</ele>
        <time>2010-08-08T13:26:58Z</time>
      </trkpt>
      <trkpt lat="45.56446" lon="5.85619">
        <ele>474.427602</ele>
        <time>2010-08-08T13:27:01Z</time>
      </trkpt>
      <trkpt lat="45.5644" lon="5.85619">
        <ele>474.268697</ele>
        <time>2010-08-08T13:27:03Z</time>
      </trkpt>
      <trkpt lat="45.56431" lon="5.8562">
        <ele>473.927722</ele>
        <time>2010-08-08T13:27:06Z</time>
      </trkpt>
      <trkpt lat="45.56426" lon="5.85621">
        <ele>473.578418</ele>
        <time>2010-08-08T13:27:08Z</time>
      </trkpt>
      <trkpt lat="45.56417" lon="5.85622">
        <ele>473.412904</ele>
        <time>2010-08-08T13:27:11Z</time>
      </trkpt>
      <trkpt lat="45.56409" lon="5.85622">
        <ele>473.387968</ele>
        <time>2010-08-08T13:27:14Z</time>
      </trkpt>
      <trkpt lat="45.56404" lon="5.85621">
        <ele>473.416376</ele>
        <time>2010-08-08T13:27:16Z</time>
      </trkpt>
      <trkpt lat="45.56396" lon="5.85621">
        <ele>473.444842</ele>
        <time>2010-08-08T13:27:19Z</time>
      </trkpt>
      <trkpt lat="45.56391" lon="5.8562">
        <ele>473.458154</ele>
        <time>2010-08-08T13:27:21Z</time>
      </trkpt>
      <trkpt lat="45.56385" lon="5.85619">
        <ele>473.460054</ele>
        <time>2010-08-08T13:27:23Z</time>
      </trkpt>
      <trkpt lat="45.56374" lon="5.85619">
        <ele>473.319511</ele>
        <time>2010-08-08T13:27:26Z</time>
      </trkpt>
      <trkpt lat="45.56362" lon="5.85619">
        <ele>472.9573</ele>
        <time>2010-08-08T13:27:29Z</time>
      </trkpt>
      <trkpt lat="45.56355" lon="5.85618">
        <ele>472.448616</ele>
        <time>2010-08-08T13:27:31Z</time>
      </trkpt>
      <trkpt lat="45.56348" lon="5.85618">
        <ele>471.775141</ele>
        <time>2010-08-08T13:27:33Z</time>
      </trkpt>
      <trkpt lat="45.56342" lon="5.85618">
        <ele>471.019481</ele>
        <time>2010-08-08T13:27:35Z</time>
      </trkpt>
      <trkpt lat="45.56334" lon="5.85619">
        <ele>470.504959</ele>
        <time>2010-08-08T13:27:38Z</time>
      </trkpt>
      <trkpt lat="45.56327" lon="5.8562">
        <ele>470.333362</ele>
        <time>2010-08-08T13:27:41Z</time>
      </trkpt>
      <trkpt lat="45.5632" lon="5.85622">
        <ele>470.350925</ele>
        <time>2010-08-08T13:27:44Z</time>
      </trkpt>
      <trkpt lat="45.56315" lon="5.85621">
        <ele>470.274846</ele>
        <time>2010-08-08T13:27:46Z</time>
      </trkpt>
      <trkpt lat="45.56311" lon="5.8562">
        <ele>469.818468</ele>
        <time>2010-08-08T13:27:48Z</time>
      </trkpt>
      <trkpt lat="45.56306" lon="5.85618">
        <ele>468.964621</ele>
        <time>2010-08-08T13:27:50Z</time>
      </trkpt>
      <trkpt lat="45.56299" lon="5.85615">
        <ele>468.058423</ele>
        <time>2010-08-08T13:27:53Z</time>
      </trkpt>
      <trkpt lat="45.56292" lon="5.85613">
        <ele>467.482096</ele>
        <time>2010-08-08T13:27:56Z</time>
      </trkpt>
      <trkpt lat="45.56288" lon="5.85612">
        <ele>467.306913</ele>
        <time>2010-08-08T13:27:58Z</time>
      </trkpt>
      <trkpt lat="45.56288" lon="5.85612">
        <ele>467.33939</ele>
        <time>2010-08-08T13:27:59Z</time>
      </trkpt>
      <trkpt lat="45.56259" lon="5.85601">
        <ele>467.413726</ele>
        <time>2010-08-08T13:28:11Z</time>
      </trkpt>
      <trkpt lat="45.56256" lon="5.856">
        <ele>467.46037</ele>
        <time>2010-08-08T13:28:13Z</time>
      </trkpt>
      <trkpt lat="45.56256" lon="5.856">
        <ele>467.474265</ele>
        <time>2010-08-08T13:28:14Z</time>
      </trkpt>
      <trkpt lat="45.56229" lon="5.85582">
        <ele>467.609601</ele>
        <time>2010-08-08T13:28:20Z</time>
      </trkpt>
      <trkpt lat="45.56218" lon="5.85575">
        <ele>468.377932</ele>
        <time>2010-08-08T13:28:23Z</time>
      </trkpt>
      <trkpt lat="45.56209" lon="5.85569">
        <ele>469.961447</ele>
        <time>2010-08-08T13:28:26Z</time>
      </trkpt>
      <trkpt lat="45.56203" lon="5.85566">
        <ele>472.294693</ele>
        <time>2010-08-08T13:28:28Z</time>
      </trkpt>
      <trkpt lat="45.56195" lon="5.85562">
        <ele>475.292506</ele>
        <time>2010-08-08T13:28:31Z</time>
      </trkpt>
      <trkpt lat="45.56187" lon="5.85558">
        <ele>478.223008</ele>
        <time>2010-08-08T13:28:34Z</time>
      </trkpt>
      <trkpt lat="45.5618" lon="5.85555">
        <ele>480.243024</ele>
        <time>2010-08-08T13:28:37Z</time>
      </trkpt>
      <trkpt lat="45.56173" lon="5.85551">
        <ele>481.321206</ele>
        <time>2010-08-08T13:28:40Z</time>
      </trkpt>
      <trkpt lat="45.56166" lon="5.85548">
        <ele>481.832771</ele>
        <time>2010-08-08T13:28:43Z</time>
      </trkpt>
      <trkpt lat="45.56162" lon="5.85546">
        <ele>482.166239</ele>
        <time>2010-08-08T13:28:46Z</time>
      </trkpt>
      <trkpt lat="45.56158" lon="5.85545">
        <ele>482.409417</ele>
        <time>2010-08-08T13:28:49Z</time>
      </trkpt>
      <trkpt lat="45.56157" lon="5.85558">
        <ele>482.497266</ele>
        <time>2010-08-08T13:29:00Z</time>
      </trkpt>
      <trkpt lat="45.5616" lon="5.85563">
        <ele>482.494039</ele>
        <time>2010-08-08T13:29:03Z</time>
      </trkpt>
      <trkpt lat="45.56163" lon="5.85571">
        <ele>482.328404</ele>
        <time>2010-08-08T13:29:06Z</time>
      </trkpt>
      <trkpt lat="45.56165" lon="5.85576">
        <ele>481.948784</ele>
        <time>2010-08-08T13:29:08Z</time>
      </trkpt>
      <trkpt lat="45.56169" lon="5.85584">
        <ele>481.572338</ele>
        <time>2010-08-08T13:29:11Z</time>
      </trkpt>
      <trkpt lat="45.56171" lon="5.8559">
        <ele>481.397426</ele>
        <time>2010-08-08T13:29:14Z</time>
      </trkpt>
      <trkpt lat="45.56172" lon="5.85594">
        <ele>481.373155</ele>
        <time>2010-08-08T13:29:17Z</time>
      </trkpt>
      <trkpt lat="45.56176" lon="5.85597">
        <ele>481.542919</ele>
        <time>2010-08-08T13:29:20Z</time>
      </trkpt>
      <trkpt lat="45.56178" lon="5.85592">
        <ele>482.209834</ele>
        <time>2010-08-08T13:29:22Z</time>
      </trkpt>
      <trkpt lat="45.56171" lon="5.85573">
        <ele>483.451292</ele>
        <time>2010-08-08T13:29:31Z</time>
      </trkpt>
      <trkpt lat="45.56169" lon="5.85568">
        <ele>484.865329</ele>
        <time>2010-08-08T13:29:33Z</time>
      </trkpt>
      <trkpt lat="45.56147" lon="5.85534">
        <ele>487.657886</ele>
        <time>2010-08-08T13:36:27Z</time>
      </trkpt>
      <trkpt lat="45.56144" lon="5.85525">
        <ele>488.275117</ele>
        <time>2010-08-08T13:36:29Z</time>
      </trkpt>
      <trkpt lat="45.56136" lon="5.85507">
        <ele>489.740303</ele>
        <time>2010-08-08T13:36:32Z</time>
      </trkpt>
      <trkpt lat="45.56128" lon="5.85486">
        <ele>495.026797</ele>
        <time>2010-08-08T13:36:35Z</time>
      </trkpt>
      <trkpt lat="45.56121" lon="5.85464">
        <ele>505.142822</ele>
        <time>2010-08-08T13:36:38Z</time>
      </trkpt>
      <trkpt lat="45.56116" lon="5.85441">
        <ele>514.559764</ele>
        <time>2010-08-08T13:36:41Z</time>
      </trkpt>
      <trkpt lat="45.56111" lon="5.85419">
        <ele>518.758705</ele>
        <time>2010-08-08T13:36:44Z</time>
      </trkpt>
      <trkpt lat="45.56109" lon="5.85406">
        <ele>519.094889</ele>
        <time>2010-08-08T13:36:46Z</time>
      </trkpt>
      <trkpt lat="45.56107" lon="5.85394">
        <ele>517.757149</ele>
        <time>2010-08-08T13:36:48Z</time>
      </trkpt>
      <trkpt lat="45.56105" lon="5.85383">
        <ele>516.123084</ele>
        <time>2010-08-08T13:36:50Z</time>
      </trkpt>
      <trkpt lat="45.56102" lon="5.85369">
        <ele>514.881309</ele>
        <time>2010-08-08T13:36:53Z</time>
      </trkpt>
      <trkpt lat="45.56101" lon="5.8536">
        <ele>514.136762</ele>
        <time>2010-08-08T13:36:55Z</time>
      </trkpt>
      <trkpt lat="45.561" lon="5.85347">
        <ele>513.67471</ele>
        <time>2010-08-08T13:36:58Z</time>
      </trkpt>
      <trkpt lat="45.56098" lon="5.85336">
        <ele>513.263046</ele>
        <time>2010-08-08T13:37:01Z</time>
      </trkpt>
      <trkpt lat="45.56097" lon="5.85328">
        <ele>512.829149</ele>
        <time>2010-08-08T13:37:03Z</time>
      </trkpt>
      <trkpt lat="45.56097" lon="5.85321">
        <ele>512.481989</ele>
        <time>2010-08-08T13:37:05Z</time>
      </trkpt>
      <trkpt lat="45.56096" lon="5.85311">
        <ele>512.344562</ele>
        <time>2010-08-08T13:37:08Z</time>
      </trkpt>
      <trkpt lat="45.56091" lon="5.85271">
        <ele>512.340136</ele>
        <time>2010-08-08T13:37:20Z</time>
      </trkpt>
      <trkpt lat="45.56091" lon="5.85271">
        <ele>512.375964</ele>
        <time>2010-08-08T13:37:23Z</time>
      </trkpt>
      <trkpt lat="45.56077" lon="5.85238">
        <ele>512.404166</ele>
        <time>2010-08-08T13:37:32Z</time>
      </trkpt>
      <trkpt lat="45.56077" lon="5.85238">
        <ele>512.332834</ele>
        <time>2010-08-08T13:37:35Z</time>
      </trkpt>
      <trkpt lat="45.56063" lon="5.85197">
        <ele>512.109786</ele>
        <time>2010-08-08T13:37:46Z</time>
      </trkpt>
      <trkpt lat="45.56062" lon="5.85167">
        <ele>511.816664</ele>
        <time>2010-08-08T13:37:54Z</time>
      </trkpt>
      <trkpt lat="45.56063" lon="5.85142">
        <ele>511.56388</ele>
        <time>2010-08-08T13:38:06Z</time>
      </trkpt>
      <trkpt lat="45.56059" lon="5.85128">
        <ele>511.457312</ele>
        <time>2010-08-08T13:38:10Z</time>
      </trkpt>
      <trkpt lat="45.56053" lon="5.85113">
        <ele>511.545118</ele>
        <time>2010-08-08T13:38:14Z</time>
      </trkpt>
      <trkpt lat="45.56047" lon="5.85101">
        <ele>511.925408</ele>
        <time>2010-08-08T13:38:18Z</time>
      </trkpt>
      <trkpt lat="45.56036" lon="5.85089">
        <ele>512.741894</ele>
        <time>2010-08-08T13:38:24Z</time>
      </trkpt>
      <trkpt lat="45.5603" lon="5.85075">
        <ele>513.862184</ele>
        <time>2010-08-08T13:38:28Z</time>
      </trkpt>
      <trkpt lat="45.56028" lon="5.85061">
        <ele>515.004313</ele>
        <time>2010-08-08T13:38:33Z</time>
      </trkpt>
      <trkpt lat="45.5603" lon="5.85033">
        <ele>515.938125</ele>
        <time>2010-08-08T13:38:43Z</time>
      </trkpt>
      <trkpt lat="45.56029" lon="5.85017">
        <ele>516.453079</ele>
        <time>2010-08-08T13:38:50Z</time>
      </trkpt>
      <trkpt lat="45.56026" lon="5.84978">
        <ele>516.574244</ele>
        <time>2010-08-08T13:39:03Z</time>
      </trkpt>
      <trkpt lat="45.56024" lon="5.84975">
        <ele>516.380455</ele>
        <time>2010-08-08T13:39:05Z</time>
      </trkpt>
      <trkpt lat="45.56017" lon="5.84977">
        <ele>515.944223</ele>
        <time>2010-08-08T13:39:11Z</time>
      </trkpt>
      <trkpt lat="45.56015" lon="5.84979">
        <ele>515.256872</ele>
        <time>2010-08-08T13:39:14Z</time>
      </trkpt>
      <trkpt lat="45.56012" lon="5.84983">
        <ele>514.214147</ele>
        <time>2010-08-08T13:39:18Z</time>
      </trkpt>
      <trkpt lat="45.5601" lon="5.84987">
        <ele>513.093552</ele>
        <time>2010-08-08T13:39:22Z</time>
      </trkpt>
      <trkpt lat="45.56011" lon="5.84992">
        <ele>512.40982</ele>
        <time>2010-08-08T13:39:26Z</time>
      </trkpt>
      <trkpt lat="45.56011" lon="5.84996">
        <ele>512.214959</ele>
        <time>2010-08-08T13:39:29Z</time>
      </trkpt>
      <trkpt lat="45.56012" lon="5.85001">
        <ele>512.40142</ele>
        <time>2010-08-08T13:39:32Z</time>
      </trkpt>
      <trkpt lat="45.56011" lon="5.85008">
        <ele>513.129494</ele>
        <time>2010-08-08T13:39:35Z</time>
      </trkpt>
      <trkpt lat="45.56011" lon="5.85015">
        <ele>514.412186</ele>
        <time>2010-08-08T13:39:39Z</time>
      </trkpt>
      <trkpt lat="45.5601" lon="5.85019">
        <ele>515.839802</ele>
        <time>2010-08-08T13:39:41Z</time>
      </trkpt>
      <trkpt lat="45.5601" lon="5.85025">
        <ele>517.080198</ele>
        <time>2010-08-08T13:39:44Z</time>
      </trkpt>
      <trkpt lat="45.56008" lon="5.85031">
        <ele>518.138516</ele>
        <time>2010-08-08T13:39:47Z</time>
      </trkpt>
      <trkpt lat="45.56001" lon="5.85035">
        <ele>519.113262</ele>
        <time>2010-08-08T13:39:52Z</time>
      </trkpt>
      <trkpt lat="45.55997" lon="5.85031">
        <ele>519.938864</ele>
        <time>2010-08-08T13:39:55Z</time>
      </trkpt>
      <trkpt lat="45.55994" lon="5.85026">
        <ele>520.558318</ele>
        <time>2010-08-08T13:39:58Z</time>
      </trkpt>
      <trkpt lat="45.55991" lon="5.85015">
        <ele>521.044881</ele>
        <time>2010-08-08T13:40:03Z</time>
      </trkpt>
      <trkpt lat="45.5599" lon="5.85011">
        <ele>521.51062</ele>
        <time>2010-08-08T13:40:05Z</time>
      </trkpt>
      <trkpt lat="45.55988" lon="5.85004">
        <ele>522.254549</ele>
        <time>2010-08-08T13:40:08Z</time>
      </trkpt>
      <trkpt lat="45.55986" lon="5.85">
        <ele>523.607768</ele>
        <time>2010-08-08T13:40:11Z</time>
      </trkpt>
      <trkpt lat="45.55983" lon="5.84987">
        <ele>525.339889</ele>
        <time>2010-08-08T13:40:16Z</time>
      </trkpt>
      <trkpt lat="45.55982" lon="5.84983">
        <ele>527.065522</ele>
        <time>2010-08-08T13:40:18Z</time>
      </trkpt>
      <trkpt lat="45.5598" lon="5.84977">
        <ele>528.657949</ele>
        <time>2010-08-08T13:40:21Z</time>
      </trkpt>
      <trkpt lat="45.55979" lon="5.84973">
        <ele>530.310607</ele>
        <time>2010-08-08T13:40:23Z</time>
      </trkpt>
      <trkpt lat="45.55978" lon="5.84967">
        <ele>532.00577</ele>
        <time>2010-08-08T13:40:26Z</time>
      </trkpt>
      <trkpt lat="45.55977" lon="5.84961">
        <ele>533.362308</ele>
        <time>2010-08-08T13:40:29Z</time>
      </trkpt>
      <trkpt lat="45.55976" lon="5.84957">
        <ele>534.293554</ele>
        <time>2010-08-08T13:40:32Z</time>
      </trkpt>
      <trkpt lat="45.55974" lon="5.8495">
        <ele>535.001476</ele>
        <time>2010-08-08T13:40:35Z</time>
      </trkpt>
      <trkpt lat="45.55973" lon="5.84946">
        <ele>535.544832</ele>
        <time>2010-08-08T13:40:37Z</time>
      </trkpt>
      <trkpt lat="45.55972" lon="5.8494">
        <ele>536.14588</ele>
        <time>2010-08-08T13:40:40Z</time>
      </trkpt>
      <trkpt lat="45.55969" lon="5.84935">
        <ele>536.975376</ele>
        <time>2010-08-08T13:40:43Z</time>
      </trkpt>
      <trkpt lat="45.55965" lon="5.84927">
        <ele>537.822042</ele>
        <time>2010-08-08T13:40:48Z</time>
      </trkpt>
      <trkpt lat="45.55962" lon="5.84923">
        <ele>538.498721</ele>
        <time>2010-08-08T13:40:51Z</time>
      </trkpt>
      <trkpt lat="45.55959" lon="5.84919">
        <ele>539.160491</ele>
        <time>2010-08-08T13:40:54Z</time>
      </trkpt>
      <trkpt lat="45.55955" lon="5.84913">
        <ele>540.135839</ele>
        <time>2010-08-08T13:40:58Z</time>
      </trkpt>
      <trkpt lat="45.5595" lon="5.84908">
        <ele>541.469046</ele>
        <time>2010-08-08T13:41:01Z</time>
      </trkpt>
      <trkpt lat="45.55946" lon="5.84903">
        <ele>543.002372</ele>
        <time>2010-08-08T13:41:04Z</time>
      </trkpt>
      <trkpt lat="45.55943" lon="5.849">
        <ele>544.563851</ele>
        <time>2010-08-08T13:41:06Z</time>
      </trkpt>
      <trkpt lat="45.55938" lon="5.84896">
        <ele>545.971673</ele>
        <time>2010-08-08T13:41:09Z</time>
      </trkpt>
      <trkpt lat="45.55934" lon="5.84894">
        <ele>547.11775</ele>
        <time>2010-08-08T13:41:11Z</time>
      </trkpt>
      <trkpt lat="45.55929" lon="5.84892">
        <ele>547.972606</ele>
        <time>2010-08-08T13:41:14Z</time>
      </trkpt>
      <trkpt lat="45.55924" lon="5.8489">
        <ele>548.565242</ele>
        <time>2010-08-08T13:41:17Z</time>
      </trkpt>
      <trkpt lat="45.5592" lon="5.84889">
        <ele>549.161481</ele>
        <time>2010-08-08T13:41:19Z</time>
      </trkpt>
      <trkpt lat="45.55917" lon="5.84888">
        <ele>549.835142</ele>
        <time>2010-08-08T13:41:21Z</time>
      </trkpt>
      <trkpt lat="45.5591" lon="5.84888">
        <ele>550.448187</ele>
        <time>2010-08-08T13:41:25Z</time>
      </trkpt>
      <trkpt lat="45.55906" lon="5.84887">
        <ele>551.1114</ele>
        <time>2010-08-08T13:41:28Z</time>
      </trkpt>
      <trkpt lat="45.55901" lon="5.84887">
        <ele>551.967786</ele>
        <time>2010-08-08T13:41:31Z</time>
      </trkpt>
      <trkpt lat="45.55896" lon="5.84888">
        <ele>552.816961</ele>
        <time>2010-08-08T13:41:34Z</time>
      </trkpt>
      <trkpt lat="45.55893" lon="5.84888">
        <ele>553.487863</ele>
        <time>2010-08-08T13:41:36Z</time>
      </trkpt>
      <trkpt lat="45.55888" lon="5.84889">
        <ele>554.006398</ele>
        <time>2010-08-08T13:41:39Z</time>
      </trkpt>
      <trkpt lat="45.55883" lon="5.8489">
        <ele>554.343341</ele>
        <time>2010-08-08T13:41:42Z</time>
      </trkpt>
      <trkpt lat="45.5588" lon="5.8489">
        <ele>554.448969</ele>
        <time>2010-08-08T13:41:44Z</time>
      </trkpt>
      <trkpt lat="45.55876" lon="5.84891">
        <ele>554.432394</ele>
        <time>2010-08-08T13:41:47Z</time>
      </trkpt>
      <trkpt lat="45.55871" lon="5.84892">
        <ele>554.389835</ele>
        <time>2010-08-08T13:41:50Z</time>
      </trkpt>
      <trkpt lat="45.55867" lon="5.84893">
        <ele>554.500733</ele>
        <time>2010-08-08T13:41:52Z</time>
      </trkpt>
      <trkpt lat="45.55862" lon="5.84895">
        <ele>554.990415</ele>
        <time>2010-08-08T13:41:55Z</time>
      </trkpt>
      <trkpt lat="45.55855" lon="5.84897">
        <ele>555.721207</ele>
        <time>2010-08-08T13:41:59Z</time>
      </trkpt>
      <trkpt lat="45.55849" lon="5.84899">
        <ele>556.545751</ele>
        <time>2010-08-08T13:42:02Z</time>
      </trkpt>
      <trkpt lat="45.55844" lon="5.84901">
        <ele>557.607713</ele>
        <time>2010-08-08T13:42:05Z</time>
      </trkpt>
      <trkpt lat="45.5584" lon="5.84902">
        <ele>558.841862</ele>
        <time>2010-08-08T13:42:07Z</time>
      </trkpt>
      <trkpt lat="45.55835" lon="5.84905">
        <ele>559.861489</ele>
        <time>2010-08-08T13:42:10Z</time>
      </trkpt>
      <trkpt lat="45.5583" lon="5.84907">
        <ele>560.552934</ele>
        <time>2010-08-08T13:42:13Z</time>
      </trkpt>
      <trkpt lat="45.55825" lon="5.84907">
        <ele>561.176526</ele>
        <time>2010-08-08T13:42:16Z</time>
      </trkpt>
      <trkpt lat="45.55821" lon="5.84907">
        <ele>562.11896</ele>
        <time>2010-08-08T13:42:18Z</time>
      </trkpt>
      <trkpt lat="45.55817" lon="5.84906">
        <ele>563.300115</ele>
        <time>2010-08-08T13:42:20Z</time>
      </trkpt>
      <trkpt lat="45.55812" lon="5.84903">
        <ele>564.334317</ele>
        <time>2010-08-08T13:42:23Z</time>
      </trkpt>
      <trkpt lat="45.55809" lon="5.84902">
        <ele>565.031452</ele>
        <time>2010-08-08T13:42:25Z</time>
      </trkpt>
      <trkpt lat="45.55804" lon="5.84899">
        <ele>565.399184</ele>
        <time>2010-08-08T13:42:28Z</time>
      </trkpt>
      <trkpt lat="45.55801" lon="5.84898">
        <ele>565.477077</ele>
        <time>2010-08-08T13:42:31Z</time>
      </trkpt>
      <trkpt lat="45.55796" lon="5.84895">
        <ele>565.430874</ele>
        <time>2010-08-08T13:42:33Z</time>
      </trkpt>
      <trkpt lat="45.55794" lon="5.84894">
        <ele>565.512116</ele>
        <time>2010-08-08T13:42:35Z</time>
      </trkpt>
      <trkpt lat="45.55791" lon="5.84892">
        <ele>565.980536</ele>
        <time>2010-08-08T13:42:37Z</time>
      </trkpt>
      <trkpt lat="45.5579" lon="5.84888">
        <ele>566.70379</ele>
        <time>2010-08-08T13:42:42Z</time>
      </trkpt>
      <trkpt lat="45.55787" lon="5.84883">
        <ele>567.252367</ele>
        <time>2010-08-08T13:42:45Z</time>
      </trkpt>
      <trkpt lat="45.55785" lon="5.84878">
        <ele>567.596985</ele>
        <time>2010-08-08T13:42:47Z</time>
      </trkpt>
      <trkpt lat="45.55783" lon="5.84873">
        <ele>567.955811</ele>
        <time>2010-08-08T13:42:50Z</time>
      </trkpt>
      <trkpt lat="45.5578" lon="5.84864">
        <ele>568.265625</ele>
        <time>2010-08-08T13:42:53Z</time>
      </trkpt>
      <trkpt lat="45.55776" lon="5.84857">
        <ele>568.396357</ele>
        <time>2010-08-08T13:42:56Z</time>
      </trkpt>
      <trkpt lat="45.55773" lon="5.84852">
        <ele>568.40639</ele>
        <time>2010-08-08T13:42:59Z</time>
      </trkpt>
      <trkpt lat="45.55767" lon="5.84846">
        <ele>568.376686</ele>
        <time>2010-08-08T13:43:02Z</time>
      </trkpt>
      <trkpt lat="45.55763" lon="5.84842">
        <ele>568.351491</ele>
        <time>2010-08-08T13:43:05Z</time>
      </trkpt>
      <trkpt lat="45.55759" lon="5.84837">
        <ele>568.341008</ele>
        <time>2010-08-08T13:43:08Z</time>
      </trkpt>
      <trkpt lat="45.55752" lon="5.84831">
        <ele>568.340304</ele>
        <time>2010-08-08T13:43:13Z</time>
      </trkpt>
      <trkpt lat="45.55747" lon="5.84827">
        <ele>568.48094</ele>
        <time>2010-08-08T13:43:16Z</time>
      </trkpt>
      <trkpt lat="45.55742" lon="5.84825">
        <ele>568.981058</ele>
        <time>2010-08-08T13:43:19Z</time>
      </trkpt>
      <trkpt lat="45.55737" lon="5.84823">
        <ele>569.711225</ele>
        <time>2010-08-08T13:43:22Z</time>
      </trkpt>
      <trkpt lat="45.55731" lon="5.84821">
        <ele>570.25597</ele>
        <time>2010-08-08T13:43:25Z</time>
      </trkpt>
      <trkpt lat="45.55726" lon="5.84819">
        <ele>570.457558</ele>
        <time>2010-08-08T13:43:28Z</time>
      </trkpt>
      <trkpt lat="45.55723" lon="5.84818">
        <ele>570.592113</ele>
        <time>2010-08-08T13:43:30Z</time>
      </trkpt>
      <trkpt lat="45.55719" lon="5.84815">
        <ele>570.891845</ele>
        <time>2010-08-08T13:43:33Z</time>
      </trkpt>
      <trkpt lat="45.55715" lon="5.84812">
        <ele>571.35525</ele>
        <time>2010-08-08T13:43:36Z</time>
      </trkpt>
      <trkpt lat="45.55712" lon="5.8481">
        <ele>572.012481</ele>
        <time>2010-08-08T13:43:38Z</time>
      </trkpt>
      <trkpt lat="45.55709" lon="5.84808">
        <ele>572.907004</ele>
        <time>2010-08-08T13:43:40Z</time>
      </trkpt>
      <trkpt lat="45.55706" lon="5.84805">
        <ele>573.786561</ele>
        <time>2010-08-08T13:43:43Z</time>
      </trkpt>
      <trkpt lat="45.55702" lon="5.84802">
        <ele>574.469444</ele>
        <time>2010-08-08T13:43:46Z</time>
      </trkpt>
      <trkpt lat="45.55697" lon="5.84797">
        <ele>574.988331</ele>
        <time>2010-08-08T13:43:51Z</time>
      </trkpt>
      <trkpt lat="45.55695" lon="5.84794">
        <ele>575.322125</ele>
        <time>2010-08-08T13:43:54Z</time>
      </trkpt>
      <trkpt lat="45.55692" lon="5.84791">
        <ele>575.563463</ele>
        <time>2010-08-08T13:43:57Z</time>
      </trkpt>
      <trkpt lat="45.5569" lon="5.84787">
        <ele>576.044</ele>
        <time>2010-08-08T13:44:00Z</time>
      </trkpt>
      <trkpt lat="45.55685" lon="5.84779">
        <ele>576.73075</ele>
        <time>2010-08-08T13:44:07Z</time>
      </trkpt>
      <trkpt lat="45.55683" lon="5.84775">
        <ele>577.386603</ele>
        <time>2010-08-08T13:44:13Z</time>
      </trkpt>
      <trkpt lat="45.55682" lon="5.84772">
        <ele>577.940099</ele>
        <time>2010-08-08T13:44:16Z</time>
      </trkpt>
      <trkpt lat="45.5568" lon="5.84769">
        <ele>578.583976</ele>
        <time>2010-08-08T13:44:20Z</time>
      </trkpt>
      <trkpt lat="45.55678" lon="5.84762">
        <ele>579.42242</ele>
        <time>2010-08-08T13:44:25Z</time>
      </trkpt>
      <trkpt lat="45.55677" lon="5.84757">
        <ele>580.145803</ele>
        <time>2010-08-08T13:44:28Z</time>
      </trkpt>
      <trkpt lat="45.55676" lon="5.84752">
        <ele>580.727227</ele>
        <time>2010-08-08T13:44:31Z</time>
      </trkpt>
      <trkpt lat="45.55674" lon="5.84744">
        <ele>581.608482</ele>
        <time>2010-08-08T13:44:38Z</time>
      </trkpt>
      <trkpt lat="45.55669" lon="5.84729">
        <ele>582.776016</ele>
        <time>2010-08-08T13:44:43Z</time>
      </trkpt>
      <trkpt lat="45.55667" lon="5.84721">
        <ele>583.935217</ele>
        <time>2010-08-08T13:44:46Z</time>
      </trkpt>
      <trkpt lat="45.55665" lon="5.84713">
        <ele>585.006582</ele>
        <time>2010-08-08T13:44:49Z</time>
      </trkpt>
      <trkpt lat="45.55663" lon="5.84705">
        <ele>586.29063</ele>
        <time>2010-08-08T13:44:52Z</time>
      </trkpt>
      <trkpt lat="45.55662" lon="5.84698">
        <ele>587.995251</ele>
        <time>2010-08-08T13:44:55Z</time>
      </trkpt>
      <trkpt lat="45.55661" lon="5.84693">
        <ele>589.719914</ele>
        <time>2010-08-08T13:44:57Z</time>
      </trkpt>
      <trkpt lat="45.5566" lon="5.84689">
        <ele>591.06346</ele>
        <time>2010-08-08T13:44:59Z</time>
      </trkpt>
      <trkpt lat="45.5566" lon="5.84681">
        <ele>591.976531</ele>
        <time>2010-08-08T13:45:03Z</time>
      </trkpt>
      <trkpt lat="45.55659" lon="5.84674">
        <ele>592.418502</ele>
        <time>2010-08-08T13:45:06Z</time>
      </trkpt>
      <trkpt lat="45.55659" lon="5.8467">
        <ele>592.628872</ele>
        <time>2010-08-08T13:45:08Z</time>
      </trkpt>
      <trkpt lat="45.55659" lon="5.84664">
        <ele>593.0553</ele>
        <time>2010-08-08T13:45:11Z</time>
      </trkpt>
      <trkpt lat="45.55658" lon="5.8466">
        <ele>593.848364</ele>
        <time>2010-08-08T13:45:14Z</time>
      </trkpt>
      <trkpt lat="45.55657" lon="5.84653">
        <ele>594.855565</ele>
        <time>2010-08-08T13:45:17Z</time>
      </trkpt>
      <trkpt lat="45.55656" lon="5.84646">
        <ele>595.919328</ele>
        <time>2010-08-08T13:45:20Z</time>
      </trkpt>
      <trkpt lat="45.55655" lon="5.84639">
        <ele>596.96461</ele>
        <time>2010-08-08T13:45:23Z</time>
      </trkpt>
      <trkpt lat="45.55654" lon="5.8463">
        <ele>597.979881</ele>
        <time>2010-08-08T13:45:27Z</time>
      </trkpt>
      <trkpt lat="45.55654" lon="5.84624">
        <ele>599.116026</ele>
        <time>2010-08-08T13:45:29Z</time>
      </trkpt>
      <trkpt lat="45.55653" lon="5.8462">
        <ele>600.469426</ele>
        <time>2010-08-08T13:45:31Z</time>
      </trkpt>
      <trkpt lat="45.55652" lon="5.84612">
        <ele>601.833944</ele>
        <time>2010-08-08T13:45:34Z</time>
      </trkpt>
      <trkpt lat="45.55652" lon="5.84608">
        <ele>602.868567</ele>
        <time>2010-08-08T13:45:36Z</time>
      </trkpt>
      <trkpt lat="45.55651" lon="5.84603">
        <ele>603.534143</ele>
        <time>2010-08-08T13:45:38Z</time>
      </trkpt>
      <trkpt lat="45.55649" lon="5.84596">
        <ele>603.995833</ele>
        <time>2010-08-08T13:45:41Z</time>
      </trkpt>
      <trkpt lat="45.55648" lon="5.8459">
        <ele>604.291548</ele>
        <time>2010-08-08T13:45:44Z</time>
      </trkpt>
      <trkpt lat="45.55646" lon="5.84583">
        <ele>604.382371</ele>
        <time>2010-08-08T13:45:47Z</time>
      </trkpt>
      <trkpt lat="45.55644" lon="5.84577">
        <ele>604.504588</ele>
        <time>2010-08-08T13:45:49Z</time>
      </trkpt>
      <trkpt lat="45.55642" lon="5.8457">
        <ele>604.826601</ele>
        <time>2010-08-08T13:45:52Z</time>
      </trkpt>
      <trkpt lat="45.55639" lon="5.84564">
        <ele>605.310277</ele>
        <time>2010-08-08T13:45:55Z</time>
      </trkpt>
      <trkpt lat="45.55636" lon="5.84556">
        <ele>605.976402</ele>
        <time>2010-08-08T13:45:59Z</time>
      </trkpt>
      <trkpt lat="45.55631" lon="5.84546">
        <ele>606.871838</ele>
        <time>2010-08-08T13:46:05Z</time>
      </trkpt>
      <trkpt lat="45.55627" lon="5.84539">
        <ele>607.887725</ele>
        <time>2010-08-08T13:46:09Z</time>
      </trkpt>
      <trkpt lat="45.55625" lon="5.84535">
        <ele>608.928851</ele>
        <time>2010-08-08T13:46:11Z</time>
      </trkpt>
      <trkpt lat="45.55623" lon="5.8453">
        <ele>609.954636</ele>
        <time>2010-08-08T13:46:13Z</time>
      </trkpt>
      <trkpt lat="45.5562" lon="5.84524">
        <ele>610.823517</ele>
        <time>2010-08-08T13:46:16Z</time>
      </trkpt>
      <trkpt lat="45.55618" lon="5.84518">
        <ele>611.460973</ele>
        <time>2010-08-08T13:46:20Z</time>
      </trkpt>
      <trkpt lat="45.55614" lon="5.84508">
        <ele>611.948741</ele>
        <time>2010-08-08T13:46:24Z</time>
      </trkpt>
      <trkpt lat="45.55611" lon="5.845">
        <ele>612.272079</ele>
        <time>2010-08-08T13:46:27Z</time>
      </trkpt>
      <trkpt lat="45.55609" lon="5.84496">
        <ele>612.376242</ele>
        <time>2010-08-08T13:46:29Z</time>
      </trkpt>
      <trkpt lat="45.55606" lon="5.84488">
        <ele>612.362443</ele>
        <time>2010-08-08T13:46:32Z</time>
      </trkpt>
      <trkpt lat="45.55603" lon="5.84481">
        <ele>612.322388</ele>
        <time>2010-08-08T13:46:35Z</time>
      </trkpt>
      <trkpt lat="45.556" lon="5.84474">
        <ele>612.2962</ele>
        <time>2010-08-08T13:46:38Z</time>
      </trkpt>
      <trkpt lat="45.55596" lon="5.84461">
        <ele>612.287919</ele>
        <time>2010-08-08T13:46:43Z</time>
      </trkpt>
      <trkpt lat="45.55593" lon="5.8445">
        <ele>612.289155</ele>
        <time>2010-08-08T13:46:49Z</time>
      </trkpt>
      <trkpt lat="45.55591" lon="5.84442">
        <ele>612.430621</ele>
        <time>2010-08-08T13:46:52Z</time>
      </trkpt>
      <trkpt lat="45.55589" lon="5.84434">
        <ele>612.930811</ele>
        <time>2010-08-08T13:46:55Z</time>
      </trkpt>
      <trkpt lat="45.55587" lon="5.84426">
        <ele>613.660796</ele>
        <time>2010-08-08T13:46:58Z</time>
      </trkpt>
      <trkpt lat="45.55585" lon="5.84413">
        <ele>614.205383</ele>
        <time>2010-08-08T13:47:02Z</time>
      </trkpt>
      <trkpt lat="45.55584" lon="5.84404">
        <ele>614.406904</ele>
        <time>2010-08-08T13:47:05Z</time>
      </trkpt>
      <trkpt lat="45.55584" lon="5.84399">
        <ele>614.265099</ele>
        <time>2010-08-08T13:47:07Z</time>
      </trkpt>
      <trkpt lat="45.55584" lon="5.84391">
        <ele>613.845061</ele>
        <time>2010-08-08T13:47:10Z</time>
      </trkpt>
      <trkpt lat="45.55583" lon="5.84384">
        <ele>613.431432</ele>
        <time>2010-08-08T13:47:13Z</time>
      </trkpt>
      <trkpt lat="45.55583" lon="5.84377">
        <ele>613.240075</ele>
        <time>2010-08-08T13:47:16Z</time>
      </trkpt>
      <trkpt lat="45.55582" lon="5.84371">
        <ele>613.352211</ele>
        <time>2010-08-08T13:47:19Z</time>
      </trkpt>
      <trkpt lat="45.55582" lon="5.8436">
        <ele>613.885221</ele>
        <time>2010-08-08T13:47:24Z</time>
      </trkpt>
      <trkpt lat="45.55582" lon="5.84356">
        <ele>614.786419</ele>
        <time>2010-08-08T13:47:26Z</time>
      </trkpt>
      <trkpt lat="45.55581" lon="5.84351">
        <ele>615.706388</ele>
        <time>2010-08-08T13:47:29Z</time>
      </trkpt>
      <trkpt lat="45.55582" lon="5.84344">
        <ele>616.417759</ele>
        <time>2010-08-08T13:47:32Z</time>
      </trkpt>
      <trkpt lat="45.55581" lon="5.84339">
        <ele>616.946552</ele>
        <time>2010-08-08T13:47:35Z</time>
      </trkpt>
      <trkpt lat="45.55581" lon="5.84329">
        <ele>617.27968</ele>
        <time>2010-08-08T13:47:38Z</time>
      </trkpt>
      <trkpt lat="45.55581" lon="5.84322">
        <ele>617.517693</ele>
        <time>2010-08-08T13:47:41Z</time>
      </trkpt>
      <trkpt lat="45.55581" lon="5.84317">
        <ele>617.857742</ele>
        <time>2010-08-08T13:47:43Z</time>
      </trkpt>
      <trkpt lat="45.55582" lon="5.84313">
        <ele>618.183811</ele>
        <time>2010-08-08T13:47:45Z</time>
      </trkpt>
      <trkpt lat="45.55583" lon="5.84307">
        <ele>618.332115</ele>
        <time>2010-08-08T13:47:52Z</time>
      </trkpt>
      <trkpt lat="45.55583" lon="5.84307">
        <ele>618.350731</ele>
        <time>2010-08-08T13:48:00Z</time>
      </trkpt>
      <trkpt lat="45.55583" lon="5.84307">
        <ele>618.322474</ele>
        <time>2010-08-08T13:48:16Z</time>
      </trkpt>
      <trkpt lat="45.5558" lon="5.84263">
        <ele>618.4341</ele>
        <time>2010-08-08T13:48:54Z</time>
      </trkpt>
      <trkpt lat="45.55579" lon="5.84256">
        <ele>618.782077</ele>
        <time>2010-08-08T13:48:57Z</time>
      </trkpt>
      <trkpt lat="45.55578" lon="5.84245">
        <ele>619.564651</ele>
        <time>2010-08-08T13:49:01Z</time>
      </trkpt>
      <trkpt lat="45.55578" lon="5.8424">
        <ele>621.651002</ele>
        <time>2010-08-08T13:49:03Z</time>
      </trkpt>
      <trkpt lat="45.55576" lon="5.84221">
        <ele>624.947352</ele>
        <time>2010-08-08T13:49:09Z</time>
      </trkpt>
      <trkpt lat="45.55573" lon="5.84202">
        <ele>627.660716</ele>
        <time>2010-08-08T13:49:17Z</time>
      </trkpt>
      <trkpt lat="45.55573" lon="5.84197">
        <ele>628.76187</ele>
        <time>2010-08-08T13:49:20Z</time>
      </trkpt>
      <trkpt lat="45.55572" lon="5.84189">
        <ele>628.816802</ele>
        <time>2010-08-08T13:49:23Z</time>
      </trkpt>
      <trkpt lat="45.5557" lon="5.84172">
        <ele>628.406187</ele>
        <time>2010-08-08T13:49:28Z</time>
      </trkpt>
      <trkpt lat="45.55568" lon="5.84157">
        <ele>627.82578</ele>
        <time>2010-08-08T13:49:32Z</time>
      </trkpt>
      <trkpt lat="45.55568" lon="5.84157">
        <ele>627.368148</ele>
        <time>2010-08-08T13:49:46Z</time>
      </trkpt>
      <trkpt lat="45.55559" lon="5.8412">
        <ele>627.189396</ele>
        <time>2010-08-08T13:49:49Z</time>
      </trkpt>
      <trkpt lat="45.55557" lon="5.84112">
        <ele>627.18537</ele>
        <time>2010-08-08T13:49:52Z</time>
      </trkpt>
      <trkpt lat="45.55554" lon="5.841">
        <ele>627.509629</ele>
        <time>2010-08-08T13:49:55Z</time>
      </trkpt>
      <trkpt lat="45.55551" lon="5.8409">
        <ele>628.40476</ele>
        <time>2010-08-08T13:49:58Z</time>
      </trkpt>
      <trkpt lat="45.55551" lon="5.84086">
        <ele>629.517823</ele>
        <time>2010-08-08T13:50:00Z</time>
      </trkpt>
      <trkpt lat="45.55547" lon="5.84068">
        <ele>630.237944</ele>
        <time>2010-08-08T13:50:05Z</time>
      </trkpt>
      <trkpt lat="45.55547" lon="5.84063">
        <ele>630.462314</ele>
        <time>2010-08-08T13:50:07Z</time>
      </trkpt>
      <trkpt lat="45.55545" lon="5.84054">
        <ele>630.425854</ele>
        <time>2010-08-08T13:50:10Z</time>
      </trkpt>
      <trkpt lat="45.55544" lon="5.84049">
        <ele>630.334509</ele>
        <time>2010-08-08T13:50:13Z</time>
      </trkpt>
      <trkpt lat="45.55544" lon="5.84049">
        <ele>630.276209</ele>
        <time>2010-08-08T13:50:24Z</time>
      </trkpt>
      <trkpt lat="45.55541" lon="5.8401">
        <ele>630.258395</ele>
        <time>2010-08-08T13:50:31Z</time>
      </trkpt>
      <trkpt lat="45.55539" lon="5.83968">
        <ele>630.261611</ele>
        <time>2010-08-08T13:50:45Z</time>
      </trkpt>
      <trkpt lat="45.55534" lon="5.83943">
        <ele>630.269105</ele>
        <time>2010-08-08T13:50:56Z</time>
      </trkpt>
      <trkpt lat="45.55529" lon="5.83937">
        <ele>630.273823</ele>
        <time>2010-08-08T13:51:01Z</time>
      </trkpt>
      <trkpt lat="45.55529" lon="5.83937">
        <ele>630.275237</ele>
        <time>2010-08-08T13:51:15Z</time>
      </trkpt>
      <trkpt lat="45.55529" lon="5.83937">
        <ele>630.274955</ele>
        <time>2010-08-08T13:51:27Z</time>
      </trkpt>
      <trkpt lat="45.55509" lon="5.83917">
        <ele>630.550696</ele>
        <time>2010-08-08T13:51:32Z</time>
      </trkpt>
      <trkpt lat="45.55509" lon="5.83917">
        <ele>631.270099</ele>
        <time>2010-08-08T13:51:45Z</time>
      </trkpt>
      <trkpt lat="45.55509" lon="5.83917">
        <ele>631.769822</ele>
        <time>2010-08-08T13:52:03Z</time>
      </trkpt>
      <trkpt lat="45.5549" lon="5.83906">
        <ele>631.497791</ele>
        <time>2010-08-08T13:53:13Z</time>
      </trkpt>
      <trkpt lat="45.5549" lon="5.83906">
        <ele>630.911816</ele>
        <time>2010-08-08T13:53:17Z</time>
      </trkpt>
      <trkpt lat="45.5549" lon="5.83906">
        <ele>630.54869</ele>
        <time>2010-08-08T13:53:30Z</time>
      </trkpt>
      <trkpt lat="45.55492" lon="5.83947">
        <ele>630.474051</ele>
        <time>2010-08-08T14:01:00Z</time>
      </trkpt>
      <trkpt lat="45.5549" lon="5.83952">
        <ele>630.579675</ele>
        <time>2010-08-08T14:01:03Z</time>
      </trkpt>
      <trkpt lat="45.55489" lon="5.83956">
        <ele>634.650205</ele>
        <time>2010-08-08T14:01:05Z</time>
      </trkpt>
      <trkpt lat="45.55488" lon="5.83961">
        <ele>649.260723</ele>
        <time>2010-08-08T14:01:08Z</time>
      </trkpt>
      <trkpt lat="45.55486" lon="5.83965">
        <ele>670.961534</ele>
        <time>2010-08-08T14:01:11Z</time>
      </trkpt>
      <trkpt lat="45.55486" lon="5.83974">
        <ele>687.400468</ele>
        <time>2010-08-08T14:01:16Z</time>
      </trkpt>
      <trkpt lat="45.55489" lon="5.83978">
        <ele>693.578943</ele>
        <time>2010-08-08T14:01:18Z</time>
      </trkpt>
      <trkpt lat="45.5549" lon="5.83981">
        <ele>693.402945</ele>
        <time>2010-08-08T14:01:20Z</time>
      </trkpt>
      <trkpt lat="45.55491" lon="5.83986">
        <ele>691.116047</ele>
        <time>2010-08-08T14:01:23Z</time>
      </trkpt>
      <trkpt lat="45.55488" lon="5.83992">
        <ele>688.914178</ele>
        <time>2010-08-08T14:01:30Z</time>
      </trkpt>
      <trkpt lat="45.55487" lon="5.83996">
        <ele>687.377693</ele>
        <time>2010-08-08T14:01:33Z</time>
      </trkpt>
      <trkpt lat="45.55483" lon="5.84003">
        <ele>686.317327</ele>
        <time>2010-08-08T14:01:35Z</time>
      </trkpt>
      <trkpt lat="45.55475" lon="5.8402">
        <ele>684.872692</ele>
        <time>2010-08-08T14:01:40Z</time>
      </trkpt>
      <trkpt lat="45.55471" lon="5.84027">
        <ele>682.532206</ele>
        <time>2010-08-08T14:01:42Z</time>
      </trkpt>
      <trkpt lat="45.55468" lon="5.84034">
        <ele>679.960616</ele>
        <time>2010-08-08T14:01:45Z</time>
      </trkpt>
      <trkpt lat="45.5546" lon="5.84046">
        <ele>677.767215</ele>
        <time>2010-08-08T14:01:48Z</time>
      </trkpt>
      <trkpt lat="45.5545" lon="5.84056">
        <ele>675.78587</ele>
        <time>2010-08-08T14:01:52Z</time>
      </trkpt>
      <trkpt lat="45.55441" lon="5.84063">
        <ele>673.856229</ele>
        <time>2010-08-08T14:01:57Z</time>
      </trkpt>
      <trkpt lat="45.55418" lon="5.84085">
        <ele>671.766869</ele>
        <time>2010-08-08T14:02:08Z</time>
      </trkpt>
      <trkpt lat="45.55393" lon="5.84103">
        <ele>669.010333</ele>
        <time>2010-08-08T14:02:19Z</time>
      </trkpt>
      <trkpt lat="45.55393" lon="5.84103">
        <ele>665.838347</ele>
        <time>2010-08-08T14:02:36Z</time>
      </trkpt>
      <trkpt lat="45.55366" lon="5.84111">
        <ele>662.856739</ele>
        <time>2010-08-08T14:02:40Z</time>
      </trkpt>
      <trkpt lat="45.55337" lon="5.84115">
        <ele>660.238506</ele>
        <time>2010-08-08T14:02:48Z</time>
      </trkpt>
      <trkpt lat="45.5531" lon="5.8412">
        <ele>658.290142</ele>
        <time>2010-08-08T14:02:59Z</time>
      </trkpt>
      <trkpt lat="45.55307" lon="5.84122">
        <ele>656.900511</ele>
        <time>2010-08-08T14:03:02Z</time>
      </trkpt>
      <trkpt lat="45.55307" lon="5.84122">
        <ele>655.504549</ele>
        <time>2010-08-08T14:03:17Z</time>
      </trkpt>
      <trkpt lat="45.55279" lon="5.84124">
        <ele>654.436236</ele>
        <time>2010-08-08T14:03:27Z</time>
      </trkpt>
      <trkpt lat="45.55279" lon="5.84124">
        <ele>653.952742</ele>
        <time>2010-08-08T14:03:41Z</time>
      </trkpt>
      <trkpt lat="45.55252" lon="5.84124">
        <ele>653.688963</ele>
        <time>2010-08-08T14:03:45Z</time>
      </trkpt>
      <trkpt lat="45.55252" lon="5.84124">
        <ele>653.395819</ele>
        <time>2010-08-08T14:04:01Z</time>
      </trkpt>
      <trkpt lat="45.55226" lon="5.84123">
        <ele>653.015442</ele>
        <time>2010-08-08T14:04:06Z</time>
      </trkpt>
      <trkpt lat="45.55226" lon="5.84123">
        <ele>652.595725</ele>
        <time>2010-08-08T14:04:19Z</time>
      </trkpt>
      <trkpt lat="45.55196" lon="5.84117">
        <ele>652.156931</ele>
        <time>2010-08-08T14:04:23Z</time>
      </trkpt>
      <trkpt lat="45.55168" lon="5.84109">
        <ele>651.412398</ele>
        <time>2010-08-08T14:04:32Z</time>
      </trkpt>
      <trkpt lat="45.55151" lon="5.84106">
        <ele>649.910736</ele>
        <time>2010-08-08T14:04:38Z</time>
      </trkpt>
      <trkpt lat="45.55145" lon="5.84104">
        <ele>646.982109</ele>
        <time>2010-08-08T14:04:41Z</time>
      </trkpt>
      <trkpt lat="45.55134" lon="5.84099">
        <ele>642.172226</ele>
        <time>2010-08-08T14:04:44Z</time>
      </trkpt>
      <trkpt lat="45.55123" lon="5.84086">
        <ele>636.886619</ele>
        <time>2010-08-08T14:04:55Z</time>
      </trkpt>
      <trkpt lat="45.5511" lon="5.84076">
        <ele>633.453397</ele>
        <time>2010-08-08T14:05:04Z</time>
      </trkpt>
      <trkpt lat="45.55105" lon="5.84075">
        <ele>632.377717</ele>
        <time>2010-08-08T14:05:07Z</time>
      </trkpt>
      <trkpt lat="45.551" lon="5.84074">
        <ele>632.685224</ele>
        <time>2010-08-08T14:05:10Z</time>
      </trkpt>
      <trkpt lat="45.55094" lon="5.84073">
        <ele>634.307999</ele>
        <time>2010-08-08T14:05:13Z</time>
      </trkpt>
      <trkpt lat="45.55082" lon="5.8407">
        <ele>637.391112</ele>
        <time>2010-08-08T14:05:19Z</time>
      </trkpt>
      <trkpt lat="45.55078" lon="5.84068">
        <ele>640.588186</ele>
        <time>2010-08-08T14:05:21Z</time>
      </trkpt>
      <trkpt lat="45.55066" lon="5.8406">
        <ele>642.528364</ele>
        <time>2010-08-08T14:05:26Z</time>
      </trkpt>
      <trkpt lat="45.55055" lon="5.84053">
        <ele>643.608737</ele>
        <time>2010-08-08T14:05:31Z</time>
      </trkpt>
      <trkpt lat="45.55044" lon="5.84046">
        <ele>644.65667</ele>
        <time>2010-08-08T14:05:36Z</time>
      </trkpt>
      <trkpt lat="45.55044" lon="5.84046">
        <ele>645.669201</ele>
        <time>2010-08-08T14:05:51Z</time>
      </trkpt>
      <trkpt lat="45.55015" lon="5.8405">
        <ele>646.408366</ele>
        <time>2010-08-08T14:05:58Z</time>
      </trkpt>
      <trkpt lat="45.55007" lon="5.84067">
        <ele>646.931688</ele>
        <time>2010-08-08T14:06:05Z</time>
      </trkpt>
      <trkpt lat="45.54999" lon="5.84085">
        <ele>647.252781</ele>
        <time>2010-08-08T14:06:10Z</time>
      </trkpt>
      <trkpt lat="45.54989" lon="5.84098">
        <ele>647.621482</ele>
        <time>2010-08-08T14:06:18Z</time>
      </trkpt>
      <trkpt lat="45.54989" lon="5.84098">
        <ele>648.31922</ele>
        <time>2010-08-08T14:06:32Z</time>
      </trkpt>
      <trkpt lat="45.54962" lon="5.84115">
        <ele>649.291557</ele>
        <time>2010-08-08T14:06:39Z</time>
      </trkpt>
      <trkpt lat="45.54951" lon="5.84119">
        <ele>650.474071</ele>
        <time>2010-08-08T14:06:45Z</time>
      </trkpt>
      <trkpt lat="45.54944" lon="5.8412">
        <ele>651.618585</ele>
        <time>2010-08-08T14:06:48Z</time>
      </trkpt>
      <trkpt lat="45.54934" lon="5.84121">
        <ele>652.280474</ele>
        <time>2010-08-08T14:06:51Z</time>
      </trkpt>
      <trkpt lat="45.54918" lon="5.84122">
        <ele>652.590272</ele>
        <time>2010-08-08T14:06:59Z</time>
      </trkpt>
      <trkpt lat="45.54912" lon="5.8412">
        <ele>652.89063</ele>
        <time>2010-08-08T14:07:02Z</time>
      </trkpt>
      <trkpt lat="45.54902" lon="5.84117">
        <ele>653.166398</ele>
        <time>2010-08-08T14:07:05Z</time>
      </trkpt>
      <trkpt lat="45.54892" lon="5.84115">
        <ele>653.426366</ele>
        <time>2010-08-08T14:07:08Z</time>
      </trkpt>
      <trkpt lat="45.54886" lon="5.84114">
        <ele>653.799268</ele>
        <time>2010-08-08T14:07:10Z</time>
      </trkpt>
      <trkpt lat="45.5488" lon="5.84112">
        <ele>654.143784</ele>
        <time>2010-08-08T14:07:13Z</time>
      </trkpt>
      <trkpt lat="45.54875" lon="5.84108">
        <ele>654.296601</ele>
        <time>2010-08-08T14:07:16Z</time>
      </trkpt>
      <trkpt lat="45.54875" lon="5.84108">
        <ele>654.21616</ele>
        <time>2010-08-08T14:07:28Z</time>
      </trkpt>
      <trkpt lat="45.54846" lon="5.8405">
        <ele>653.932068</ele>
        <time>2010-08-08T14:07:57Z</time>
      </trkpt>
      <trkpt lat="45.54833" lon="5.84014">
        <ele>653.644166</ele>
        <time>2010-08-08T14:08:14Z</time>
      </trkpt>
      <trkpt lat="45.54833" lon="5.84014">
        <ele>653.467634</ele>
        <time>2010-08-08T14:08:31Z</time>
      </trkpt>
      <trkpt lat="45.54833" lon="5.84014">
        <ele>653.291823</ele>
        <time>2010-08-08T14:08:45Z</time>
      </trkpt>
      <trkpt lat="45.54807" lon="5.84025">
        <ele>653.127013</ele>
        <time>2010-08-08T14:08:45Z</time>
      </trkpt>
      <trkpt lat="45.54802" lon="5.8403">
        <ele>653.095094</ele>
        <time>2010-08-08T14:08:48Z</time>
      </trkpt>
      <trkpt lat="45.54799" lon="5.84032">
        <ele>653.118051</ele>
        <time>2010-08-08T14:08:50Z</time>
      </trkpt>
      <trkpt lat="45.54793" lon="5.84034">
        <ele>653.028926</ele>
        <time>2010-08-08T14:08:53Z</time>
      </trkpt>
      <trkpt lat="45.54775" lon="5.84041">
        <ele>652.796391</ele>
        <time>2010-08-08T14:09:03Z</time>
      </trkpt>
      <trkpt lat="45.54775" lon="5.84041">
        <ele>652.502825</ele>
        <time>2010-08-08T14:09:19Z</time>
      </trkpt>
      <trkpt lat="45.54748" lon="5.84053">
        <ele>652.255577</ele>
        <time>2010-08-08T14:09:22Z</time>
      </trkpt>
      <trkpt lat="45.54729" lon="5.8407">
        <ele>651.991133</ele>
        <time>2010-08-08T14:09:35Z</time>
      </trkpt>
      <trkpt lat="45.54726" lon="5.84072">
        <ele>651.354371</ele>
        <time>2010-08-08T14:09:40Z</time>
      </trkpt>
      <trkpt lat="45.54716" lon="5.84077">
        <ele>650.328876</ele>
        <time>2010-08-08T14:09:53Z</time>
      </trkpt>
      <trkpt lat="45.54713" lon="5.84078">
        <ele>649.462809</ele>
        <time>2010-08-08T14:09:58Z</time>
      </trkpt>
      <trkpt lat="45.5471" lon="5.84078">
        <ele>649.490143</ele>
        <time>2010-08-08T14:10:04Z</time>
      </trkpt>
      <trkpt lat="45.5471" lon="5.84078">
        <ele>650.086899</ele>
        <time>2010-08-08T14:10:10Z</time>
      </trkpt>
      <trkpt lat="45.54683" lon="5.84073">
        <ele>650.612946</ele>
        <time>2010-08-08T14:10:42Z</time>
      </trkpt>
      <trkpt lat="45.54683" lon="5.84073">
        <ele>651.220047</ele>
        <time>2010-08-08T14:10:51Z</time>
      </trkpt>
      <trkpt lat="45.54658" lon="5.8405">
        <ele>652.079396</ele>
        <time>2010-08-08T14:11:10Z</time>
      </trkpt>
      <trkpt lat="45.54653" lon="5.84049">
        <ele>653.084964</ele>
        <time>2010-08-08T14:11:13Z</time>
      </trkpt>
      <trkpt lat="45.54651" lon="5.84048">
        <ele>654.246421</ele>
        <time>2010-08-08T14:11:16Z</time>
      </trkpt>
      <trkpt lat="45.54646" lon="5.84048">
        <ele>655.247823</ele>
        <time>2010-08-08T14:11:19Z</time>
      </trkpt>
      <trkpt lat="45.54641" lon="5.84047">
        <ele>655.925905</ele>
        <time>2010-08-08T14:11:22Z</time>
      </trkpt>
      <trkpt lat="45.54636" lon="5.84046">
        <ele>656.150478</ele>
        <time>2010-08-08T14:11:25Z</time>
      </trkpt>
      <trkpt lat="45.54625" lon="5.84043">
        <ele>655.870161</ele>
        <time>2010-08-08T14:11:31Z</time>
      </trkpt>
      <trkpt lat="45.54622" lon="5.84042">
        <ele>655.457209</ele>
        <time>2010-08-08T14:11:33Z</time>
      </trkpt>
      <trkpt lat="45.54622" lon="5.84042">
        <ele>655.226551</ele>
        <time>2010-08-08T14:11:45Z</time>
      </trkpt>
      <trkpt lat="45.54601" lon="5.84016">
        <ele>655.095761</ele>
        <time>2010-08-08T14:11:50Z</time>
      </trkpt>
      <trkpt lat="45.54579" lon="5.83993">
        <ele>654.861008</ele>
        <time>2010-08-08T14:12:03Z</time>
      </trkpt>
      <trkpt lat="45.54579" lon="5.83993">
        <ele>654.529705</ele>
        <time>2010-08-08T14:12:20Z</time>
      </trkpt>
      <trkpt lat="45.54551" lon="5.83998">
        <ele>654.284287</ele>
        <time>2010-08-08T14:12:25Z</time>
      </trkpt>
      <trkpt lat="45.54551" lon="5.83998">
        <ele>654.17493</ele>
        <time>2010-08-08T14:12:41Z</time>
      </trkpt>
      <trkpt lat="45.54524" lon="5.84008">
        <ele>654.127043</ele>
        <time>2010-08-08T14:12:49Z</time>
      </trkpt>
      <trkpt lat="45.54524" lon="5.84008">
        <ele>654.023296</ele>
        <time>2010-08-08T14:13:04Z</time>
      </trkpt>
      <trkpt lat="45.54497" lon="5.84018">
        <ele>653.890983</ele>
        <time>2010-08-08T14:13:13Z</time>
      </trkpt>
      <trkpt lat="45.54489" lon="5.84031">
        <ele>654.046374</ele>
        <time>2010-08-08T14:13:18Z</time>
      </trkpt>
      <trkpt lat="45.54489" lon="5.84031">
        <ele>654.57218</ele>
        <time>2010-08-08T14:13:33Z</time>
      </trkpt>
      <trkpt lat="45.54475" lon="5.84072">
        <ele>654.843603</ele>
        <time>2010-08-08T14:13:37Z</time>
      </trkpt>
      <trkpt lat="45.54463" lon="5.8409">
        <ele>654.436963</ele>
        <time>2010-08-08T14:13:41Z</time>
      </trkpt>
      <trkpt lat="45.54457" lon="5.84098">
        <ele>653.765375</ele>
        <time>2010-08-08T14:13:43Z</time>
      </trkpt>
      <trkpt lat="45.54441" lon="5.84112">
        <ele>652.912905</ele>
        <time>2010-08-08T14:13:46Z</time>
      </trkpt>
      <trkpt lat="45.54431" lon="5.84119">
        <ele>651.395892</ele>
        <time>2010-08-08T14:13:48Z</time>
      </trkpt>
      <trkpt lat="45.54417" lon="5.84127">
        <ele>649.426943</ele>
        <time>2010-08-08T14:13:51Z</time>
      </trkpt>
      <trkpt lat="45.54408" lon="5.84131">
        <ele>647.431714</ele>
        <time>2010-08-08T14:13:53Z</time>
      </trkpt>
      <trkpt lat="45.54397" lon="5.84134">
        <ele>645.171694</ele>
        <time>2010-08-08T14:13:56Z</time>
      </trkpt>
      <trkpt lat="45.54387" lon="5.84134">
        <ele>642.443692</ele>
        <time>2010-08-08T14:14:02Z</time>
      </trkpt>
      <trkpt lat="45.54384" lon="5.84136">
        <ele>639.577406</ele>
        <time>2010-08-08T14:14:05Z</time>
      </trkpt>
      <trkpt lat="45.5438" lon="5.84138">
        <ele>636.99646</ele>
        <time>2010-08-08T14:14:08Z</time>
      </trkpt>
      <trkpt lat="45.54377" lon="5.84141">
        <ele>634.945838</ele>
        <time>2010-08-08T14:14:11Z</time>
      </trkpt>
      <trkpt lat="45.54374" lon="5.84143">
        <ele>633.606865</ele>
        <time>2010-08-08T14:14:13Z</time>
      </trkpt>
      <trkpt lat="45.54371" lon="5.84147">
        <ele>633.046094</ele>
        <time>2010-08-08T14:14:16Z</time>
      </trkpt>
      <trkpt lat="45.54368" lon="5.8415">
        <ele>633.005916</ele>
        <time>2010-08-08T14:14:19Z</time>
      </trkpt>
      <trkpt lat="45.54365" lon="5.84153">
        <ele>633.273658</ele>
        <time>2010-08-08T14:14:22Z</time>
      </trkpt>
      <trkpt lat="45.5436" lon="5.84161">
        <ele>634.018782</ele>
        <time>2010-08-08T14:14:26Z</time>
      </trkpt>
      <trkpt lat="45.54358" lon="5.84165">
        <ele>635.429312</ele>
        <time>2010-08-08T14:14:29Z</time>
      </trkpt>
      <trkpt lat="45.54356" lon="5.8417">
        <ele>637.204189</ele>
        <time>2010-08-08T14:14:32Z</time>
      </trkpt>
      <trkpt lat="45.5435" lon="5.84181">
        <ele>638.807466</ele>
        <time>2010-08-08T14:14:41Z</time>
      </trkpt>
      <trkpt lat="45.54349" lon="5.84186">
        <ele>639.901539</ele>
        <time>2010-08-08T14:14:46Z</time>
      </trkpt>
      <trkpt lat="45.54349" lon="5.8419">
        <ele>640.405613</ele>
        <time>2010-08-08T14:14:50Z</time>
      </trkpt>
      <trkpt lat="45.54348" lon="5.84196">
        <ele>640.472934</ele>
        <time>2010-08-08T14:14:55Z</time>
      </trkpt>
      <trkpt lat="45.54348" lon="5.84201">
        <ele>640.379934</ele>
        <time>2010-08-08T14:14:57Z</time>
      </trkpt>
      <trkpt lat="45.54348" lon="5.84208">
        <ele>640.290821</ele>
        <time>2010-08-08T14:14:59Z</time>
      </trkpt>
      <trkpt lat="45.54349" lon="5.84221">
        <ele>640.11213</ele>
        <time>2010-08-08T14:15:02Z</time>
      </trkpt>
      <trkpt lat="45.54352" lon="5.84246">
        <ele>639.747164</ele>
        <time>2010-08-08T14:15:08Z</time>
      </trkpt>
      <trkpt lat="45.54353" lon="5.8425">
        <ele>639.385457</ele>
        <time>2010-08-08T14:15:10Z</time>
      </trkpt>
      <trkpt lat="45.54356" lon="5.84268">
        <ele>638.941096</ele>
        <time>2010-08-08T14:15:13Z</time>
      </trkpt>
      <trkpt lat="45.54356" lon="5.84282">
        <ele>637.921681</ele>
        <time>2010-08-08T14:15:16Z</time>
      </trkpt>
      <trkpt lat="45.54354" lon="5.84299">
        <ele>636.493393</ele>
        <time>2010-08-08T14:15:19Z</time>
      </trkpt>
      <trkpt lat="45.5435" lon="5.84312">
        <ele>635.018933</ele>
        <time>2010-08-08T14:15:22Z</time>
      </trkpt>
      <trkpt lat="45.54344" lon="5.8432">
        <ele>633.411001</ele>
        <time>2010-08-08T14:15:24Z</time>
      </trkpt>
      <trkpt lat="45.54333" lon="5.84327">
        <ele>631.813298</ele>
        <time>2010-08-08T14:15:27Z</time>
      </trkpt>
      <trkpt lat="45.54326" lon="5.8433">
        <ele>630.67585</ele>
        <time>2010-08-08T14:15:29Z</time>
      </trkpt>
      <trkpt lat="45.54315" lon="5.84334">
        <ele>630.137572</ele>
        <time>2010-08-08T14:15:32Z</time>
      </trkpt>
      <trkpt lat="45.54308" lon="5.84336">
        <ele>630.056889</ele>
        <time>2010-08-08T14:15:34Z</time>
      </trkpt>
      <trkpt lat="45.54298" lon="5.84338">
        <ele>630.287764</ele>
        <time>2010-08-08T14:15:37Z</time>
      </trkpt>
      <trkpt lat="45.54292" lon="5.84338">
        <ele>630.878527</ele>
        <time>2010-08-08T14:15:39Z</time>
      </trkpt>
      <trkpt lat="45.54285" lon="5.84339">
        <ele>631.789323</ele>
        <time>2010-08-08T14:15:42Z</time>
      </trkpt>
      <trkpt lat="45.54258" lon="5.84335">
        <ele>632.700054</ele>
        <time>2010-08-08T14:16:02Z</time>
      </trkpt>
      <trkpt lat="45.5425" lon="5.84334">
        <ele>633.263565</ele>
        <time>2010-08-08T14:16:06Z</time>
      </trkpt>
      <trkpt lat="45.54245" lon="5.84334">
        <ele>633.427819</ele>
        <time>2010-08-08T14:16:08Z</time>
      </trkpt>
      <trkpt lat="45.54236" lon="5.84332">
        <ele>633.114419</ele>
        <time>2010-08-08T14:16:11Z</time>
      </trkpt>
      <trkpt lat="45.5423" lon="5.84332">
        <ele>632.319979</ele>
        <time>2010-08-08T14:16:13Z</time>
      </trkpt>
      <trkpt lat="45.54221" lon="5.8433">
        <ele>631.535525</ele>
        <time>2010-08-08T14:16:16Z</time>
      </trkpt>
      <trkpt lat="45.54211" lon="5.8433">
        <ele>631.171997</ele>
        <time>2010-08-08T14:16:19Z</time>
      </trkpt>
      <trkpt lat="45.54202" lon="5.84329">
        <ele>631.122144</ele>
        <time>2010-08-08T14:16:22Z</time>
      </trkpt>
      <trkpt lat="45.54196" lon="5.84329">
        <ele>631.188234</ele>
        <time>2010-08-08T14:16:24Z</time>
      </trkpt>
      <trkpt lat="45.54191" lon="5.84329">
        <ele>631.252135</ele>
        <time>2010-08-08T14:16:26Z</time>
      </trkpt>
      <trkpt lat="45.54184" lon="5.84329">
        <ele>631.281357</ele>
        <time>2010-08-08T14:16:29Z</time>
      </trkpt>
      <trkpt lat="45.54178" lon="5.84329">
        <ele>631.285123</ele>
        <time>2010-08-08T14:16:32Z</time>
      </trkpt>
      <trkpt lat="45.54172" lon="5.84328">
        <ele>631.27963</ele>
        <time>2010-08-08T14:16:35Z</time>
      </trkpt>
      <trkpt lat="45.54167" lon="5.84328">
        <ele>631.274425</ele>
        <time>2010-08-08T14:16:38Z</time>
      </trkpt>
      <trkpt lat="45.54162" lon="5.84328">
        <ele>631.410255</ele>
        <time>2010-08-08T14:16:41Z</time>
      </trkpt>
      <trkpt lat="45.54158" lon="5.84328">
        <ele>631.769865</ele>
        <time>2010-08-08T14:16:44Z</time>
      </trkpt>
      <trkpt lat="45.54152" lon="5.84326">
        <ele>632.139756</ele>
        <time>2010-08-08T14:16:49Z</time>
      </trkpt>
      <trkpt lat="45.54148" lon="5.84325">
        <ele>632.315441</ele>
        <time>2010-08-08T14:16:52Z</time>
      </trkpt>
      <trkpt lat="45.54145" lon="5.84325">
        <ele>632.342159</ele>
        <time>2010-08-08T14:16:55Z</time>
      </trkpt>
      <trkpt lat="45.54134" lon="5.84325">
        <ele>632.312194</ele>
        <time>2010-08-08T14:17:00Z</time>
      </trkpt>
      <trkpt lat="45.54129" lon="5.84324">
        <ele>632.282049</ele>
        <time>2010-08-08T14:17:02Z</time>
      </trkpt>
      <trkpt lat="45.54125" lon="5.84324">
        <ele>632.267918</ele>
        <time>2010-08-08T14:17:04Z</time>
      </trkpt>
      <trkpt lat="45.54119" lon="5.84324">
        <ele>632.542237</ele>
        <time>2010-08-08T14:17:06Z</time>
      </trkpt>
      <trkpt lat="45.54102" lon="5.84324">
        <ele>633.264516</ele>
        <time>2010-08-08T14:17:13Z</time>
      </trkpt>
      <trkpt lat="45.54094" lon="5.84327">
        <ele>634.005842</ele>
        <time>2010-08-08T14:17:16Z</time>
      </trkpt>
      <trkpt lat="45.54089" lon="5.84335">
        <ele>634.357501</ele>
        <time>2010-08-08T14:17:19Z</time>
      </trkpt>
      <trkpt lat="45.54085" lon="5.84347">
        <ele>634.410716</ele>
        <time>2010-08-08T14:17:23Z</time>
      </trkpt>
      <trkpt lat="45.54073" lon="5.84353">
        <ele>634.212358</ele>
        <time>2010-08-08T14:17:26Z</time>
      </trkpt>
      <trkpt lat="45.54058" lon="5.84356">
        <ele>633.653873</ele>
        <time>2010-08-08T14:17:29Z</time>
      </trkpt>
      <trkpt lat="45.5405" lon="5.84357">
        <ele>632.481728</ele>
        <time>2010-08-08T14:17:31Z</time>
      </trkpt>
      <trkpt lat="45.54038" lon="5.84359">
        <ele>630.576945</ele>
        <time>2010-08-08T14:17:34Z</time>
      </trkpt>
      <trkpt lat="45.54027" lon="5.8436">
        <ele>628.552074</ele>
        <time>2010-08-08T14:17:37Z</time>
      </trkpt>
      <trkpt lat="45.54018" lon="5.8436">
        <ele>627.295799</ele>
        <time>2010-08-08T14:17:40Z</time>
      </trkpt>
      <trkpt lat="45.5401" lon="5.84358">
        <ele>626.928054</ele>
        <time>2010-08-08T14:17:43Z</time>
      </trkpt>
      <trkpt lat="45.5401" lon="5.84358">
        <ele>627.009463</ele>
        <time>2010-08-08T14:17:44Z</time>
      </trkpt>
      <trkpt lat="45.53984" lon="5.84374">
        <ele>627.313637</ele>
        <time>2010-08-08T14:18:01Z</time>
      </trkpt>
      <trkpt lat="45.53984" lon="5.84374">
        <ele>627.775158</ele>
        <time>2010-08-08T14:18:04Z</time>
      </trkpt>
      <trkpt lat="45.53962" lon="5.84404">
        <ele>628.173718</ele>
        <time>2010-08-08T14:18:14Z</time>
      </trkpt>
      <trkpt lat="45.53952" lon="5.84403">
        <ele>628.341924</ele>
        <time>2010-08-08T14:18:18Z</time>
      </trkpt>
      <trkpt lat="45.53931" lon="5.84377">
        <ele>628.631206</ele>
        <time>2010-08-08T14:18:29Z</time>
      </trkpt>
      <trkpt lat="45.53925" lon="5.84359">
        <ele>629.312785</ele>
        <time>2010-08-08T14:18:35Z</time>
      </trkpt>
      <trkpt lat="45.53918" lon="5.84344">
        <ele>630.019242</ele>
        <time>2010-08-08T14:18:41Z</time>
      </trkpt>
      <trkpt lat="45.53911" lon="5.84335">
        <ele>630.356278</ele>
        <time>2010-08-08T14:18:45Z</time>
      </trkpt>
      <trkpt lat="45.53909" lon="5.84333">
        <ele>630.408431</ele>
        <time>2010-08-08T14:18:47Z</time>
      </trkpt>
      <trkpt lat="45.53901" lon="5.84323">
        <ele>630.213442</ele>
        <time>2010-08-08T14:18:50Z</time>
      </trkpt>
      <trkpt lat="45.53891" lon="5.84313">
        <ele>629.657791</ele>
        <time>2010-08-08T14:18:53Z</time>
      </trkpt>
      <trkpt lat="45.53883" lon="5.84307">
        <ele>628.901353</ele>
        <time>2010-08-08T14:18:56Z</time>
      </trkpt>
      <trkpt lat="45.53873" lon="5.84299">
        <ele>628.352676</ele>
        <time>2010-08-08T14:19:01Z</time>
      </trkpt>
      <trkpt lat="45.53861" lon="5.84292">
        <ele>628.155616</ele>
        <time>2010-08-08T14:19:07Z</time>
      </trkpt>
      <trkpt lat="45.53851" lon="5.84289">
        <ele>628.440119</ele>
        <time>2010-08-08T14:19:11Z</time>
      </trkpt>
      <trkpt lat="45.53841" lon="5.84284">
        <ele>629.360355</ele>
        <time>2010-08-08T14:19:19Z</time>
      </trkpt>
      <trkpt lat="45.53828" lon="5.84279">
        <ele>630.918158</ele>
        <time>2010-08-08T14:19:28Z</time>
      </trkpt>
      <trkpt lat="45.53817" lon="5.84277">
        <ele>632.733516</ele>
        <time>2010-08-08T14:19:34Z</time>
      </trkpt>
      <trkpt lat="45.53804" lon="5.84275">
        <ele>634.345641</ele>
        <time>2010-08-08T14:19:43Z</time>
      </trkpt>
      <trkpt lat="45.53795" lon="5.84271">
        <ele>635.69082</ele>
        <time>2010-08-08T14:19:52Z</time>
      </trkpt>
      <trkpt lat="45.53795" lon="5.84271">
        <ele>636.775362</ele>
        <time>2010-08-08T14:20:04Z</time>
      </trkpt>
      <trkpt lat="45.53822" lon="5.84277">
        <ele>637.483985</ele>
        <time>2010-08-08T14:20:21Z</time>
      </trkpt>
      <trkpt lat="45.53829" lon="5.84278">
        <ele>637.963822</ele>
        <time>2010-08-08T14:20:23Z</time>
      </trkpt>
      <trkpt lat="45.53839" lon="5.8428">
        <ele>638.260919</ele>
        <time>2010-08-08T14:20:26Z</time>
      </trkpt>
      <trkpt lat="45.53845" lon="5.84282">
        <ele>638.347609</ele>
        <time>2010-08-08T14:20:28Z</time>
      </trkpt>
      <trkpt lat="45.53854" lon="5.84285">
        <ele>638.328147</ele>
        <time>2010-08-08T14:20:31Z</time>
      </trkpt>
      <trkpt lat="45.53863" lon="5.84289">
        <ele>638.150635</ele>
        <time>2010-08-08T14:20:34Z</time>
      </trkpt>
      <trkpt lat="45.53873" lon="5.84294">
        <ele>637.76671</ele>
        <time>2010-08-08T14:20:37Z</time>
      </trkpt>
      <trkpt lat="45.53883" lon="5.84299">
        <ele>637.39041</ele>
        <time>2010-08-08T14:20:40Z</time>
      </trkpt>
      <trkpt lat="45.53893" lon="5.84306">
        <ele>637.078656</ele>
        <time>2010-08-08T14:20:43Z</time>
      </trkpt>
      <trkpt lat="45.53899" lon="5.84311">
        <ele>636.695457</ele>
        <time>2010-08-08T14:20:45Z</time>
      </trkpt>
      <trkpt lat="45.53904" lon="5.84318">
        <ele>636.081596</ele>
        <time>2010-08-08T14:20:47Z</time>
      </trkpt>
      <trkpt lat="45.53912" lon="5.84331">
        <ele>635.217201</ele>
        <time>2010-08-08T14:20:50Z</time>
      </trkpt>
      <trkpt lat="45.53918" lon="5.84342">
        <ele>634.327574</ele>
        <time>2010-08-08T14:20:52Z</time>
      </trkpt>
      <trkpt lat="45.53927" lon="5.8436">
        <ele>633.648903</ele>
        <time>2010-08-08T14:20:55Z</time>
      </trkpt>
      <trkpt lat="45.53935" lon="5.8438">
        <ele>633.253862</ele>
        <time>2010-08-08T14:20:58Z</time>
      </trkpt>
      <trkpt lat="45.53938" lon="5.84394">
        <ele>633.011996</ele>
        <time>2010-08-08T14:21:00Z</time>
      </trkpt>
      <trkpt lat="45.53938" lon="5.84409">
        <ele>632.548511</ele>
        <time>2010-08-08T14:21:02Z</time>
      </trkpt>
      <trkpt lat="45.53936" lon="5.84442">
        <ele>631.736557</ele>
        <time>2010-08-08T14:21:05Z</time>
      </trkpt>
      <trkpt lat="45.53931" lon="5.84477">
        <ele>630.863886</ele>
        <time>2010-08-08T14:21:08Z</time>
      </trkpt>
      <trkpt lat="45.53919" lon="5.84495">
        <ele>630.162656</ele>
        <time>2010-08-08T14:21:11Z</time>
      </trkpt>
      <trkpt lat="45.53909" lon="5.84508">
        <ele>629.628011</ele>
        <time>2010-08-08T14:21:14Z</time>
      </trkpt>
      <trkpt lat="45.53899" lon="5.84512">
        <ele>629.149416</ele>
        <time>2010-08-08T14:21:17Z</time>
      </trkpt>
      <trkpt lat="45.5389" lon="5.84515">
        <ele>628.547696</ele>
        <time>2010-08-08T14:21:20Z</time>
      </trkpt>
      <trkpt lat="45.53886" lon="5.84514">
        <ele>627.837421</ele>
        <time>2010-08-08T14:21:22Z</time>
      </trkpt>
      <trkpt lat="45.53848" lon="5.84507">
        <ele>627.336583</ele>
        <time>2010-08-08T14:22:01Z</time>
      </trkpt>
      <trkpt lat="45.53821" lon="5.84507">
        <ele>627.162343</ele>
        <time>2010-08-08T14:22:10Z</time>
      </trkpt>
      <trkpt lat="45.53811" lon="5.84507">
        <ele>627.174021</ele>
        <time>2010-08-08T14:22:13Z</time>
      </trkpt>
      <trkpt lat="45.53799" lon="5.84508">
        <ele>627.508803</ele>
        <time>2010-08-08T14:22:16Z</time>
      </trkpt>
      <trkpt lat="45.53786" lon="5.84509">
        <ele>628.407372</ele>
        <time>2010-08-08T14:22:19Z</time>
      </trkpt>
      <trkpt lat="45.53773" lon="5.8451">
        <ele>629.658201</ele>
        <time>2010-08-08T14:22:22Z</time>
      </trkpt>
      <trkpt lat="45.53744" lon="5.84508">
        <ele>630.736924</ele>
        <time>2010-08-08T14:22:34Z</time>
      </trkpt>
      <trkpt lat="45.53723" lon="5.84494">
        <ele>631.329876</ele>
        <time>2010-08-08T14:22:40Z</time>
      </trkpt>
      <trkpt lat="45.53708" lon="5.84483">
        <ele>631.468404</ele>
        <time>2010-08-08T14:22:42Z</time>
      </trkpt>
      <trkpt lat="45.53688" lon="5.84469">
        <ele>631.403626</ele>
        <time>2010-08-08T14:22:45Z</time>
      </trkpt>
      <trkpt lat="45.53672" lon="5.84457">
        <ele>631.03909</ele>
        <time>2010-08-08T14:22:47Z</time>
      </trkpt>
      <trkpt lat="45.53654" lon="5.84445">
        <ele>630.133276</ele>
        <time>2010-08-08T14:22:50Z</time>
      </trkpt>
      <trkpt lat="45.53642" lon="5.84438">
        <ele>628.885477</ele>
        <time>2010-08-08T14:22:52Z</time>
      </trkpt>
      <trkpt lat="45.53624" lon="5.84429">
        <ele>627.672919</ele>
        <time>2010-08-08T14:22:55Z</time>
      </trkpt>
      <trkpt lat="45.53609" lon="5.84419">
        <ele>626.722476</ele>
        <time>2010-08-08T14:22:58Z</time>
      </trkpt>
      <trkpt lat="45.53601" lon="5.84399">
        <ele>626.215083</ele>
        <time>2010-08-08T14:23:01Z</time>
      </trkpt>
      <trkpt lat="45.53594" lon="5.84383">
        <ele>626.104343</ele>
        <time>2010-08-08T14:23:04Z</time>
      </trkpt>
      <trkpt lat="45.53589" lon="5.84373">
        <ele>626.165638</ele>
        <time>2010-08-08T14:23:06Z</time>
      </trkpt>
      <trkpt lat="45.53584" lon="5.84363">
        <ele>626.38146</ele>
        <time>2010-08-08T14:23:08Z</time>
      </trkpt>
      <trkpt lat="45.53579" lon="5.84353">
        <ele>626.782274</ele>
        <time>2010-08-08T14:23:10Z</time>
      </trkpt>
      <trkpt lat="45.5357" lon="5.84338">
        <ele>627.160358</ele>
        <time>2010-08-08T14:23:13Z</time>
      </trkpt>
      <trkpt lat="45.53565" lon="5.84328">
        <ele>627.330463</ele>
        <time>2010-08-08T14:23:15Z</time>
      </trkpt>
      <trkpt lat="45.53559" lon="5.84319">
        <ele>627.350652</ele>
        <time>2010-08-08T14:23:17Z</time>
      </trkpt>
      <trkpt lat="45.53551" lon="5.84307">
        <ele>627.317367</ele>
        <time>2010-08-08T14:23:20Z</time>
      </trkpt>
      <trkpt lat="45.53548" lon="5.84301">
        <ele>627.286585</ele>
        <time>2010-08-08T14:23:22Z</time>
      </trkpt>
      <trkpt lat="45.53556" lon="5.84281">
        <ele>627.272921</ele>
        <time>2010-08-08T14:23:26Z</time>
      </trkpt>
      <trkpt lat="45.53556" lon="5.84267">
        <ele>627.271418</ele>
        <time>2010-08-08T14:23:29Z</time>
      </trkpt>
      <trkpt lat="45.53549" lon="5.84257">
        <ele>627.27418</ele>
        <time>2010-08-08T14:23:32Z</time>
      </trkpt>
      <trkpt lat="45.53542" lon="5.84248">
        <ele>627.276685</ele>
        <time>2010-08-08T14:23:35Z</time>
      </trkpt>
      <trkpt lat="45.53535" lon="5.84247">
        <ele>627.277782</ele>
        <time>2010-08-08T14:23:37Z</time>
      </trkpt>
      <trkpt lat="45.53523" lon="5.84245">
        <ele>627.277893</ele>
        <time>2010-08-08T14:23:40Z</time>
      </trkpt>
      <trkpt lat="45.53515" lon="5.84245">
        <ele>627.277664</ele>
        <time>2010-08-08T14:23:42Z</time>
      </trkpt>
      <trkpt lat="45.53509" lon="5.84243">
        <ele>627.277461</ele>
        <time>2010-08-08T14:23:44Z</time>
      </trkpt>
      <trkpt lat="45.53501" lon="5.84238">
        <ele>627.277372</ele>
        <time>2010-08-08T14:23:47Z</time>
      </trkpt>
      <trkpt lat="45.53494" lon="5.84232">
        <ele>627.277364</ele>
        <time>2010-08-08T14:23:50Z</time>
      </trkpt>
      <trkpt lat="45.53475" lon="5.84221">
        <ele>627.277383</ele>
        <time>2010-08-08T14:23:54Z</time>
      </trkpt>
      <trkpt lat="45.53467" lon="5.84203">
        <ele>627.2774</ele>
        <time>2010-08-08T14:23:57Z</time>
      </trkpt>
      <trkpt lat="45.53462" lon="5.842">
        <ele>627.139229</ele>
        <time>2010-08-08T14:24:00Z</time>
      </trkpt>
      <trkpt lat="45.5343" lon="5.84202">
        <ele>626.64116</ele>
        <time>2010-08-08T14:24:07Z</time>
      </trkpt>
      <trkpt lat="45.5343" lon="5.84202">
        <ele>625.911831</ele>
        <time>2010-08-08T14:24:10Z</time>
      </trkpt>
      <trkpt lat="45.53395" lon="5.84208">
        <ele>625.228956</ele>
        <time>2010-08-08T14:24:16Z</time>
      </trkpt>
      <trkpt lat="45.53395" lon="5.84208">
        <ele>624.667271</ele>
        <time>2010-08-08T14:24:19Z</time>
      </trkpt>
      <trkpt lat="45.53354" lon="5.84208">
        <ele>624.163114</ele>
        <time>2010-08-08T14:24:39Z</time>
      </trkpt>
      <trkpt lat="45.53322" lon="5.84204">
        <ele>623.411699</ele>
        <time>2010-08-08T14:24:50Z</time>
      </trkpt>
      <trkpt lat="45.5329" lon="5.84204">
        <ele>622.340154</ele>
        <time>2010-08-08T14:24:55Z</time>
      </trkpt>
      <trkpt lat="45.53279" lon="5.84204">
        <ele>621.472126</ele>
        <time>2010-08-08T14:24:58Z</time>
      </trkpt>
      <trkpt lat="45.53266" lon="5.84204">
        <ele>621.124707</ele>
        <time>2010-08-08T14:25:01Z</time>
      </trkpt>
      <trkpt lat="45.53253" lon="5.84205">
        <ele>621.387135</ele>
        <time>2010-08-08T14:25:05Z</time>
      </trkpt>
      <trkpt lat="45.53244" lon="5.84207">
        <ele>622.195435</ele>
        <time>2010-08-08T14:25:14Z</time>
      </trkpt>
      <trkpt lat="45.53244" lon="5.84207">
        <ele>622.235949</ele>
        <time>2010-08-08T14:26:51Z</time>
      </trkpt>
      <trkpt lat="45.53244" lon="5.84207">
        <ele>622.117166</ele>
        <time>2010-08-08T14:27:45Z</time>
      </trkpt>
      <trkpt lat="45.53216" lon="5.84184">
        <ele>621.960054</ele>
        <time>2010-08-08T14:27:45Z</time>
      </trkpt>
      <trkpt lat="45.53211" lon="5.84181">
        <ele>621.849003</ele>
        <time>2010-08-08T14:27:47Z</time>
      </trkpt>
      <trkpt lat="45.53201" lon="5.84176">
        <ele>621.810261</ele>
        <time>2010-08-08T14:27:50Z</time>
      </trkpt>
      <trkpt lat="45.53193" lon="5.84169">
        <ele>622.980095</ele>
        <time>2010-08-08T14:27:53Z</time>
      </trkpt>
      <trkpt lat="45.53193" lon="5.84169">
        <ele>626.033387</ele>
        <time>2010-08-08T14:27:54Z</time>
      </trkpt>
      <trkpt lat="45.53148" lon="5.84131">
        <ele>629.163375</ele>
        <time>2010-08-08T14:28:05Z</time>
      </trkpt>
      <trkpt lat="45.53135" lon="5.84125">
        <ele>630.647069</ele>
        <time>2010-08-08T14:28:08Z</time>
      </trkpt>
      <trkpt lat="45.53117" lon="5.84122">
        <ele>630.180063</ele>
        <time>2010-08-08T14:28:11Z</time>
      </trkpt>
      <trkpt lat="45.53104" lon="5.8412">
        <ele>627.988039</ele>
        <time>2010-08-08T14:28:14Z</time>
      </trkpt>
      <trkpt lat="45.53094" lon="5.84116">
        <ele>625.249538</ele>
        <time>2010-08-08T14:28:17Z</time>
      </trkpt>
      <trkpt lat="45.53084" lon="5.84111">
        <ele>623.161931</ele>
        <time>2010-08-08T14:28:20Z</time>
      </trkpt>
      <trkpt lat="45.53078" lon="5.84107">
        <ele>621.955503</ele>
        <time>2010-08-08T14:28:23Z</time>
      </trkpt>
      <trkpt lat="45.53059" lon="5.84094">
        <ele>621.389474</ele>
        <time>2010-08-08T14:28:28Z</time>
      </trkpt>
      <trkpt lat="45.53043" lon="5.84087">
        <ele>621.172151</ele>
        <time>2010-08-08T14:28:31Z</time>
      </trkpt>
      <trkpt lat="45.5303" lon="5.84079">
        <ele>621.170005</ele>
        <time>2010-08-08T14:28:34Z</time>
      </trkpt>
      <trkpt lat="45.53021" lon="5.8407">
        <ele>621.921202</ele>
        <time>2010-08-08T14:28:37Z</time>
      </trkpt>
      <trkpt lat="45.53013" lon="5.84061">
        <ele>624.042979</ele>
        <time>2010-08-08T14:28:40Z</time>
      </trkpt>
      <trkpt lat="45.53007" lon="5.84054">
        <ele>627.041849</ele>
        <time>2010-08-08T14:28:43Z</time>
      </trkpt>
      <trkpt lat="45.52984" lon="5.84028">
        <ele>629.874852</ele>
        <time>2010-08-08T14:28:53Z</time>
      </trkpt>
      <trkpt lat="45.52979" lon="5.84023">
        <ele>631.959428</ele>
        <time>2010-08-08T14:28:55Z</time>
      </trkpt>
      <trkpt lat="45.52973" lon="5.84016">
        <ele>633.390293</ele>
        <time>2010-08-08T14:28:58Z</time>
      </trkpt>
      <trkpt lat="45.52969" lon="5.8401">
        <ele>634.798821</ele>
        <time>2010-08-08T14:29:01Z</time>
      </trkpt>
      <trkpt lat="45.5296" lon="5.83999">
        <ele>636.238631</ele>
        <time>2010-08-08T14:29:04Z</time>
      </trkpt>
      <trkpt lat="45.52953" lon="5.83993">
        <ele>637.196354</ele>
        <time>2010-08-08T14:29:06Z</time>
      </trkpt>
      <trkpt lat="45.52946" lon="5.83989">
        <ele>637.506295</ele>
        <time>2010-08-08T14:29:08Z</time>
      </trkpt>
      <trkpt lat="45.52937" lon="5.83983">
        <ele>637.466483</ele>
        <time>2010-08-08T14:29:11Z</time>
      </trkpt>
      <trkpt lat="45.52929" lon="5.83978">
        <ele>637.348237</ele>
        <time>2010-08-08T14:29:14Z</time>
      </trkpt>
      <trkpt lat="45.52919" lon="5.83972">
        <ele>637.132485</ele>
        <time>2010-08-08T14:29:17Z</time>
      </trkpt>
      <trkpt lat="45.5291" lon="5.83966">
        <ele>636.609773</ele>
        <time>2010-08-08T14:29:20Z</time>
      </trkpt>
      <trkpt lat="45.52899" lon="5.83961">
        <ele>635.74584</ele>
        <time>2010-08-08T14:29:23Z</time>
      </trkpt>
      <trkpt lat="45.5289" lon="5.83956">
        <ele>634.712782</ele>
        <time>2010-08-08T14:29:25Z</time>
      </trkpt>
      <trkpt lat="45.52882" lon="5.8395">
        <ele>633.649767</ele>
        <time>2010-08-08T14:29:27Z</time>
      </trkpt>
      <trkpt lat="45.5287" lon="5.83943">
        <ele>632.612415</ele>
        <time>2010-08-08T14:29:30Z</time>
      </trkpt>
      <trkpt lat="45.52861" lon="5.83943">
        <ele>631.602894</ele>
        <time>2010-08-08T14:29:32Z</time>
      </trkpt>
      <trkpt lat="45.5285" lon="5.83942">
        <ele>630.468813</ele>
        <time>2010-08-08T14:29:35Z</time>
      </trkpt>
      <trkpt lat="45.5284" lon="5.83938">
        <ele>629.115328</ele>
        <time>2010-08-08T14:29:38Z</time>
      </trkpt>
      <trkpt lat="45.52834" lon="5.83935">
        <ele>627.750156</ele>
        <time>2010-08-08T14:29:40Z</time>
      </trkpt>
      <trkpt lat="45.5283" lon="5.83926">
        <ele>626.576889</ele>
        <time>2010-08-08T14:29:43Z</time>
      </trkpt>
      <trkpt lat="45.52823" lon="5.83922">
        <ele>625.551256</ele>
        <time>2010-08-08T14:29:46Z</time>
      </trkpt>
      <trkpt lat="45.52823" lon="5.83922">
        <ele>624.720141</ele>
        <time>2010-08-08T14:29:47Z</time>
      </trkpt>
      <trkpt lat="45.52795" lon="5.8392">
        <ele>624.11104</ele>
        <time>2010-08-08T14:29:58Z</time>
      </trkpt>
      <trkpt lat="45.52795" lon="5.8392">
        <ele>623.633833</ele>
        <time>2010-08-08T14:30:01Z</time>
      </trkpt>
      <trkpt lat="45.52767" lon="5.83922">
        <ele>623.17218</ele>
        <time>2010-08-08T14:30:07Z</time>
      </trkpt>
      <trkpt lat="45.52767" lon="5.83922">
        <ele>622.705012</ele>
        <time>2010-08-08T14:30:11Z</time>
      </trkpt>
      <trkpt lat="45.5274" lon="5.83915">
        <ele>622.07072</ele>
        <time>2010-08-08T14:30:15Z</time>
      </trkpt>
      <trkpt lat="45.52728" lon="5.83917">
        <ele>620.93853</ele>
        <time>2010-08-08T14:30:17Z</time>
      </trkpt>
      <trkpt lat="45.52723" lon="5.83917">
        <ele>619.479555</ele>
        <time>2010-08-08T14:30:20Z</time>
      </trkpt>
      <trkpt lat="45.52696" lon="5.83915">
        <ele>618.152329</ele>
        <time>2010-08-08T14:30:24Z</time>
      </trkpt>
      <trkpt lat="45.52688" lon="5.83913">
        <ele>616.919843</ele>
        <time>2010-08-08T14:30:26Z</time>
      </trkpt>
      <trkpt lat="45.52681" lon="5.83911">
        <ele>615.838869</ele>
        <time>2010-08-08T14:30:28Z</time>
      </trkpt>
      <trkpt lat="45.52674" lon="5.83909">
        <ele>615.238997</ele>
        <time>2010-08-08T14:30:30Z</time>
      </trkpt>
      <trkpt lat="45.52668" lon="5.83908">
        <ele>615.095908</ele>
        <time>2010-08-08T14:30:33Z</time>
      </trkpt>
      <trkpt lat="45.52661" lon="5.83907">
        <ele>615.159227</ele>
        <time>2010-08-08T14:30:36Z</time>
      </trkpt>
      <trkpt lat="45.52648" lon="5.83906">
        <ele>615.24761</ele>
        <time>2010-08-08T14:30:39Z</time>
      </trkpt>
      <trkpt lat="45.52643" lon="5.83905">
        <ele>615.29603</ele>
        <time>2010-08-08T14:30:42Z</time>
      </trkpt>
      <trkpt lat="45.52616" lon="5.83904">
        <ele>615.307258</ele>
        <time>2010-08-08T14:30:49Z</time>
      </trkpt>
      <trkpt lat="45.526" lon="5.83904">
        <ele>615.440083</ele>
        <time>2010-08-08T14:30:52Z</time>
      </trkpt>
      <trkpt lat="45.52579" lon="5.839">
        <ele>615.792751</ele>
        <time>2010-08-08T14:30:54Z</time>
      </trkpt>
      <trkpt lat="45.52548" lon="5.83897">
        <ele>616.296457</ele>
        <time>2010-08-08T14:30:57Z</time>
      </trkpt>
      <trkpt lat="45.52531" lon="5.83897">
        <ele>617.107086</ele>
        <time>2010-08-08T14:30:59Z</time>
      </trkpt>
      <trkpt lat="45.5251" lon="5.839">
        <ele>618.637821</ele>
        <time>2010-08-08T14:31:02Z</time>
      </trkpt>
      <trkpt lat="45.52498" lon="5.83902">
        <ele>621.154945</ele>
        <time>2010-08-08T14:31:04Z</time>
      </trkpt>
      <trkpt lat="45.52487" lon="5.83904">
        <ele>624.326434</ele>
        <time>2010-08-08T14:31:06Z</time>
      </trkpt>
      <trkpt lat="45.52474" lon="5.83905">
        <ele>627.196966</ele>
        <time>2010-08-08T14:31:09Z</time>
      </trkpt>
      <trkpt lat="45.52466" lon="5.83903">
        <ele>628.984224</ele>
        <time>2010-08-08T14:31:12Z</time>
      </trkpt>
      <trkpt lat="45.52466" lon="5.83903">
        <ele>629.648481</ele>
        <time>2010-08-08T14:31:13Z</time>
      </trkpt>
      <trkpt lat="45.52449" lon="5.839">
        <ele>629.638749</ele>
        <time>2010-08-08T14:31:17Z</time>
      </trkpt>
      <trkpt lat="45.52449" lon="5.839">
        <ele>629.392252</ele>
        <time>2010-08-08T14:31:21Z</time>
      </trkpt>
      <trkpt lat="45.52413" lon="5.83883">
        <ele>629.02893</ele>
        <time>2010-08-08T14:31:30Z</time>
      </trkpt>
      <trkpt lat="45.52378" lon="5.83867">
        <ele>628.610349</ele>
        <time>2010-08-08T14:31:33Z</time>
      </trkpt>
      <trkpt lat="45.52357" lon="5.83863">
        <ele>628.170811</ele>
        <time>2010-08-08T14:31:36Z</time>
      </trkpt>
      <trkpt lat="45.52347" lon="5.83867">
        <ele>625.770937</ele>
        <time>2010-08-08T14:31:39Z</time>
      </trkpt>
      <trkpt lat="45.52288" lon="5.83875">
        <ele>619.542663</ele>
        <time>2010-08-08T14:31:45Z</time>
      </trkpt>
      <trkpt lat="45.52246" lon="5.83884">
        <ele>611.658039</ele>
        <time>2010-08-08T14:31:48Z</time>
      </trkpt>
      <trkpt lat="45.52205" lon="5.8389">
        <ele>605.906614</ele>
        <time>2010-08-08T14:31:51Z</time>
      </trkpt>
      <trkpt lat="45.52175" lon="5.83882">
        <ele>602.999175</ele>
        <time>2010-08-08T14:31:54Z</time>
      </trkpt>
      <trkpt lat="45.52149" lon="5.83849">
        <ele>601.407273</ele>
        <time>2010-08-08T14:31:57Z</time>
      </trkpt>
      <trkpt lat="45.52141" lon="5.83828">
        <ele>599.69757</ele>
        <time>2010-08-08T14:31:59Z</time>
      </trkpt>
      <trkpt lat="45.52135" lon="5.83812">
        <ele>597.406649</ele>
        <time>2010-08-08T14:32:01Z</time>
      </trkpt>
      <trkpt lat="45.52127" lon="5.83796">
        <ele>594.988591</ele>
        <time>2010-08-08T14:32:04Z</time>
      </trkpt>
      <trkpt lat="45.52105" lon="5.83797">
        <ele>593.408494</ele>
        <time>2010-08-08T14:32:07Z</time>
      </trkpt>
      <trkpt lat="45.52091" lon="5.838">
        <ele>592.909273</ele>
        <time>2010-08-08T14:32:09Z</time>
      </trkpt>
      <trkpt lat="45.52077" lon="5.83807">
        <ele>593.122259</ele>
        <time>2010-08-08T14:32:12Z</time>
      </trkpt>
      <trkpt lat="45.52062" lon="5.83808">
        <ele>593.957</ele>
        <time>2010-08-08T14:32:15Z</time>
      </trkpt>
      <trkpt lat="45.52052" lon="5.83807">
        <ele>595.312343</ele>
        <time>2010-08-08T14:32:17Z</time>
      </trkpt>
      <trkpt lat="45.5203" lon="5.83801">
        <ele>596.626022</ele>
        <time>2010-08-08T14:32:20Z</time>
      </trkpt>
      <trkpt lat="45.5202" lon="5.83795">
        <ele>597.504052</ele>
        <time>2010-08-08T14:32:22Z</time>
      </trkpt>
      <trkpt lat="45.52011" lon="5.83792">
        <ele>598.045992</ele>
        <time>2010-08-08T14:32:25Z</time>
      </trkpt>
      <trkpt lat="45.51995" lon="5.83792">
        <ele>598.341519</ele>
        <time>2010-08-08T14:32:31Z</time>
      </trkpt>
      <trkpt lat="45.51995" lon="5.83792">
        <ele>598.409335</ele>
        <time>2010-08-08T14:32:35Z</time>
      </trkpt>
      <trkpt lat="45.51968" lon="5.83801">
        <ele>598.376128</ele>
        <time>2010-08-08T14:32:39Z</time>
      </trkpt>
      <trkpt lat="45.51968" lon="5.83801">
        <ele>598.331835</ele>
        <time>2010-08-08T14:32:42Z</time>
      </trkpt>
      <trkpt lat="45.51938" lon="5.83806">
        <ele>598.30799</ele>
        <time>2010-08-08T14:32:45Z</time>
      </trkpt>
      <trkpt lat="45.51938" lon="5.83806">
        <ele>598.216473</ele>
        <time>2010-08-08T14:32:48Z</time>
      </trkpt>
      <trkpt lat="45.51907" lon="5.83811">
        <ele>597.994747</ele>
        <time>2010-08-08T14:32:52Z</time>
      </trkpt>
      <trkpt lat="45.51907" lon="5.83811">
        <ele>597.763104</ele>
        <time>2010-08-08T14:32:56Z</time>
      </trkpt>
      <trkpt lat="45.51875" lon="5.83817">
        <ele>597.648014</ele>
        <time>2010-08-08T14:32:59Z</time>
      </trkpt>
      <trkpt lat="45.51875" lon="5.83817">
        <ele>597.631547</ele>
        <time>2010-08-08T14:33:03Z</time>
      </trkpt>
      <trkpt lat="45.51825" lon="5.8381">
        <ele>597.742944</ele>
        <time>2010-08-08T14:33:15Z</time>
      </trkpt>
      <trkpt lat="45.51815" lon="5.83803">
        <ele>598.129284</ele>
        <time>2010-08-08T14:33:20Z</time>
      </trkpt>
      <trkpt lat="45.51815" lon="5.83803">
        <ele>598.730251</ele>
        <time>2010-08-08T14:33:37Z</time>
      </trkpt>
      <trkpt lat="45.51789" lon="5.8379">
        <ele>599.486616</ele>
        <time>2010-08-08T14:33:41Z</time>
      </trkpt>
      <trkpt lat="45.51789" lon="5.8379">
        <ele>600.396121</ele>
        <time>2010-08-08T14:33:56Z</time>
      </trkpt>
      <trkpt lat="45.51789" lon="5.8379">
        <ele>600.919269</ele>
        <time>2010-08-08T14:34:10Z</time>
      </trkpt>
      <trkpt lat="45.5177" lon="5.83783">
        <ele>600.864568</ele>
        <time>2010-08-08T14:34:42Z</time>
      </trkpt>
      <trkpt lat="45.5177" lon="5.83783">
        <ele>600.706438</ele>
        <time>2010-08-08T14:34:46Z</time>
      </trkpt>
      <trkpt lat="45.51746" lon="5.83777">
        <ele>600.53408</ele>
        <time>2010-08-08T14:34:57Z</time>
      </trkpt>
      <trkpt lat="45.51734" lon="5.83775">
        <ele>600.449527</ele>
        <time>2010-08-08T14:35:00Z</time>
      </trkpt>
      <trkpt lat="45.51724" lon="5.83774">
        <ele>603.074736</ele>
        <time>2010-08-08T14:35:03Z</time>
      </trkpt>
      <trkpt lat="45.51708" lon="5.83773">
        <ele>610.272456</ele>
        <time>2010-08-08T14:35:05Z</time>
      </trkpt>
      <trkpt lat="45.51695" lon="5.83772">
        <ele>618.980415</ele>
        <time>2010-08-08T14:35:08Z</time>
      </trkpt>
      <trkpt lat="45.51682" lon="5.83771">
        <ele>625.212921</ele>
        <time>2010-08-08T14:35:11Z</time>
      </trkpt>
      <trkpt lat="45.51682" lon="5.83771">
        <ele>628.344971</ele>
        <time>2010-08-08T14:35:11Z</time>
      </trkpt>
      <trkpt lat="45.51674" lon="5.83769">
        <ele>629.477096</ele>
        <time>2010-08-08T14:35:13Z</time>
      </trkpt>
      <trkpt lat="45.51662" lon="5.83765">
        <ele>630.086176</ele>
        <time>2010-08-08T14:35:16Z</time>
      </trkpt>
      <trkpt lat="45.51662" lon="5.83765">
        <ele>630.753958</ele>
        <time>2010-08-08T14:35:22Z</time>
      </trkpt>
      <trkpt lat="45.51636" lon="5.8375">
        <ele>631.497101</ele>
        <time>2010-08-08T14:35:28Z</time>
      </trkpt>
      <trkpt lat="45.51636" lon="5.8375">
        <ele>632.377628</ele>
        <time>2010-08-08T14:35:32Z</time>
      </trkpt>
      <trkpt lat="45.51606" lon="5.83744">
        <ele>633.24255</ele>
        <time>2010-08-08T14:35:40Z</time>
      </trkpt>
      <trkpt lat="45.51595" lon="5.83743">
        <ele>634.036225</ele>
        <time>2010-08-08T14:35:43Z</time>
      </trkpt>
      <trkpt lat="45.51587" lon="5.83743">
        <ele>635.057127</ele>
        <time>2010-08-08T14:35:45Z</time>
      </trkpt>
      <trkpt lat="45.51571" lon="5.83741">
        <ele>636.525184</ele>
        <time>2010-08-08T14:35:49Z</time>
      </trkpt>
      <trkpt lat="45.51558" lon="5.8374">
        <ele>638.126564</ele>
        <time>2010-08-08T14:35:52Z</time>
      </trkpt>
      <trkpt lat="45.51548" lon="5.83738">
        <ele>639.327001</ele>
        <time>2010-08-08T14:35:54Z</time>
      </trkpt>
      <trkpt lat="45.51534" lon="5.83735">
        <ele>640.305762</ele>
        <time>2010-08-08T14:35:57Z</time>
      </trkpt>
      <trkpt lat="45.51518" lon="5.83729">
        <ele>641.488056</ele>
        <time>2010-08-08T14:36:00Z</time>
      </trkpt>
      <trkpt lat="45.51499" lon="5.83722">
        <ele>642.630573</ele>
        <time>2010-08-08T14:36:03Z</time>
      </trkpt>
      <trkpt lat="45.5148" lon="5.83714">
        <ele>643.291023</ele>
        <time>2010-08-08T14:36:06Z</time>
      </trkpt>
      <trkpt lat="45.51463" lon="5.83708">
        <ele>643.600308</ele>
        <time>2010-08-08T14:36:09Z</time>
      </trkpt>
      <trkpt lat="45.51447" lon="5.83702">
        <ele>644.038868</ele>
        <time>2010-08-08T14:36:12Z</time>
      </trkpt>
      <trkpt lat="45.51431" lon="5.83695">
        <ele>644.674693</ele>
        <time>2010-08-08T14:36:15Z</time>
      </trkpt>
      <trkpt lat="45.51416" lon="5.8369">
        <ele>645.304212</ele>
        <time>2010-08-08T14:36:18Z</time>
      </trkpt>
      <trkpt lat="45.51406" lon="5.83687">
        <ele>645.852416</ele>
        <time>2010-08-08T14:36:20Z</time>
      </trkpt>
      <trkpt lat="45.51398" lon="5.83684">
        <ele>646.22346</ele>
        <time>2010-08-08T14:36:22Z</time>
      </trkpt>
      <trkpt lat="45.51388" lon="5.8368">
        <ele>646.346278</ele>
        <time>2010-08-08T14:36:25Z</time>
      </trkpt>
      <trkpt lat="45.51379" lon="5.83678">
        <ele>646.332913</ele>
        <time>2010-08-08T14:36:28Z</time>
      </trkpt>
      <trkpt lat="45.51371" lon="5.83677">
        <ele>646.426048</ele>
        <time>2010-08-08T14:36:31Z</time>
      </trkpt>
      <trkpt lat="45.51363" lon="5.83674">
        <ele>646.755877</ele>
        <time>2010-08-08T14:36:34Z</time>
      </trkpt>
      <trkpt lat="45.51336" lon="5.8366">
        <ele>647.115539</ele>
        <time>2010-08-08T14:36:50Z</time>
      </trkpt>
      <trkpt lat="45.51336" lon="5.8366">
        <ele>647.292018</ele>
        <time>2010-08-08T14:36:53Z</time>
      </trkpt>
      <trkpt lat="45.51286" lon="5.83633">
        <ele>647.322247</ele>
        <time>2010-08-08T14:37:18Z</time>
      </trkpt>
      <trkpt lat="45.51257" lon="5.83612">
        <ele>647.172483</ele>
        <time>2010-08-08T14:37:25Z</time>
      </trkpt>
      <trkpt lat="45.51245" lon="5.83604">
        <ele>646.808877</ele>
        <time>2010-08-08T14:37:28Z</time>
      </trkpt>
      <trkpt lat="45.5121" lon="5.83589">
        <ele>644.491848</ele>
        <time>2010-08-08T14:37:31Z</time>
      </trkpt>
      <trkpt lat="45.5119" lon="5.83582">
        <ele>638.976981</ele>
        <time>2010-08-08T14:37:33Z</time>
      </trkpt>
      <trkpt lat="45.51162" lon="5.83572">
        <ele>633.043693</ele>
        <time>2010-08-08T14:37:36Z</time>
      </trkpt>
      <trkpt lat="45.51147" lon="5.83566">
        <ele>629.877013</ele>
        <time>2010-08-08T14:37:38Z</time>
      </trkpt>
      <trkpt lat="45.51125" lon="5.83556">
        <ele>629.186305</ele>
        <time>2010-08-08T14:37:41Z</time>
      </trkpt>
      <trkpt lat="45.51112" lon="5.83551">
        <ele>629.569175</ele>
        <time>2010-08-08T14:37:43Z</time>
      </trkpt>
      <trkpt lat="45.51096" lon="5.83545">
        <ele>630.053879</ele>
        <time>2010-08-08T14:37:46Z</time>
      </trkpt>
      <trkpt lat="45.51079" lon="5.83545">
        <ele>630.309272</ele>
        <time>2010-08-08T14:37:49Z</time>
      </trkpt>
      <trkpt lat="45.51062" lon="5.83547">
        <ele>630.363215</ele>
        <time>2010-08-08T14:37:52Z</time>
      </trkpt>
      <trkpt lat="45.51036" lon="5.83549">
        <ele>630.192834</ele>
        <time>2010-08-08T14:37:55Z</time>
      </trkpt>
      <trkpt lat="45.51011" lon="5.83548">
        <ele>629.655178</ele>
        <time>2010-08-08T14:37:58Z</time>
      </trkpt>
      <trkpt lat="45.5098" lon="5.83545">
        <ele>628.767082</ele>
        <time>2010-08-08T14:38:01Z</time>
      </trkpt>
      <trkpt lat="45.50959" lon="5.8354">
        <ele>627.72011</ele>
        <time>2010-08-08T14:38:03Z</time>
      </trkpt>
      <trkpt lat="45.50923" lon="5.83525">
        <ele>626.791696</ele>
        <time>2010-08-08T14:38:06Z</time>
      </trkpt>
      <trkpt lat="45.50899" lon="5.83513">
        <ele>626.253688</ele>
        <time>2010-08-08T14:38:08Z</time>
      </trkpt>
      <trkpt lat="45.50868" lon="5.83495">
        <ele>626.11365</ele>
        <time>2010-08-08T14:38:11Z</time>
      </trkpt>
      <trkpt lat="45.50848" lon="5.83485">
        <ele>626.161637</ele>
        <time>2010-08-08T14:38:13Z</time>
      </trkpt>
      <trkpt lat="45.50843" lon="5.83482">
        <ele>626.099444</ele>
        <time>2010-08-08T14:38:15Z</time>
      </trkpt>
      <trkpt lat="45.50831" lon="5.83477">
        <ele>625.644839</ele>
        <time>2010-08-08T14:38:18Z</time>
      </trkpt>
      <trkpt lat="45.50811" lon="5.83472">
        <ele>624.926547</ele>
        <time>2010-08-08T14:38:21Z</time>
      </trkpt>
      <trkpt lat="45.50797" lon="5.83474">
        <ele>624.377764</ele>
        <time>2010-08-08T14:38:24Z</time>
      </trkpt>
      <trkpt lat="45.50786" lon="5.83474">
        <ele>624.031578</ele>
        <time>2010-08-08T14:38:27Z</time>
      </trkpt>
      <trkpt lat="45.50774" lon="5.83473">
        <ele>623.671631</ele>
        <time>2010-08-08T14:38:30Z</time>
      </trkpt>
      <trkpt lat="45.50768" lon="5.83473">
        <ele>623.223243</ele>
        <time>2010-08-08T14:38:33Z</time>
      </trkpt>
      <trkpt lat="45.50753" lon="5.83471">
        <ele>622.732641</ele>
        <time>2010-08-08T14:38:36Z</time>
      </trkpt>
      <trkpt lat="45.50749" lon="5.8347">
        <ele>622.076946</ele>
        <time>2010-08-08T14:38:39Z</time>
      </trkpt>
      <trkpt lat="45.50738" lon="5.8347">
        <ele>621.073518</ele>
        <time>2010-08-08T14:38:41Z</time>
      </trkpt>
      <trkpt lat="45.50726" lon="5.8347">
        <ele>619.835274</ele>
        <time>2010-08-08T14:38:43Z</time>
      </trkpt>
      <trkpt lat="45.50701" lon="5.8347">
        <ele>618.795891</ele>
        <time>2010-08-08T14:38:46Z</time>
      </trkpt>
      <trkpt lat="45.5068" lon="5.83453">
        <ele>618.228936</ele>
        <time>2010-08-08T14:38:49Z</time>
      </trkpt>
      <trkpt lat="45.50658" lon="5.83447">
        <ele>617.96057</ele>
        <time>2010-08-08T14:38:52Z</time>
      </trkpt>
      <trkpt lat="45.50642" lon="5.83444">
        <ele>617.664319</ele>
        <time>2010-08-08T14:38:55Z</time>
      </trkpt>
      <trkpt lat="45.50628" lon="5.8344">
        <ele>617.379834</ele>
        <time>2010-08-08T14:38:58Z</time>
      </trkpt>
      <trkpt lat="45.50616" lon="5.83436">
        <ele>617.112142</ele>
        <time>2010-08-08T14:39:01Z</time>
      </trkpt>
      <trkpt lat="45.5061" lon="5.83433">
        <ele>616.735915</ele>
        <time>2010-08-08T14:39:03Z</time>
      </trkpt>
      <trkpt lat="45.506" lon="5.8343">
        <ele>616.252921</ele>
        <time>2010-08-08T14:39:06Z</time>
      </trkpt>
      <trkpt lat="45.50591" lon="5.83427">
        <ele>615.602756</ele>
        <time>2010-08-08T14:39:09Z</time>
      </trkpt>
      <trkpt lat="45.50587" lon="5.83425">
        <ele>614.857305</ele>
        <time>2010-08-08T14:39:12Z</time>
      </trkpt>
      <trkpt lat="45.50581" lon="5.83423">
        <ele>614.205641</ele>
        <time>2010-08-08T14:39:14Z</time>
      </trkpt>
      <trkpt lat="45.50571" lon="5.83419">
        <ele>613.533843</ele>
        <time>2010-08-08T14:39:17Z</time>
      </trkpt>
      <trkpt lat="45.50563" lon="5.83416">
        <ele>612.682004</ele>
        <time>2010-08-08T14:39:19Z</time>
      </trkpt>
      <trkpt lat="45.50547" lon="5.83411">
        <ele>611.838696</ele>
        <time>2010-08-08T14:39:22Z</time>
      </trkpt>
      <trkpt lat="45.50538" lon="5.83409">
        <ele>611.170908</ele>
        <time>2010-08-08T14:39:24Z</time>
      </trkpt>
      <trkpt lat="45.50529" lon="5.83411">
        <ele>610.653045</ele>
        <time>2010-08-08T14:39:27Z</time>
      </trkpt>
      <trkpt lat="45.50513" lon="5.83412">
        <ele>610.039363</ele>
        <time>2010-08-08T14:39:30Z</time>
      </trkpt>
      <trkpt lat="45.50488" lon="5.83416">
        <ele>609.213472</ele>
        <time>2010-08-08T14:39:33Z</time>
      </trkpt>
      <trkpt lat="45.50458" lon="5.83416">
        <ele>608.490925</ele>
        <time>2010-08-08T14:39:36Z</time>
      </trkpt>
      <trkpt lat="45.50441" lon="5.83415">
        <ele>608.044731</ele>
        <time>2010-08-08T14:39:38Z</time>
      </trkpt>
      <trkpt lat="45.50425" lon="5.83409">
        <ele>607.659092</ele>
        <time>2010-08-08T14:39:40Z</time>
      </trkpt>
      <trkpt lat="45.50405" lon="5.83405">
        <ele>607.358056</ele>
        <time>2010-08-08T14:39:43Z</time>
      </trkpt>
      <trkpt lat="45.50388" lon="5.83396">
        <ele>607.241565</ele>
        <time>2010-08-08T14:39:45Z</time>
      </trkpt>
      <trkpt lat="45.50363" lon="5.8337">
        <ele>607.23974</ele>
        <time>2010-08-08T14:39:48Z</time>
      </trkpt>
      <trkpt lat="45.50336" lon="5.83358">
        <ele>607.271558</ele>
        <time>2010-08-08T14:39:51Z</time>
      </trkpt>
      <trkpt lat="45.50305" lon="5.83349">
        <ele>607.296004</ele>
        <time>2010-08-08T14:39:54Z</time>
      </trkpt>
      <trkpt lat="45.50275" lon="5.8334">
        <ele>607.443499</ele>
        <time>2010-08-08T14:39:57Z</time>
      </trkpt>
      <trkpt lat="45.50246" lon="5.8333">
        <ele>607.803432</ele>
        <time>2010-08-08T14:40:00Z</time>
      </trkpt>
      <trkpt lat="45.50219" lon="5.83333">
        <ele>608.308421</ele>
        <time>2010-08-08T14:40:02Z</time>
      </trkpt>
      <trkpt lat="45.50196" lon="5.83313">
        <ele>608.84159</ele>
        <time>2010-08-08T14:40:05Z</time>
      </trkpt>
      <trkpt lat="45.50181" lon="5.83305">
        <ele>609.374988</ele>
        <time>2010-08-08T14:40:08Z</time>
      </trkpt>
      <trkpt lat="45.50163" lon="5.83287">
        <ele>609.880161</ele>
        <time>2010-08-08T14:40:10Z</time>
      </trkpt>
      <trkpt lat="45.50155" lon="5.8326">
        <ele>610.384412</ele>
        <time>2010-08-08T14:40:13Z</time>
      </trkpt>
      <trkpt lat="45.50153" lon="5.83241">
        <ele>610.875644</ele>
        <time>2010-08-08T14:40:15Z</time>
      </trkpt>
      <trkpt lat="45.50142" lon="5.83219">
        <ele>611.23954</ele>
        <time>2010-08-08T14:40:18Z</time>
      </trkpt>
      <trkpt lat="45.50131" lon="5.832">
        <ele>611.511392</ele>
        <time>2010-08-08T14:40:21Z</time>
      </trkpt>
      <trkpt lat="45.50123" lon="5.8319">
        <ele>611.86812</ele>
        <time>2010-08-08T14:40:23Z</time>
      </trkpt>
      <trkpt lat="45.50115" lon="5.8318">
        <ele>612.335267</ele>
        <time>2010-08-08T14:40:25Z</time>
      </trkpt>
      <trkpt lat="45.50104" lon="5.83165">
        <ele>612.840893</ele>
        <time>2010-08-08T14:40:28Z</time>
      </trkpt>
      <trkpt lat="45.50089" lon="5.83154">
        <ele>613.226184</ele>
        <time>2010-08-08T14:40:31Z</time>
      </trkpt>
      <trkpt lat="45.5008" lon="5.83148">
        <ele>613.371846</ele>
        <time>2010-08-08T14:40:33Z</time>
      </trkpt>
      <trkpt lat="45.50065" lon="5.83147">
        <ele>613.3716</ele>
        <time>2010-08-08T14:40:36Z</time>
      </trkpt>
      <trkpt lat="45.50058" lon="5.83135">
        <ele>613.329913</ele>
        <time>2010-08-08T14:40:39Z</time>
      </trkpt>
      <trkpt lat="45.50049" lon="5.83127">
        <ele>613.298636</ele>
        <time>2010-08-08T14:40:42Z</time>
      </trkpt>
      <trkpt lat="45.50041" lon="5.83123">
        <ele>613.286994</ele>
        <time>2010-08-08T14:40:44Z</time>
      </trkpt>
      <trkpt lat="45.5003" lon="5.83116">
        <ele>613.287151</ele>
        <time>2010-08-08T14:40:47Z</time>
      </trkpt>
      <trkpt lat="45.50021" lon="5.8311">
        <ele>613.290587</ele>
        <time>2010-08-08T14:40:49Z</time>
      </trkpt>
      <trkpt lat="45.50008" lon="5.83102">
        <ele>613.154947</ele>
        <time>2010-08-08T14:40:52Z</time>
      </trkpt>
      <trkpt lat="45.50002" lon="5.83097">
        <ele>612.795985</ele>
        <time>2010-08-08T14:40:54Z</time>
      </trkpt>
      <trkpt lat="45.49995" lon="5.83091">
        <ele>612.426526</ele>
        <time>2010-08-08T14:40:57Z</time>
      </trkpt>
      <trkpt lat="45.4999" lon="5.83088">
        <ele>612.250982</ele>
        <time>2010-08-08T14:40:59Z</time>
      </trkpt>
      <trkpt lat="45.49975" lon="5.83081">
        <ele>612.224246</ele>
        <time>2010-08-08T14:41:03Z</time>
      </trkpt>
      <trkpt lat="45.49966" lon="5.83073">
        <ele>612.11598</ele>
        <time>2010-08-08T14:41:06Z</time>
      </trkpt>
      <trkpt lat="45.49951" lon="5.83065">
        <ele>611.64802</ele>
        <time>2010-08-08T14:41:09Z</time>
      </trkpt>
      <trkpt lat="45.49931" lon="5.83063">
        <ele>610.794635</ele>
        <time>2010-08-08T14:41:12Z</time>
      </trkpt>
      <trkpt lat="45.49913" lon="5.83054">
        <ele>609.892085</ele>
        <time>2010-08-08T14:41:15Z</time>
      </trkpt>
      <trkpt lat="45.49893" lon="5.83049">
        <ele>609.18019</ele>
        <time>2010-08-08T14:41:18Z</time>
      </trkpt>
      <trkpt lat="45.49871" lon="5.83042">
        <ele>608.507861</ele>
        <time>2010-08-08T14:41:21Z</time>
      </trkpt>
      <trkpt lat="45.49851" lon="5.83046">
        <ele>607.672785</ele>
        <time>2010-08-08T14:41:23Z</time>
      </trkpt>
      <trkpt lat="45.49824" lon="5.83055">
        <ele>606.842232</ele>
        <time>2010-08-08T14:41:26Z</time>
      </trkpt>
      <trkpt lat="45.49797" lon="5.83053">
        <ele>606.317438</ele>
        <time>2010-08-08T14:41:29Z</time>
      </trkpt>
      <trkpt lat="45.49779" lon="5.83036">
        <ele>606.159454</ele>
        <time>2010-08-08T14:41:31Z</time>
      </trkpt>
      <trkpt lat="45.49756" lon="5.83018">
        <ele>606.190181</ele>
        <time>2010-08-08T14:41:34Z</time>
      </trkpt>
      <trkpt lat="45.49739" lon="5.83005">
        <ele>606.2583</ele>
        <time>2010-08-08T14:41:38Z</time>
      </trkpt>
      <trkpt lat="45.49727" lon="5.82996">
        <ele>606.300768</ele>
        <time>2010-08-08T14:41:40Z</time>
      </trkpt>
      <trkpt lat="45.49716" lon="5.8299">
        <ele>606.313295</ele>
        <time>2010-08-08T14:41:43Z</time>
      </trkpt>
      <trkpt lat="45.49706" lon="5.82984">
        <ele>606.172436</ele>
        <time>2010-08-08T14:41:46Z</time>
      </trkpt>
      <trkpt lat="45.49702" lon="5.82981">
        <ele>605.806958</ele>
        <time>2010-08-08T14:41:48Z</time>
      </trkpt>
      <trkpt lat="45.49698" lon="5.82973">
        <ele>605.434088</ele>
        <time>2010-08-08T14:41:51Z</time>
      </trkpt>
      <trkpt lat="45.49695" lon="5.82965">
        <ele>605.257834</ele>
        <time>2010-08-08T14:41:53Z</time>
      </trkpt>
      <trkpt lat="45.4969" lon="5.82959">
        <ele>605.231537</ele>
        <time>2010-08-08T14:41:55Z</time>
      </trkpt>
      <trkpt lat="45.49689" lon="5.82947">
        <ele>605.261981</ele>
        <time>2010-08-08T14:41:58Z</time>
      </trkpt>
      <trkpt lat="45.49687" lon="5.8294">
        <ele>605.292366</ele>
        <time>2010-08-08T14:42:00Z</time>
      </trkpt>
      <trkpt lat="45.49688" lon="5.82929">
        <ele>605.306541</ele>
        <time>2010-08-08T14:42:03Z</time>
      </trkpt>
      <trkpt lat="45.49688" lon="5.82929">
        <ele>605.308542</ele>
        <time>2010-08-08T14:42:04Z</time>
      </trkpt>
      <trkpt lat="45.49672" lon="5.82923">
        <ele>605.306009</ele>
        <time>2010-08-08T14:42:09Z</time>
      </trkpt>
      <trkpt lat="45.49662" lon="5.82914">
        <ele>605.303533</ele>
        <time>2010-08-08T14:42:12Z</time>
      </trkpt>
      <trkpt lat="45.49657" lon="5.82911">
        <ele>605.206573</ele>
        <time>2010-08-08T14:42:15Z</time>
      </trkpt>
      <trkpt lat="45.49636" lon="5.8294">
        <ele>604.776315</ele>
        <time>2010-08-08T14:42:30Z</time>
      </trkpt>
      <trkpt lat="45.49636" lon="5.8294">
        <ele>604.050124</ele>
        <time>2010-08-08T14:42:34Z</time>
      </trkpt>
      <trkpt lat="45.49614" lon="5.82972">
        <ele>603.30793</ele>
        <time>2010-08-08T14:42:40Z</time>
      </trkpt>
      <trkpt lat="45.49614" lon="5.82972">
        <ele>602.700746</ele>
        <time>2010-08-08T14:42:44Z</time>
      </trkpt>
      <trkpt lat="45.49597" lon="5.83033">
        <ele>602.179276</ele>
        <time>2010-08-08T14:42:47Z</time>
      </trkpt>
      <trkpt lat="45.49593" lon="5.83062">
        <ele>601.427805</ele>
        <time>2010-08-08T14:42:49Z</time>
      </trkpt>
      <trkpt lat="45.49589" lon="5.83111">
        <ele>599.946618</ele>
        <time>2010-08-08T14:42:52Z</time>
      </trkpt>
      <trkpt lat="45.49588" lon="5.83125">
        <ele>597.726252</ele>
        <time>2010-08-08T14:42:54Z</time>
      </trkpt>
      <trkpt lat="45.49588" lon="5.83125">
        <ele>595.552127</ele>
        <time>2010-08-08T14:43:24Z</time>
      </trkpt>
      <trkpt lat="45.49584" lon="5.83146">
        <ele>594.273535</ele>
        <time>2010-08-08T14:44:07Z</time>
      </trkpt>
      <trkpt lat="45.49585" lon="5.83163">
        <ele>593.931534</ele>
        <time>2010-08-08T14:44:09Z</time>
      </trkpt>
      <trkpt lat="45.49581" lon="5.83204">
        <ele>594.415368</ele>
        <time>2010-08-08T14:44:12Z</time>
      </trkpt>
      <trkpt lat="45.49574" lon="5.83256">
        <ele>595.574525</ele>
        <time>2010-08-08T14:44:15Z</time>
      </trkpt>
      <trkpt lat="45.49568" lon="5.83303">
        <ele>596.685024</ele>
        <time>2010-08-08T14:44:18Z</time>
      </trkpt>
      <trkpt lat="45.4956" lon="5.83338">
        <ele>597.189813</ele>
        <time>2010-08-08T14:44:21Z</time>
      </trkpt>
      <trkpt lat="45.49547" lon="5.8337">
        <ele>597.152638</ele>
        <time>2010-08-08T14:44:24Z</time>
      </trkpt>
      <trkpt lat="45.49543" lon="5.83377">
        <ele>596.794948</ele>
        <time>2010-08-08T14:44:26Z</time>
      </trkpt>
      <trkpt lat="45.4953" lon="5.83385">
        <ele>596.436216</ele>
        <time>2010-08-08T14:44:30Z</time>
      </trkpt>
      <trkpt lat="45.49524" lon="5.83386">
        <ele>596.130198</ele>
        <time>2010-08-08T14:44:33Z</time>
      </trkpt>
      <trkpt lat="45.49514" lon="5.83374">
        <ele>595.608128</ele>
        <time>2010-08-08T14:44:37Z</time>
      </trkpt>
      <trkpt lat="45.49507" lon="5.83363">
        <ele>594.63222</ele>
        <time>2010-08-08T14:44:40Z</time>
      </trkpt>
      <trkpt lat="45.495" lon="5.83352">
        <ele>593.396967</ele>
        <time>2010-08-08T14:44:43Z</time>
      </trkpt>
      <trkpt lat="45.49495" lon="5.8334">
        <ele>592.193445</ele>
        <time>2010-08-08T14:44:46Z</time>
      </trkpt>
      <trkpt lat="45.49492" lon="5.83333">
        <ele>590.990236</ele>
        <time>2010-08-08T14:44:48Z</time>
      </trkpt>
      <trkpt lat="45.49487" lon="5.83322">
        <ele>589.757853</ele>
        <time>2010-08-08T14:44:51Z</time>
      </trkpt>
      <trkpt lat="45.49483" lon="5.83315">
        <ele>588.641621</ele>
        <time>2010-08-08T14:44:53Z</time>
      </trkpt>
      <trkpt lat="45.4948" lon="5.83308">
        <ele>587.621043</ele>
        <time>2010-08-08T14:44:55Z</time>
      </trkpt>
      <trkpt lat="45.49474" lon="5.83299">
        <ele>586.777477</ele>
        <time>2010-08-08T14:44:58Z</time>
      </trkpt>
      <trkpt lat="45.49467" lon="5.83289">
        <ele>586.295752</ele>
        <time>2010-08-08T14:45:01Z</time>
      </trkpt>
      <trkpt lat="45.4946" lon="5.8328">
        <ele>586.173861</ele>
        <time>2010-08-08T14:45:04Z</time>
      </trkpt>
      <trkpt lat="45.49455" lon="5.83268">
        <ele>586.219459</ele>
        <time>2010-08-08T14:45:07Z</time>
      </trkpt>
      <trkpt lat="45.49449" lon="5.83256">
        <ele>586.288475</ele>
        <time>2010-08-08T14:45:10Z</time>
      </trkpt>
      <trkpt lat="45.49445" lon="5.83248">
        <ele>586.46556</ele>
        <time>2010-08-08T14:45:12Z</time>
      </trkpt>
      <trkpt lat="45.49439" lon="5.83236">
        <ele>586.835044</ele>
        <time>2010-08-08T14:45:15Z</time>
      </trkpt>
      <trkpt lat="45.49436" lon="5.83228">
        <ele>587.200607</ele>
        <time>2010-08-08T14:45:17Z</time>
      </trkpt>
      <trkpt lat="45.4943" lon="5.83224">
        <ele>587.370223</ele>
        <time>2010-08-08T14:45:19Z</time>
      </trkpt>
      <trkpt lat="45.49423" lon="5.83216">
        <ele>587.393612</ele>
        <time>2010-08-08T14:45:22Z</time>
      </trkpt>
      <trkpt lat="45.49417" lon="5.83212">
        <ele>587.224694</ele>
        <time>2010-08-08T14:45:24Z</time>
      </trkpt>
      <trkpt lat="45.49407" lon="5.83209">
        <ele>586.835022</ele>
        <time>2010-08-08T14:45:27Z</time>
      </trkpt>
      <trkpt lat="45.49396" lon="5.83204">
        <ele>586.451953</ele>
        <time>2010-08-08T14:45:30Z</time>
      </trkpt>
      <trkpt lat="45.4939" lon="5.83202">
        <ele>586.136745</ele>
        <time>2010-08-08T14:45:32Z</time>
      </trkpt>
      <trkpt lat="45.49384" lon="5.832">
        <ele>585.752878</ele>
        <time>2010-08-08T14:45:34Z</time>
      </trkpt>
      <trkpt lat="45.49376" lon="5.832">
        <ele>585.415855</ele>
        <time>2010-08-08T14:45:37Z</time>
      </trkpt>
      <trkpt lat="45.49376" lon="5.832">
        <ele>585.191081</ele>
        <time>2010-08-08T14:45:38Z</time>
      </trkpt>
      <trkpt lat="45.49349" lon="5.83199">
        <ele>584.968551</ele>
        <time>2010-08-08T14:45:50Z</time>
      </trkpt>
      <trkpt lat="45.49335" lon="5.83198">
        <ele>584.784543</ele>
        <time>2010-08-08T14:45:53Z</time>
      </trkpt>
      <trkpt lat="45.49322" lon="5.83195">
        <ele>584.709579</ele>
        <time>2010-08-08T14:45:56Z</time>
      </trkpt>
      <trkpt lat="45.49314" lon="5.83194">
        <ele>584.786352</ele>
        <time>2010-08-08T14:45:58Z</time>
      </trkpt>
      <trkpt lat="45.49301" lon="5.83191">
        <ele>585.153154</ele>
        <time>2010-08-08T14:46:01Z</time>
      </trkpt>
      <trkpt lat="45.49288" lon="5.83187">
        <ele>585.743805</ele>
        <time>2010-08-08T14:46:04Z</time>
      </trkpt>
      <trkpt lat="45.49272" lon="5.83175">
        <ele>586.3598</ele>
        <time>2010-08-08T14:46:07Z</time>
      </trkpt>
      <trkpt lat="45.49252" lon="5.83166">
        <ele>586.910706</ele>
        <time>2010-08-08T14:46:10Z</time>
      </trkpt>
      <trkpt lat="45.49229" lon="5.83158">
        <ele>587.287635</ele>
        <time>2010-08-08T14:46:13Z</time>
      </trkpt>
      <trkpt lat="45.49212" lon="5.83152">
        <ele>587.414108</ele>
        <time>2010-08-08T14:46:15Z</time>
      </trkpt>
      <trkpt lat="45.49186" lon="5.83141">
        <ele>587.401815</ele>
        <time>2010-08-08T14:46:18Z</time>
      </trkpt>
      <trkpt lat="45.49167" lon="5.83132">
        <ele>587.356537</ele>
        <time>2010-08-08T14:46:20Z</time>
      </trkpt>
      <trkpt lat="45.49151" lon="5.83123">
        <ele>587.187813</ele>
        <time>2010-08-08T14:46:22Z</time>
      </trkpt>
      <trkpt lat="45.49129" lon="5.83116">
        <ele>586.817853</ele>
        <time>2010-08-08T14:46:25Z</time>
      </trkpt>
      <trkpt lat="45.49114" lon="5.83113">
        <ele>586.311372</ele>
        <time>2010-08-08T14:46:28Z</time>
      </trkpt>
      <trkpt lat="45.49102" lon="5.83112">
        <ele>585.779938</ele>
        <time>2010-08-08T14:46:30Z</time>
      </trkpt>
      <trkpt lat="45.49083" lon="5.83113">
        <ele>585.386448</ele>
        <time>2010-08-08T14:46:33Z</time>
      </trkpt>
      <trkpt lat="45.49074" lon="5.83117">
        <ele>585.241974</ele>
        <time>2010-08-08T14:46:35Z</time>
      </trkpt>
      <trkpt lat="45.49065" lon="5.83121">
        <ele>585.245449</ele>
        <time>2010-08-08T14:46:37Z</time>
      </trkpt>
      <trkpt lat="45.4906" lon="5.83125">
        <ele>585.151048</ele>
        <time>2010-08-08T14:46:39Z</time>
      </trkpt>
      <trkpt lat="45.4906" lon="5.83125">
        <ele>584.823084</ele>
        <time>2010-08-08T14:46:40Z</time>
      </trkpt>
      <trkpt lat="45.49029" lon="5.83117">
        <ele>584.465186</ele>
        <time>2010-08-08T14:46:55Z</time>
      </trkpt>
      <trkpt lat="45.49029" lon="5.83117">
        <ele>584.215602</ele>
        <time>2010-08-08T14:46:58Z</time>
      </trkpt>
      <trkpt lat="45.49005" lon="5.83095">
        <ele>583.992992</ele>
        <time>2010-08-08T14:47:08Z</time>
      </trkpt>
      <trkpt lat="45.49005" lon="5.83095">
        <ele>583.822809</ele>
        <time>2010-08-08T14:47:11Z</time>
      </trkpt>
      <trkpt lat="45.48978" lon="5.83063">
        <ele>583.832163</ele>
        <time>2010-08-08T14:47:21Z</time>
      </trkpt>
      <trkpt lat="45.48969" lon="5.83055">
        <ele>584.045463</ele>
        <time>2010-08-08T14:47:25Z</time>
      </trkpt>
      <trkpt lat="45.48943" lon="5.83039">
        <ele>584.709421</ele>
        <time>2010-08-08T14:47:36Z</time>
      </trkpt>
      <trkpt lat="45.48926" lon="5.83033">
        <ele>586.036265</ele>
        <time>2010-08-08T14:47:43Z</time>
      </trkpt>
      <trkpt lat="45.48898" lon="5.83022">
        <ele>587.632658</ele>
        <time>2010-08-08T14:47:59Z</time>
      </trkpt>
      <trkpt lat="45.48881" lon="5.83021">
        <ele>589.125565</ele>
        <time>2010-08-08T14:48:07Z</time>
      </trkpt>
      <trkpt lat="45.48872" lon="5.83015">
        <ele>590.719841</ele>
        <time>2010-08-08T14:48:12Z</time>
      </trkpt>
      <trkpt lat="45.48871" lon="5.82997">
        <ele>592.696183</ele>
        <time>2010-08-08T14:48:21Z</time>
      </trkpt>
      <trkpt lat="45.48879" lon="5.82991">
        <ele>595.463288</ele>
        <time>2010-08-08T14:48:26Z</time>
      </trkpt>
      <trkpt lat="45.48887" lon="5.82985">
        <ele>599.228134</ele>
        <time>2010-08-08T14:48:31Z</time>
      </trkpt>
      <trkpt lat="45.48897" lon="5.82977">
        <ele>603.123778</ele>
        <time>2010-08-08T14:48:37Z</time>
      </trkpt>
      <trkpt lat="45.48897" lon="5.82977">
        <ele>605.78918</ele>
        <time>2010-08-08T14:48:51Z</time>
      </trkpt>
      <trkpt lat="45.48897" lon="5.82977">
        <ele>606.821694</ele>
        <time>2010-08-08T14:49:08Z</time>
      </trkpt>
      <trkpt lat="45.48879" lon="5.82946">
        <ele>606.838676</ele>
        <time>2010-08-08T14:49:11Z</time>
      </trkpt>
      <trkpt lat="45.48866" lon="5.82949">
        <ele>606.55726</ele>
        <time>2010-08-08T14:49:16Z</time>
      </trkpt>
      <trkpt lat="45.48857" lon="5.82951">
        <ele>606.340805</ele>
        <time>2010-08-08T14:49:18Z</time>
      </trkpt>
      <trkpt lat="45.48857" lon="5.82951">
        <ele>606.25822</ele>
        <time>2010-08-08T14:49:19Z</time>
      </trkpt>
      <trkpt lat="45.48823" lon="5.82945">
        <ele>606.257792</ele>
        <time>2010-08-08T14:49:39Z</time>
      </trkpt>
      <trkpt lat="45.48821" lon="5.82945">
        <ele>606.281001</ele>
        <time>2010-08-08T14:49:41Z</time>
      </trkpt>
      <trkpt lat="45.48821" lon="5.82945">
        <ele>606.298574</ele>
        <time>2010-08-08T14:49:42Z</time>
      </trkpt>
      <trkpt lat="45.48791" lon="5.82937">
        <ele>606.443355</ele>
        <time>2010-08-08T14:49:59Z</time>
      </trkpt>
      <trkpt lat="45.48787" lon="5.82937">
        <ele>607.355916</ele>
        <time>2010-08-08T14:50:01Z</time>
      </trkpt>
      <trkpt lat="45.48782" lon="5.82936">
        <ele>609.301185</ele>
        <time>2010-08-08T14:50:03Z</time>
      </trkpt>
      <trkpt lat="45.48776" lon="5.82935">
        <ele>612.003541</ele>
        <time>2010-08-08T14:50:06Z</time>
      </trkpt>
      <trkpt lat="45.48772" lon="5.82934">
        <ele>614.899484</ele>
        <time>2010-08-08T14:50:08Z</time>
      </trkpt>
      <trkpt lat="45.48769" lon="5.82933">
        <ele>617.27442</ele>
        <time>2010-08-08T14:50:10Z</time>
      </trkpt>
      <trkpt lat="45.48763" lon="5.82928">
        <ele>618.885324</ele>
        <time>2010-08-08T14:50:16Z</time>
      </trkpt>
      <trkpt lat="45.4876" lon="5.82923">
        <ele>619.95234</ele>
        <time>2010-08-08T14:50:20Z</time>
      </trkpt>
      <trkpt lat="45.48758" lon="5.8292">
        <ele>620.710251</ele>
        <time>2010-08-08T14:50:23Z</time>
      </trkpt>
      <trkpt lat="45.48754" lon="5.82917">
        <ele>621.764487</ele>
        <time>2010-08-08T14:50:26Z</time>
      </trkpt>
      <trkpt lat="45.4875" lon="5.82913">
        <ele>623.129621</ele>
        <time>2010-08-08T14:50:30Z</time>
      </trkpt>
      <trkpt lat="45.48748" lon="5.82912">
        <ele>624.270315</ele>
        <time>2010-08-08T14:50:32Z</time>
      </trkpt>
      <trkpt lat="45.4874" lon="5.82906">
        <ele>625.133286</ele>
        <time>2010-08-08T14:50:39Z</time>
      </trkpt>
      <trkpt lat="45.48734" lon="5.82901">
        <ele>626.2659</ele>
        <time>2010-08-08T14:50:44Z</time>
      </trkpt>
      <trkpt lat="45.4873" lon="5.82896">
        <ele>627.916025</ele>
        <time>2010-08-08T14:50:47Z</time>
      </trkpt>
      <trkpt lat="45.48727" lon="5.82894">
        <ele>629.781033</ele>
        <time>2010-08-08T14:50:49Z</time>
      </trkpt>
      <trkpt lat="45.48722" lon="5.8289">
        <ele>631.363451</ele>
        <time>2010-08-08T14:50:52Z</time>
      </trkpt>
      <trkpt lat="45.48718" lon="5.82886">
        <ele>632.436527</ele>
        <time>2010-08-08T14:50:54Z</time>
      </trkpt>
      <trkpt lat="45.48712" lon="5.82881">
        <ele>633.048564</ele>
        <time>2010-08-08T14:50:57Z</time>
      </trkpt>
      <trkpt lat="45.48702" lon="5.82874">
        <ele>633.34123</ele>
        <time>2010-08-08T14:51:02Z</time>
      </trkpt>
      <trkpt lat="45.48698" lon="5.82871">
        <ele>633.525099</ele>
        <time>2010-08-08T14:51:04Z</time>
      </trkpt>
      <trkpt lat="45.48694" lon="5.82869">
        <ele>633.835963</ele>
        <time>2010-08-08T14:51:06Z</time>
      </trkpt>
      <trkpt lat="45.48689" lon="5.82866">
        <ele>634.431867</ele>
        <time>2010-08-08T14:51:09Z</time>
      </trkpt>
      <trkpt lat="45.48685" lon="5.82865">
        <ele>635.303369</ele>
        <time>2010-08-08T14:51:11Z</time>
      </trkpt>
      <trkpt lat="45.48675" lon="5.8286">
        <ele>636.065279</ele>
        <time>2010-08-08T14:51:16Z</time>
      </trkpt>
      <trkpt lat="45.4867" lon="5.82858">
        <ele>636.389899</ele>
        <time>2010-08-08T14:51:19Z</time>
      </trkpt>
      <trkpt lat="45.48666" lon="5.82855">
        <ele>636.555095</ele>
        <time>2010-08-08T14:51:21Z</time>
      </trkpt>
      <trkpt lat="45.48662" lon="5.82853">
        <ele>636.98099</ele>
        <time>2010-08-08T14:51:23Z</time>
      </trkpt>
      <trkpt lat="45.48657" lon="5.82849">
        <ele>637.648345</ele>
        <time>2010-08-08T14:51:26Z</time>
      </trkpt>
      <trkpt lat="45.48653" lon="5.82846">
        <ele>638.167006</ele>
        <time>2010-08-08T14:51:29Z</time>
      </trkpt>
      <trkpt lat="45.48651" lon="5.82842">
        <ele>638.505054</ele>
        <time>2010-08-08T14:51:31Z</time>
      </trkpt>
      <trkpt lat="45.48649" lon="5.82836">
        <ele>638.867464</ele>
        <time>2010-08-08T14:51:34Z</time>
      </trkpt>
      <trkpt lat="45.48646" lon="5.82831">
        <ele>639.181844</ele>
        <time>2010-08-08T14:51:37Z</time>
      </trkpt>
      <trkpt lat="45.48646" lon="5.82831">
        <ele>639.314989</ele>
        <time>2010-08-08T14:51:49Z</time>
      </trkpt>
      <trkpt lat="45.48628" lon="5.82793">
        <ele>639.463713</ele>
        <time>2010-08-08T14:52:02Z</time>
      </trkpt>
      <trkpt lat="45.48625" lon="5.8279">
        <ele>639.931778</ele>
        <time>2010-08-08T14:52:04Z</time>
      </trkpt>
      <trkpt lat="45.48618" lon="5.82779">
        <ele>640.773715</ele>
        <time>2010-08-08T14:52:07Z</time>
      </trkpt>
      <trkpt lat="45.48614" lon="5.82773">
        <ele>642.358515</ele>
        <time>2010-08-08T14:52:10Z</time>
      </trkpt>
      <trkpt lat="45.48608" lon="5.82768">
        <ele>644.728459</ele>
        <time>2010-08-08T14:52:13Z</time>
      </trkpt>
      <trkpt lat="45.48603" lon="5.82765">
        <ele>646.749921</ele>
        <time>2010-08-08T14:52:15Z</time>
      </trkpt>
      <trkpt lat="45.48593" lon="5.8276">
        <ele>647.594743</ele>
        <time>2010-08-08T14:52:18Z</time>
      </trkpt>
      <trkpt lat="45.4859" lon="5.82758">
        <ele>647.792237</ele>
        <time>2010-08-08T14:52:21Z</time>
      </trkpt>
      <trkpt lat="45.48587" lon="5.82756">
        <ele>647.956025</ele>
        <time>2010-08-08T14:52:24Z</time>
      </trkpt>
      <trkpt lat="45.48576" lon="5.82752">
        <ele>648.299273</ele>
        <time>2010-08-08T14:52:27Z</time>
      </trkpt>
      <trkpt lat="45.4857" lon="5.8275">
        <ele>648.766704</ele>
        <time>2010-08-08T14:52:30Z</time>
      </trkpt>
      <trkpt lat="45.48563" lon="5.82746">
        <ele>649.158576</ele>
        <time>2010-08-08T14:52:33Z</time>
      </trkpt>
      <trkpt lat="45.48553" lon="5.82741">
        <ele>649.596424</ele>
        <time>2010-08-08T14:52:36Z</time>
      </trkpt>
      <trkpt lat="45.48545" lon="5.82738">
        <ele>650.46417</ele>
        <time>2010-08-08T14:52:39Z</time>
      </trkpt>
      <trkpt lat="45.48536" lon="5.82736">
        <ele>651.662454</ele>
        <time>2010-08-08T14:52:42Z</time>
      </trkpt>
      <trkpt lat="45.4853" lon="5.82735">
        <ele>652.986804</ele>
        <time>2010-08-08T14:52:44Z</time>
      </trkpt>
      <trkpt lat="45.48527" lon="5.82734">
        <ele>654.429582</ele>
        <time>2010-08-08T14:52:47Z</time>
      </trkpt>
      <trkpt lat="45.48515" lon="5.82733">
        <ele>655.945865</ele>
        <time>2010-08-08T14:52:49Z</time>
      </trkpt>
      <trkpt lat="45.4851" lon="5.82733">
        <ele>657.463308</ele>
        <time>2010-08-08T14:52:51Z</time>
      </trkpt>
      <trkpt lat="45.48507" lon="5.82733">
        <ele>658.704695</ele>
        <time>2010-08-08T14:52:54Z</time>
      </trkpt>
      <trkpt lat="45.48498" lon="5.82733">
        <ele>659.344</ele>
        <time>2010-08-08T14:52:57Z</time>
      </trkpt>
      <trkpt lat="45.48485" lon="5.82734">
        <ele>659.471036</ele>
        <time>2010-08-08T14:52:59Z</time>
      </trkpt>
      <trkpt lat="45.4848" lon="5.82734">
        <ele>659.384411</ele>
        <time>2010-08-08T14:53:01Z</time>
      </trkpt>
      <trkpt lat="45.48472" lon="5.82734">
        <ele>659.144898</ele>
        <time>2010-08-08T14:53:04Z</time>
      </trkpt>
      <trkpt lat="45.48463" lon="5.82733">
        <ele>658.595309</ele>
        <time>2010-08-08T14:53:07Z</time>
      </trkpt>
      <trkpt lat="45.48451" lon="5.82731">
        <ele>657.856114</ele>
        <time>2010-08-08T14:53:10Z</time>
      </trkpt>
      <trkpt lat="45.48437" lon="5.82728">
        <ele>657.318677</ele>
        <time>2010-08-08T14:53:13Z</time>
      </trkpt>
      <trkpt lat="45.48425" lon="5.82726">
        <ele>657.125155</ele>
        <time>2010-08-08T14:53:16Z</time>
      </trkpt>
      <trkpt lat="45.48417" lon="5.82725">
        <ele>657.132761</ele>
        <time>2010-08-08T14:53:18Z</time>
      </trkpt>
      <trkpt lat="45.48406" lon="5.82723">
        <ele>657.19362</ele>
        <time>2010-08-08T14:53:21Z</time>
      </trkpt>
      <trkpt lat="45.48396" lon="5.82721">
        <ele>657.513572</ele>
        <time>2010-08-08T14:53:24Z</time>
      </trkpt>
      <trkpt lat="45.48386" lon="5.82718">
        <ele>658.386977</ele>
        <time>2010-08-08T14:53:27Z</time>
      </trkpt>
      <trkpt lat="45.48377" lon="5.82715">
        <ele>659.48493</ele>
        <time>2010-08-08T14:53:30Z</time>
      </trkpt>
      <trkpt lat="45.48377" lon="5.82715">
        <ele>660.199879</ele>
        <time>2010-08-08T14:53:32Z</time>
      </trkpt>
      <trkpt lat="45.48377" lon="5.82715">
        <ele>660.424665</ele>
        <time>2010-08-08T14:54:13Z</time>
      </trkpt>
      <trkpt lat="45.48351" lon="5.82701">
        <ele>660.389992</ele>
        <time>2010-08-08T15:00:13Z</time>
      </trkpt>
      <trkpt lat="45.48342" lon="5.82699">
        <ele>660.299871</ele>
        <time>2010-08-08T15:00:16Z</time>
      </trkpt>
      <trkpt lat="45.48332" lon="5.82697">
        <ele>660.241983</ele>
        <time>2010-08-08T15:00:19Z</time>
      </trkpt>
      <trkpt lat="45.48322" lon="5.82695">
        <ele>661.60591</ele>
        <time>2010-08-08T15:00:22Z</time>
      </trkpt>
      <trkpt lat="45.48313" lon="5.82693">
        <ele>665.346079</ele>
        <time>2010-08-08T15:00:25Z</time>
      </trkpt>
      <trkpt lat="45.48304" lon="5.82689">
        <ele>669.407714</ele>
        <time>2010-08-08T15:00:28Z</time>
      </trkpt>
      <trkpt lat="45.48295" lon="5.82684">
        <ele>671.534447</ele>
        <time>2010-08-08T15:00:31Z</time>
      </trkpt>
      <trkpt lat="45.48286" lon="5.82679">
        <ele>671.976427</ele>
        <time>2010-08-08T15:00:34Z</time>
      </trkpt>
      <trkpt lat="45.48277" lon="5.82674">
        <ele>671.841005</ele>
        <time>2010-08-08T15:00:37Z</time>
      </trkpt>
      <trkpt lat="45.48268" lon="5.82669">
        <ele>671.869228</ele>
        <time>2010-08-08T15:00:40Z</time>
      </trkpt>
      <trkpt lat="45.48258" lon="5.82663">
        <ele>672.067214</ele>
        <time>2010-08-08T15:00:43Z</time>
      </trkpt>
      <trkpt lat="45.48249" lon="5.8266">
        <ele>672.208051</ele>
        <time>2010-08-08T15:00:46Z</time>
      </trkpt>
      <trkpt lat="45.4824" lon="5.82655">
        <ele>672.257546</ele>
        <time>2010-08-08T15:00:49Z</time>
      </trkpt>
      <trkpt lat="45.48234" lon="5.82649">
        <ele>672.254636</ele>
        <time>2010-08-08T15:00:52Z</time>
      </trkpt>
      <trkpt lat="45.48231" lon="5.82632">
        <ele>672.238346</ele>
        <time>2010-08-08T15:00:55Z</time>
      </trkpt>
      <trkpt lat="45.48226" lon="5.8262">
        <ele>672.226925</ele>
        <time>2010-08-08T15:00:58Z</time>
      </trkpt>
      <trkpt lat="45.48218" lon="5.82614">
        <ele>672.222979</ele>
        <time>2010-08-08T15:01:01Z</time>
      </trkpt>
      <trkpt lat="45.48213" lon="5.8261">
        <ele>671.808731</ele>
        <time>2010-08-08T15:01:03Z</time>
      </trkpt>
      <trkpt lat="45.48202" lon="5.82604">
        <ele>670.454039</ele>
        <time>2010-08-08T15:01:06Z</time>
      </trkpt>
      <trkpt lat="45.48191" lon="5.82597">
        <ele>668.488698</ele>
        <time>2010-08-08T15:01:09Z</time>
      </trkpt>
      <trkpt lat="45.48179" lon="5.82592">
        <ele>666.864467</ele>
        <time>2010-08-08T15:01:12Z</time>
      </trkpt>
      <trkpt lat="45.48167" lon="5.82586">
        <ele>665.926713</ele>
        <time>2010-08-08T15:01:15Z</time>
      </trkpt>
      <trkpt lat="45.48155" lon="5.82579">
        <ele>665.428348</ele>
        <time>2010-08-08T15:01:18Z</time>
      </trkpt>
      <trkpt lat="45.48143" lon="5.82573">
        <ele>665.044425</ele>
        <time>2010-08-08T15:01:21Z</time>
      </trkpt>
      <trkpt lat="45.4813" lon="5.82567">
        <ele>664.641736</ele>
        <time>2010-08-08T15:01:24Z</time>
      </trkpt>
      <trkpt lat="45.48117" lon="5.82559">
        <ele>664.310139</ele>
        <time>2010-08-08T15:01:27Z</time>
      </trkpt>
      <trkpt lat="45.48104" lon="5.82551">
        <ele>664.175523</ele>
        <time>2010-08-08T15:01:30Z</time>
      </trkpt>
      <trkpt lat="45.4809" lon="5.82543">
        <ele>664.168777</ele>
        <time>2010-08-08T15:01:33Z</time>
      </trkpt>
      <trkpt lat="45.48075" lon="5.82537">
        <ele>664.202058</ele>
        <time>2010-08-08T15:01:36Z</time>
      </trkpt>
      <trkpt lat="45.4806" lon="5.82531">
        <ele>664.229008</ele>
        <time>2010-08-08T15:01:39Z</time>
      </trkpt>
      <trkpt lat="45.48046" lon="5.82525">
        <ele>664.23979</ele>
        <time>2010-08-08T15:01:42Z</time>
      </trkpt>
      <trkpt lat="45.48031" lon="5.82518">
        <ele>664.102041</ele>
        <time>2010-08-08T15:01:45Z</time>
      </trkpt>
      <trkpt lat="45.48017" lon="5.8251">
        <ele>663.7394</ele>
        <time>2010-08-08T15:01:48Z</time>
      </trkpt>
      <trkpt lat="45.48004" lon="5.82498">
        <ele>663.367775</ele>
        <time>2010-08-08T15:01:51Z</time>
      </trkpt>
      <trkpt lat="45.47991" lon="5.82487">
        <ele>663.191651</ele>
        <time>2010-08-08T15:01:54Z</time>
      </trkpt>
      <trkpt lat="45.47978" lon="5.82478">
        <ele>663.303273</ele>
        <time>2010-08-08T15:01:57Z</time>
      </trkpt>
      <trkpt lat="45.47967" lon="5.82475">
        <ele>663.693378</ele>
        <time>2010-08-08T15:01:59Z</time>
      </trkpt>
      <trkpt lat="45.47957" lon="5.82472">
        <ele>664.093099</ele>
        <time>2010-08-08T15:02:01Z</time>
      </trkpt>
      <trkpt lat="45.47947" lon="5.8247">
        <ele>664.282525</ele>
        <time>2010-08-08T15:02:03Z</time>
      </trkpt>
      <trkpt lat="45.47931" lon="5.82465">
        <ele>664.311078</ele>
        <time>2010-08-08T15:02:06Z</time>
      </trkpt>
      <trkpt lat="45.47916" lon="5.82461">
        <ele>664.278577</ele>
        <time>2010-08-08T15:02:09Z</time>
      </trkpt>
      <trkpt lat="45.47906" lon="5.82457">
        <ele>664.246002</ele>
        <time>2010-08-08T15:02:11Z</time>
      </trkpt>
      <trkpt lat="45.47892" lon="5.82451">
        <ele>664.368945</ele>
        <time>2010-08-08T15:02:14Z</time>
      </trkpt>
      <trkpt lat="45.47882" lon="5.82447">
        <ele>664.726662</ele>
        <time>2010-08-08T15:02:16Z</time>
      </trkpt>
      <trkpt lat="45.47873" lon="5.82443">
        <ele>665.098802</ele>
        <time>2010-08-08T15:02:18Z</time>
      </trkpt>
      <trkpt lat="45.47859" lon="5.82437">
        <ele>665.276718</ele>
        <time>2010-08-08T15:02:21Z</time>
      </trkpt>
      <trkpt lat="45.47845" lon="5.82432">
        <ele>665.304473</ele>
        <time>2010-08-08T15:02:24Z</time>
      </trkpt>
      <trkpt lat="45.4783" lon="5.82426">
        <ele>665.274652</ele>
        <time>2010-08-08T15:02:27Z</time>
      </trkpt>
      <trkpt lat="45.47816" lon="5.82419">
        <ele>665.106141</ele>
        <time>2010-08-08T15:02:30Z</time>
      </trkpt>
      <trkpt lat="45.47802" lon="5.82412">
        <ele>664.731937</ele>
        <time>2010-08-08T15:02:33Z</time>
      </trkpt>
      <trkpt lat="45.47792" lon="5.82407">
        <ele>664.360382</ele>
        <time>2010-08-08T15:02:35Z</time>
      </trkpt>
      <trkpt lat="45.47783" lon="5.824">
        <ele>664.187604</ele>
        <time>2010-08-08T15:02:37Z</time>
      </trkpt>
      <trkpt lat="45.47769" lon="5.8239">
        <ele>664.163546</ele>
        <time>2010-08-08T15:02:40Z</time>
      </trkpt>
      <trkpt lat="45.4776" lon="5.82385">
        <ele>664.194683</ele>
        <time>2010-08-08T15:02:42Z</time>
      </trkpt>
      <trkpt lat="45.47752" lon="5.82379">
        <ele>664.224952</ele>
        <time>2010-08-08T15:02:44Z</time>
      </trkpt>
      <trkpt lat="45.47739" lon="5.82371">
        <ele>664.100663</ele>
        <time>2010-08-08T15:02:47Z</time>
      </trkpt>
      <trkpt lat="45.47731" lon="5.82366">
        <ele>663.742591</ele>
        <time>2010-08-08T15:02:49Z</time>
      </trkpt>
      <trkpt lat="45.47717" lon="5.82359">
        <ele>663.370568</ele>
        <time>2010-08-08T15:02:52Z</time>
      </trkpt>
      <trkpt lat="45.47701" lon="5.82352">
        <ele>663.192841</ele>
        <time>2010-08-08T15:02:55Z</time>
      </trkpt>
      <trkpt lat="45.47685" lon="5.82346">
        <ele>663.165195</ele>
        <time>2010-08-08T15:02:58Z</time>
      </trkpt>
      <trkpt lat="45.4767" lon="5.8234">
        <ele>663.195044</ele>
        <time>2010-08-08T15:03:01Z</time>
      </trkpt>
      <trkpt lat="45.47655" lon="5.82335">
        <ele>663.225367</ele>
        <time>2010-08-08T15:03:04Z</time>
      </trkpt>
      <trkpt lat="45.4764" lon="5.8233">
        <ele>663.239664</ele>
        <time>2010-08-08T15:03:07Z</time>
      </trkpt>
      <trkpt lat="45.4763" lon="5.82327">
        <ele>663.241775</ele>
        <time>2010-08-08T15:03:09Z</time>
      </trkpt>
      <trkpt lat="45.47617" lon="5.8232">
        <ele>663.239289</ele>
        <time>2010-08-08T15:03:12Z</time>
      </trkpt>
      <trkpt lat="45.47603" lon="5.82311">
        <ele>663.09864</ele>
        <time>2010-08-08T15:03:16Z</time>
      </trkpt>
      <trkpt lat="45.4759" lon="5.823">
        <ele>662.59942</ele>
        <time>2010-08-08T15:03:18Z</time>
      </trkpt>
      <trkpt lat="45.47577" lon="5.82289">
        <ele>661.869933</ele>
        <time>2010-08-08T15:03:21Z</time>
      </trkpt>
      <trkpt lat="45.47564" lon="5.82277">
        <ele>661.325443</ele>
        <time>2010-08-08T15:03:24Z</time>
      </trkpt>
      <trkpt lat="45.47556" lon="5.82269">
        <ele>661.123853</ele>
        <time>2010-08-08T15:03:26Z</time>
      </trkpt>
      <trkpt lat="45.47547" lon="5.82262">
        <ele>661.127402</ele>
        <time>2010-08-08T15:03:28Z</time>
      </trkpt>
      <trkpt lat="45.47533" lon="5.82252">
        <ele>661.187507</ele>
        <time>2010-08-08T15:03:31Z</time>
      </trkpt>
      <trkpt lat="45.47521" lon="5.82242">
        <ele>661.231694</ele>
        <time>2010-08-08T15:03:34Z</time>
      </trkpt>
      <trkpt lat="45.47512" lon="5.82235">
        <ele>661.247795</ele>
        <time>2010-08-08T15:03:36Z</time>
      </trkpt>
      <trkpt lat="45.47499" lon="5.82224">
        <ele>661.247313</ele>
        <time>2010-08-08T15:03:39Z</time>
      </trkpt>
      <trkpt lat="45.47491" lon="5.82218">
        <ele>661.242363</ele>
        <time>2010-08-08T15:03:41Z</time>
      </trkpt>
      <trkpt lat="45.47483" lon="5.82211">
        <ele>661.238778</ele>
        <time>2010-08-08T15:03:43Z</time>
      </trkpt>
      <trkpt lat="45.47471" lon="5.82202">
        <ele>661.237493</ele>
        <time>2010-08-08T15:03:46Z</time>
      </trkpt>
      <trkpt lat="45.47462" lon="5.82197">
        <ele>661.375726</ele>
        <time>2010-08-08T15:03:48Z</time>
      </trkpt>
      <trkpt lat="45.47449" lon="5.82193">
        <ele>661.736025</ele>
        <time>2010-08-08T15:03:51Z</time>
      </trkpt>
      <trkpt lat="45.47436" lon="5.82191">
        <ele>662.105751</ele>
        <time>2010-08-08T15:03:54Z</time>
      </trkpt>
      <trkpt lat="45.47428" lon="5.8219">
        <ele>662.281115</ele>
        <time>2010-08-08T15:03:56Z</time>
      </trkpt>
      <trkpt lat="45.47421" lon="5.82186">
        <ele>662.169461</ele>
        <time>2010-08-08T15:03:58Z</time>
      </trkpt>
      <trkpt lat="45.47418" lon="5.82175">
        <ele>661.779549</ele>
        <time>2010-08-08T15:04:01Z</time>
      </trkpt>
      <trkpt lat="45.47421" lon="5.82167">
        <ele>661.379983</ele>
        <time>2010-08-08T15:04:03Z</time>
      </trkpt>
      <trkpt lat="45.47425" lon="5.82156">
        <ele>661.190618</ele>
        <time>2010-08-08T15:04:06Z</time>
      </trkpt>
      <trkpt lat="45.47427" lon="5.82145">
        <ele>661.162067</ele>
        <time>2010-08-08T15:04:09Z</time>
      </trkpt>
      <trkpt lat="45.47429" lon="5.82135">
        <ele>661.194552</ele>
        <time>2010-08-08T15:04:12Z</time>
      </trkpt>
      <trkpt lat="45.47429" lon="5.82135">
        <ele>661.227114</ele>
        <time>2010-08-08T15:04:13Z</time>
      </trkpt>
      <trkpt lat="45.47435" lon="5.82093">
        <ele>661.242344</ele>
        <time>2010-08-08T15:04:28Z</time>
      </trkpt>
      <trkpt lat="45.47437" lon="5.8208">
        <ele>661.382697</ele>
        <time>2010-08-08T15:04:31Z</time>
      </trkpt>
      <trkpt lat="45.47439" lon="5.82066">
        <ele>661.739885</ele>
        <time>2010-08-08T15:04:34Z</time>
      </trkpt>
      <trkpt lat="45.47441" lon="5.8205">
        <ele>662.244845</ele>
        <time>2010-08-08T15:04:37Z</time>
      </trkpt>
      <trkpt lat="45.47442" lon="5.82039">
        <ele>662.778774</ele>
        <time>2010-08-08T15:04:40Z</time>
      </trkpt>
      <trkpt lat="45.47444" lon="5.82024">
        <ele>663.174574</ele>
        <time>2010-08-08T15:04:42Z</time>
      </trkpt>
      <trkpt lat="45.47447" lon="5.82009">
        <ele>663.320074</ele>
        <time>2010-08-08T15:04:45Z</time>
      </trkpt>
      <trkpt lat="45.47449" lon="5.81994">
        <ele>663.316713</ele>
        <time>2010-08-08T15:04:48Z</time>
      </trkpt>
      <trkpt lat="45.4745" lon="5.81985">
        <ele>663.272729</ele>
        <time>2010-08-08T15:04:50Z</time>
      </trkpt>
      <trkpt lat="45.47451" lon="5.81973">
        <ele>663.37879</ele>
        <time>2010-08-08T15:04:53Z</time>
      </trkpt>
      <trkpt lat="45.47452" lon="5.81965">
        <ele>663.865242</ele>
        <time>2010-08-08T15:04:55Z</time>
      </trkpt>
      <trkpt lat="45.47454" lon="5.81953">
        <ele>664.594983</ele>
        <time>2010-08-08T15:04:58Z</time>
      </trkpt>
      <trkpt lat="45.47459" lon="5.81943">
        <ele>665.1433</ele>
        <time>2010-08-08T15:05:01Z</time>
      </trkpt>
      <trkpt lat="45.47463" lon="5.81938">
        <ele>665.347697</ele>
        <time>2010-08-08T15:05:03Z</time>
      </trkpt>
      <trkpt lat="45.47468" lon="5.81937">
        <ele>665.345169</ele>
        <time>2010-08-08T15:05:06Z</time>
      </trkpt>
      <trkpt lat="45.47468" lon="5.81937">
        <ele>665.194547</ele>
        <time>2010-08-08T15:05:07Z</time>
      </trkpt>
      <trkpt lat="45.47493" lon="5.8192">
        <ele>664.866681</ele>
        <time>2010-08-08T15:05:21Z</time>
      </trkpt>
      <trkpt lat="45.47493" lon="5.8192">
        <ele>664.484211</ele>
        <time>2010-08-08T15:05:24Z</time>
      </trkpt>
      <trkpt lat="45.4752" lon="5.81913">
        <ele>664.223906</ele>
        <time>2010-08-08T15:05:49Z</time>
      </trkpt>
      <trkpt lat="45.4752" lon="5.81913">
        <ele>664.014195</ele>
        <time>2010-08-08T15:06:01Z</time>
      </trkpt>
      <trkpt lat="45.47548" lon="5.81915">
        <ele>663.716763</ele>
        <time>2010-08-08T15:06:07Z</time>
      </trkpt>
      <trkpt lat="45.47577" lon="5.8191">
        <ele>663.268544</ele>
        <time>2010-08-08T15:06:15Z</time>
      </trkpt>
      <trkpt lat="45.47604" lon="5.81914">
        <ele>662.729317</ele>
        <time>2010-08-08T15:06:26Z</time>
      </trkpt>
      <trkpt lat="45.47633" lon="5.81922">
        <ele>662.482483</ele>
        <time>2010-08-08T15:06:36Z</time>
      </trkpt>
      <trkpt lat="45.47662" lon="5.81926">
        <ele>662.763814</ele>
        <time>2010-08-08T15:06:46Z</time>
      </trkpt>
      <trkpt lat="45.47662" lon="5.81926">
        <ele>663.214811</ele>
        <time>2010-08-08T15:07:03Z</time>
      </trkpt>
      <trkpt lat="45.47662" lon="5.81926">
        <ele>663.334354</ele>
        <time>2010-08-08T15:07:17Z</time>
      </trkpt>
      <trkpt lat="45.47689" lon="5.8193">
        <ele>663.284105</ele>
        <time>2010-08-08T15:07:57Z</time>
      </trkpt>
      <trkpt lat="45.47689" lon="5.8193">
        <ele>663.529809</ele>
        <time>2010-08-08T15:08:01Z</time>
      </trkpt>
      <trkpt lat="45.47689" lon="5.8193">
        <ele>663.772414</ele>
        <time>2010-08-08T15:08:38Z</time>
      </trkpt>
      <trkpt lat="45.47651" lon="5.81913">
        <ele>663.508488</ele>
        <time>2010-08-08T15:10:33Z</time>
      </trkpt>
      <trkpt lat="45.47622" lon="5.81901">
        <ele>663.037753</ele>
        <time>2010-08-08T15:10:37Z</time>
      </trkpt>
      <trkpt lat="45.47596" lon="5.81889">
        <ele>664.48208</ele>
        <time>2010-08-08T15:10:39Z</time>
      </trkpt>
      <trkpt lat="45.47573" lon="5.81877">
        <ele>668.894495</ele>
        <time>2010-08-08T15:10:42Z</time>
      </trkpt>
      <trkpt lat="45.47555" lon="5.81882">
        <ele>673.524068</ele>
        <time>2010-08-08T15:10:44Z</time>
      </trkpt>
      <trkpt lat="45.4753" lon="5.81886">
        <ele>675.748155</ele>
        <time>2010-08-08T15:10:47Z</time>
      </trkpt>
      <trkpt lat="45.47517" lon="5.81884">
        <ele>676.101524</ele>
        <time>2010-08-08T15:10:49Z</time>
      </trkpt>
      <trkpt lat="45.47494" lon="5.81899">
        <ele>675.457196</ele>
        <time>2010-08-08T15:10:52Z</time>
      </trkpt>
      <trkpt lat="45.47478" lon="5.81907">
        <ele>673.945492</ele>
        <time>2010-08-08T15:10:55Z</time>
      </trkpt>
      <trkpt lat="45.47468" lon="5.81916">
        <ele>671.80983</ele>
        <time>2010-08-08T15:10:57Z</time>
      </trkpt>
      <trkpt lat="45.47462" lon="5.81945">
        <ele>669.41137</ele>
        <time>2010-08-08T15:11:00Z</time>
      </trkpt>
      <trkpt lat="45.47457" lon="5.81972">
        <ele>666.777825</ele>
        <time>2010-08-08T15:11:03Z</time>
      </trkpt>
      <trkpt lat="45.47454" lon="5.81995">
        <ele>664.277998</ele>
        <time>2010-08-08T15:11:06Z</time>
      </trkpt>
      <trkpt lat="45.47452" lon="5.82007">
        <ele>662.478049</ele>
        <time>2010-08-08T15:11:08Z</time>
      </trkpt>
      <trkpt lat="45.47449" lon="5.82026">
        <ele>661.442639</ele>
        <time>2010-08-08T15:11:11Z</time>
      </trkpt>
      <trkpt lat="45.47446" lon="5.82036">
        <ele>661.038714</ele>
        <time>2010-08-08T15:11:13Z</time>
      </trkpt>
      <trkpt lat="45.47444" lon="5.82048">
        <ele>661.029988</ele>
        <time>2010-08-08T15:11:15Z</time>
      </trkpt>
      <trkpt lat="45.47441" lon="5.82067">
        <ele>661.276692</ele>
        <time>2010-08-08T15:11:18Z</time>
      </trkpt>
      <trkpt lat="45.47438" lon="5.82086">
        <ele>661.858856</ele>
        <time>2010-08-08T15:11:21Z</time>
      </trkpt>
      <trkpt lat="45.47435" lon="5.82104">
        <ele>662.620497</ele>
        <time>2010-08-08T15:11:24Z</time>
      </trkpt>
      <trkpt lat="45.47432" lon="5.82122">
        <ele>663.30371</ele>
        <time>2010-08-08T15:11:27Z</time>
      </trkpt>
      <trkpt lat="45.47429" lon="5.8214">
        <ele>663.856442</ele>
        <time>2010-08-08T15:11:30Z</time>
      </trkpt>
      <trkpt lat="45.47425" lon="5.82158">
        <ele>664.215593</ele>
        <time>2010-08-08T15:11:33Z</time>
      </trkpt>
      <trkpt lat="45.47415" lon="5.82172">
        <ele>664.466354</ele>
        <time>2010-08-08T15:11:36Z</time>
      </trkpt>
      <trkpt lat="45.47401" lon="5.82181">
        <ele>664.808575</ele>
        <time>2010-08-08T15:11:39Z</time>
      </trkpt>
      <trkpt lat="45.47388" lon="5.82188">
        <ele>665.132644</ele>
        <time>2010-08-08T15:11:42Z</time>
      </trkpt>
      <trkpt lat="45.47374" lon="5.82189">
        <ele>665.278827</ele>
        <time>2010-08-08T15:11:45Z</time>
      </trkpt>
      <trkpt lat="45.47361" lon="5.8219">
        <ele>665.296416</ele>
        <time>2010-08-08T15:11:48Z</time>
      </trkpt>
      <trkpt lat="45.47348" lon="5.82191">
        <ele>665.267993</ele>
        <time>2010-08-08T15:11:51Z</time>
      </trkpt>
      <trkpt lat="45.47339" lon="5.82191">
        <ele>665.103429</ele>
        <time>2010-08-08T15:11:53Z</time>
      </trkpt>
      <trkpt lat="45.4733" lon="5.82192">
        <ele>664.455439</ele>
        <time>2010-08-08T15:11:55Z</time>
      </trkpt>
      <trkpt lat="45.47322" lon="5.82196">
        <ele>663.088551</ele>
        <time>2010-08-08T15:11:57Z</time>
      </trkpt>
      <trkpt lat="45.47309" lon="5.82203">
        <ele>661.318817</ele>
        <time>2010-08-08T15:12:00Z</time>
      </trkpt>
      <trkpt lat="45.47297" lon="5.82208">
        <ele>659.568795</ele>
        <time>2010-08-08T15:12:03Z</time>
      </trkpt>
      <trkpt lat="45.47292" lon="5.82211">
        <ele>657.968744</ele>
        <time>2010-08-08T15:12:05Z</time>
      </trkpt>
      <trkpt lat="45.47292" lon="5.82211">
        <ele>656.731837</ele>
        <time>2010-08-08T15:12:36Z</time>
      </trkpt>
      <trkpt lat="45.47308" lon="5.82224">
        <ele>656.119438</ele>
        <time>2010-08-08T15:14:03Z</time>
      </trkpt>
      <trkpt lat="45.4731" lon="5.82228">
        <ele>656.011356</ele>
        <time>2010-08-08T15:14:05Z</time>
      </trkpt>
      <trkpt lat="45.47312" lon="5.82232">
        <ele>656.238429</ele>
        <time>2010-08-08T15:14:08Z</time>
      </trkpt>
      <trkpt lat="45.47315" lon="5.82246">
        <ele>659.455838</ele>
        <time>2010-08-08T15:14:18Z</time>
      </trkpt>
      <trkpt lat="45.47311" lon="5.82252">
        <ele>667.072124</ele>
        <time>2010-08-08T15:14:25Z</time>
      </trkpt>
      <trkpt lat="45.47314" lon="5.82269">
        <ele>674.78866</ele>
        <time>2010-08-08T15:14:34Z</time>
      </trkpt>
      <trkpt lat="45.47314" lon="5.82269">
        <ele>678.677173</ele>
        <time>2010-08-08T15:14:46Z</time>
      </trkpt>
      <trkpt lat="45.47314" lon="5.82269">
        <ele>679.540765</ele>
        <time>2010-08-08T15:15:05Z</time>
      </trkpt>
      <trkpt lat="45.47304" lon="5.82304">
        <ele>679.082231</ele>
        <time>2010-08-08T15:15:11Z</time>
      </trkpt>
      <trkpt lat="45.47298" lon="5.82342">
        <ele>678.491372</ele>
        <time>2010-08-08T15:15:20Z</time>
      </trkpt>
      <trkpt lat="45.47297" lon="5.82382">
        <ele>678.133105</ele>
        <time>2010-08-08T15:15:25Z</time>
      </trkpt>
      <trkpt lat="45.47306" lon="5.82416">
        <ele>677.717661</ele>
        <time>2010-08-08T15:15:28Z</time>
      </trkpt>
      <trkpt lat="45.47312" lon="5.82439">
        <ele>676.89522</ele>
        <time>2010-08-08T15:15:30Z</time>
      </trkpt>
      <trkpt lat="45.4732" lon="5.82465">
        <ele>675.907406</ele>
        <time>2010-08-08T15:15:33Z</time>
      </trkpt>
      <trkpt lat="45.47331" lon="5.82498">
        <ele>674.984401</ele>
        <time>2010-08-08T15:15:36Z</time>
      </trkpt>
      <trkpt lat="45.47352" lon="5.82529">
        <ele>673.92163</ele>
        <time>2010-08-08T15:15:39Z</time>
      </trkpt>
      <trkpt lat="45.47371" lon="5.82555">
        <ele>672.853105</ele>
        <time>2010-08-08T15:15:42Z</time>
      </trkpt>
      <trkpt lat="45.47389" lon="5.82575">
        <ele>672.076061</ele>
        <time>2010-08-08T15:15:45Z</time>
      </trkpt>
      <trkpt lat="45.474" lon="5.82589">
        <ele>671.402032</ele>
        <time>2010-08-08T15:15:47Z</time>
      </trkpt>
      <trkpt lat="45.47412" lon="5.82605">
        <ele>670.446062</ele>
        <time>2010-08-08T15:15:49Z</time>
      </trkpt>
      <trkpt lat="45.47429" lon="5.82626">
        <ele>668.992742</ele>
        <time>2010-08-08T15:15:52Z</time>
      </trkpt>
      <trkpt lat="45.47443" lon="5.82645">
        <ele>667.383942</ele>
        <time>2010-08-08T15:15:55Z</time>
      </trkpt>
      <trkpt lat="45.47456" lon="5.82661">
        <ele>666.311906</ele>
        <time>2010-08-08T15:15:58Z</time>
      </trkpt>
      <trkpt lat="45.47465" lon="5.82672">
        <ele>665.825976</ele>
        <time>2010-08-08T15:16:01Z</time>
      </trkpt>
      <trkpt lat="45.47473" lon="5.8268">
        <ele>665.371856</ele>
        <time>2010-08-08T15:16:04Z</time>
      </trkpt>
      <trkpt lat="45.47482" lon="5.82689">
        <ele>664.77466</ele>
        <time>2010-08-08T15:16:07Z</time>
      </trkpt>
      <trkpt lat="45.47488" lon="5.82694">
        <ele>664.178622</ele>
        <time>2010-08-08T15:16:09Z</time>
      </trkpt>
      <trkpt lat="45.47496" lon="5.82694">
        <ele>663.506411</ele>
        <time>2010-08-08T15:16:11Z</time>
      </trkpt>
      <trkpt lat="45.47506" lon="5.82695">
        <ele>662.776591</ele>
        <time>2010-08-08T15:16:14Z</time>
      </trkpt>
      <trkpt lat="45.47517" lon="5.82698">
        <ele>662.142963</ele>
        <time>2010-08-08T15:16:17Z</time>
      </trkpt>
      <trkpt lat="45.47524" lon="5.82699">
        <ele>661.618451</ele>
        <time>2010-08-08T15:16:19Z</time>
      </trkpt>
      <trkpt lat="45.47534" lon="5.82702">
        <ele>661.266393</ele>
        <time>2010-08-08T15:16:22Z</time>
      </trkpt>
      <trkpt lat="45.47539" lon="5.82705">
        <ele>661.012924</ele>
        <time>2010-08-08T15:16:24Z</time>
      </trkpt>
      <trkpt lat="45.47549" lon="5.82709">
        <ele>660.666646</ele>
        <time>2010-08-08T15:16:27Z</time>
      </trkpt>
      <trkpt lat="45.47566" lon="5.82719">
        <ele>660.20212</ele>
        <time>2010-08-08T15:16:30Z</time>
      </trkpt>
      <trkpt lat="45.47581" lon="5.82726">
        <ele>659.695488</ele>
        <time>2010-08-08T15:16:33Z</time>
      </trkpt>
      <trkpt lat="45.47595" lon="5.82735">
        <ele>659.308693</ele>
        <time>2010-08-08T15:16:36Z</time>
      </trkpt>
      <trkpt lat="45.47606" lon="5.82744">
        <ele>659.162187</ele>
        <time>2010-08-08T15:16:39Z</time>
      </trkpt>
      <trkpt lat="45.47622" lon="5.82754">
        <ele>659.024049</ele>
        <time>2010-08-08T15:16:42Z</time>
      </trkpt>
      <trkpt lat="45.4765" lon="5.82774">
        <ele>658.567751</ele>
        <time>2010-08-08T15:16:45Z</time>
      </trkpt>
      <trkpt lat="45.47673" lon="5.82803">
        <ele>657.731646</ele>
        <time>2010-08-08T15:16:48Z</time>
      </trkpt>
      <trkpt lat="45.47693" lon="5.82824">
        <ele>656.70059</ele>
        <time>2010-08-08T15:16:51Z</time>
      </trkpt>
      <trkpt lat="45.4772" lon="5.82848">
        <ele>655.631152</ele>
        <time>2010-08-08T15:16:54Z</time>
      </trkpt>
      <trkpt lat="45.47748" lon="5.8287">
        <ele>654.312044</ele>
        <time>2010-08-08T15:16:57Z</time>
      </trkpt>
      <trkpt lat="45.47774" lon="5.82893">
        <ele>652.718686</ele>
        <time>2010-08-08T15:17:00Z</time>
      </trkpt>
      <trkpt lat="45.47792" lon="5.82908">
        <ele>651.205489</ele>
        <time>2010-08-08T15:17:02Z</time>
      </trkpt>
      <trkpt lat="45.47808" lon="5.82923">
        <ele>649.733269</ele>
        <time>2010-08-08T15:17:04Z</time>
      </trkpt>
      <trkpt lat="45.47825" lon="5.82939">
        <ele>648.130845</ele>
        <time>2010-08-08T15:17:06Z</time>
      </trkpt>
      <trkpt lat="45.4785" lon="5.82965">
        <ele>646.813002</ele>
        <time>2010-08-08T15:17:09Z</time>
      </trkpt>
      <trkpt lat="45.47871" lon="5.82996">
        <ele>646.140417</ele>
        <time>2010-08-08T15:17:12Z</time>
      </trkpt>
      <trkpt lat="45.47884" lon="5.83015">
        <ele>646.010139</ele>
        <time>2010-08-08T15:17:14Z</time>
      </trkpt>
      <trkpt lat="45.47898" lon="5.83027">
        <ele>646.103809</ele>
        <time>2010-08-08T15:17:16Z</time>
      </trkpt>
      <trkpt lat="45.47909" lon="5.83032">
        <ele>646.211365</ele>
        <time>2010-08-08T15:17:18Z</time>
      </trkpt>
      <trkpt lat="45.4792" lon="5.83035">
        <ele>646.265555</ele>
        <time>2010-08-08T15:17:21Z</time>
      </trkpt>
      <trkpt lat="45.47926" lon="5.83032">
        <ele>646.275658</ele>
        <time>2010-08-08T15:17:24Z</time>
      </trkpt>
      <trkpt lat="45.47932" lon="5.83034">
        <ele>646.129638</ele>
        <time>2010-08-08T15:17:26Z</time>
      </trkpt>
      <trkpt lat="45.47939" lon="5.83037">
        <ele>645.622792</ele>
        <time>2010-08-08T15:17:28Z</time>
      </trkpt>
      <trkpt lat="45.47952" lon="5.83042">
        <ele>644.612745</ele>
        <time>2010-08-08T15:17:31Z</time>
      </trkpt>
      <trkpt lat="45.47967" lon="5.83047">
        <ele>643.347483</ele>
        <time>2010-08-08T15:17:34Z</time>
      </trkpt>
      <trkpt lat="45.47985" lon="5.83058">
        <ele>642.407477</ele>
        <time>2010-08-08T15:17:37Z</time>
      </trkpt>
      <trkpt lat="45.48002" lon="5.8307">
        <ele>641.922949</ele>
        <time>2010-08-08T15:17:40Z</time>
      </trkpt>
      <trkpt lat="45.48013" lon="5.83078">
        <ele>641.570441</ele>
        <time>2010-08-08T15:17:42Z</time>
      </trkpt>
      <trkpt lat="45.48029" lon="5.83093">
        <ele>641.305243</ele>
        <time>2010-08-08T15:17:45Z</time>
      </trkpt>
      <trkpt lat="45.48048" lon="5.83107">
        <ele>641.20626</ele>
        <time>2010-08-08T15:17:48Z</time>
      </trkpt>
      <trkpt lat="45.48066" lon="5.83118">
        <ele>641.207389</ele>
        <time>2010-08-08T15:17:51Z</time>
      </trkpt>
      <trkpt lat="45.48083" lon="5.83127">
        <ele>641.098262</ele>
        <time>2010-08-08T15:17:54Z</time>
      </trkpt>
      <trkpt lat="45.48094" lon="5.83133">
        <ele>640.759894</ele>
        <time>2010-08-08T15:17:56Z</time>
      </trkpt>
      <trkpt lat="45.48106" lon="5.8314">
        <ele>640.398368</ele>
        <time>2010-08-08T15:17:58Z</time>
      </trkpt>
      <trkpt lat="45.48124" lon="5.83151">
        <ele>640.22292</ele>
        <time>2010-08-08T15:18:01Z</time>
      </trkpt>
      <trkpt lat="45.48135" lon="5.83158">
        <ele>640.193997</ele>
        <time>2010-08-08T15:18:03Z</time>
      </trkpt>
      <trkpt lat="45.48153" lon="5.83168">
        <ele>640.222236</ele>
        <time>2010-08-08T15:18:06Z</time>
      </trkpt>
      <trkpt lat="45.48166" lon="5.83177">
        <ele>640.113535</ele>
        <time>2010-08-08T15:18:08Z</time>
      </trkpt>
      <trkpt lat="45.48184" lon="5.83191">
        <ele>639.629583</ele>
        <time>2010-08-08T15:18:11Z</time>
      </trkpt>
      <trkpt lat="45.48203" lon="5.83204">
        <ele>638.902475</ele>
        <time>2010-08-08T15:18:14Z</time>
      </trkpt>
      <trkpt lat="45.48216" lon="5.83213">
        <ele>638.355424</ele>
        <time>2010-08-08T15:18:16Z</time>
      </trkpt>
      <trkpt lat="45.48235" lon="5.83227">
        <ele>638.15123</ele>
        <time>2010-08-08T15:18:19Z</time>
      </trkpt>
      <trkpt lat="45.48255" lon="5.83242">
        <ele>638.015372</ele>
        <time>2010-08-08T15:18:22Z</time>
      </trkpt>
      <trkpt lat="45.48268" lon="5.83252">
        <ele>637.715404</ele>
        <time>2010-08-08T15:18:24Z</time>
      </trkpt>
      <trkpt lat="45.4829" lon="5.83266">
        <ele>637.39037</ele>
        <time>2010-08-08T15:18:27Z</time>
      </trkpt>
      <trkpt lat="45.48312" lon="5.83282">
        <ele>637.231422</ele>
        <time>2010-08-08T15:18:30Z</time>
      </trkpt>
      <trkpt lat="45.48335" lon="5.83298">
        <ele>637.204508</ele>
        <time>2010-08-08T15:18:33Z</time>
      </trkpt>
      <trkpt lat="45.48358" lon="5.83312">
        <ele>637.09138</ele>
        <time>2010-08-08T15:18:36Z</time>
      </trkpt>
      <trkpt lat="45.48378" lon="5.83328">
        <ele>636.757993</ele>
        <time>2010-08-08T15:18:39Z</time>
      </trkpt>
      <trkpt lat="45.48399" lon="5.83346">
        <ele>636.263174</ele>
        <time>2010-08-08T15:18:42Z</time>
      </trkpt>
      <trkpt lat="45.48423" lon="5.83364">
        <ele>635.591911</ele>
        <time>2010-08-08T15:18:45Z</time>
      </trkpt>
      <trkpt lat="45.48451" lon="5.83385">
        <ele>634.833964</ele>
        <time>2010-08-08T15:18:48Z</time>
      </trkpt>
      <trkpt lat="45.48485" lon="5.83404">
        <ele>634.178915</ele>
        <time>2010-08-08T15:18:51Z</time>
      </trkpt>
      <trkpt lat="45.48521" lon="5.83421">
        <ele>633.508132</ele>
        <time>2010-08-08T15:18:54Z</time>
      </trkpt>
      <trkpt lat="45.48549" lon="5.83439">
        <ele>632.65802</ele>
        <time>2010-08-08T15:18:57Z</time>
      </trkpt>
      <trkpt lat="45.48576" lon="5.83455">
        <ele>631.677544</ele>
        <time>2010-08-08T15:19:00Z</time>
      </trkpt>
      <trkpt lat="45.48604" lon="5.83473">
        <ele>630.788309</ele>
        <time>2010-08-08T15:19:03Z</time>
      </trkpt>
      <trkpt lat="45.48629" lon="5.83493">
        <ele>630.122638</ele>
        <time>2010-08-08T15:19:06Z</time>
      </trkpt>
      <trkpt lat="45.48655" lon="5.83512">
        <ele>629.481274</ele>
        <time>2010-08-08T15:19:09Z</time>
      </trkpt>
      <trkpt lat="45.4868" lon="5.83527">
        <ele>628.79449</ele>
        <time>2010-08-08T15:19:12Z</time>
      </trkpt>
      <trkpt lat="45.48707" lon="5.8353">
        <ele>628.184434</ele>
        <time>2010-08-08T15:19:15Z</time>
      </trkpt>
      <trkpt lat="45.48715" lon="5.8352">
        <ele>627.527208</ele>
        <time>2010-08-08T15:19:18Z</time>
      </trkpt>
      <trkpt lat="45.4871" lon="5.83513">
        <ele>626.674472</ele>
        <time>2010-08-08T15:19:21Z</time>
      </trkpt>
      <trkpt lat="45.487" lon="5.8351">
        <ele>625.826337</ele>
        <time>2010-08-08T15:19:22Z</time>
      </trkpt>
      <trkpt lat="45.4867" lon="5.83495">
        <ele>625.155175</ele>
        <time>2010-08-08T15:19:26Z</time>
      </trkpt>
      <trkpt lat="45.4867" lon="5.83495">
        <ele>624.63615</ele>
        <time>2010-08-08T15:19:29Z</time>
      </trkpt>
      <trkpt lat="45.48644" lon="5.83484">
        <ele>624.160734</ele>
        <time>2010-08-08T15:19:35Z</time>
      </trkpt>
      <trkpt lat="45.48644" lon="5.83484">
        <ele>623.695132</ele>
        <time>2010-08-08T15:19:39Z</time>
      </trkpt>
      <trkpt lat="45.48644" lon="5.83484">
        <ele>623.300168</ele>
        <time>2010-08-08T15:20:06Z</time>
      </trkpt>
      <trkpt lat="45.48615" lon="5.83477">
        <ele>623.057786</ele>
        <time>2010-08-08T15:21:46Z</time>
      </trkpt>
      <trkpt lat="45.48605" lon="5.83475">
        <ele>622.945932</ele>
        <time>2010-08-08T15:21:50Z</time>
      </trkpt>
      <trkpt lat="45.48595" lon="5.83478">
        <ele>622.930881</ele>
        <time>2010-08-08T15:21:56Z</time>
      </trkpt>
      <trkpt lat="45.48585" lon="5.83482">
        <ele>622.855381</ele>
        <time>2010-08-08T15:22:02Z</time>
      </trkpt>
      <trkpt lat="45.48575" lon="5.83484">
        <ele>622.624951</ele>
        <time>2010-08-08T15:22:07Z</time>
      </trkpt>
      <trkpt lat="45.48564" lon="5.83485">
        <ele>622.10078</ele>
        <time>2010-08-08T15:22:12Z</time>
      </trkpt>
      <trkpt lat="45.48555" lon="5.83485">
        <ele>620.983945</ele>
        <time>2010-08-08T15:22:16Z</time>
      </trkpt>
      <trkpt lat="45.48546" lon="5.83486">
        <ele>619.505141</ele>
        <time>2010-08-08T15:22:20Z</time>
      </trkpt>
      <trkpt lat="45.48532" lon="5.8349">
        <ele>618.434985</ele>
        <time>2010-08-08T15:22:29Z</time>
      </trkpt>
      <trkpt lat="45.48532" lon="5.8349">
        <ele>617.973536</ele>
        <time>2010-08-08T15:22:43Z</time>
      </trkpt>
      <trkpt lat="45.48506" lon="5.83501">
        <ele>617.726712</ele>
        <time>2010-08-08T15:22:47Z</time>
      </trkpt>
      <trkpt lat="45.4849" lon="5.83509">
        <ele>617.483163</ele>
        <time>2010-08-08T15:22:49Z</time>
      </trkpt>
      <trkpt lat="45.48481" lon="5.83516">
        <ele>617.172064</ele>
        <time>2010-08-08T15:22:52Z</time>
      </trkpt>
      <trkpt lat="45.48469" lon="5.83523">
        <ele>616.337</ele>
        <time>2010-08-08T15:22:55Z</time>
      </trkpt>
      <trkpt lat="45.48462" lon="5.83528">
        <ele>614.89156</ele>
        <time>2010-08-08T15:22:57Z</time>
      </trkpt>
      <trkpt lat="45.48452" lon="5.83537">
        <ele>613.489855</ele>
        <time>2010-08-08T15:23:00Z</time>
      </trkpt>
      <trkpt lat="45.48447" lon="5.83543">
        <ele>612.59167</ele>
        <time>2010-08-08T15:23:02Z</time>
      </trkpt>
      <trkpt lat="45.48438" lon="5.83553">
        <ele>612.177466</ele>
        <time>2010-08-08T15:23:05Z</time>
      </trkpt>
      <trkpt lat="45.4843" lon="5.83562">
        <ele>611.983733</ele>
        <time>2010-08-08T15:23:09Z</time>
      </trkpt>
      <trkpt lat="45.48422" lon="5.83577">
        <ele>611.700082</ele>
        <time>2010-08-08T15:23:15Z</time>
      </trkpt>
      <trkpt lat="45.48417" lon="5.83585">
        <ele>611.403806</ele>
        <time>2010-08-08T15:23:18Z</time>
      </trkpt>
      <trkpt lat="45.4841" lon="5.83594">
        <ele>611.123658</ele>
        <time>2010-08-08T15:23:21Z</time>
      </trkpt>
      <trkpt lat="45.48395" lon="5.83624">
        <ele>610.603246</ele>
        <time>2010-08-08T15:23:31Z</time>
      </trkpt>
      <trkpt lat="45.48392" lon="5.83635">
        <ele>609.759392</ele>
        <time>2010-08-08T15:23:34Z</time>
      </trkpt>
      <trkpt lat="45.4839" lon="5.83639">
        <ele>608.878954</ele>
        <time>2010-08-08T15:23:37Z</time>
      </trkpt>
      <trkpt lat="45.48384" lon="5.83655">
        <ele>608.042793</ele>
        <time>2010-08-08T15:23:41Z</time>
      </trkpt>
      <trkpt lat="45.48382" lon="5.83661">
        <ele>607.152911</ele>
        <time>2010-08-08T15:23:44Z</time>
      </trkpt>
      <trkpt lat="45.48376" lon="5.8368">
        <ele>606.445634</ele>
        <time>2010-08-08T15:23:46Z</time>
      </trkpt>
      <trkpt lat="45.48372" lon="5.83693">
        <ele>606.167334</ele>
        <time>2010-08-08T15:23:52Z</time>
      </trkpt>
      <trkpt lat="45.48372" lon="5.83693">
        <ele>606.15958</ele>
        <time>2010-08-08T15:24:05Z</time>
      </trkpt>
      <trkpt lat="45.48368" lon="5.83732">
        <ele>606.371222</ele>
        <time>2010-08-08T15:24:14Z</time>
      </trkpt>
      <trkpt lat="45.48368" lon="5.83732">
        <ele>606.788566</ele>
        <time>2010-08-08T15:24:28Z</time>
      </trkpt>
      <trkpt lat="45.48392" lon="5.83771">
        <ele>607.456627</ele>
        <time>2010-08-08T15:24:42Z</time>
      </trkpt>
      <trkpt lat="45.48421" lon="5.8378">
        <ele>608.352049</ele>
        <time>2010-08-08T15:24:45Z</time>
      </trkpt>
      <trkpt lat="45.48451" lon="5.83779">
        <ele>609.111388</ele>
        <time>2010-08-08T15:24:49Z</time>
      </trkpt>
      <trkpt lat="45.48478" lon="5.83782">
        <ele>609.565436</ele>
        <time>2010-08-08T15:24:54Z</time>
      </trkpt>
      <trkpt lat="45.48506" lon="5.83805">
        <ele>609.9465</ele>
        <time>2010-08-08T15:25:02Z</time>
      </trkpt>
      <trkpt lat="45.48514" lon="5.83844">
        <ele>610.241856</ele>
        <time>2010-08-08T15:25:19Z</time>
      </trkpt>
      <trkpt lat="45.48514" lon="5.83844">
        <ele>610.355381</ele>
        <time>2010-08-08T15:25:37Z</time>
      </trkpt>
      <trkpt lat="45.48514" lon="5.83844">
        <ele>610.356593</ele>
        <time>2010-08-08T15:25:50Z</time>
      </trkpt>
      <trkpt lat="45.48534" lon="5.83906">
        <ele>610.32516</ele>
        <time>2010-08-08T15:25:53Z</time>
      </trkpt>
      <trkpt lat="45.48563" lon="5.83926">
        <ele>610.439355</ele>
        <time>2010-08-08T15:26:01Z</time>
      </trkpt>
      <trkpt lat="45.48594" lon="5.83923">
        <ele>610.790169</ele>
        <time>2010-08-08T15:26:08Z</time>
      </trkpt>
      <trkpt lat="45.48622" lon="5.83915">
        <ele>611.159611</ele>
        <time>2010-08-08T15:26:14Z</time>
      </trkpt>
      <trkpt lat="45.48653" lon="5.83917">
        <ele>611.110214</ele>
        <time>2010-08-08T15:26:22Z</time>
      </trkpt>
      <trkpt lat="45.48679" lon="5.83931">
        <ele>610.546805</ele>
        <time>2010-08-08T15:26:31Z</time>
      </trkpt>
      <trkpt lat="45.48679" lon="5.83931">
        <ele>609.936415</ele>
        <time>2010-08-08T15:26:48Z</time>
      </trkpt>
      <trkpt lat="45.48717" lon="5.83969">
        <ele>609.473218</ele>
        <time>2010-08-08T15:26:55Z</time>
      </trkpt>
      <trkpt lat="45.48766" lon="5.83973">
        <ele>608.376601</ele>
        <time>2010-08-08T15:27:11Z</time>
      </trkpt>
      <trkpt lat="45.48813" lon="5.83979">
        <ele>606.308096</ele>
        <time>2010-08-08T15:27:20Z</time>
      </trkpt>
      <trkpt lat="45.48813" lon="5.83979">
        <ele>604.256402</ele>
        <time>2010-08-08T15:27:39Z</time>
      </trkpt>
      <trkpt lat="45.48813" lon="5.83979">
        <ele>603.164782</ele>
        <time>2010-08-08T15:27:51Z</time>
      </trkpt>
      <trkpt lat="45.48837" lon="5.83998">
        <ele>602.963924</ele>
        <time>2010-08-08T15:29:18Z</time>
      </trkpt>
      <trkpt lat="45.48837" lon="5.83998">
        <ele>603.154119</ele>
        <time>2010-08-08T15:29:22Z</time>
      </trkpt>
      <trkpt lat="45.48865" lon="5.8401">
        <ele>603.359592</ele>
        <time>2010-08-08T15:29:26Z</time>
      </trkpt>
      <trkpt lat="45.48891" lon="5.84022">
        <ele>603.773614</ele>
        <time>2010-08-08T15:29:32Z</time>
      </trkpt>
      <trkpt lat="45.48891" lon="5.84022">
        <ele>604.587038</ele>
        <time>2010-08-08T15:29:50Z</time>
      </trkpt>
      <trkpt lat="45.48891" lon="5.84022">
        <ele>605.126427</ele>
        <time>2010-08-08T15:30:03Z</time>
      </trkpt>
      <trkpt lat="45.48835" lon="5.84003">
        <ele>607.403964</ele>
        <time>2010-08-08T15:30:12Z</time>
      </trkpt>
      <trkpt lat="45.48806" lon="5.83988">
        <ele>613.576756</ele>
        <time>2010-08-08T15:30:18Z</time>
      </trkpt>
      <trkpt lat="45.48806" lon="5.83988">
        <ele>620.36982</ele>
        <time>2010-08-08T15:30:35Z</time>
      </trkpt>
      <trkpt lat="45.48823" lon="5.84034">
        <ele>623.857387</ele>
        <time>2010-08-08T15:30:46Z</time>
      </trkpt>
      <trkpt lat="45.48846" lon="5.84058">
        <ele>624.544422</ele>
        <time>2010-08-08T15:30:50Z</time>
      </trkpt>
      <trkpt lat="45.48872" lon="5.84075">
        <ele>624.20554</ele>
        <time>2010-08-08T15:30:55Z</time>
      </trkpt>
      <trkpt lat="45.489" lon="5.84086">
        <ele>624.149125</ele>
        <time>2010-08-08T15:31:05Z</time>
      </trkpt>
      <trkpt lat="45.48904" lon="5.84047">
        <ele>624.597423</ele>
        <time>2010-08-08T15:31:12Z</time>
      </trkpt>
      <trkpt lat="45.48904" lon="5.84047">
        <ele>625.08878</ele>
        <time>2010-08-08T15:31:31Z</time>
      </trkpt>
      <trkpt lat="45.48904" lon="5.84047">
        <ele>625.330534</ele>
        <time>2010-08-08T15:31:43Z</time>
      </trkpt>
      <trkpt lat="45.48855" lon="5.84021">
        <ele>625.510504</ele>
        <time>2010-08-08T15:31:43Z</time>
      </trkpt>
      <trkpt lat="45.48833" lon="5.83998">
        <ele>625.832941</ele>
        <time>2010-08-08T15:31:56Z</time>
      </trkpt>
      <trkpt lat="45.48833" lon="5.83998">
        <ele>626.001042</ele>
        <time>2010-08-08T15:32:12Z</time>
      </trkpt>
      <trkpt lat="45.48833" lon="5.83998">
        <ele>625.736826</ele>
        <time>2010-08-08T15:32:27Z</time>
      </trkpt>
      <trkpt lat="45.48854" lon="5.84022">
        <ele>625.22616</ele>
        <time>2010-08-08T15:33:37Z</time>
      </trkpt>
      <trkpt lat="45.48854" lon="5.84022">
        <ele>624.745925</ele>
        <time>2010-08-08T15:33:40Z</time>
      </trkpt>
      <trkpt lat="45.48896" lon="5.84048">
        <ele>624.462646</ele>
        <time>2010-08-08T15:33:55Z</time>
      </trkpt>
      <trkpt lat="45.48946" lon="5.84097">
        <ele>624.236014</ele>
        <time>2010-08-08T15:34:00Z</time>
      </trkpt>
      <trkpt lat="45.48996" lon="5.84156">
        <ele>622.312468</ele>
        <time>2010-08-08T15:34:05Z</time>
      </trkpt>
      <trkpt lat="45.49018" lon="5.84178">
        <ele>616.563534</ele>
        <time>2010-08-08T15:34:07Z</time>
      </trkpt>
      <trkpt lat="45.49041" lon="5.84198">
        <ele>608.15605</ele>
        <time>2010-08-08T15:34:10Z</time>
      </trkpt>
      <trkpt lat="45.49071" lon="5.84214">
        <ele>600.513465</ele>
        <time>2010-08-08T15:34:12Z</time>
      </trkpt>
      <trkpt lat="45.49088" lon="5.84219">
        <ele>595.308964</ele>
        <time>2010-08-08T15:34:15Z</time>
      </trkpt>
      <trkpt lat="45.49122" lon="5.84233">
        <ele>592.231858</ele>
        <time>2010-08-08T15:34:18Z</time>
      </trkpt>
      <trkpt lat="45.49135" lon="5.84242">
        <ele>590.197994</ele>
        <time>2010-08-08T15:34:20Z</time>
      </trkpt>
      <trkpt lat="45.49147" lon="5.84253">
        <ele>588.224661</ele>
        <time>2010-08-08T15:34:22Z</time>
      </trkpt>
      <trkpt lat="45.49167" lon="5.8427">
        <ele>586.117411</ele>
        <time>2010-08-08T15:34:25Z</time>
      </trkpt>
      <trkpt lat="45.49188" lon="5.84284">
        <ele>584.168569</ele>
        <time>2010-08-08T15:34:28Z</time>
      </trkpt>
      <trkpt lat="45.49205" lon="5.84288">
        <ele>582.632987</ele>
        <time>2010-08-08T15:34:30Z</time>
      </trkpt>
      <trkpt lat="45.49233" lon="5.84288">
        <ele>581.36303</ele>
        <time>2010-08-08T15:34:33Z</time>
      </trkpt>
      <trkpt lat="45.49265" lon="5.84285">
        <ele>579.919078</ele>
        <time>2010-08-08T15:34:36Z</time>
      </trkpt>
      <trkpt lat="45.49289" lon="5.84272">
        <ele>578.268607</ele>
        <time>2010-08-08T15:34:39Z</time>
      </trkpt>
      <trkpt lat="45.49308" lon="5.8427">
        <ele>576.768401</ele>
        <time>2010-08-08T15:34:42Z</time>
      </trkpt>
      <trkpt lat="45.493" lon="5.84257">
        <ele>575.578211</ele>
        <time>2010-08-08T15:34:45Z</time>
      </trkpt>
      <trkpt lat="45.49305" lon="5.84244">
        <ele>574.440149</ele>
        <time>2010-08-08T15:34:48Z</time>
      </trkpt>
      <trkpt lat="45.49318" lon="5.84224">
        <ele>573.273325</ele>
        <time>2010-08-08T15:34:51Z</time>
      </trkpt>
      <trkpt lat="45.49336" lon="5.84184">
        <ele>572.305638</ele>
        <time>2010-08-08T15:34:55Z</time>
      </trkpt>
      <trkpt lat="45.49336" lon="5.84184">
        <ele>571.654438</ele>
        <time>2010-08-08T15:34:59Z</time>
      </trkpt>
      <trkpt lat="45.49348" lon="5.84134">
        <ele>571.164117</ele>
        <time>2010-08-08T15:35:02Z</time>
      </trkpt>
      <trkpt lat="45.49366" lon="5.84111">
        <ele>570.724967</ele>
        <time>2010-08-08T15:35:05Z</time>
      </trkpt>
      <trkpt lat="45.49377" lon="5.84107">
        <ele>570.396266</ele>
        <time>2010-08-08T15:35:07Z</time>
      </trkpt>
      <trkpt lat="45.49391" lon="5.84104">
        <ele>570.454628</ele>
        <time>2010-08-08T15:35:09Z</time>
      </trkpt>
      <trkpt lat="45.49397" lon="5.84102">
        <ele>571.022341</ele>
        <time>2010-08-08T15:35:10Z</time>
      </trkpt>
      <trkpt lat="45.4941" lon="5.84106">
        <ele>571.928949</ele>
        <time>2010-08-08T15:35:13Z</time>
      </trkpt>
      <trkpt lat="45.49426" lon="5.84113">
        <ele>572.939045</ele>
        <time>2010-08-08T15:35:16Z</time>
      </trkpt>
      <trkpt lat="45.49443" lon="5.84122">
        <ele>573.972632</ele>
        <time>2010-08-08T15:35:19Z</time>
      </trkpt>
      <trkpt lat="45.4946" lon="5.84128">
        <ele>575.132577</ele>
        <time>2010-08-08T15:35:22Z</time>
      </trkpt>
      <trkpt lat="45.49474" lon="5.84132">
        <ele>576.498655</ele>
        <time>2010-08-08T15:35:25Z</time>
      </trkpt>
      <trkpt lat="45.49469" lon="5.8413">
        <ele>578.004103</ele>
        <time>2010-08-08T15:35:26Z</time>
      </trkpt>
      <trkpt lat="45.49498" lon="5.84152">
        <ele>579.535254</ele>
        <time>2010-08-08T15:35:36Z</time>
      </trkpt>
      <trkpt lat="45.49498" lon="5.84152">
        <ele>580.790034</ele>
        <time>2010-08-08T15:35:40Z</time>
      </trkpt>
      <trkpt lat="45.4953" lon="5.84202">
        <ele>581.435506</ele>
        <time>2010-08-08T15:35:43Z</time>
      </trkpt>
      <trkpt lat="45.49544" lon="5.84226">
        <ele>581.563363</ele>
        <time>2010-08-08T15:35:46Z</time>
      </trkpt>
      <trkpt lat="45.49548" lon="5.84235">
        <ele>581.475598</ele>
        <time>2010-08-08T15:35:47Z</time>
      </trkpt>
      <trkpt lat="45.4957" lon="5.84254">
        <ele>581.51135</ele>
        <time>2010-08-08T15:35:50Z</time>
      </trkpt>
      <trkpt lat="45.4959" lon="5.8427">
        <ele>581.819227</ele>
        <time>2010-08-08T15:35:53Z</time>
      </trkpt>
      <trkpt lat="45.4959" lon="5.8427">
        <ele>582.178733</ele>
        <time>2010-08-08T15:35:54Z</time>
      </trkpt>
      <trkpt lat="45.49617" lon="5.84288">
        <ele>582.361347</ele>
        <time>2010-08-08T15:36:01Z</time>
      </trkpt>
      <trkpt lat="45.49617" lon="5.84288">
        <ele>582.396236</ele>
        <time>2010-08-08T15:36:04Z</time>
      </trkpt>
      <trkpt lat="45.49643" lon="5.84307">
        <ele>582.37044</ele>
        <time>2010-08-08T15:36:08Z</time>
      </trkpt>
      <trkpt lat="45.49643" lon="5.84307">
        <ele>582.254111</ele>
        <time>2010-08-08T15:36:12Z</time>
      </trkpt>
      <trkpt lat="45.49673" lon="5.84348">
        <ele>582.011569</ele>
        <time>2010-08-08T15:36:15Z</time>
      </trkpt>
      <trkpt lat="45.49673" lon="5.84348">
        <ele>581.72468</ele>
        <time>2010-08-08T15:36:18Z</time>
      </trkpt>
      <trkpt lat="45.49746" lon="5.84425">
        <ele>581.48726</ele>
        <time>2010-08-08T15:36:21Z</time>
      </trkpt>
      <trkpt lat="45.498" lon="5.8446">
        <ele>581.340538</ele>
        <time>2010-08-08T15:36:24Z</time>
      </trkpt>
      <trkpt lat="45.49819" lon="5.84482">
        <ele>581.294894</ele>
        <time>2010-08-08T15:36:26Z</time>
      </trkpt>
      <trkpt lat="45.49845" lon="5.84509">
        <ele>581.300776</ele>
        <time>2010-08-08T15:36:29Z</time>
      </trkpt>
      <trkpt lat="45.49855" lon="5.84519">
        <ele>581.318205</ele>
        <time>2010-08-08T15:36:31Z</time>
      </trkpt>
      <trkpt lat="45.49888" lon="5.84528">
        <ele>581.329635</ele>
        <time>2010-08-08T15:36:36Z</time>
      </trkpt>
      <trkpt lat="45.49933" lon="5.84526">
        <ele>581.333264</ele>
        <time>2010-08-08T15:36:39Z</time>
      </trkpt>
      <trkpt lat="45.49962" lon="5.84524">
        <ele>581.332736</ele>
        <time>2010-08-08T15:36:41Z</time>
      </trkpt>
      <trkpt lat="45.49983" lon="5.84524">
        <ele>581.331305</ele>
        <time>2010-08-08T15:36:43Z</time>
      </trkpt>
      <trkpt lat="45.50009" lon="5.84521">
        <ele>581.192202</ele>
        <time>2010-08-08T15:36:46Z</time>
      </trkpt>
      <trkpt lat="45.50017" lon="5.84519">
        <ele>580.832021</ele>
        <time>2010-08-08T15:36:48Z</time>
      </trkpt>
      <trkpt lat="45.50034" lon="5.84516">
        <ele>580.462633</ele>
        <time>2010-08-08T15:36:51Z</time>
      </trkpt>
      <trkpt lat="45.50045" lon="5.84515">
        <ele>580.287489</ele>
        <time>2010-08-08T15:36:52Z</time>
      </trkpt>
      <trkpt lat="45.50075" lon="5.84519">
        <ele>580.261034</ele>
        <time>2010-08-08T15:37:01Z</time>
      </trkpt>
      <trkpt lat="45.50075" lon="5.84519">
        <ele>580.188934</ele>
        <time>2010-08-08T15:37:04Z</time>
      </trkpt>
      <trkpt lat="45.50101" lon="5.84534">
        <ele>579.91702</ele>
        <time>2010-08-08T15:37:08Z</time>
      </trkpt>
      <trkpt lat="45.50101" lon="5.84534">
        <ele>579.564163</ele>
        <time>2010-08-08T15:37:11Z</time>
      </trkpt>
      <trkpt lat="45.50132" lon="5.84547">
        <ele>579.328766</ele>
        <time>2010-08-08T15:37:15Z</time>
      </trkpt>
      <trkpt lat="45.50132" lon="5.84547">
        <ele>579.149766</ele>
        <time>2010-08-08T15:37:19Z</time>
      </trkpt>
      <trkpt lat="45.5016" lon="5.84539">
        <ele>578.736577</ele>
        <time>2010-08-08T15:37:23Z</time>
      </trkpt>
      <trkpt lat="45.50186" lon="5.84528">
        <ele>577.917265</ele>
        <time>2010-08-08T15:37:28Z</time>
      </trkpt>
      <trkpt lat="45.50215" lon="5.84515">
        <ele>576.702948</ele>
        <time>2010-08-08T15:37:35Z</time>
      </trkpt>
      <trkpt lat="45.50232" lon="5.84505">
        <ele>574.68222</ele>
        <time>2010-08-08T15:37:40Z</time>
      </trkpt>
      <trkpt lat="45.50238" lon="5.84502">
        <ele>571.537863</ele>
        <time>2010-08-08T15:37:42Z</time>
      </trkpt>
      <trkpt lat="45.50263" lon="5.84485">
        <ele>567.875778</ele>
        <time>2010-08-08T15:37:48Z</time>
      </trkpt>
      <trkpt lat="45.50282" lon="5.84451">
        <ele>564.697238</ele>
        <time>2010-08-08T15:37:53Z</time>
      </trkpt>
      <trkpt lat="45.50308" lon="5.84416">
        <ele>562.679972</ele>
        <time>2010-08-08T15:37:57Z</time>
      </trkpt>
      <trkpt lat="45.50329" lon="5.8439">
        <ele>561.654161</ele>
        <time>2010-08-08T15:38:02Z</time>
      </trkpt>
      <trkpt lat="45.50351" lon="5.84351">
        <ele>560.945575</ele>
        <time>2010-08-08T15:38:06Z</time>
      </trkpt>
      <trkpt lat="45.50385" lon="5.84316">
        <ele>560.290486</ele>
        <time>2010-08-08T15:38:12Z</time>
      </trkpt>
      <trkpt lat="45.50397" lon="5.84311">
        <ele>559.743786</ele>
        <time>2010-08-08T15:38:14Z</time>
      </trkpt>
      <trkpt lat="45.50422" lon="5.84327">
        <ele>559.381158</ele>
        <time>2010-08-08T15:38:21Z</time>
      </trkpt>
      <trkpt lat="45.50419" lon="5.84343">
        <ele>559.126063</ele>
        <time>2010-08-08T15:38:24Z</time>
      </trkpt>
      <trkpt lat="45.50419" lon="5.84343">
        <ele>558.781574</ele>
        <time>2010-08-08T15:38:25Z</time>
      </trkpt>
      <trkpt lat="45.50423" lon="5.84325">
        <ele>558.457034</ele>
        <time>2010-08-08T15:38:47Z</time>
      </trkpt>
      <trkpt lat="45.5043" lon="5.84309">
        <ele>558.034788</ele>
        <time>2010-08-08T15:38:50Z</time>
      </trkpt>
      <trkpt lat="45.50436" lon="5.843">
        <ele>557.297768</ele>
        <time>2010-08-08T15:38:52Z</time>
      </trkpt>
      <trkpt lat="45.50446" lon="5.84292">
        <ele>556.034793</ele>
        <time>2010-08-08T15:38:55Z</time>
      </trkpt>
      <trkpt lat="45.50455" lon="5.84286">
        <ele>554.271124</ele>
        <time>2010-08-08T15:38:58Z</time>
      </trkpt>
      <trkpt lat="45.50462" lon="5.84278">
        <ele>552.752042</ele>
        <time>2010-08-08T15:39:01Z</time>
      </trkpt>
      <trkpt lat="45.50466" lon="5.84273">
        <ele>551.974074</ele>
        <time>2010-08-08T15:39:04Z</time>
      </trkpt>
      <trkpt lat="45.50466" lon="5.84273">
        <ele>551.565903</ele>
        <time>2010-08-08T15:39:05Z</time>
      </trkpt>
      <trkpt lat="45.50458" lon="5.84212">
        <ele>551.342454</ele>
        <time>2010-08-08T15:39:30Z</time>
      </trkpt>
      <trkpt lat="45.50457" lon="5.84195">
        <ele>551.287143</ele>
        <time>2010-08-08T15:39:34Z</time>
      </trkpt>
      <trkpt lat="45.50458" lon="5.84163">
        <ele>551.167985</ele>
        <time>2010-08-08T15:39:41Z</time>
      </trkpt>
      <trkpt lat="45.50461" lon="5.8414">
        <ele>550.70303</ele>
        <time>2010-08-08T15:39:47Z</time>
      </trkpt>
      <trkpt lat="45.50464" lon="5.84124">
        <ele>549.85859</ele>
        <time>2010-08-08T15:39:52Z</time>
      </trkpt>
      <trkpt lat="45.50467" lon="5.84112">
        <ele>548.961911</ele>
        <time>2010-08-08T15:39:58Z</time>
      </trkpt>
      <trkpt lat="45.50474" lon="5.84103">
        <ele>548.39006</ele>
        <time>2010-08-08T15:40:02Z</time>
      </trkpt>
      <trkpt lat="45.50493" lon="5.841">
        <ele>548.215532</ele>
        <time>2010-08-08T15:40:12Z</time>
      </trkpt>
      <trkpt lat="45.50499" lon="5.84109">
        <ele>548.247226</ele>
        <time>2010-08-08T15:40:16Z</time>
      </trkpt>
      <trkpt lat="45.50505" lon="5.84118">
        <ele>548.182607</ele>
        <time>2010-08-08T15:40:19Z</time>
      </trkpt>
      <trkpt lat="45.5051" lon="5.84127">
        <ele>547.730822</ele>
        <time>2010-08-08T15:40:22Z</time>
      </trkpt>
      <trkpt lat="45.50517" lon="5.84133">
        <ele>547.01534</ele>
        <time>2010-08-08T15:40:25Z</time>
      </trkpt>
      <trkpt lat="45.50523" lon="5.84139">
        <ele>546.467868</ele>
        <time>2010-08-08T15:40:28Z</time>
      </trkpt>
      <trkpt lat="45.50526" lon="5.84141">
        <ele>546.260044</ele>
        <time>2010-08-08T15:40:31Z</time>
      </trkpt>
      <trkpt lat="45.50526" lon="5.84141">
        <ele>546.259754</ele>
        <time>2010-08-08T15:40:43Z</time>
      </trkpt>
      <trkpt lat="45.50553" lon="5.84144">
        <ele>546.318751</ele>
        <time>2010-08-08T15:40:52Z</time>
      </trkpt>
      <trkpt lat="45.50553" lon="5.84144">
        <ele>546.363196</ele>
        <time>2010-08-08T15:41:06Z</time>
      </trkpt>
      <trkpt lat="45.5058" lon="5.84139">
        <ele>546.285675</ele>
        <time>2010-08-08T15:41:10Z</time>
      </trkpt>
      <trkpt lat="45.50607" lon="5.8413">
        <ele>546.032215</ele>
        <time>2010-08-08T15:41:21Z</time>
      </trkpt>
      <trkpt lat="45.50634" lon="5.84131">
        <ele>545.442259</ele>
        <time>2010-08-08T15:41:36Z</time>
      </trkpt>
      <trkpt lat="45.50661" lon="5.84134">
        <ele>544.484195</ele>
        <time>2010-08-08T15:41:51Z</time>
      </trkpt>
      <trkpt lat="45.50689" lon="5.84138">
        <ele>543.619566</ele>
        <time>2010-08-08T15:42:07Z</time>
      </trkpt>
      <trkpt lat="45.50721" lon="5.84141">
        <ele>543.242368</ele>
        <time>2010-08-08T15:42:16Z</time>
      </trkpt>
      <trkpt lat="45.50751" lon="5.84146">
        <ele>542.928724</ele>
        <time>2010-08-08T15:42:25Z</time>
      </trkpt>
      <trkpt lat="45.50778" lon="5.84155">
        <ele>542.012017</ele>
        <time>2010-08-08T15:42:38Z</time>
      </trkpt>
      <trkpt lat="45.50803" lon="5.84166">
        <ele>540.347363</ele>
        <time>2010-08-08T15:42:52Z</time>
      </trkpt>
      <trkpt lat="45.50803" lon="5.84166">
        <ele>538.568459</ele>
        <time>2010-08-08T15:43:09Z</time>
      </trkpt>
      <trkpt lat="45.5083" lon="5.84188">
        <ele>537.290546</ele>
        <time>2010-08-08T15:43:12Z</time>
      </trkpt>
      <trkpt lat="45.50858" lon="5.84208">
        <ele>536.580462</ele>
        <time>2010-08-08T15:43:21Z</time>
      </trkpt>
      <trkpt lat="45.50889" lon="5.84224">
        <ele>536.134253</ele>
        <time>2010-08-08T15:43:30Z</time>
      </trkpt>
      <trkpt lat="45.50921" lon="5.84234">
        <ele>535.745051</ele>
        <time>2010-08-08T15:43:39Z</time>
      </trkpt>
      <trkpt lat="45.50948" lon="5.84245">
        <ele>535.441341</ele>
        <time>2010-08-08T15:43:51Z</time>
      </trkpt>
      <trkpt lat="45.50948" lon="5.84245">
        <ele>535.246659</ele>
        <time>2010-08-08T15:44:08Z</time>
      </trkpt>
      <trkpt lat="45.50974" lon="5.84258">
        <ele>535.04379</ele>
        <time>2010-08-08T15:44:12Z</time>
      </trkpt>
      <trkpt lat="45.51" lon="5.84272">
        <ele>535.084885</ele>
        <time>2010-08-08T15:44:23Z</time>
      </trkpt>
      <trkpt lat="45.51029" lon="5.84286">
        <ele>535.848943</ele>
        <time>2010-08-08T15:44:34Z</time>
      </trkpt>
      <trkpt lat="45.51059" lon="5.84297">
        <ele>537.139126</ele>
        <time>2010-08-08T15:44:43Z</time>
      </trkpt>
      <trkpt lat="45.51093" lon="5.84306">
        <ele>538.444315</ele>
        <time>2010-08-08T15:44:52Z</time>
      </trkpt>
      <trkpt lat="45.51122" lon="5.84313">
        <ele>539.708323</ele>
        <time>2010-08-08T15:44:58Z</time>
      </trkpt>
      <trkpt lat="45.51144" lon="5.84318">
        <ele>541.095635</ele>
        <time>2010-08-08T15:45:03Z</time>
      </trkpt>
      <trkpt lat="45.51148" lon="5.8432">
        <ele>542.567033</ele>
        <time>2010-08-08T15:45:06Z</time>
      </trkpt>
      <trkpt lat="45.51174" lon="5.84327">
        <ele>543.810541</ele>
        <time>2010-08-08T15:45:10Z</time>
      </trkpt>
      <trkpt lat="45.51184" lon="5.84329">
        <ele>544.602739</ele>
        <time>2010-08-08T15:45:13Z</time>
      </trkpt>
      <trkpt lat="45.51194" lon="5.84333">
        <ele>545.100129</ele>
        <time>2010-08-08T15:45:16Z</time>
      </trkpt>
      <trkpt lat="45.51207" lon="5.84338">
        <ele>545.386612</ele>
        <time>2010-08-08T15:45:19Z</time>
      </trkpt>
      <trkpt lat="45.51223" lon="5.84344">
        <ele>545.46032</ele>
        <time>2010-08-08T15:45:22Z</time>
      </trkpt>
      <trkpt lat="45.51233" lon="5.84348">
        <ele>545.43412</ele>
        <time>2010-08-08T15:45:25Z</time>
      </trkpt>
      <trkpt lat="45.51244" lon="5.84352">
        <ele>545.393418</ele>
        <time>2010-08-08T15:45:27Z</time>
      </trkpt>
      <trkpt lat="45.51257" lon="5.84355">
        <ele>545.370276</ele>
        <time>2010-08-08T15:45:30Z</time>
      </trkpt>
      <trkpt lat="45.51267" lon="5.84355">
        <ele>545.364471</ele>
        <time>2010-08-08T15:45:33Z</time>
      </trkpt>
      <trkpt lat="45.51279" lon="5.84352">
        <ele>545.3667</ele>
        <time>2010-08-08T15:45:36Z</time>
      </trkpt>
      <trkpt lat="45.51291" lon="5.84347">
        <ele>545.508207</ele>
        <time>2010-08-08T15:45:39Z</time>
      </trkpt>
      <trkpt lat="45.51302" lon="5.84339">
        <ele>545.869968</ele>
        <time>2010-08-08T15:45:42Z</time>
      </trkpt>
      <trkpt lat="45.51314" lon="5.84328">
        <ele>546.23986</ele>
        <time>2010-08-08T15:45:45Z</time>
      </trkpt>
      <trkpt lat="45.51316" lon="5.84325">
        <ele>546.414932</ele>
        <time>2010-08-08T15:45:48Z</time>
      </trkpt>
      <trkpt lat="45.51333" lon="5.84293">
        <ele>546.44119</ele>
        <time>2010-08-08T15:46:00Z</time>
      </trkpt>
      <trkpt lat="45.51331" lon="5.84254">
        <ele>546.411053</ele>
        <time>2010-08-08T15:46:12Z</time>
      </trkpt>
      <trkpt lat="45.51331" lon="5.84241">
        <ele>546.380909</ele>
        <time>2010-08-08T15:46:17Z</time>
      </trkpt>
      <trkpt lat="45.5133" lon="5.84202">
        <ele>546.366829</ele>
        <time>2010-08-08T15:46:30Z</time>
      </trkpt>
      <trkpt lat="45.51332" lon="5.84163">
        <ele>546.503008</ele>
        <time>2010-08-08T15:46:44Z</time>
      </trkpt>
      <trkpt lat="45.51331" lon="5.84124">
        <ele>546.865408</ele>
        <time>2010-08-08T15:47:00Z</time>
      </trkpt>
      <trkpt lat="45.51331" lon="5.84119">
        <ele>547.237299</ele>
        <time>2010-08-08T15:47:03Z</time>
      </trkpt>
      <trkpt lat="45.51331" lon="5.84113">
        <ele>547.413692</ele>
        <time>2010-08-08T15:47:07Z</time>
      </trkpt>
      <trkpt lat="45.51331" lon="5.84113">
        <ele>547.440374</ele>
        <time>2010-08-08T15:47:19Z</time>
      </trkpt>
      <trkpt lat="45.51334" lon="5.84074">
        <ele>547.686535</ele>
        <time>2010-08-08T15:47:24Z</time>
      </trkpt>
      <trkpt lat="45.51335" lon="5.84059">
        <ele>548.51419</ele>
        <time>2010-08-08T15:47:32Z</time>
      </trkpt>
      <trkpt lat="45.51335" lon="5.84045">
        <ele>549.598765</ele>
        <time>2010-08-08T15:47:41Z</time>
      </trkpt>
      <trkpt lat="45.51335" lon="5.84032">
        <ele>550.316689</ele>
        <time>2010-08-08T15:47:49Z</time>
      </trkpt>
      <trkpt lat="45.51335" lon="5.84032">
        <ele>550.547524</ele>
        <time>2010-08-08T15:48:01Z</time>
      </trkpt>
      <trkpt lat="45.51335" lon="5.83991">
        <ele>550.654729</ele>
        <time>2010-08-08T15:48:13Z</time>
      </trkpt>
      <trkpt lat="45.51335" lon="5.83991">
        <ele>550.925561</ele>
        <time>2010-08-08T15:48:27Z</time>
      </trkpt>
      <trkpt lat="45.51339" lon="5.83951">
        <ele>551.098672</ele>
        <time>2010-08-08T15:48:36Z</time>
      </trkpt>
      <trkpt lat="45.51339" lon="5.83951">
        <ele>550.895693</ele>
        <time>2010-08-08T15:48:51Z</time>
      </trkpt>
      <trkpt lat="45.51345" lon="5.83888">
        <ele>550.555558</ele>
        <time>2010-08-08T15:49:13Z</time>
      </trkpt>
      <trkpt lat="45.51348" lon="5.8386">
        <ele>550.371255</ele>
        <time>2010-08-08T15:49:25Z</time>
      </trkpt>
      <trkpt lat="45.51348" lon="5.83854">
        <ele>550.617559</ele>
        <time>2010-08-08T15:49:28Z</time>
      </trkpt>
      <trkpt lat="45.51349" lon="5.83837">
        <ele>552.875589</ele>
        <time>2010-08-08T15:49:36Z</time>
      </trkpt>
      <trkpt lat="45.51351" lon="5.83825">
        <ele>558.272844</ele>
        <time>2010-08-08T15:49:44Z</time>
      </trkpt>
      <trkpt lat="45.51353" lon="5.83814">
        <ele>564.487928</ele>
        <time>2010-08-08T15:49:49Z</time>
      </trkpt>
      <trkpt lat="45.51355" lon="5.83805">
        <ele>568.314553</ele>
        <time>2010-08-08T15:49:53Z</time>
      </trkpt>
      <trkpt lat="45.51356" lon="5.83799">
        <ele>569.835762</ele>
        <time>2010-08-08T15:49:55Z</time>
      </trkpt>
      <trkpt lat="45.51359" lon="5.83788">
        <ele>571.348218</ele>
        <time>2010-08-08T15:50:03Z</time>
      </trkpt>
      <trkpt lat="45.5136" lon="5.83782">
        <ele>574.161111</ele>
        <time>2010-08-08T15:50:06Z</time>
      </trkpt>
      <trkpt lat="45.51361" lon="5.83777">
        <ele>577.580585</ele>
        <time>2010-08-08T15:50:09Z</time>
      </trkpt>
      <trkpt lat="45.51361" lon="5.83777">
        <ele>580.276967</ele>
        <time>2010-08-08T15:50:20Z</time>
      </trkpt>
      <trkpt lat="45.51366" lon="5.83736">
        <ele>582.435693</ele>
        <time>2010-08-08T15:50:28Z</time>
      </trkpt>
      <trkpt lat="45.51376" lon="5.83695">
        <ele>585.241179</ele>
        <time>2010-08-08T15:50:43Z</time>
      </trkpt>
      <trkpt lat="45.51376" lon="5.83695">
        <ele>588.332769</ele>
        <time>2010-08-08T15:51:01Z</time>
      </trkpt>
      <trkpt lat="45.514" lon="5.83678">
        <ele>590.687262</ele>
        <time>2010-08-08T15:51:05Z</time>
      </trkpt>
      <trkpt lat="45.51407" lon="5.83679">
        <ele>593.173927</ele>
        <time>2010-08-08T15:51:07Z</time>
      </trkpt>
      <trkpt lat="45.51411" lon="5.8368">
        <ele>596.737957</ele>
        <time>2010-08-08T15:51:09Z</time>
      </trkpt>
      <trkpt lat="45.51426" lon="5.83683">
        <ele>600.30651</ele>
        <time>2010-08-08T15:51:14Z</time>
      </trkpt>
      <trkpt lat="45.51432" lon="5.83684">
        <ele>602.389003</ele>
        <time>2010-08-08T15:51:16Z</time>
      </trkpt>
      <trkpt lat="45.51436" lon="5.83686">
        <ele>602.938207</ele>
        <time>2010-08-08T15:51:19Z</time>
      </trkpt>
      <trkpt lat="45.51446" lon="5.83691">
        <ele>602.75784</ele>
        <time>2010-08-08T15:51:22Z</time>
      </trkpt>
      <trkpt lat="45.51473" lon="5.83702">
        <ele>602.603907</ele>
        <time>2010-08-08T15:51:35Z</time>
      </trkpt>
      <trkpt lat="45.51489" lon="5.83709">
        <ele>602.795532</ele>
        <time>2010-08-08T15:51:43Z</time>
      </trkpt>
      <trkpt lat="45.51495" lon="5.83713">
        <ele>603.121665</ele>
        <time>2010-08-08T15:51:46Z</time>
      </trkpt>
      <trkpt lat="45.51502" lon="5.83718">
        <ele>603.450485</ele>
        <time>2010-08-08T15:51:49Z</time>
      </trkpt>
      <trkpt lat="45.51508" lon="5.83723">
        <ele>604.137168</ele>
        <time>2010-08-08T15:51:51Z</time>
      </trkpt>
      <trkpt lat="45.51513" lon="5.83726">
        <ele>605.348171</ele>
        <time>2010-08-08T15:51:54Z</time>
      </trkpt>
      <trkpt lat="45.51535" lon="5.83738">
        <ele>606.595497</ele>
        <time>2010-08-08T15:51:58Z</time>
      </trkpt>
      <trkpt lat="45.51543" lon="5.83741">
        <ele>607.464758</ele>
        <time>2010-08-08T15:52:01Z</time>
      </trkpt>
      <trkpt lat="45.51549" lon="5.83742">
        <ele>608.157187</ele>
        <time>2010-08-08T15:52:03Z</time>
      </trkpt>
      <trkpt lat="45.51554" lon="5.83743">
        <ele>609.100718</ele>
        <time>2010-08-08T15:52:06Z</time>
      </trkpt>
      <trkpt lat="45.51562" lon="5.83744">
        <ele>610.263086</ele>
        <time>2010-08-08T15:52:09Z</time>
      </trkpt>
      <trkpt lat="45.51566" lon="5.83745">
        <ele>611.14467</ele>
        <time>2010-08-08T15:52:12Z</time>
      </trkpt>
      <trkpt lat="45.51582" lon="5.83748">
        <ele>611.476407</ele>
        <time>2010-08-08T15:52:15Z</time>
      </trkpt>
      <trkpt lat="45.51591" lon="5.8375">
        <ele>611.474678</ele>
        <time>2010-08-08T15:52:18Z</time>
      </trkpt>
      <trkpt lat="45.516" lon="5.83751">
        <ele>611.378859</ele>
        <time>2010-08-08T15:52:21Z</time>
      </trkpt>
      <trkpt lat="45.51611" lon="5.83751">
        <ele>611.307299</ele>
        <time>2010-08-08T15:52:24Z</time>
      </trkpt>
      <trkpt lat="45.51625" lon="5.8375">
        <ele>611.280789</ele>
        <time>2010-08-08T15:52:27Z</time>
      </trkpt>
      <trkpt lat="45.51636" lon="5.8375">
        <ele>611.281244</ele>
        <time>2010-08-08T15:52:31Z</time>
      </trkpt>
      <trkpt lat="45.51646" lon="5.83751">
        <ele>611.150961</ele>
        <time>2010-08-08T15:52:33Z</time>
      </trkpt>
      <trkpt lat="45.51655" lon="5.83752">
        <ele>610.796876</ele>
        <time>2010-08-08T15:52:36Z</time>
      </trkpt>
      <trkpt lat="45.51666" lon="5.83757">
        <ele>610.429559</ele>
        <time>2010-08-08T15:52:39Z</time>
      </trkpt>
      <trkpt lat="45.5168" lon="5.83762">
        <ele>610.116057</ele>
        <time>2010-08-08T15:52:42Z</time>
      </trkpt>
      <trkpt lat="45.51689" lon="5.83766">
        <ele>609.728984</ele>
        <time>2010-08-08T15:52:44Z</time>
      </trkpt>
      <trkpt lat="45.51705" lon="5.83775">
        <ele>609.389064</ele>
        <time>2010-08-08T15:52:47Z</time>
      </trkpt>
      <trkpt lat="45.51716" lon="5.83779">
        <ele>609.243742</ele>
        <time>2010-08-08T15:52:49Z</time>
      </trkpt>
      <trkpt lat="45.51732" lon="5.83785">
        <ele>609.231315</ele>
        <time>2010-08-08T15:52:52Z</time>
      </trkpt>
      <trkpt lat="45.51758" lon="5.83784">
        <ele>609.263376</ele>
        <time>2010-08-08T15:53:01Z</time>
      </trkpt>
      <trkpt lat="45.51771" lon="5.83785">
        <ele>609.291026</ele>
        <time>2010-08-08T15:53:04Z</time>
      </trkpt>
      <trkpt lat="45.51784" lon="5.83787">
        <ele>609.44086</ele>
        <time>2010-08-08T15:53:07Z</time>
      </trkpt>
      <trkpt lat="45.51797" lon="5.83793">
        <ele>609.80164</ele>
        <time>2010-08-08T15:53:10Z</time>
      </trkpt>
      <trkpt lat="45.51811" lon="5.838">
        <ele>610.168421</ele>
        <time>2010-08-08T15:53:13Z</time>
      </trkpt>
      <trkpt lat="45.51825" lon="5.83807">
        <ele>610.341433</ele>
        <time>2010-08-08T15:53:16Z</time>
      </trkpt>
      <trkpt lat="45.51832" lon="5.83811">
        <ele>610.367029</ele>
        <time>2010-08-08T15:53:18Z</time>
      </trkpt>
      <trkpt lat="45.51835" lon="5.83813">
        <ele>610.336981</ele>
        <time>2010-08-08T15:53:19Z</time>
      </trkpt>
      <trkpt lat="45.51835" lon="5.83813">
        <ele>610.307093</ele>
        <time>2010-08-08T15:54:20Z</time>
      </trkpt>
      <trkpt lat="45.51868" lon="5.83818">
        <ele>610.293179</ele>
        <time>2010-08-08T15:54:39Z</time>
      </trkpt>
      <trkpt lat="45.51898" lon="5.83817">
        <ele>610.429411</ele>
        <time>2010-08-08T15:54:42Z</time>
      </trkpt>
      <trkpt lat="45.51915" lon="5.83815">
        <ele>610.791803</ele>
        <time>2010-08-08T15:54:44Z</time>
      </trkpt>
      <trkpt lat="45.51932" lon="5.83812">
        <ele>612.959986</ele>
        <time>2010-08-08T15:54:46Z</time>
      </trkpt>
      <trkpt lat="45.51955" lon="5.83808">
        <ele>617.814964</ele>
        <time>2010-08-08T15:54:49Z</time>
      </trkpt>
      <trkpt lat="45.51963" lon="5.83807">
        <ele>622.644295</ele>
        <time>2010-08-08T15:54:51Z</time>
      </trkpt>
      <trkpt lat="45.51963" lon="5.83807">
        <ele>624.892497</ele>
        <time>2010-08-08T15:54:52Z</time>
      </trkpt>
      <trkpt lat="45.51995" lon="5.83804">
        <ele>625.207084</ele>
        <time>2010-08-08T15:55:01Z</time>
      </trkpt>
      <trkpt lat="45.51995" lon="5.83804">
        <ele>624.803078</ele>
        <time>2010-08-08T15:55:05Z</time>
      </trkpt>
      <trkpt lat="45.5202" lon="5.83808">
        <ele>624.271468</ele>
        <time>2010-08-08T15:55:08Z</time>
      </trkpt>
      <trkpt lat="45.52023" lon="5.83808">
        <ele>623.543511</ele>
        <time>2010-08-08T15:55:10Z</time>
      </trkpt>
      <trkpt lat="45.52033" lon="5.83808">
        <ele>621.88244</ele>
        <time>2010-08-08T15:55:12Z</time>
      </trkpt>
      <trkpt lat="45.52049" lon="5.83811">
        <ele>618.794054</ele>
        <time>2010-08-08T15:55:15Z</time>
      </trkpt>
      <trkpt lat="45.52069" lon="5.83812">
        <ele>615.258912</ele>
        <time>2010-08-08T15:55:18Z</time>
      </trkpt>
      <trkpt lat="45.52077" lon="5.83814">
        <ele>612.671855</ele>
        <time>2010-08-08T15:55:20Z</time>
      </trkpt>
      <trkpt lat="45.52087" lon="5.83817">
        <ele>611.339552</ele>
        <time>2010-08-08T15:55:22Z</time>
      </trkpt>
      <trkpt lat="45.52098" lon="5.83821">
        <ele>610.79846</ele>
        <time>2010-08-08T15:55:24Z</time>
      </trkpt>
      <trkpt lat="45.5211" lon="5.83826">
        <ele>610.515194</ele>
        <time>2010-08-08T15:55:27Z</time>
      </trkpt>
      <trkpt lat="45.52121" lon="5.8383">
        <ele>610.318178</ele>
        <time>2010-08-08T15:55:30Z</time>
      </trkpt>
      <trkpt lat="45.52135" lon="5.83829">
        <ele>610.250738</ele>
        <time>2010-08-08T15:55:33Z</time>
      </trkpt>
      <trkpt lat="45.52144" lon="5.83831">
        <ele>610.25616</ele>
        <time>2010-08-08T15:55:36Z</time>
      </trkpt>
      <trkpt lat="45.5215" lon="5.83838">
        <ele>610.279452</ele>
        <time>2010-08-08T15:55:38Z</time>
      </trkpt>
      <trkpt lat="45.52156" lon="5.83846">
        <ele>610.295422</ele>
        <time>2010-08-08T15:55:40Z</time>
      </trkpt>
      <trkpt lat="45.52165" lon="5.83855">
        <ele>610.162617</ele>
        <time>2010-08-08T15:55:43Z</time>
      </trkpt>
      <trkpt lat="45.52173" lon="5.83864">
        <ele>609.802214</ele>
        <time>2010-08-08T15:55:46Z</time>
      </trkpt>
      <trkpt lat="45.52173" lon="5.83864">
        <ele>609.430865</ele>
        <time>2010-08-08T15:55:48Z</time>
      </trkpt>
      <trkpt lat="45.52201" lon="5.83882">
        <ele>609.22698</ele>
        <time>2010-08-08T15:56:00Z</time>
      </trkpt>
      <trkpt lat="45.52201" lon="5.83882">
        <ele>609.049356</ele>
        <time>2010-08-08T15:56:03Z</time>
      </trkpt>
      <trkpt lat="45.52231" lon="5.83905">
        <ele>608.767934</ele>
        <time>2010-08-08T15:56:18Z</time>
      </trkpt>
      <trkpt lat="45.52261" lon="5.83912">
        <ele>608.469335</ele>
        <time>2010-08-08T15:56:23Z</time>
      </trkpt>
      <trkpt lat="45.5229" lon="5.83913">
        <ele>607.326373</ele>
        <time>2010-08-08T15:56:32Z</time>
      </trkpt>
      <trkpt lat="45.52319" lon="5.83917">
        <ele>604.760072</ele>
        <time>2010-08-08T15:56:42Z</time>
      </trkpt>
      <trkpt lat="45.52346" lon="5.83925">
        <ele>602.050531</ele>
        <time>2010-08-08T15:56:58Z</time>
      </trkpt>
      <trkpt lat="45.52374" lon="5.83923">
        <ele>600.488258</ele>
        <time>2010-08-08T15:57:10Z</time>
      </trkpt>
      <trkpt lat="45.52403" lon="5.83916">
        <ele>599.670956</ele>
        <time>2010-08-08T15:57:23Z</time>
      </trkpt>
      <trkpt lat="45.52415" lon="5.83912">
        <ele>598.574992</ele>
        <time>2010-08-08T15:57:29Z</time>
      </trkpt>
      <trkpt lat="45.52415" lon="5.83912">
        <ele>596.939415</ele>
        <time>2010-08-08T15:57:44Z</time>
      </trkpt>
      <trkpt lat="45.52443" lon="5.83905">
        <ele>595.054535</ele>
        <time>2010-08-08T15:57:48Z</time>
      </trkpt>
      <trkpt lat="45.52443" lon="5.83905">
        <ele>593.079233</ele>
        <time>2010-08-08T15:58:03Z</time>
      </trkpt>
      <trkpt lat="45.52473" lon="5.83904">
        <ele>590.887316</ele>
        <time>2010-08-08T15:58:06Z</time>
      </trkpt>
      <trkpt lat="45.52503" lon="5.83905">
        <ele>588.107406</ele>
        <time>2010-08-08T15:58:12Z</time>
      </trkpt>
      <trkpt lat="45.52526" lon="5.83903">
        <ele>584.077261</ele>
        <time>2010-08-08T15:58:18Z</time>
      </trkpt>
      <trkpt lat="45.5254" lon="5.83903">
        <ele>578.961821</ele>
        <time>2010-08-08T15:58:21Z</time>
      </trkpt>
      <trkpt lat="45.52549" lon="5.83901">
        <ele>574.390076</ele>
        <time>2010-08-08T15:58:23Z</time>
      </trkpt>
      <trkpt lat="45.52561" lon="5.83895">
        <ele>571.995248</ele>
        <time>2010-08-08T15:58:25Z</time>
      </trkpt>
      <trkpt lat="45.52587" lon="5.83883">
        <ele>571.497012</ele>
        <time>2010-08-08T15:58:30Z</time>
      </trkpt>
      <trkpt lat="45.52591" lon="5.8388">
        <ele>571.942874</ele>
        <time>2010-08-08T15:58:33Z</time>
      </trkpt>
      <trkpt lat="45.52619" lon="5.83874">
        <ele>572.814271</ele>
        <time>2010-08-08T15:58:42Z</time>
      </trkpt>
      <trkpt lat="45.52619" lon="5.83874">
        <ele>573.736661</ele>
        <time>2010-08-08T15:58:59Z</time>
      </trkpt>
      <trkpt lat="45.52667" lon="5.83913">
        <ele>574.320165</ele>
        <time>2010-08-08T15:59:03Z</time>
      </trkpt>
      <trkpt lat="45.52667" lon="5.83913">
        <ele>574.496131</ele>
        <time>2010-08-08T15:59:06Z</time>
      </trkpt>
      <trkpt lat="45.52711" lon="5.83916">
        <ele>574.462197</ele>
        <time>2010-08-08T15:59:13Z</time>
      </trkpt>
      <trkpt lat="45.52748" lon="5.83919">
        <ele>574.386544</ele>
        <time>2010-08-08T15:59:17Z</time>
      </trkpt>
      <trkpt lat="45.52777" lon="5.83924">
        <ele>574.245385</ele>
        <time>2010-08-08T15:59:24Z</time>
      </trkpt>
      <trkpt lat="45.52777" lon="5.83924">
        <ele>573.976432</ele>
        <time>2010-08-08T15:59:27Z</time>
      </trkpt>
      <trkpt lat="45.52812" lon="5.83932">
        <ele>573.71166</ele>
        <time>2010-08-08T15:59:39Z</time>
      </trkpt>
      <trkpt lat="45.52862" lon="5.83947">
        <ele>573.598</ele>
        <time>2010-08-08T15:59:45Z</time>
      </trkpt>
      <trkpt lat="45.52878" lon="5.83952">
        <ele>573.692243</ele>
        <time>2010-08-08T15:59:47Z</time>
      </trkpt>
      <trkpt lat="45.52901" lon="5.83958">
        <ele>574.936769</ele>
        <time>2010-08-08T15:59:49Z</time>
      </trkpt>
      <trkpt lat="45.52924" lon="5.83965">
        <ele>578.422496</ele>
        <time>2010-08-08T15:59:52Z</time>
      </trkpt>
      <trkpt lat="45.52939" lon="5.83974">
        <ele>583.074411</ele>
        <time>2010-08-08T15:59:55Z</time>
      </trkpt>
      <trkpt lat="45.52956" lon="5.83984">
        <ele>586.664388</ele>
        <time>2010-08-08T15:59:58Z</time>
      </trkpt>
      <trkpt lat="45.52977" lon="5.83996">
        <ele>588.709016</ele>
        <time>2010-08-08T16:00:01Z</time>
      </trkpt>
      <trkpt lat="45.52996" lon="5.84007">
        <ele>590.150149</ele>
        <time>2010-08-08T16:00:04Z</time>
      </trkpt>
      <trkpt lat="45.53016" lon="5.84022">
        <ele>591.57778</ele>
        <time>2010-08-08T16:00:07Z</time>
      </trkpt>
      <trkpt lat="45.53029" lon="5.84046">
        <ele>592.773042</ele>
        <time>2010-08-08T16:00:09Z</time>
      </trkpt>
      <trkpt lat="45.53043" lon="5.84069">
        <ele>593.403252</ele>
        <time>2010-08-08T16:00:12Z</time>
      </trkpt>
      <trkpt lat="45.53053" lon="5.84081">
        <ele>593.67477</ele>
        <time>2010-08-08T16:00:14Z</time>
      </trkpt>
      <trkpt lat="45.53068" lon="5.84092">
        <ele>593.955368</ele>
        <time>2010-08-08T16:00:17Z</time>
      </trkpt>
      <trkpt lat="45.53077" lon="5.84098">
        <ele>594.365363</ele>
        <time>2010-08-08T16:00:19Z</time>
      </trkpt>
      <trkpt lat="45.53089" lon="5.84106">
        <ele>594.849703</ele>
        <time>2010-08-08T16:00:22Z</time>
      </trkpt>
      <trkpt lat="45.53099" lon="5.84114">
        <ele>595.235272</ele>
        <time>2010-08-08T16:00:25Z</time>
      </trkpt>
      <trkpt lat="45.53099" lon="5.84114">
        <ele>595.387208</ele>
        <time>2010-08-08T16:00:27Z</time>
      </trkpt>
      <trkpt lat="45.53126" lon="5.84133">
        <ele>595.391601</ele>
        <time>2010-08-08T16:00:42Z</time>
      </trkpt>
      <trkpt lat="45.53126" lon="5.84133">
        <ele>595.351614</ele>
        <time>2010-08-08T16:00:46Z</time>
      </trkpt>
      <trkpt lat="45.53159" lon="5.84142">
        <ele>595.236227</ele>
        <time>2010-08-08T16:00:52Z</time>
      </trkpt>
      <trkpt lat="45.53159" lon="5.84142">
        <ele>594.983641</ele>
        <time>2010-08-08T16:00:56Z</time>
      </trkpt>
      <trkpt lat="45.5319" lon="5.84161">
        <ele>594.70274</ele>
        <time>2010-08-08T16:01:02Z</time>
      </trkpt>
      <trkpt lat="45.5321" lon="5.84175">
        <ele>594.54201</ele>
        <time>2010-08-08T16:01:07Z</time>
      </trkpt>
      <trkpt lat="45.53223" lon="5.84184">
        <ele>594.522651</ele>
        <time>2010-08-08T16:01:10Z</time>
      </trkpt>
      <trkpt lat="45.53231" lon="5.8419">
        <ele>594.815908</ele>
        <time>2010-08-08T16:01:12Z</time>
      </trkpt>
      <trkpt lat="45.53241" lon="5.84196">
        <ele>596.166032</ele>
        <time>2010-08-08T16:01:15Z</time>
      </trkpt>
      <trkpt lat="45.53249" lon="5.842">
        <ele>598.87626</ele>
        <time>2010-08-08T16:01:17Z</time>
      </trkpt>
      <trkpt lat="45.53258" lon="5.84203">
        <ele>601.870623</ele>
        <time>2010-08-08T16:01:19Z</time>
      </trkpt>
      <trkpt lat="45.53266" lon="5.84205">
        <ele>604.020598</ele>
        <time>2010-08-08T16:01:21Z</time>
      </trkpt>
      <trkpt lat="45.53277" lon="5.84208">
        <ele>605.178311</ele>
        <time>2010-08-08T16:01:24Z</time>
      </trkpt>
      <trkpt lat="45.53288" lon="5.8421">
        <ele>605.712651</ele>
        <time>2010-08-08T16:01:27Z</time>
      </trkpt>
      <trkpt lat="45.53294" lon="5.84212">
        <ele>606.040586</ele>
        <time>2010-08-08T16:01:29Z</time>
      </trkpt>
      <trkpt lat="45.53312" lon="5.84214">
        <ele>606.273114</ele>
        <time>2010-08-08T16:01:32Z</time>
      </trkpt>
      <trkpt lat="45.53321" lon="5.84213">
        <ele>606.354531</ele>
        <time>2010-08-08T16:01:34Z</time>
      </trkpt>
      <trkpt lat="45.53336" lon="5.84213">
        <ele>606.487679</ele>
        <time>2010-08-08T16:01:37Z</time>
      </trkpt>
      <trkpt lat="45.53343" lon="5.84211">
        <ele>606.820592</ele>
        <time>2010-08-08T16:01:39Z</time>
      </trkpt>
      <trkpt lat="45.53347" lon="5.8421">
        <ele>607.171172</ele>
        <time>2010-08-08T16:01:42Z</time>
      </trkpt>
      <trkpt lat="45.53376" lon="5.84209">
        <ele>607.339942</ele>
        <time>2010-08-08T16:01:48Z</time>
      </trkpt>
      <trkpt lat="45.53376" lon="5.84209">
        <ele>607.366963</ele>
        <time>2010-08-08T16:01:51Z</time>
      </trkpt>
      <trkpt lat="45.5341" lon="5.84209">
        <ele>607.339196</ele>
        <time>2010-08-08T16:02:01Z</time>
      </trkpt>
      <trkpt lat="45.5341" lon="5.84209">
        <ele>607.219411</ele>
        <time>2010-08-08T16:02:05Z</time>
      </trkpt>
      <trkpt lat="45.53439" lon="5.84214">
        <ele>606.96818</ele>
        <time>2010-08-08T16:02:14Z</time>
      </trkpt>
      <trkpt lat="45.5347" lon="5.84222">
        <ele>606.721995</ele>
        <time>2010-08-08T16:02:25Z</time>
      </trkpt>
      <trkpt lat="45.53497" lon="5.8423">
        <ele>606.60835</ele>
        <time>2010-08-08T16:02:32Z</time>
      </trkpt>
      <trkpt lat="45.53526" lon="5.84246">
        <ele>606.59314</ele>
        <time>2010-08-08T16:02:40Z</time>
      </trkpt>
      <trkpt lat="45.53546" lon="5.84273">
        <ele>606.705479</ele>
        <time>2010-08-08T16:02:54Z</time>
      </trkpt>
      <trkpt lat="45.53551" lon="5.84275">
        <ele>606.963357</ele>
        <time>2010-08-08T16:03:04Z</time>
      </trkpt>
      <trkpt lat="45.53551" lon="5.84275">
        <ele>607.216471</ele>
        <time>2010-08-08T16:03:15Z</time>
      </trkpt>
      <trkpt lat="45.53551" lon="5.84275">
        <ele>607.333328</ele>
        <time>2010-08-08T16:03:25Z</time>
      </trkpt>
      <trkpt lat="45.53566" lon="5.84288">
        <ele>607.487261</ele>
        <time>2010-08-08T16:04:57Z</time>
      </trkpt>
      <trkpt lat="45.53575" lon="5.84299">
        <ele>608.102061</ele>
        <time>2010-08-08T16:05:00Z</time>
      </trkpt>
      <trkpt lat="45.53585" lon="5.84312">
        <ele>609.308841</ele>
        <time>2010-08-08T16:05:03Z</time>
      </trkpt>
      <trkpt lat="45.53596" lon="5.84331">
        <ele>612.646141</ele>
        <time>2010-08-08T16:05:06Z</time>
      </trkpt>
      <trkpt lat="45.53604" lon="5.84345">
        <ele>618.789823</ele>
        <time>2010-08-08T16:05:09Z</time>
      </trkpt>
      <trkpt lat="45.53612" lon="5.84359">
        <ele>624.669642</ele>
        <time>2010-08-08T16:05:12Z</time>
      </trkpt>
      <trkpt lat="45.53616" lon="5.84368">
        <ele>627.596581</ele>
        <time>2010-08-08T16:05:14Z</time>
      </trkpt>
      <trkpt lat="45.53621" lon="5.84381">
        <ele>628.398604</ele>
        <time>2010-08-08T16:05:17Z</time>
      </trkpt>
      <trkpt lat="45.53623" lon="5.84391">
        <ele>628.561911</ele>
        <time>2010-08-08T16:05:20Z</time>
      </trkpt>
      <trkpt lat="45.53628" lon="5.84405">
        <ele>628.850363</ele>
        <time>2010-08-08T16:05:22Z</time>
      </trkpt>
      <trkpt lat="45.53637" lon="5.84415">
        <ele>629.158917</ele>
        <time>2010-08-08T16:05:25Z</time>
      </trkpt>
      <trkpt lat="45.53647" lon="5.84426">
        <ele>629.308753</ele>
        <time>2010-08-08T16:05:28Z</time>
      </trkpt>
      <trkpt lat="45.53656" lon="5.84437">
        <ele>629.333511</ele>
        <time>2010-08-08T16:05:31Z</time>
      </trkpt>
      <trkpt lat="45.53666" lon="5.84447">
        <ele>629.309436</ele>
        <time>2010-08-08T16:05:34Z</time>
      </trkpt>
      <trkpt lat="45.53673" lon="5.84451">
        <ele>629.284279</ele>
        <time>2010-08-08T16:05:36Z</time>
      </trkpt>
      <trkpt lat="45.53684" lon="5.84458">
        <ele>629.134043</ele>
        <time>2010-08-08T16:05:39Z</time>
      </trkpt>
      <trkpt lat="45.53692" lon="5.84463">
        <ele>628.772251</ele>
        <time>2010-08-08T16:05:41Z</time>
      </trkpt>
      <trkpt lat="45.53699" lon="5.84467">
        <ele>628.404824</ele>
        <time>2010-08-08T16:05:43Z</time>
      </trkpt>
      <trkpt lat="45.53705" lon="5.8447">
        <ele>628.231613</ele>
        <time>2010-08-08T16:05:46Z</time>
      </trkpt>
      <trkpt lat="45.5371" lon="5.84474">
        <ele>628.206053</ele>
        <time>2010-08-08T16:05:48Z</time>
      </trkpt>
      <trkpt lat="45.53716" lon="5.8448">
        <ele>628.236184</ele>
        <time>2010-08-08T16:05:51Z</time>
      </trkpt>
      <trkpt lat="45.53716" lon="5.8448">
        <ele>628.266125</ele>
        <time>2010-08-08T16:05:52Z</time>
      </trkpt>
      <trkpt lat="45.5374" lon="5.84501">
        <ele>628.280054</ele>
        <time>2010-08-08T16:06:06Z</time>
      </trkpt>
      <trkpt lat="45.53751" lon="5.84504">
        <ele>628.281997</ele>
        <time>2010-08-08T16:06:09Z</time>
      </trkpt>
      <trkpt lat="45.53777" lon="5.8451">
        <ele>628.27949</ele>
        <time>2010-08-08T16:06:12Z</time>
      </trkpt>
      <trkpt lat="45.53803" lon="5.84516">
        <ele>628.553407</ele>
        <time>2010-08-08T16:06:15Z</time>
      </trkpt>
      <trkpt lat="45.53827" lon="5.8452">
        <ele>629.410249</ele>
        <time>2010-08-08T16:06:19Z</time>
      </trkpt>
      <trkpt lat="45.53849" lon="5.84524">
        <ele>630.647042</ele>
        <time>2010-08-08T16:06:21Z</time>
      </trkpt>
      <trkpt lat="45.53862" lon="5.84525">
        <ele>631.865278</ele>
        <time>2010-08-08T16:06:23Z</time>
      </trkpt>
      <trkpt lat="45.53881" lon="5.84526">
        <ele>632.961303</ele>
        <time>2010-08-08T16:06:26Z</time>
      </trkpt>
      <trkpt lat="45.53902" lon="5.84522">
        <ele>633.832539</ele>
        <time>2010-08-08T16:06:29Z</time>
      </trkpt>
      <trkpt lat="45.53914" lon="5.8452">
        <ele>634.313575</ele>
        <time>2010-08-08T16:06:31Z</time>
      </trkpt>
      <trkpt lat="45.53933" lon="5.84518">
        <ele>634.427063</ele>
        <time>2010-08-08T16:06:34Z</time>
      </trkpt>
      <trkpt lat="45.53951" lon="5.84515">
        <ele>634.375344</ele>
        <time>2010-08-08T16:06:37Z</time>
      </trkpt>
      <trkpt lat="45.53959" lon="5.84515">
        <ele>634.304118</ele>
        <time>2010-08-08T16:06:40Z</time>
      </trkpt>
      <trkpt lat="45.53963" lon="5.84516">
        <ele>634.265294</ele>
        <time>2010-08-08T16:06:42Z</time>
      </trkpt>
      <trkpt lat="45.53989" lon="5.84543">
        <ele>634.118216</ele>
        <time>2010-08-08T16:06:57Z</time>
      </trkpt>
      <trkpt lat="45.53989" lon="5.84543">
        <ele>633.762693</ele>
        <time>2010-08-08T16:07:00Z</time>
      </trkpt>
      <trkpt lat="45.54017" lon="5.84549">
        <ele>633.122723</ele>
        <time>2010-08-08T16:07:03Z</time>
      </trkpt>
      <trkpt lat="45.54017" lon="5.84549">
        <ele>632.23081</ele>
        <time>2010-08-08T16:07:07Z</time>
      </trkpt>
      <trkpt lat="45.54017" lon="5.84549">
        <ele>631.466107</ele>
        <time>2010-08-08T16:07:46Z</time>
      </trkpt>
      <trkpt lat="45.54012" lon="5.84584">
        <ele>631.145203</ele>
        <time>2010-08-08T16:08:05Z</time>
      </trkpt>
      <trkpt lat="45.54012" lon="5.84584">
        <ele>631.00366</ele>
        <time>2010-08-08T16:08:16Z</time>
      </trkpt>
      <trkpt lat="45.54012" lon="5.84584">
        <ele>630.769841</ele>
        <time>2010-08-08T16:08:35Z</time>
      </trkpt>
      <trkpt lat="45.5401" lon="5.84606">
        <ele>630.496673</ele>
        <time>2010-08-08T16:08:44Z</time>
      </trkpt>
      <trkpt lat="45.54014" lon="5.84629">
        <ele>630.321648</ele>
        <time>2010-08-08T16:08:47Z</time>
      </trkpt>
      <trkpt lat="45.54014" lon="5.84645">
        <ele>630.109624</ele>
        <time>2010-08-08T16:08:49Z</time>
      </trkpt>
      <trkpt lat="45.54001" lon="5.84663">
        <ele>629.604956</ele>
        <time>2010-08-08T16:08:52Z</time>
      </trkpt>
      <trkpt lat="45.53983" lon="5.84672">
        <ele>628.891203</ele>
        <time>2010-08-08T16:08:54Z</time>
      </trkpt>
      <trkpt lat="45.53953" lon="5.84684">
        <ele>628.360097</ele>
        <time>2010-08-08T16:08:57Z</time>
      </trkpt>
      <trkpt lat="45.53919" lon="5.84694">
        <ele>628.164088</ele>
        <time>2010-08-08T16:09:00Z</time>
      </trkpt>
      <trkpt lat="45.53891" lon="5.84705">
        <ele>628.029842</ele>
        <time>2010-08-08T16:09:03Z</time>
      </trkpt>
      <trkpt lat="45.53871" lon="5.8473">
        <ele>627.728754</ele>
        <time>2010-08-08T16:09:06Z</time>
      </trkpt>
      <trkpt lat="45.53868" lon="5.84774">
        <ele>627.26424</ele>
        <time>2010-08-08T16:09:09Z</time>
      </trkpt>
      <trkpt lat="45.53869" lon="5.84813">
        <ele>626.74474</ele>
        <time>2010-08-08T16:09:12Z</time>
      </trkpt>
      <trkpt lat="45.53862" lon="5.84832">
        <ele>626.348267</ele>
        <time>2010-08-08T16:09:14Z</time>
      </trkpt>
      <trkpt lat="45.53852" lon="5.84838">
        <ele>626.059971</ele>
        <time>2010-08-08T16:09:16Z</time>
      </trkpt>
      <trkpt lat="45.53841" lon="5.84839">
        <ele>625.561982</ele>
        <time>2010-08-08T16:09:18Z</time>
      </trkpt>
      <trkpt lat="45.5383" lon="5.84838">
        <ele>624.73731</ele>
        <time>2010-08-08T16:09:21Z</time>
      </trkpt>
      <trkpt lat="45.53811" lon="5.84835">
        <ele>623.726729</ele>
        <time>2010-08-08T16:09:23Z</time>
      </trkpt>
      <trkpt lat="45.53798" lon="5.84836">
        <ele>622.807609</ele>
        <time>2010-08-08T16:09:25Z</time>
      </trkpt>
      <trkpt lat="45.5378" lon="5.84846">
        <ele>622.266221</ele>
        <time>2010-08-08T16:09:28Z</time>
      </trkpt>
      <trkpt lat="45.53772" lon="5.84874">
        <ele>622.120994</ele>
        <time>2010-08-08T16:09:31Z</time>
      </trkpt>
      <trkpt lat="45.53771" lon="5.84894">
        <ele>622.027863</ele>
        <time>2010-08-08T16:09:33Z</time>
      </trkpt>
      <trkpt lat="45.53772" lon="5.84935">
        <ele>621.605046</ele>
        <time>2010-08-08T16:09:36Z</time>
      </trkpt>
      <trkpt lat="45.53776" lon="5.84985">
        <ele>620.781294</ele>
        <time>2010-08-08T16:09:39Z</time>
      </trkpt>
      <trkpt lat="45.53778" lon="5.85033">
        <ele>619.749987</ele>
        <time>2010-08-08T16:09:42Z</time>
      </trkpt>
      <trkpt lat="45.5377" lon="5.85062">
        <ele>618.815019</ele>
        <time>2010-08-08T16:09:44Z</time>
      </trkpt>
      <trkpt lat="45.53757" lon="5.85108">
        <ele>618.129442</ele>
        <time>2010-08-08T16:09:47Z</time>
      </trkpt>
      <trkpt lat="45.53746" lon="5.85144">
        <ele>617.624317</ele>
        <time>2010-08-08T16:09:49Z</time>
      </trkpt>
      <trkpt lat="45.53726" lon="5.85204">
        <ele>617.301638</ele>
        <time>2010-08-08T16:09:52Z</time>
      </trkpt>
      <trkpt lat="45.53713" lon="5.85244">
        <ele>617.202917</ele>
        <time>2010-08-08T16:09:54Z</time>
      </trkpt>
      <trkpt lat="45.53695" lon="5.85303">
        <ele>617.22062</ele>
        <time>2010-08-08T16:09:57Z</time>
      </trkpt>
      <trkpt lat="45.53681" lon="5.85357">
        <ele>617.26206</ele>
        <time>2010-08-08T16:10:00Z</time>
      </trkpt>
      <trkpt lat="45.53679" lon="5.85388">
        <ele>617.288177</ele>
        <time>2010-08-08T16:10:03Z</time>
      </trkpt>
      <trkpt lat="45.53678" lon="5.85399">
        <ele>617.29601</ele>
        <time>2010-08-08T16:10:05Z</time>
      </trkpt>
      <trkpt lat="45.53675" lon="5.85402">
        <ele>617.294458</ele>
        <time>2010-08-08T16:10:07Z</time>
      </trkpt>
      <trkpt lat="45.53675" lon="5.85402">
        <ele>617.193569</ele>
        <time>2010-08-08T16:10:08Z</time>
      </trkpt>
      <trkpt lat="45.53696" lon="5.85411">
        <ele>616.896849</ele>
        <time>2010-08-08T16:10:23Z</time>
      </trkpt>
      <trkpt lat="45.53713" lon="5.85421">
        <ele>616.391425</ele>
        <time>2010-08-08T16:10:25Z</time>
      </trkpt>
      <trkpt lat="45.53732" lon="5.85439">
        <ele>615.661053</ele>
        <time>2010-08-08T16:10:28Z</time>
      </trkpt>
      <trkpt lat="45.53751" lon="5.85468">
        <ele>613.756256</ele>
        <time>2010-08-08T16:10:31Z</time>
      </trkpt>
      <trkpt lat="45.53763" lon="5.85491">
        <ele>610.20776</ele>
        <time>2010-08-08T16:10:33Z</time>
      </trkpt>
      <trkpt lat="45.53774" lon="5.85522">
        <ele>606.58254</ele>
        <time>2010-08-08T16:10:36Z</time>
      </trkpt>
      <trkpt lat="45.53782" lon="5.85535">
        <ele>604.335201</ele>
        <time>2010-08-08T16:10:39Z</time>
      </trkpt>
      <trkpt lat="45.53787" lon="5.85524">
        <ele>603.145841</ele>
        <time>2010-08-08T16:10:41Z</time>
      </trkpt>
      <trkpt lat="45.53795" lon="5.85502">
        <ele>602.221279</ele>
        <time>2010-08-08T16:10:44Z</time>
      </trkpt>
      <trkpt lat="45.538" lon="5.85484">
        <ele>600.80023</ele>
        <time>2010-08-08T16:10:46Z</time>
      </trkpt>
      <trkpt lat="45.53806" lon="5.85463">
        <ele>598.812582</ele>
        <time>2010-08-08T16:10:48Z</time>
      </trkpt>
      <trkpt lat="45.53813" lon="5.85433">
        <ele>596.914128</ele>
        <time>2010-08-08T16:10:51Z</time>
      </trkpt>
      <trkpt lat="45.53818" lon="5.85415">
        <ele>595.520536</ele>
        <time>2010-08-08T16:10:54Z</time>
      </trkpt>
      <trkpt lat="45.53826" lon="5.8539">
        <ele>594.204816</ele>
        <time>2010-08-08T16:10:56Z</time>
      </trkpt>
      <trkpt lat="45.53831" lon="5.85371">
        <ele>592.291832</ele>
        <time>2010-08-08T16:10:58Z</time>
      </trkpt>
      <trkpt lat="45.53839" lon="5.85341">
        <ele>589.907538</ele>
        <time>2010-08-08T16:11:01Z</time>
      </trkpt>
      <trkpt lat="45.53846" lon="5.85315">
        <ele>587.850981</ele>
        <time>2010-08-08T16:11:04Z</time>
      </trkpt>
      <trkpt lat="45.53854" lon="5.8529">
        <ele>586.451517</ele>
        <time>2010-08-08T16:11:07Z</time>
      </trkpt>
      <trkpt lat="45.53866" lon="5.85269">
        <ele>585.314605</ele>
        <time>2010-08-08T16:11:10Z</time>
      </trkpt>
      <trkpt lat="45.53878" lon="5.85249">
        <ele>584.070095</ele>
        <time>2010-08-08T16:11:13Z</time>
      </trkpt>
      <trkpt lat="45.53893" lon="5.8524">
        <ele>582.649498</ele>
        <time>2010-08-08T16:11:16Z</time>
      </trkpt>
      <trkpt lat="45.53902" lon="5.85235">
        <ele>581.147516</ele>
        <time>2010-08-08T16:11:18Z</time>
      </trkpt>
      <trkpt lat="45.53914" lon="5.85228">
        <ele>579.890493</ele>
        <time>2010-08-08T16:11:21Z</time>
      </trkpt>
      <trkpt lat="45.53926" lon="5.85223">
        <ele>579.235024</ele>
        <time>2010-08-08T16:11:24Z</time>
      </trkpt>
      <trkpt lat="45.53939" lon="5.85219">
        <ele>579.100288</ele>
        <time>2010-08-08T16:11:27Z</time>
      </trkpt>
      <trkpt lat="45.53952" lon="5.85215">
        <ele>579.185729</ele>
        <time>2010-08-08T16:11:30Z</time>
      </trkpt>
      <trkpt lat="45.53966" lon="5.85212">
        <ele>579.288367</ele>
        <time>2010-08-08T16:11:33Z</time>
      </trkpt>
      <trkpt lat="45.53981" lon="5.85207">
        <ele>579.341204</ele>
        <time>2010-08-08T16:11:36Z</time>
      </trkpt>
      <trkpt lat="45.5399" lon="5.85204">
        <ele>579.213513</ele>
        <time>2010-08-08T16:11:38Z</time>
      </trkpt>
      <trkpt lat="45.54003" lon="5.852">
        <ele>578.846453</ele>
        <time>2010-08-08T16:11:41Z</time>
      </trkpt>
      <trkpt lat="45.54012" lon="5.85197">
        <ele>578.330462</ele>
        <time>2010-08-08T16:11:43Z</time>
      </trkpt>
      <trkpt lat="45.54022" lon="5.85194">
        <ele>577.652872</ele>
        <time>2010-08-08T16:11:45Z</time>
      </trkpt>
      <trkpt lat="45.54038" lon="5.85189">
        <ele>576.758023</ele>
        <time>2010-08-08T16:11:48Z</time>
      </trkpt>
      <trkpt lat="45.54048" lon="5.85184">
        <ele>575.884021</ele>
        <time>2010-08-08T16:11:50Z</time>
      </trkpt>
      <trkpt lat="45.54063" lon="5.85176">
        <ele>575.343586</ele>
        <time>2010-08-08T16:11:53Z</time>
      </trkpt>
      <trkpt lat="45.54073" lon="5.85171">
        <ele>575.048042</ele>
        <time>2010-08-08T16:11:55Z</time>
      </trkpt>
      <trkpt lat="45.54088" lon="5.8516">
        <ele>574.723798</ele>
        <time>2010-08-08T16:11:58Z</time>
      </trkpt>
      <trkpt lat="45.54098" lon="5.8515">
        <ele>574.426007</ele>
        <time>2010-08-08T16:12:00Z</time>
      </trkpt>
      <trkpt lat="45.54105" lon="5.85131">
        <ele>574.294462</ele>
        <time>2010-08-08T16:12:03Z</time>
      </trkpt>
      <trkpt lat="45.54111" lon="5.85115">
        <ele>574.280392</ele>
        <time>2010-08-08T16:12:06Z</time>
      </trkpt>
      <trkpt lat="45.54117" lon="5.85101">
        <ele>574.169115</ele>
        <time>2010-08-08T16:12:09Z</time>
      </trkpt>
      <trkpt lat="45.54121" lon="5.85092">
        <ele>573.833459</ele>
        <time>2010-08-08T16:12:11Z</time>
      </trkpt>
      <trkpt lat="45.54124" lon="5.85083">
        <ele>573.474585</ele>
        <time>2010-08-08T16:12:13Z</time>
      </trkpt>
      <trkpt lat="45.5413" lon="5.8507">
        <ele>573.162182</ele>
        <time>2010-08-08T16:12:16Z</time>
      </trkpt>
      <trkpt lat="45.54136" lon="5.85056">
        <ele>572.773529</ele>
        <time>2010-08-08T16:12:19Z</time>
      </trkpt>
      <trkpt lat="45.54141" lon="5.85043">
        <ele>572.432108</ele>
        <time>2010-08-08T16:12:22Z</time>
      </trkpt>
      <trkpt lat="45.54145" lon="5.85029">
        <ele>572.147929</ele>
        <time>2010-08-08T16:12:25Z</time>
      </trkpt>
      <trkpt lat="45.5415" lon="5.85015">
        <ele>571.775528</ele>
        <time>2010-08-08T16:12:28Z</time>
      </trkpt>
      <trkpt lat="45.54155" lon="5.85">
        <ele>571.438285</ele>
        <time>2010-08-08T16:12:31Z</time>
      </trkpt>
      <trkpt lat="45.5416" lon="5.84984">
        <ele>571.290796</ele>
        <time>2010-08-08T16:12:34Z</time>
      </trkpt>
      <trkpt lat="45.54166" lon="5.84969">
        <ele>571.275977</ele>
        <time>2010-08-08T16:12:37Z</time>
      </trkpt>
      <trkpt lat="45.54175" lon="5.84957">
        <ele>571.306857</ele>
        <time>2010-08-08T16:12:40Z</time>
      </trkpt>
      <trkpt lat="45.54181" lon="5.8495">
        <ele>571.196121</ele>
        <time>2010-08-08T16:12:42Z</time>
      </trkpt>
      <trkpt lat="45.54188" lon="5.84945">
        <ele>570.848067</ele>
        <time>2010-08-08T16:12:44Z</time>
      </trkpt>
      <trkpt lat="45.542" lon="5.84944">
        <ele>570.479715</ele>
        <time>2010-08-08T16:12:47Z</time>
      </trkpt>
      <trkpt lat="45.54209" lon="5.84945">
        <ele>570.301894</ele>
        <time>2010-08-08T16:12:49Z</time>
      </trkpt>
      <trkpt lat="45.54226" lon="5.84946">
        <ele>570.273132</ele>
        <time>2010-08-08T16:12:52Z</time>
      </trkpt>
      <trkpt lat="45.54241" lon="5.84949">
        <ele>570.302168</ele>
        <time>2010-08-08T16:12:54Z</time>
      </trkpt>
      <trkpt lat="45.54263" lon="5.84953">
        <ele>570.332198</ele>
        <time>2010-08-08T16:12:57Z</time>
      </trkpt>
      <trkpt lat="45.54278" lon="5.84955">
        <ele>570.208328</ele>
        <time>2010-08-08T16:12:59Z</time>
      </trkpt>
      <trkpt lat="45.54294" lon="5.84958">
        <ele>569.850639</ele>
        <time>2010-08-08T16:13:01Z</time>
      </trkpt>
      <trkpt lat="45.54317" lon="5.84961">
        <ele>569.478784</ele>
        <time>2010-08-08T16:13:04Z</time>
      </trkpt>
      <trkpt lat="45.54331" lon="5.84964">
        <ele>569.301075</ele>
        <time>2010-08-08T16:13:06Z</time>
      </trkpt>
      <trkpt lat="45.54352" lon="5.84966">
        <ele>569.135216</ele>
        <time>2010-08-08T16:13:09Z</time>
      </trkpt>
      <trkpt lat="45.54373" lon="5.84968">
        <ele>568.528786</ele>
        <time>2010-08-08T16:13:12Z</time>
      </trkpt>
      <trkpt lat="45.54392" lon="5.84969">
        <ele>567.331698</ele>
        <time>2010-08-08T16:13:15Z</time>
      </trkpt>
      <trkpt lat="45.54411" lon="5.84973">
        <ele>566.07197</ele>
        <time>2010-08-08T16:13:18Z</time>
      </trkpt>
      <trkpt lat="45.54423" lon="5.84975">
        <ele>565.189419</ele>
        <time>2010-08-08T16:13:20Z</time>
      </trkpt>
      <trkpt lat="45.54435" lon="5.84977">
        <ele>564.628708</ele>
        <time>2010-08-08T16:13:22Z</time>
      </trkpt>
      <trkpt lat="45.5445" lon="5.84981">
        <ele>564.320353</ele>
        <time>2010-08-08T16:13:25Z</time>
      </trkpt>
      <trkpt lat="45.54466" lon="5.84984">
        <ele>564.24824</ele>
        <time>2010-08-08T16:13:28Z</time>
      </trkpt>
      <trkpt lat="45.54481" lon="5.84986">
        <ele>564.143692</ele>
        <time>2010-08-08T16:13:31Z</time>
      </trkpt>
      <trkpt lat="45.54494" lon="5.84988">
        <ele>563.829636</ele>
        <time>2010-08-08T16:13:34Z</time>
      </trkpt>
      <trkpt lat="45.54501" lon="5.84989">
        <ele>563.485086</ele>
        <time>2010-08-08T16:13:36Z</time>
      </trkpt>
      <trkpt lat="45.54511" lon="5.8499">
        <ele>563.315478</ele>
        <time>2010-08-08T16:13:39Z</time>
      </trkpt>
      <trkpt lat="45.54521" lon="5.84992">
        <ele>563.286108</ele>
        <time>2010-08-08T16:13:42Z</time>
      </trkpt>
      <trkpt lat="45.54529" lon="5.84992">
        <ele>563.312348</ele>
        <time>2010-08-08T16:13:45Z</time>
      </trkpt>
      <trkpt lat="45.54537" lon="5.84993">
        <ele>563.340448</ele>
        <time>2010-08-08T16:13:48Z</time>
      </trkpt>
      <trkpt lat="45.54542" lon="5.84994">
        <ele>563.215924</ele>
        <time>2010-08-08T16:13:50Z</time>
      </trkpt>
      <trkpt lat="45.54551" lon="5.84994">
        <ele>562.858293</ele>
        <time>2010-08-08T16:13:53Z</time>
      </trkpt>
      <trkpt lat="45.54557" lon="5.84994">
        <ele>562.486668</ele>
        <time>2010-08-08T16:13:55Z</time>
      </trkpt>
      <trkpt lat="45.54566" lon="5.84995">
        <ele>562.309115</ele>
        <time>2010-08-08T16:13:58Z</time>
      </trkpt>
      <trkpt lat="45.54575" lon="5.84996">
        <ele>562.281486</ele>
        <time>2010-08-08T16:14:01Z</time>
      </trkpt>
      <trkpt lat="45.54584" lon="5.84996">
        <ele>562.311299</ele>
        <time>2010-08-08T16:14:04Z</time>
      </trkpt>
      <trkpt lat="45.54593" lon="5.84996">
        <ele>562.341589</ele>
        <time>2010-08-08T16:14:07Z</time>
      </trkpt>
      <trkpt lat="45.54602" lon="5.84998">
        <ele>562.355872</ele>
        <time>2010-08-08T16:14:10Z</time>
      </trkpt>
      <trkpt lat="45.54608" lon="5.84999">
        <ele>562.357982</ele>
        <time>2010-08-08T16:14:12Z</time>
      </trkpt>
      <trkpt lat="45.54618" lon="5.85">
        <ele>562.355499</ele>
        <time>2010-08-08T16:14:15Z</time>
      </trkpt>
      <trkpt lat="45.54627" lon="5.85">
        <ele>562.353031</ele>
        <time>2010-08-08T16:14:18Z</time>
      </trkpt>
      <trkpt lat="45.54637" lon="5.85">
        <ele>562.351882</ele>
        <time>2010-08-08T16:14:21Z</time>
      </trkpt>
      <trkpt lat="45.54648" lon="5.84999">
        <ele>562.351722</ele>
        <time>2010-08-08T16:14:24Z</time>
      </trkpt>
      <trkpt lat="45.54658" lon="5.84996">
        <ele>562.351928</ele>
        <time>2010-08-08T16:14:27Z</time>
      </trkpt>
      <trkpt lat="45.54669" lon="5.84991">
        <ele>562.35213</ele>
        <time>2010-08-08T16:14:30Z</time>
      </trkpt>
      <trkpt lat="45.54676" lon="5.84988">
        <ele>562.352222</ele>
        <time>2010-08-08T16:14:32Z</time>
      </trkpt>
      <trkpt lat="45.54683" lon="5.84984">
        <ele>562.352234</ele>
        <time>2010-08-08T16:14:34Z</time>
      </trkpt>
      <trkpt lat="45.54695" lon="5.84978">
        <ele>562.490395</ele>
        <time>2010-08-08T16:14:37Z</time>
      </trkpt>
      <trkpt lat="45.54703" lon="5.84974">
        <ele>562.850271</ele>
        <time>2010-08-08T16:14:39Z</time>
      </trkpt>
      <trkpt lat="45.54716" lon="5.84965">
        <ele>563.357876</ele>
        <time>2010-08-08T16:14:42Z</time>
      </trkpt>
      <trkpt lat="45.54725" lon="5.84959">
        <ele>563.893028</ele>
        <time>2010-08-08T16:14:44Z</time>
      </trkpt>
      <trkpt lat="45.54733" lon="5.84951">
        <ele>564.288995</ele>
        <time>2010-08-08T16:14:46Z</time>
      </trkpt>
      <trkpt lat="45.54736" lon="5.84938">
        <ele>564.434271</ele>
        <time>2010-08-08T16:14:48Z</time>
      </trkpt>
      <trkpt lat="45.54738" lon="5.84924">
        <ele>564.292517</ele>
        <time>2010-08-08T16:14:50Z</time>
      </trkpt>
      <trkpt lat="45.5474" lon="5.84911">
        <ele>563.888542</ele>
        <time>2010-08-08T16:14:52Z</time>
      </trkpt>
      <trkpt lat="45.54744" lon="5.84894">
        <ele>563.486978</ele>
        <time>2010-08-08T16:14:55Z</time>
      </trkpt>
      <trkpt lat="45.54748" lon="5.84884">
        <ele>563.300117</ele>
        <time>2010-08-08T16:14:57Z</time>
      </trkpt>
      <trkpt lat="45.54756" lon="5.84873">
        <ele>563.13584</ele>
        <time>2010-08-08T16:15:00Z</time>
      </trkpt>
      <trkpt lat="45.54767" lon="5.8487">
        <ele>562.809564</ele>
        <time>2010-08-08T16:15:03Z</time>
      </trkpt>
      <trkpt lat="45.54777" lon="5.84874">
        <ele>562.334665</ele>
        <time>2010-08-08T16:15:06Z</time>
      </trkpt>
      <trkpt lat="45.5479" lon="5.84872">
        <ele>561.814533</ele>
        <time>2010-08-08T16:15:09Z</time>
      </trkpt>
      <trkpt lat="45.54802" lon="5.84872">
        <ele>561.282365</ele>
        <time>2010-08-08T16:15:12Z</time>
      </trkpt>
      <trkpt lat="45.54812" lon="5.84876">
        <ele>560.636225</ele>
        <time>2010-08-08T16:15:14Z</time>
      </trkpt>
      <trkpt lat="45.54825" lon="5.84876">
        <ele>559.769633</ele>
        <time>2010-08-08T16:15:17Z</time>
      </trkpt>
      <trkpt lat="45.54832" lon="5.84875">
        <ele>558.90792</ele>
        <time>2010-08-08T16:15:19Z</time>
      </trkpt>
      <trkpt lat="45.54844" lon="5.84875">
        <ele>558.230496</ele>
        <time>2010-08-08T16:15:22Z</time>
      </trkpt>
      <trkpt lat="45.54851" lon="5.84875">
        <ele>557.710631</ele>
        <time>2010-08-08T16:15:25Z</time>
      </trkpt>
      <trkpt lat="45.54865" lon="5.84875">
        <ele>557.374545</ele>
        <time>2010-08-08T16:15:28Z</time>
      </trkpt>
      <trkpt lat="45.54872" lon="5.84874">
        <ele>557.269941</ele>
        <time>2010-08-08T16:15:31Z</time>
      </trkpt>
      <trkpt lat="45.54889" lon="5.84872">
        <ele>557.287041</ele>
        <time>2010-08-08T16:15:34Z</time>
      </trkpt>
      <trkpt lat="45.54904" lon="5.84868">
        <ele>557.329704</ele>
        <time>2010-08-08T16:15:37Z</time>
      </trkpt>
      <trkpt lat="45.54919" lon="5.84865">
        <ele>557.356912</ele>
        <time>2010-08-08T16:15:39Z</time>
      </trkpt>
      <trkpt lat="45.54937" lon="5.84861">
        <ele>557.503395</ele>
        <time>2010-08-08T16:15:42Z</time>
      </trkpt>
      <trkpt lat="45.54956" lon="5.84857">
        <ele>557.861779</ele>
        <time>2010-08-08T16:15:45Z</time>
      </trkpt>
      <trkpt lat="45.54966" lon="5.84855">
        <ele>558.227714</ele>
        <time>2010-08-08T16:15:47Z</time>
      </trkpt>
      <trkpt lat="45.54982" lon="5.84852">
        <ele>558.400773</ele>
        <time>2010-08-08T16:15:50Z</time>
      </trkpt>
      <trkpt lat="45.54991" lon="5.84849">
        <ele>558.426645</ele>
        <time>2010-08-08T16:15:52Z</time>
      </trkpt>
      <trkpt lat="45.55" lon="5.84846">
        <ele>558.396791</ele>
        <time>2010-08-08T16:15:54Z</time>
      </trkpt>
      <trkpt lat="45.55013" lon="5.84843">
        <ele>558.36697</ele>
        <time>2010-08-08T16:15:57Z</time>
      </trkpt>
      <trkpt lat="45.55025" lon="5.84842">
        <ele>558.353052</ele>
        <time>2010-08-08T16:16:00Z</time>
      </trkpt>
      <trkpt lat="45.55033" lon="5.84841">
        <ele>558.351083</ele>
        <time>2010-08-08T16:16:02Z</time>
      </trkpt>
      <trkpt lat="45.55045" lon="5.8484">
        <ele>558.353568</ele>
        <time>2010-08-08T16:16:05Z</time>
      </trkpt>
      <trkpt lat="45.55048" lon="5.84839">
        <ele>558.355997</ele>
        <time>2010-08-08T16:16:07Z</time>
      </trkpt>
      <trkpt lat="45.55069" lon="5.84809">
        <ele>558.357116</ele>
        <time>2010-08-08T16:16:19Z</time>
      </trkpt>
      <trkpt lat="45.55069" lon="5.84809">
        <ele>558.357265</ele>
        <time>2010-08-08T16:16:23Z</time>
      </trkpt>
      <trkpt lat="45.55072" lon="5.8477">
        <ele>558.357059</ele>
        <time>2010-08-08T16:16:28Z</time>
      </trkpt>
      <trkpt lat="45.55072" lon="5.8477">
        <ele>558.268028</ele>
        <time>2010-08-08T16:16:31Z</time>
      </trkpt>
      <trkpt lat="45.55106" lon="5.8478">
        <ele>558.036562</ele>
        <time>2010-08-08T16:16:50Z</time>
      </trkpt>
      <trkpt lat="45.55114" lon="5.84789">
        <ele>557.473332</ele>
        <time>2010-08-08T16:16:54Z</time>
      </trkpt>
      <trkpt lat="45.55135" lon="5.848">
        <ele>556.374191</ele>
        <time>2010-08-08T16:17:00Z</time>
      </trkpt>
      <trkpt lat="45.55149" lon="5.84802">
        <ele>555.126469</ele>
        <time>2010-08-08T16:17:03Z</time>
      </trkpt>
      <trkpt lat="45.55153" lon="5.84803">
        <ele>554.363217</ele>
        <time>2010-08-08T16:17:05Z</time>
      </trkpt>
      <trkpt lat="45.55166" lon="5.84805">
        <ele>554.144781</ele>
        <time>2010-08-08T16:17:07Z</time>
      </trkpt>
      <trkpt lat="45.55174" lon="5.84805">
        <ele>554.197992</ele>
        <time>2010-08-08T16:17:10Z</time>
      </trkpt>
      <trkpt lat="45.55187" lon="5.84806">
        <ele>554.300243</ele>
        <time>2010-08-08T16:17:13Z</time>
      </trkpt>
      <trkpt lat="45.55198" lon="5.84806">
        <ele>554.36197</ele>
        <time>2010-08-08T16:17:16Z</time>
      </trkpt>
      <trkpt lat="45.55212" lon="5.84806">
        <ele>554.379254</ele>
        <time>2010-08-08T16:17:19Z</time>
      </trkpt>
      <trkpt lat="45.55221" lon="5.84806">
        <ele>554.374663</ele>
        <time>2010-08-08T16:17:21Z</time>
      </trkpt>
      <trkpt lat="45.55232" lon="5.84806">
        <ele>554.366287</ele>
        <time>2010-08-08T16:17:24Z</time>
      </trkpt>
      <trkpt lat="45.55243" lon="5.84807">
        <ele>554.361296</ele>
        <time>2010-08-08T16:17:27Z</time>
      </trkpt>
      <trkpt lat="45.55252" lon="5.8481">
        <ele>554.359929</ele>
        <time>2010-08-08T16:17:30Z</time>
      </trkpt>
      <trkpt lat="45.55257" lon="5.84812">
        <ele>554.360324</ele>
        <time>2010-08-08T16:17:32Z</time>
      </trkpt>
      <trkpt lat="45.55265" lon="5.84816">
        <ele>554.36101</ele>
        <time>2010-08-08T16:17:35Z</time>
      </trkpt>
      <trkpt lat="45.55271" lon="5.84818">
        <ele>554.361414</ele>
        <time>2010-08-08T16:17:37Z</time>
      </trkpt>
      <trkpt lat="45.55275" lon="5.84819">
        <ele>554.361521</ele>
        <time>2010-08-08T16:17:39Z</time>
      </trkpt>
      <trkpt lat="45.55302" lon="5.84825">
        <ele>554.499666</ele>
        <time>2010-08-08T16:17:49Z</time>
      </trkpt>
      <trkpt lat="45.55306" lon="5.84827">
        <ele>554.859502</ele>
        <time>2010-08-08T16:17:52Z</time>
      </trkpt>
      <trkpt lat="45.55323" lon="5.8483">
        <ele>555.367082</ele>
        <time>2010-08-08T16:17:54Z</time>
      </trkpt>
      <trkpt lat="45.55335" lon="5.84832">
        <ele>556.040405</ele>
        <time>2010-08-08T16:17:57Z</time>
      </trkpt>
      <trkpt lat="45.55342" lon="5.84833">
        <ele>556.796265</ele>
        <time>2010-08-08T16:17:59Z</time>
      </trkpt>
      <trkpt lat="45.5535" lon="5.84835">
        <ele>557.310979</ele>
        <time>2010-08-08T16:18:01Z</time>
      </trkpt>
      <trkpt lat="45.55364" lon="5.84839">
        <ele>557.482666</ele>
        <time>2010-08-08T16:18:04Z</time>
      </trkpt>
      <trkpt lat="45.55378" lon="5.84844">
        <ele>557.465114</ele>
        <time>2010-08-08T16:18:07Z</time>
      </trkpt>
      <trkpt lat="45.55392" lon="5.84851">
        <ele>557.402999</ele>
        <time>2010-08-08T16:18:10Z</time>
      </trkpt>
      <trkpt lat="45.55406" lon="5.84856">
        <ele>557.361291</ele>
        <time>2010-08-08T16:18:13Z</time>
      </trkpt>
      <trkpt lat="45.5542" lon="5.84856">
        <ele>557.347626</ele>
        <time>2010-08-08T16:18:16Z</time>
      </trkpt>
      <trkpt lat="45.55429" lon="5.84853">
        <ele>557.487412</ele>
        <time>2010-08-08T16:18:19Z</time>
      </trkpt>
      <trkpt lat="45.55447" lon="5.84823">
        <ele>557.852407</ele>
        <time>2010-08-08T16:18:29Z</time>
      </trkpt>
      <trkpt lat="45.55447" lon="5.84823">
        <ele>558.22522</ele>
        <time>2010-08-08T16:18:32Z</time>
      </trkpt>
      <trkpt lat="45.55483" lon="5.848">
        <ele>558.401568</ele>
        <time>2010-08-08T16:18:35Z</time>
      </trkpt>
      <trkpt lat="45.55493" lon="5.84779">
        <ele>558.289775</ele>
        <time>2010-08-08T16:18:37Z</time>
      </trkpt>
      <trkpt lat="45.55509" lon="5.84749">
        <ele>557.879084</ele>
        <time>2010-08-08T16:18:40Z</time>
      </trkpt>
      <trkpt lat="45.55536" lon="5.84734">
        <ele>557.308366</ele>
        <time>2010-08-08T16:18:43Z</time>
      </trkpt>
      <trkpt lat="45.55553" lon="5.84742">
        <ele>556.757622</ele>
        <time>2010-08-08T16:18:46Z</time>
      </trkpt>
      <trkpt lat="45.55558" lon="5.84749">
        <ele>556.388307</ele>
        <time>2010-08-08T16:18:48Z</time>
      </trkpt>
      <trkpt lat="45.55559" lon="5.84763">
        <ele>556.267514</ele>
        <time>2010-08-08T16:18:51Z</time>
      </trkpt>
      <trkpt lat="45.55555" lon="5.84837">
        <ele>556.281908</ele>
        <time>2010-08-08T16:19:12Z</time>
      </trkpt>
      <trkpt lat="45.5555" lon="5.84848">
        <ele>556.327149</ele>
        <time>2010-08-08T16:19:15Z</time>
      </trkpt>
      <trkpt lat="45.5554" lon="5.84894">
        <ele>556.357067</ele>
        <time>2010-08-08T16:19:27Z</time>
      </trkpt>
      <trkpt lat="45.55525" lon="5.84927">
        <ele>555.813963</ele>
        <time>2010-08-08T16:19:34Z</time>
      </trkpt>
      <trkpt lat="45.55515" lon="5.84968">
        <ele>554.373094</ele>
        <time>2010-08-08T16:19:44Z</time>
      </trkpt>
      <trkpt lat="45.55517" lon="5.8499">
        <ele>552.753462</ele>
        <time>2010-08-08T16:19:48Z</time>
      </trkpt>
      <trkpt lat="45.55519" lon="5.8502">
        <ele>551.551924</ele>
        <time>2010-08-08T16:19:51Z</time>
      </trkpt>
      <trkpt lat="45.55522" lon="5.85053">
        <ele>550.715712</ele>
        <time>2010-08-08T16:19:54Z</time>
      </trkpt>
      <trkpt lat="45.55526" lon="5.85087">
        <ele>550.291077</ele>
        <time>2010-08-08T16:19:57Z</time>
      </trkpt>
      <trkpt lat="45.55535" lon="5.85111">
        <ele>550.210021</ele>
        <time>2010-08-08T16:20:00Z</time>
      </trkpt>
      <trkpt lat="45.5556" lon="5.85109">
        <ele>550.270058</ele>
        <time>2010-08-08T16:20:03Z</time>
      </trkpt>
      <trkpt lat="45.55576" lon="5.85109">
        <ele>550.338298</ele>
        <time>2010-08-08T16:20:05Z</time>
      </trkpt>
      <trkpt lat="45.55594" lon="5.85108">
        <ele>550.510685</ele>
        <time>2010-08-08T16:20:08Z</time>
      </trkpt>
      <trkpt lat="45.55605" lon="5.85105">
        <ele>551.015035</ele>
        <time>2010-08-08T16:20:10Z</time>
      </trkpt>
      <trkpt lat="45.55621" lon="5.85104">
        <ele>551.877516</ele>
        <time>2010-08-08T16:20:13Z</time>
      </trkpt>
      <trkpt lat="45.55633" lon="5.85101">
        <ele>552.914715</ele>
        <time>2010-08-08T16:20:16Z</time>
      </trkpt>
      <trkpt lat="45.55642" lon="5.85098">
        <ele>553.981256</ele>
        <time>2010-08-08T16:20:19Z</time>
      </trkpt>
      <trkpt lat="45.55648" lon="5.85096">
        <ele>554.881903</ele>
        <time>2010-08-08T16:20:21Z</time>
      </trkpt>
      <trkpt lat="45.55661" lon="5.85096">
        <ele>555.393456</ele>
        <time>2010-08-08T16:20:24Z</time>
      </trkpt>
      <trkpt lat="45.55672" lon="5.85094">
        <ele>555.521511</ele>
        <time>2010-08-08T16:20:27Z</time>
      </trkpt>
      <trkpt lat="45.55678" lon="5.8509">
        <ele>555.472052</ele>
        <time>2010-08-08T16:20:29Z</time>
      </trkpt>
      <trkpt lat="45.55687" lon="5.85088">
        <ele>555.398374</ele>
        <time>2010-08-08T16:20:32Z</time>
      </trkpt>
      <trkpt lat="45.55693" lon="5.85086">
        <ele>555.357063</ele>
        <time>2010-08-08T16:20:34Z</time>
      </trkpt>
      <trkpt lat="45.55703" lon="5.85081">
        <ele>555.346991</ele>
        <time>2010-08-08T16:20:37Z</time>
      </trkpt>
      <trkpt lat="45.55713" lon="5.85075">
        <ele>555.351187</ele>
        <time>2010-08-08T16:20:40Z</time>
      </trkpt>
      <trkpt lat="45.55725" lon="5.85069">
        <ele>555.219035</ele>
        <time>2010-08-08T16:20:43Z</time>
      </trkpt>
      <trkpt lat="45.55736" lon="5.85064">
        <ele>554.862478</ele>
        <time>2010-08-08T16:20:46Z</time>
      </trkpt>
      <trkpt lat="45.55745" lon="5.85056">
        <ele>554.493834</ele>
        <time>2010-08-08T16:20:49Z</time>
      </trkpt>
      <trkpt lat="45.55753" lon="5.85048">
        <ele>554.318218</ele>
        <time>2010-08-08T16:20:52Z</time>
      </trkpt>
      <trkpt lat="45.55759" lon="5.85037">
        <ele>554.153017</ele>
        <time>2010-08-08T16:20:55Z</time>
      </trkpt>
      <trkpt lat="45.55766" lon="5.85024">
        <ele>553.822842</ele>
        <time>2010-08-08T16:20:58Z</time>
      </trkpt>
      <trkpt lat="45.55772" lon="5.85011">
        <ele>553.345275</ele>
        <time>2010-08-08T16:21:01Z</time>
      </trkpt>
      <trkpt lat="45.55776" lon="5.85001">
        <ele>552.824247</ele>
        <time>2010-08-08T16:21:03Z</time>
      </trkpt>
      <trkpt lat="45.55779" lon="5.84992">
        <ele>552.430344</ele>
        <time>2010-08-08T16:21:05Z</time>
      </trkpt>
      <trkpt lat="45.55786" lon="5.84977">
        <ele>552.282595</ele>
        <time>2010-08-08T16:21:08Z</time>
      </trkpt>
      <trkpt lat="45.5579" lon="5.84968">
        <ele>552.283724</ele>
        <time>2010-08-08T16:21:10Z</time>
      </trkpt>
      <trkpt lat="45.55795" lon="5.8496">
        <ele>552.32667</ele>
        <time>2010-08-08T16:21:12Z</time>
      </trkpt>
      <trkpt lat="45.55802" lon="5.84945">
        <ele>552.358643</ele>
        <time>2010-08-08T16:21:15Z</time>
      </trkpt>
      <trkpt lat="45.55809" lon="5.84931">
        <ele>552.370449</ele>
        <time>2010-08-08T16:21:18Z</time>
      </trkpt>
      <trkpt lat="45.55816" lon="5.84919">
        <ele>552.370216</ele>
        <time>2010-08-08T16:21:21Z</time>
      </trkpt>
      <trkpt lat="45.55825" lon="5.84909">
        <ele>552.366678</ele>
        <time>2010-08-08T16:21:24Z</time>
      </trkpt>
      <trkpt lat="45.55835" lon="5.84903">
        <ele>552.364084</ele>
        <time>2010-08-08T16:21:27Z</time>
      </trkpt>
      <trkpt lat="45.55844" lon="5.84897">
        <ele>552.501319</ele>
        <time>2010-08-08T16:21:30Z</time>
      </trkpt>
      <trkpt lat="45.55853" lon="5.84892">
        <ele>553.137597</ele>
        <time>2010-08-08T16:21:33Z</time>
      </trkpt>
      <trkpt lat="45.55864" lon="5.84888">
        <ele>554.503463</ele>
        <time>2010-08-08T16:21:36Z</time>
      </trkpt>
      <trkpt lat="45.55906" lon="5.84901">
        <ele>556.137589</ele>
        <time>2010-08-08T16:21:39Z</time>
      </trkpt>
      <trkpt lat="45.55924" lon="5.84917">
        <ele>557.253587</ele>
        <time>2010-08-08T16:21:41Z</time>
      </trkpt>
      <trkpt lat="45.55953" lon="5.84944">
        <ele>557.62718</ele>
        <time>2010-08-08T16:21:44Z</time>
      </trkpt>
      <trkpt lat="45.55972" lon="5.84979">
        <ele>557.590137</ele>
        <time>2010-08-08T16:21:47Z</time>
      </trkpt>
      <trkpt lat="45.55981" lon="5.85005">
        <ele>557.317658</ele>
        <time>2010-08-08T16:21:49Z</time>
      </trkpt>
      <trkpt lat="45.55987" lon="5.85028">
        <ele>556.590975</ele>
        <time>2010-08-08T16:21:51Z</time>
      </trkpt>
      <trkpt lat="45.55994" lon="5.85055">
        <ele>555.195661</ele>
        <time>2010-08-08T16:21:54Z</time>
      </trkpt>
      <trkpt lat="45.56009" lon="5.85071">
        <ele>553.426972</ele>
        <time>2010-08-08T16:21:57Z</time>
      </trkpt>
      <trkpt lat="45.56027" lon="5.85025">
        <ele>551.685835</ele>
        <time>2010-08-08T16:22:00Z</time>
      </trkpt>
      <trkpt lat="45.56032" lon="5.84979">
        <ele>549.95399</ele>
        <time>2010-08-08T16:22:03Z</time>
      </trkpt>
      <trkpt lat="45.56032" lon="5.84958">
        <ele>548.083104</ele>
        <time>2010-08-08T16:22:05Z</time>
      </trkpt>
      <trkpt lat="45.56034" lon="5.84951">
        <ele>546.105016</ele>
        <time>2010-08-08T16:22:09Z</time>
      </trkpt>
      <trkpt lat="45.5607" lon="5.84926">
        <ele>544.085933</ele>
        <time>2010-08-08T16:22:37Z</time>
      </trkpt>
      <trkpt lat="45.5608" lon="5.8493">
        <ele>542.066566</ele>
        <time>2010-08-08T16:22:41Z</time>
      </trkpt>
      <trkpt lat="45.56107" lon="5.84944">
        <ele>540.058666</ele>
        <time>2010-08-08T16:22:51Z</time>
      </trkpt>
      <trkpt lat="45.56116" lon="5.8495">
        <ele>538.05947</ele>
        <time>2010-08-08T16:22:54Z</time>
      </trkpt>
      <trkpt lat="45.56127" lon="5.84957">
        <ele>536.339908</ele>
        <time>2010-08-08T16:22:58Z</time>
      </trkpt>
      <trkpt lat="45.56138" lon="5.84965">
        <ele>535.201937</ele>
        <time>2010-08-08T16:23:01Z</time>
      </trkpt>
      <trkpt lat="45.56146" lon="5.84973">
        <ele>534.580177</ele>
        <time>2010-08-08T16:23:04Z</time>
      </trkpt>
      <trkpt lat="45.56153" lon="5.84981">
        <ele>534.298689</ele>
        <time>2010-08-08T16:23:07Z</time>
      </trkpt>
      <trkpt lat="45.5616" lon="5.8499">
        <ele>534.264174</ele>
        <time>2010-08-08T16:23:10Z</time>
      </trkpt>
      <trkpt lat="45.56162" lon="5.84993">
        <ele>534.318422</ele>
        <time>2010-08-08T16:23:13Z</time>
      </trkpt>
      <trkpt lat="45.56169" lon="5.85002">
        <ele>534.369049</ele>
        <time>2010-08-08T16:23:16Z</time>
      </trkpt>
      <trkpt lat="45.56179" lon="5.85015">
        <ele>534.806196</ele>
        <time>2010-08-08T16:23:20Z</time>
      </trkpt>
      <trkpt lat="45.56189" lon="5.85022">
        <ele>535.888452</ele>
        <time>2010-08-08T16:23:24Z</time>
      </trkpt>
      <trkpt lat="45.56198" lon="5.85024">
        <ele>537.130431</ele>
        <time>2010-08-08T16:23:28Z</time>
      </trkpt>
      <trkpt lat="45.56207" lon="5.8502">
        <ele>538.288342</ele>
        <time>2010-08-08T16:23:32Z</time>
      </trkpt>
      <trkpt lat="45.56215" lon="5.85014">
        <ele>539.455335</ele>
        <time>2010-08-08T16:23:37Z</time>
      </trkpt>
      <trkpt lat="45.56224" lon="5.85007">
        <ele>540.279317</ele>
        <time>2010-08-08T16:23:44Z</time>
      </trkpt>
      <trkpt lat="45.56224" lon="5.85007">
        <ele>540.56642</ele>
        <time>2010-08-08T16:23:57Z</time>
      </trkpt>
      <trkpt lat="45.56224" lon="5.85007">
        <ele>540.547541</ele>
        <time>2010-08-08T16:24:15Z</time>
      </trkpt>
      <trkpt lat="45.5624" lon="5.84967">
        <ele>540.451543</ele>
        <time>2010-08-08T16:27:00Z</time>
      </trkpt>
      <trkpt lat="45.56249" lon="5.84957">
        <ele>540.522912</ele>
        <time>2010-08-08T16:27:04Z</time>
      </trkpt>
      <trkpt lat="45.56258" lon="5.84948">
        <ele>540.859918</ele>
        <time>2010-08-08T16:27:08Z</time>
      </trkpt>
      <trkpt lat="45.56262" lon="5.84943">
        <ele>543.303848</ele>
        <time>2010-08-08T16:27:10Z</time>
      </trkpt>
      <trkpt lat="45.56267" lon="5.84937">
        <ele>548.885386</ele>
        <time>2010-08-08T16:27:13Z</time>
      </trkpt>
      <trkpt lat="45.56273" lon="5.8493">
        <ele>554.458854</ele>
        <time>2010-08-08T16:27:16Z</time>
      </trkpt>
      <trkpt lat="45.5628" lon="5.8492">
        <ele>557.05961</ele>
        <time>2010-08-08T16:27:22Z</time>
      </trkpt>
      <trkpt lat="45.56286" lon="5.84909">
        <ele>557.427283</ele>
        <time>2010-08-08T16:27:26Z</time>
      </trkpt>
      <trkpt lat="45.56292" lon="5.84899">
        <ele>556.962747</ele>
        <time>2010-08-08T16:27:30Z</time>
      </trkpt>
      <trkpt lat="45.563" lon="5.84884">
        <ele>556.508672</ele>
        <time>2010-08-08T16:27:36Z</time>
      </trkpt>
      <trkpt lat="45.56307" lon="5.84873">
        <ele>556.29958</ele>
        <time>2010-08-08T16:27:44Z</time>
      </trkpt>
      <trkpt lat="45.56311" lon="5.84869">
        <ele>556.271726</ele>
        <time>2010-08-08T16:27:47Z</time>
      </trkpt>
      <trkpt lat="45.56314" lon="5.84865">
        <ele>556.172178</ele>
        <time>2010-08-08T16:27:49Z</time>
      </trkpt>
      <trkpt lat="45.56319" lon="5.8486">
        <ele>555.711092</ele>
        <time>2010-08-08T16:27:52Z</time>
      </trkpt>
      <trkpt lat="45.56326" lon="5.84854">
        <ele>554.99857</ele>
        <time>2010-08-08T16:27:55Z</time>
      </trkpt>
      <trkpt lat="45.56332" lon="5.84849">
        <ele>554.455973</ele>
        <time>2010-08-08T16:27:58Z</time>
      </trkpt>
      <trkpt lat="45.56339" lon="5.84844">
        <ele>554.112793</ele>
        <time>2010-08-08T16:28:01Z</time>
      </trkpt>
      <trkpt lat="45.5635" lon="5.84837">
        <ele>553.753345</ele>
        <time>2010-08-08T16:28:04Z</time>
      </trkpt>
      <trkpt lat="45.56364" lon="5.84827">
        <ele>553.442654</ele>
        <time>2010-08-08T16:28:08Z</time>
      </trkpt>
      <trkpt lat="45.5637" lon="5.84822">
        <ele>553.31144</ele>
        <time>2010-08-08T16:28:10Z</time>
      </trkpt>
      <trkpt lat="45.56378" lon="5.84815">
        <ele>553.301294</ele>
        <time>2010-08-08T16:28:13Z</time>
      </trkpt>
      <trkpt lat="45.56386" lon="5.84809">
        <ele>553.33105</ele>
        <time>2010-08-08T16:28:16Z</time>
      </trkpt>
      <trkpt lat="45.56397" lon="5.84799">
        <ele>553.356317</ele>
        <time>2010-08-08T16:28:22Z</time>
      </trkpt>
      <trkpt lat="45.56405" lon="5.84787">
        <ele>553.366839</ele>
        <time>2010-08-08T16:28:28Z</time>
      </trkpt>
      <trkpt lat="45.56411" lon="5.84745">
        <ele>553.229373</ele>
        <time>2010-08-08T16:28:41Z</time>
      </trkpt>
      <trkpt lat="45.5641" lon="5.84729">
        <ele>552.590663</ele>
        <time>2010-08-08T16:28:45Z</time>
      </trkpt>
      <trkpt lat="45.56409" lon="5.84714">
        <ele>551.361212</ele>
        <time>2010-08-08T16:28:48Z</time>
      </trkpt>
      <trkpt lat="45.56408" lon="5.84707">
        <ele>550.086345</ele>
        <time>2010-08-08T16:28:50Z</time>
      </trkpt>
      <trkpt lat="45.56405" lon="5.84691">
        <ele>549.201631</ele>
        <time>2010-08-08T16:28:54Z</time>
      </trkpt>
      <trkpt lat="45.56401" lon="5.84682">
        <ele>548.643607</ele>
        <time>2010-08-08T16:28:56Z</time>
      </trkpt>
      <trkpt lat="45.56398" lon="5.84676">
        <ele>548.337889</ele>
        <time>2010-08-08T16:28:58Z</time>
      </trkpt>
      <trkpt lat="45.5639" lon="5.84659">
        <ele>548.266993</ele>
        <time>2010-08-08T16:29:01Z</time>
      </trkpt>
      <trkpt lat="45.56382" lon="5.84647">
        <ele>548.300787</ele>
        <time>2010-08-08T16:29:04Z</time>
      </trkpt>
      <trkpt lat="45.56378" lon="5.84639">
        <ele>548.3464</ele>
        <time>2010-08-08T16:29:06Z</time>
      </trkpt>
      <trkpt lat="45.56372" lon="5.84629">
        <ele>548.37107</ele>
        <time>2010-08-08T16:29:09Z</time>
      </trkpt>
      <trkpt lat="45.56366" lon="5.84619">
        <ele>548.376625</ele>
        <time>2010-08-08T16:29:12Z</time>
      </trkpt>
      <trkpt lat="45.5636" lon="5.84607">
        <ele>548.373773</ele>
        <time>2010-08-08T16:29:15Z</time>
      </trkpt>
      <trkpt lat="45.56355" lon="5.84594">
        <ele>548.370046</ele>
        <time>2010-08-08T16:29:18Z</time>
      </trkpt>
      <trkpt lat="45.56351" lon="5.84579">
        <ele>548.229878</ele>
        <time>2010-08-08T16:29:21Z</time>
      </trkpt>
      <trkpt lat="45.56348" lon="5.84563">
        <ele>547.869551</ele>
        <time>2010-08-08T16:29:24Z</time>
      </trkpt>
      <trkpt lat="45.56346" lon="5.84554">
        <ele>547.500356</ele>
        <time>2010-08-08T16:29:26Z</time>
      </trkpt>
      <trkpt lat="45.56344" lon="5.8454">
        <ele>547.325399</ele>
        <time>2010-08-08T16:29:29Z</time>
      </trkpt>
      <trkpt lat="45.56345" lon="5.8453">
        <ele>547.29903</ele>
        <time>2010-08-08T16:29:31Z</time>
      </trkpt>
      <trkpt lat="45.56345" lon="5.84516">
        <ele>547.32905</ele>
        <time>2010-08-08T16:29:34Z</time>
      </trkpt>
      <trkpt lat="45.56351" lon="5.845">
        <ele>547.359137</ele>
        <time>2010-08-08T16:29:37Z</time>
      </trkpt>
      <trkpt lat="45.56356" lon="5.84494">
        <ele>547.373209</ele>
        <time>2010-08-08T16:29:40Z</time>
      </trkpt>
      <trkpt lat="45.56385" lon="5.84491">
        <ele>547.375217</ele>
        <time>2010-08-08T16:29:46Z</time>
      </trkpt>
      <trkpt lat="45.56396" lon="5.84492">
        <ele>547.372718</ele>
        <time>2010-08-08T16:29:49Z</time>
      </trkpt>
      <trkpt lat="45.56405" lon="5.84493">
        <ele>547.370267</ele>
        <time>2010-08-08T16:29:52Z</time>
      </trkpt>
      <trkpt lat="45.56413" lon="5.84494">
        <ele>547.369136</ele>
        <time>2010-08-08T16:29:55Z</time>
      </trkpt>
      <trkpt lat="45.56413" lon="5.84494">
        <ele>547.368983</ele>
        <time>2010-08-08T16:29:58Z</time>
      </trkpt>
      <trkpt lat="45.56442" lon="5.84506">
        <ele>547.507369</ele>
        <time>2010-08-08T16:30:10Z</time>
      </trkpt>
      <trkpt lat="45.5645" lon="5.84504">
        <ele>548.005639</ele>
        <time>2010-08-08T16:30:13Z</time>
      </trkpt>
      <trkpt lat="45.56458" lon="5.84503">
        <ele>548.873235</ele>
        <time>2010-08-08T16:30:16Z</time>
      </trkpt>
      <trkpt lat="45.56465" lon="5.84501">
        <ele>549.777835</ele>
        <time>2010-08-08T16:30:19Z</time>
      </trkpt>
      <trkpt lat="45.56487" lon="5.84513">
        <ele>550.349044</ele>
        <time>2010-08-08T16:30:32Z</time>
      </trkpt>
      <trkpt lat="45.56493" lon="5.84518">
        <ele>550.520833</ele>
        <time>2010-08-08T16:30:35Z</time>
      </trkpt>
      <trkpt lat="45.56498" lon="5.8452">
        <ele>550.487262</ele>
        <time>2010-08-08T16:30:37Z</time>
      </trkpt>
      <trkpt lat="45.56503" lon="5.84522">
        <ele>551.380317</ele>
        <time>2010-08-08T16:30:40Z</time>
      </trkpt>
      <trkpt lat="45.56513" lon="5.84524">
        <ele>554.129694</ele>
        <time>2010-08-08T16:30:43Z</time>
      </trkpt>
      <trkpt lat="45.56518" lon="5.84526">
        <ele>557.836436</ele>
        <time>2010-08-08T16:30:45Z</time>
      </trkpt>
      <trkpt lat="45.5653" lon="5.8453">
        <ele>561.022917</ele>
        <time>2010-08-08T16:30:50Z</time>
      </trkpt>
      <trkpt lat="45.56534" lon="5.84531">
        <ele>563.03343</ele>
        <time>2010-08-08T16:30:52Z</time>
      </trkpt>
      <trkpt lat="45.56539" lon="5.84532">
        <ele>563.913724</ele>
        <time>2010-08-08T16:30:54Z</time>
      </trkpt>
      <trkpt lat="45.56542" lon="5.84532">
        <ele>564.396999</ele>
        <time>2010-08-08T16:30:57Z</time>
      </trkpt>
      <trkpt lat="45.56566" lon="5.84535">
        <ele>564.903755</ele>
        <time>2010-08-08T16:31:08Z</time>
      </trkpt>
      <trkpt lat="45.5657" lon="5.84536">
        <ele>565.285301</ele>
        <time>2010-08-08T16:31:10Z</time>
      </trkpt>
      <trkpt lat="45.56578" lon="5.84536">
        <ele>565.427824</ele>
        <time>2010-08-08T16:31:14Z</time>
      </trkpt>
      <trkpt lat="45.56587" lon="5.84537">
        <ele>565.702641</ele>
        <time>2010-08-08T16:31:18Z</time>
      </trkpt>
      <trkpt lat="45.56593" lon="5.84538">
        <ele>566.518839</ele>
        <time>2010-08-08T16:31:21Z</time>
      </trkpt>
      <trkpt lat="45.56604" lon="5.84538">
        <ele>567.586633</ele>
        <time>2010-08-08T16:31:25Z</time>
      </trkpt>
      <trkpt lat="45.56612" lon="5.84537">
        <ele>568.433382</ele>
        <time>2010-08-08T16:31:28Z</time>
      </trkpt>
      <trkpt lat="45.56618" lon="5.84535">
        <ele>569.021856</ele>
        <time>2010-08-08T16:31:31Z</time>
      </trkpt>
      <trkpt lat="45.56622" lon="5.84533">
        <ele>569.499468</ele>
        <time>2010-08-08T16:31:34Z</time>
      </trkpt>
      <trkpt lat="45.56632" lon="5.84524">
        <ele>569.946933</ele>
        <time>2010-08-08T16:31:39Z</time>
      </trkpt>
      <trkpt lat="45.56637" lon="5.84517">
        <ele>570.285507</ele>
        <time>2010-08-08T16:31:42Z</time>
      </trkpt>
      <trkpt lat="45.56639" lon="5.84513">
        <ele>570.550788</ele>
        <time>2010-08-08T16:31:45Z</time>
      </trkpt>
      <trkpt lat="45.56649" lon="5.84501">
        <ele>571.047969</ele>
        <time>2010-08-08T16:31:47Z</time>
      </trkpt>
      <trkpt lat="45.56658" lon="5.84493">
        <ele>571.87859</ele>
        <time>2010-08-08T16:31:50Z</time>
      </trkpt>
      <trkpt lat="45.56672" lon="5.84486">
        <ele>572.755696</ele>
        <time>2010-08-08T16:31:55Z</time>
      </trkpt>
      <trkpt lat="45.56679" lon="5.84487">
        <ele>573.316766</ele>
        <time>2010-08-08T16:31:58Z</time>
      </trkpt>
      <trkpt lat="45.56686" lon="5.84491">
        <ele>573.626942</ele>
        <time>2010-08-08T16:32:01Z</time>
      </trkpt>
      <trkpt lat="45.56693" lon="5.84497">
        <ele>573.95631</ele>
        <time>2010-08-08T16:32:04Z</time>
      </trkpt>
      <trkpt lat="45.56698" lon="5.84502">
        <ele>574.391963</ele>
        <time>2010-08-08T16:32:07Z</time>
      </trkpt>
      <trkpt lat="45.56702" lon="5.84504">
        <ele>574.881702</ele>
        <time>2010-08-08T16:32:09Z</time>
      </trkpt>
      <trkpt lat="45.56705" lon="5.84505">
        <ele>575.402198</ele>
        <time>2010-08-08T16:32:12Z</time>
      </trkpt>
      <trkpt lat="45.5671" lon="5.84506">
        <ele>576.048221</ele>
        <time>2010-08-08T16:32:15Z</time>
      </trkpt>
      <trkpt lat="45.56716" lon="5.84506">
        <ele>576.779872</ele>
        <time>2010-08-08T16:32:18Z</time>
      </trkpt>
      <trkpt lat="45.56723" lon="5.84504">
        <ele>577.422339</ele>
        <time>2010-08-08T16:32:21Z</time>
      </trkpt>
      <trkpt lat="45.56732" lon="5.84498">
        <ele>577.952975</ele>
        <time>2010-08-08T16:32:26Z</time>
      </trkpt>
      <trkpt lat="45.56742" lon="5.84482">
        <ele>578.445299</ele>
        <time>2010-08-08T16:32:32Z</time>
      </trkpt>
      <trkpt lat="45.56746" lon="5.84475">
        <ele>579.196662</ele>
        <time>2010-08-08T16:32:35Z</time>
      </trkpt>
      <trkpt lat="45.56755" lon="5.84463">
        <ele>580.409718</ele>
        <time>2010-08-08T16:32:40Z</time>
      </trkpt>
      <trkpt lat="45.56763" lon="5.84454">
        <ele>581.640158</ele>
        <time>2010-08-08T16:32:43Z</time>
      </trkpt>
      <trkpt lat="45.56769" lon="5.84448">
        <ele>582.357958</ele>
        <time>2010-08-08T16:32:46Z</time>
      </trkpt>
      <trkpt lat="45.56781" lon="5.84438">
        <ele>582.685318</ele>
        <time>2010-08-08T16:32:49Z</time>
      </trkpt>
      <trkpt lat="45.56792" lon="5.84429">
        <ele>583.121129</ele>
        <time>2010-08-08T16:32:54Z</time>
      </trkpt>
      <trkpt lat="45.56807" lon="5.84422">
        <ele>583.749736</ele>
        <time>2010-08-08T16:33:01Z</time>
      </trkpt>
      <trkpt lat="45.56814" lon="5.8442">
        <ele>584.374612</ele>
        <time>2010-08-08T16:33:04Z</time>
      </trkpt>
      <trkpt lat="45.56822" lon="5.84417">
        <ele>584.92138</ele>
        <time>2010-08-08T16:33:07Z</time>
      </trkpt>
      <trkpt lat="45.56829" lon="5.84416">
        <ele>585.292668</ele>
        <time>2010-08-08T16:33:10Z</time>
      </trkpt>
      <trkpt lat="45.56841" lon="5.84414">
        <ele>585.554255</ele>
        <time>2010-08-08T16:33:13Z</time>
      </trkpt>
      <trkpt lat="45.56849" lon="5.84414">
        <ele>586.039337</ele>
        <time>2010-08-08T16:33:16Z</time>
      </trkpt>
      <trkpt lat="45.56855" lon="5.84414">
        <ele>586.723735</ele>
        <time>2010-08-08T16:33:18Z</time>
      </trkpt>
      <trkpt lat="45.56865" lon="5.84413">
        <ele>587.514702</ele>
        <time>2010-08-08T16:33:21Z</time>
      </trkpt>
      <trkpt lat="45.56874" lon="5.84412">
        <ele>588.426457</ele>
        <time>2010-08-08T16:33:24Z</time>
      </trkpt>
      <trkpt lat="45.56879" lon="5.84407">
        <ele>589.163057</ele>
        <time>2010-08-08T16:33:28Z</time>
      </trkpt>
      <trkpt lat="45.5689" lon="5.84401">
        <ele>589.595354</ele>
        <time>2010-08-08T16:33:31Z</time>
      </trkpt>
      <trkpt lat="45.56895" lon="5.84398">
        <ele>590.104718</ele>
        <time>2010-08-08T16:33:34Z</time>
      </trkpt>
      <trkpt lat="45.56904" lon="5.84393">
        <ele>590.896914</ele>
        <time>2010-08-08T16:33:37Z</time>
      </trkpt>
      <trkpt lat="45.56913" lon="5.84386">
        <ele>591.879833</ele>
        <time>2010-08-08T16:33:40Z</time>
      </trkpt>
      <trkpt lat="45.56922" lon="5.84379">
        <ele>592.787405</ele>
        <time>2010-08-08T16:33:43Z</time>
      </trkpt>
      <trkpt lat="45.56928" lon="5.84374">
        <ele>593.604347</ele>
        <time>2010-08-08T16:33:46Z</time>
      </trkpt>
      <trkpt lat="45.56937" lon="5.84368">
        <ele>594.472046</ele>
        <time>2010-08-08T16:33:50Z</time>
      </trkpt>
      <trkpt lat="45.56946" lon="5.84361">
        <ele>595.306296</ele>
        <time>2010-08-08T16:33:54Z</time>
      </trkpt>
      <trkpt lat="45.56951" lon="5.84356">
        <ele>595.942383</ele>
        <time>2010-08-08T16:33:57Z</time>
      </trkpt>
      <trkpt lat="45.56956" lon="5.84352">
        <ele>596.321181</ele>
        <time>2010-08-08T16:34:00Z</time>
      </trkpt>
      <trkpt lat="45.56963" lon="5.84346">
        <ele>596.562966</ele>
        <time>2010-08-08T16:34:02Z</time>
      </trkpt>
      <trkpt lat="45.56968" lon="5.84342">
        <ele>596.89284</ele>
        <time>2010-08-08T16:34:04Z</time>
      </trkpt>
      <trkpt lat="45.56973" lon="5.84338">
        <ele>597.348359</ele>
        <time>2010-08-08T16:34:06Z</time>
      </trkpt>
      <trkpt lat="45.5698" lon="5.84333">
        <ele>597.852893</ele>
        <time>2010-08-08T16:34:09Z</time>
      </trkpt>
      <trkpt lat="45.56987" lon="5.84329">
        <ele>598.240676</ele>
        <time>2010-08-08T16:34:12Z</time>
      </trkpt>
      <trkpt lat="45.56991" lon="5.84326">
        <ele>598.388523</ele>
        <time>2010-08-08T16:34:14Z</time>
      </trkpt>
      <trkpt lat="45.56997" lon="5.84321">
        <ele>598.38921</ele>
        <time>2010-08-08T16:34:17Z</time>
      </trkpt>
      <trkpt lat="45.57001" lon="5.84318">
        <ele>598.347602</ele>
        <time>2010-08-08T16:34:19Z</time>
      </trkpt>
      <trkpt lat="45.57007" lon="5.84313">
        <ele>598.316119</ele>
        <time>2010-08-08T16:34:22Z</time>
      </trkpt>
      <trkpt lat="45.57013" lon="5.84308">
        <ele>598.166121</ele>
        <time>2010-08-08T16:34:29Z</time>
      </trkpt>
      <trkpt lat="45.57017" lon="5.84305">
        <ele>597.806311</ele>
        <time>2010-08-08T16:34:32Z</time>
      </trkpt>
      <trkpt lat="45.5702" lon="5.84303">
        <ele>597.440306</ele>
        <time>2010-08-08T16:34:34Z</time>
      </trkpt>
      <trkpt lat="45.57023" lon="5.843">
        <ele>597.2676</ele>
        <time>2010-08-08T16:34:36Z</time>
      </trkpt>
      <trkpt lat="45.57028" lon="5.84295">
        <ele>597.242015</ele>
        <time>2010-08-08T16:34:39Z</time>
      </trkpt>
      <trkpt lat="45.57031" lon="5.84291">
        <ele>597.271983</ele>
        <time>2010-08-08T16:34:42Z</time>
      </trkpt>
      <trkpt lat="45.5704" lon="5.84284">
        <ele>597.439986</ele>
        <time>2010-08-08T16:34:45Z</time>
      </trkpt>
      <trkpt lat="45.57045" lon="5.84279">
        <ele>597.813767</ele>
        <time>2010-08-08T16:34:48Z</time>
      </trkpt>
      <trkpt lat="45.5705" lon="5.84275">
        <ele>598.323326</ele>
        <time>2010-08-08T16:34:51Z</time>
      </trkpt>
      <trkpt lat="45.57053" lon="5.84272">
        <ele>598.855985</ele>
        <time>2010-08-08T16:34:53Z</time>
      </trkpt>
      <trkpt lat="45.57056" lon="5.84269">
        <ele>599.387699</ele>
        <time>2010-08-08T16:34:56Z</time>
      </trkpt>
      <trkpt lat="45.57061" lon="5.84266">
        <ele>599.891749</ele>
        <time>2010-08-08T16:34:59Z</time>
      </trkpt>
      <trkpt lat="45.57067" lon="5.84263">
        <ele>600.395637</ele>
        <time>2010-08-08T16:35:09Z</time>
      </trkpt>
      <trkpt lat="45.5707" lon="5.84262">
        <ele>600.886916</ele>
        <time>2010-08-08T16:35:18Z</time>
      </trkpt>
      <trkpt lat="45.5707" lon="5.84262">
        <ele>601.25095</ele>
        <time>2010-08-08T16:35:20Z</time>
      </trkpt>
      <trkpt lat="45.57063" lon="5.84263">
        <ele>600.579724</ele>
        <time>2010-08-08T16:39:17Z</time>
      </trkpt>
      <trkpt lat="45.57088" lon="5.84246">
        <ele>600.537771</ele>
        <time>2010-08-08T16:39:51Z</time>
      </trkpt>
      <trkpt lat="45.57096" lon="5.84239">
        <ele>600.57274</ele>
        <time>2010-08-08T16:39:54Z</time>
      </trkpt>
      <trkpt lat="45.571" lon="5.84236">
        <ele>600.623447</ele>
        <time>2010-08-08T16:39:56Z</time>
      </trkpt>
      <trkpt lat="45.57105" lon="5.84232">
        <ele>604.749818</ele>
        <time>2010-08-08T16:39:58Z</time>
      </trkpt>
      <trkpt lat="45.57112" lon="5.84228">
        <ele>615.430554</ele>
        <time>2010-08-08T16:40:01Z</time>
      </trkpt>
      <trkpt lat="45.57118" lon="5.84225">
        <ele>626.384619</ele>
        <time>2010-08-08T16:40:04Z</time>
      </trkpt>
      <trkpt lat="45.57121" lon="5.84224">
        <ele>631.578527</ele>
        <time>2010-08-08T16:40:07Z</time>
      </trkpt>
      <trkpt lat="45.57121" lon="5.84224">
        <ele>632.363109</ele>
        <time>2010-08-08T16:40:18Z</time>
      </trkpt>
      <trkpt lat="45.57149" lon="5.84224">
        <ele>631.473226</ele>
        <time>2010-08-08T16:40:22Z</time>
      </trkpt>
      <trkpt lat="45.57149" lon="5.84224">
        <ele>630.580518</ele>
        <time>2010-08-08T16:40:38Z</time>
      </trkpt>
      <trkpt lat="45.57176" lon="5.84211">
        <ele>630.162779</ele>
        <time>2010-08-08T16:40:41Z</time>
      </trkpt>
      <trkpt lat="45.57201" lon="5.84192">
        <ele>630.103006</ele>
        <time>2010-08-08T16:40:49Z</time>
      </trkpt>
      <trkpt lat="45.57224" lon="5.84171">
        <ele>630.177082</ele>
        <time>2010-08-08T16:41:04Z</time>
      </trkpt>
      <trkpt lat="45.57235" lon="5.84162">
        <ele>630.111638</ele>
        <time>2010-08-08T16:41:12Z</time>
      </trkpt>
      <trkpt lat="45.57243" lon="5.84157">
        <ele>629.785333</ele>
        <time>2010-08-08T16:41:15Z</time>
      </trkpt>
      <trkpt lat="45.57253" lon="5.84146">
        <ele>629.420431</ele>
        <time>2010-08-08T16:41:18Z</time>
      </trkpt>
      <trkpt lat="45.57265" lon="5.84125">
        <ele>629.239009</ele>
        <time>2010-08-08T16:41:24Z</time>
      </trkpt>
      <trkpt lat="45.57273" lon="5.84111">
        <ele>629.206554</ele>
        <time>2010-08-08T16:41:27Z</time>
      </trkpt>
      <trkpt lat="45.5728" lon="5.841">
        <ele>629.233841</ele>
        <time>2010-08-08T16:41:30Z</time>
      </trkpt>
      <trkpt lat="45.57283" lon="5.84094">
        <ele>629.263606</ele>
        <time>2010-08-08T16:41:32Z</time>
      </trkpt>
      <trkpt lat="45.57295" lon="5.8407">
        <ele>629.278214</ele>
        <time>2010-08-08T16:41:42Z</time>
      </trkpt>
      <trkpt lat="45.573" lon="5.84057">
        <ele>629.280718</ele>
        <time>2010-08-08T16:41:47Z</time>
      </trkpt>
      <trkpt lat="45.57304" lon="5.84043">
        <ele>629.278439</ele>
        <time>2010-08-08T16:41:52Z</time>
      </trkpt>
      <trkpt lat="45.57306" lon="5.84036">
        <ele>629.276012</ele>
        <time>2010-08-08T16:41:54Z</time>
      </trkpt>
      <trkpt lat="45.57309" lon="5.84026">
        <ele>629.274836</ele>
        <time>2010-08-08T16:41:57Z</time>
      </trkpt>
      <trkpt lat="45.57311" lon="5.84019">
        <ele>629.274643</ele>
        <time>2010-08-08T16:41:59Z</time>
      </trkpt>
      <trkpt lat="45.57314" lon="5.84004">
        <ele>629.274833</ele>
        <time>2010-08-08T16:42:03Z</time>
      </trkpt>
      <trkpt lat="45.57314" lon="5.84004">
        <ele>629.275031</ele>
        <time>2010-08-08T16:42:17Z</time>
      </trkpt>
      <trkpt lat="45.57301" lon="5.83969">
        <ele>629.275126</ele>
        <time>2010-08-08T16:42:22Z</time>
      </trkpt>
      <trkpt lat="45.57278" lon="5.83949">
        <ele>629.275141</ele>
        <time>2010-08-08T16:42:31Z</time>
      </trkpt>
      <trkpt lat="45.57253" lon="5.83929">
        <ele>629.413303</ele>
        <time>2010-08-08T16:42:43Z</time>
      </trkpt>
      <trkpt lat="45.57236" lon="5.83898">
        <ele>629.773179</ele>
        <time>2010-08-08T16:42:56Z</time>
      </trkpt>
      <trkpt lat="45.57226" lon="5.83861">
        <ele>630.418962</ele>
        <time>2010-08-08T16:43:06Z</time>
      </trkpt>
      <trkpt lat="45.57217" lon="5.83823">
        <ele>631.314006</ele>
        <time>2010-08-08T16:43:22Z</time>
      </trkpt>
      <trkpt lat="45.57197" lon="5.83789">
        <ele>632.079408</ele>
        <time>2010-08-08T16:43:35Z</time>
      </trkpt>
      <trkpt lat="45.57173" lon="5.83771">
        <ele>632.399945</ele>
        <time>2010-08-08T16:43:50Z</time>
      </trkpt>
      <trkpt lat="45.57149" lon="5.83754">
        <ele>632.422899</ele>
        <time>2010-08-08T16:44:01Z</time>
      </trkpt>
      <trkpt lat="45.57125" lon="5.83735">
        <ele>632.34883</ele>
        <time>2010-08-08T16:44:12Z</time>
      </trkpt>
      <trkpt lat="45.57097" lon="5.8372">
        <ele>632.286593</ele>
        <time>2010-08-08T16:44:25Z</time>
      </trkpt>
      <trkpt lat="45.57072" lon="5.83704">
        <ele>632.260897</ele>
        <time>2010-08-08T16:44:38Z</time>
      </trkpt>
      <trkpt lat="45.57048" lon="5.83684">
        <ele>632.259307</ele>
        <time>2010-08-08T16:44:54Z</time>
      </trkpt>
      <trkpt lat="45.57021" lon="5.83672">
        <ele>632.265433</ele>
        <time>2010-08-08T16:45:04Z</time>
      </trkpt>
      <trkpt lat="45.56992" lon="5.8366">
        <ele>632.132314</ele>
        <time>2010-08-08T16:45:13Z</time>
      </trkpt>
      <trkpt lat="45.56992" lon="5.8366">
        <ele>631.774481</ele>
        <time>2010-08-08T16:45:30Z</time>
      </trkpt>
      <trkpt lat="45.56966" lon="5.83643">
        <ele>631.405153</ele>
        <time>2010-08-08T16:45:37Z</time>
      </trkpt>
      <trkpt lat="45.56971" lon="5.83605">
        <ele>631.229386</ele>
        <time>2010-08-08T16:45:48Z</time>
      </trkpt>
      <trkpt lat="45.56994" lon="5.83579">
        <ele>631.220727</ele>
        <time>2010-08-08T16:45:59Z</time>
      </trkpt>
      <trkpt lat="45.57022" lon="5.83575">
        <ele>631.418062</ele>
        <time>2010-08-08T16:46:10Z</time>
      </trkpt>
      <trkpt lat="45.5705" lon="5.83569">
        <ele>632.36203</ele>
        <time>2010-08-08T16:46:23Z</time>
      </trkpt>
      <trkpt lat="45.57063" lon="5.83568">
        <ele>634.988547</ele>
        <time>2010-08-08T16:46:26Z</time>
      </trkpt>
      <trkpt lat="45.57079" lon="5.83565">
        <ele>638.783277</ele>
        <time>2010-08-08T16:46:30Z</time>
      </trkpt>
      <trkpt lat="45.57092" lon="5.83561">
        <ele>641.855678</ele>
        <time>2010-08-08T16:46:35Z</time>
      </trkpt>
      <trkpt lat="45.57111" lon="5.83549">
        <ele>643.478981</ele>
        <time>2010-08-08T16:46:43Z</time>
      </trkpt>
      <trkpt lat="45.57119" lon="5.83542">
        <ele>644.494775</ele>
        <time>2010-08-08T16:46:46Z</time>
      </trkpt>
      <trkpt lat="45.57124" lon="5.83537">
        <ele>645.446254</ele>
        <time>2010-08-08T16:46:49Z</time>
      </trkpt>
      <trkpt lat="45.57133" lon="5.83529">
        <ele>646.286845</ele>
        <time>2010-08-08T16:46:52Z</time>
      </trkpt>
      <trkpt lat="45.5714" lon="5.83521">
        <ele>647.042009</ele>
        <time>2010-08-08T16:46:55Z</time>
      </trkpt>
      <trkpt lat="45.57149" lon="5.8351">
        <ele>647.902706</ele>
        <time>2010-08-08T16:47:01Z</time>
      </trkpt>
      <trkpt lat="45.57159" lon="5.83499">
        <ele>648.728923</ele>
        <time>2010-08-08T16:47:12Z</time>
      </trkpt>
      <trkpt lat="45.57172" lon="5.83481">
        <ele>649.243156</ele>
        <time>2010-08-08T16:47:21Z</time>
      </trkpt>
      <trkpt lat="45.57182" lon="5.8345">
        <ele>649.532613</ele>
        <time>2010-08-08T16:47:31Z</time>
      </trkpt>
      <trkpt lat="45.57189" lon="5.83437">
        <ele>649.859744</ele>
        <time>2010-08-08T16:47:36Z</time>
      </trkpt>
      <trkpt lat="45.57198" lon="5.83426">
        <ele>650.161442</ele>
        <time>2010-08-08T16:47:42Z</time>
      </trkpt>
      <trkpt lat="45.57209" lon="5.83413">
        <ele>650.433279</ele>
        <time>2010-08-08T16:47:49Z</time>
      </trkpt>
      <trkpt lat="45.57222" lon="5.83397">
        <ele>650.945895</ele>
        <time>2010-08-08T16:47:58Z</time>
      </trkpt>
      <trkpt lat="45.57228" lon="5.83387">
        <ele>651.648079</ele>
        <time>2010-08-08T16:48:02Z</time>
      </trkpt>
      <trkpt lat="45.57236" lon="5.8338">
        <ele>652.168219</ele>
        <time>2010-08-08T16:48:08Z</time>
      </trkpt>
      <trkpt lat="45.57248" lon="5.83372">
        <ele>652.635635</ele>
        <time>2010-08-08T16:48:18Z</time>
      </trkpt>
      <trkpt lat="45.57255" lon="5.83364">
        <ele>653.627246</ele>
        <time>2010-08-08T16:48:26Z</time>
      </trkpt>
      <trkpt lat="45.57262" lon="5.83354">
        <ele>655.304413</ele>
        <time>2010-08-08T16:48:34Z</time>
      </trkpt>
      <trkpt lat="45.57268" lon="5.83341">
        <ele>657.34774</ele>
        <time>2010-08-08T16:48:44Z</time>
      </trkpt>
      <trkpt lat="45.57271" lon="5.8334">
        <ele>659.19472</ele>
        <time>2010-08-08T16:48:47Z</time>
      </trkpt>
      <trkpt lat="45.57271" lon="5.8334">
        <ele>660.277753</ele>
        <time>2010-08-08T16:48:59Z</time>
      </trkpt>
      <trkpt lat="45.57271" lon="5.8334">
        <ele>660.565912</ele>
        <time>2010-08-08T16:49:15Z</time>
      </trkpt>
      <trkpt lat="45.57289" lon="5.83308">
        <ele>660.750372</ele>
        <time>2010-08-08T16:49:51Z</time>
      </trkpt>
      <trkpt lat="45.57296" lon="5.83302">
        <ele>663.115264</ele>
        <time>2010-08-08T16:49:58Z</time>
      </trkpt>
      <trkpt lat="45.57301" lon="5.83298">
        <ele>668.997926</ele>
        <time>2010-08-08T16:50:01Z</time>
      </trkpt>
      <trkpt lat="45.57307" lon="5.83294">
        <ele>677.64061</ele>
        <time>2010-08-08T16:50:04Z</time>
      </trkpt>
      <trkpt lat="45.57323" lon="5.83281">
        <ele>686.994211</ele>
        <time>2010-08-08T16:50:15Z</time>
      </trkpt>
      <trkpt lat="45.57326" lon="5.83278">
        <ele>693.893966</ele>
        <time>2010-08-08T16:50:17Z</time>
      </trkpt>
      <trkpt lat="45.57336" lon="5.83265">
        <ele>696.693654</ele>
        <time>2010-08-08T16:50:21Z</time>
      </trkpt>
      <trkpt lat="45.57347" lon="5.83254">
        <ele>697.227193</ele>
        <time>2010-08-08T16:50:26Z</time>
      </trkpt>
      <trkpt lat="45.57362" lon="5.83245">
        <ele>697.363044</ele>
        <time>2010-08-08T16:50:36Z</time>
      </trkpt>
      <trkpt lat="45.57365" lon="5.83247">
        <ele>697.845526</ele>
        <time>2010-08-08T16:50:39Z</time>
      </trkpt>
      <trkpt lat="45.57365" lon="5.83247">
        <ele>698.563793</ele>
        <time>2010-08-08T16:50:51Z</time>
      </trkpt>
      <trkpt lat="45.57378" lon="5.83212">
        <ele>699.38097</ele>
        <time>2010-08-08T16:51:25Z</time>
      </trkpt>
      <trkpt lat="45.57382" lon="5.83209">
        <ele>700.302784</ele>
        <time>2010-08-08T16:51:28Z</time>
      </trkpt>
      <trkpt lat="45.57389" lon="5.83203">
        <ele>701.03948</ele>
        <time>2010-08-08T16:51:31Z</time>
      </trkpt>
      <trkpt lat="45.57391" lon="5.83201">
        <ele>701.745339</ele>
        <time>2010-08-08T16:51:34Z</time>
      </trkpt>
      <trkpt lat="45.574" lon="5.83193">
        <ele>702.834181</ele>
        <time>2010-08-08T16:51:38Z</time>
      </trkpt>
      <trkpt lat="45.57406" lon="5.83188">
        <ele>703.866373</ele>
        <time>2010-08-08T16:51:43Z</time>
      </trkpt>
      <trkpt lat="45.5742" lon="5.83176">
        <ele>704.33231</ele>
        <time>2010-08-08T16:51:51Z</time>
      </trkpt>
      <trkpt lat="45.57436" lon="5.83164">
        <ele>704.526763</ele>
        <time>2010-08-08T16:51:58Z</time>
      </trkpt>
      <trkpt lat="45.57442" lon="5.8316">
        <ele>704.796216</ele>
        <time>2010-08-08T16:52:01Z</time>
      </trkpt>
      <trkpt lat="45.57444" lon="5.83158">
        <ele>705.496143</ele>
        <time>2010-08-08T16:52:03Z</time>
      </trkpt>
      <trkpt lat="45.57453" lon="5.83151">
        <ele>706.85183</ele>
        <time>2010-08-08T16:52:06Z</time>
      </trkpt>
      <trkpt lat="45.57458" lon="5.83146">
        <ele>708.342358</ele>
        <time>2010-08-08T16:52:12Z</time>
      </trkpt>
      <trkpt lat="45.57471" lon="5.83138">
        <ele>709.215097</ele>
        <time>2010-08-08T16:52:22Z</time>
      </trkpt>
      <trkpt lat="45.57479" lon="5.83134">
        <ele>709.446682</ele>
        <time>2010-08-08T16:52:28Z</time>
      </trkpt>
      <trkpt lat="45.57483" lon="5.83133">
        <ele>709.510341</ele>
        <time>2010-08-08T16:52:31Z</time>
      </trkpt>
      <trkpt lat="45.57486" lon="5.83133">
        <ele>709.886391</ele>
        <time>2010-08-08T16:52:34Z</time>
      </trkpt>
      <trkpt lat="45.5749" lon="5.83132">
        <ele>710.545196</ele>
        <time>2010-08-08T16:52:36Z</time>
      </trkpt>
      <trkpt lat="45.57494" lon="5.83131">
        <ele>711.071628</ele>
        <time>2010-08-08T16:52:38Z</time>
      </trkpt>
      <trkpt lat="45.57499" lon="5.8313">
        <ele>711.279778</ele>
        <time>2010-08-08T16:52:41Z</time>
      </trkpt>
      <trkpt lat="45.57508" lon="5.83128">
        <ele>711.286308</ele>
        <time>2010-08-08T16:52:44Z</time>
      </trkpt>
      <trkpt lat="45.57513" lon="5.83127">
        <ele>711.231912</ele>
        <time>2010-08-08T16:52:47Z</time>
      </trkpt>
      <trkpt lat="45.57522" lon="5.83126">
        <ele>711.189147</ele>
        <time>2010-08-08T16:52:50Z</time>
      </trkpt>
      <trkpt lat="45.57527" lon="5.83125">
        <ele>711.172488</ele>
        <time>2010-08-08T16:52:53Z</time>
      </trkpt>
      <trkpt lat="45.57534" lon="5.83124">
        <ele>711.310323</ele>
        <time>2010-08-08T16:52:56Z</time>
      </trkpt>
      <trkpt lat="45.57538" lon="5.83124">
        <ele>711.812883</ele>
        <time>2010-08-08T16:52:59Z</time>
      </trkpt>
      <trkpt lat="45.57564" lon="5.83128">
        <ele>712.545683</ele>
        <time>2010-08-08T16:53:09Z</time>
      </trkpt>
      <trkpt lat="45.57573" lon="5.83134">
        <ele>713.229889</ele>
        <time>2010-08-08T16:53:14Z</time>
      </trkpt>
      <trkpt lat="45.57578" lon="5.83138">
        <ele>713.791586</ele>
        <time>2010-08-08T16:53:17Z</time>
      </trkpt>
      <trkpt lat="45.57583" lon="5.83143">
        <ele>714.295372</ele>
        <time>2010-08-08T16:53:20Z</time>
      </trkpt>
      <trkpt lat="45.57586" lon="5.83145">
        <ele>714.908328</ele>
        <time>2010-08-08T16:53:23Z</time>
      </trkpt>
      <trkpt lat="45.5759" lon="5.83147">
        <ele>715.619875</ele>
        <time>2010-08-08T16:53:26Z</time>
      </trkpt>
      <trkpt lat="45.57593" lon="5.83148">
        <ele>716.118467</ele>
        <time>2010-08-08T16:53:31Z</time>
      </trkpt>
      <trkpt lat="45.57595" lon="5.8315">
        <ele>716.290656</ele>
        <time>2010-08-08T16:53:37Z</time>
      </trkpt>
      <trkpt lat="45.57595" lon="5.8315">
        <ele>716.278076</ele>
        <time>2010-08-08T16:53:40Z</time>
      </trkpt>
      <trkpt lat="45.5756" lon="5.83156">
        <ele>716.219556</ele>
        <time>2010-08-08T16:54:33Z</time>
      </trkpt>
      <trkpt lat="45.57552" lon="5.83166">
        <ele>716.179135</ele>
        <time>2010-08-08T16:54:39Z</time>
      </trkpt>
      <trkpt lat="45.57545" lon="5.83172">
        <ele>716.165413</ele>
        <time>2010-08-08T16:54:43Z</time>
      </trkpt>
      <trkpt lat="45.57542" lon="5.83177">
        <ele>716.857502</ele>
        <time>2010-08-08T16:54:46Z</time>
      </trkpt>
      <trkpt lat="45.57538" lon="5.83191">
        <ele>718.661774</ele>
        <time>2010-08-08T16:54:50Z</time>
      </trkpt>
      <trkpt lat="45.57543" lon="5.83203">
        <ele>720.512224</ele>
        <time>2010-08-08T16:54:58Z</time>
      </trkpt>
      <trkpt lat="45.57551" lon="5.83211">
        <ele>721.389623</ele>
        <time>2010-08-08T16:55:04Z</time>
      </trkpt>
      <trkpt lat="45.57574" lon="5.83233">
        <ele>721.107629</ele>
        <time>2010-08-08T16:55:13Z</time>
      </trkpt>
      <trkpt lat="45.57585" lon="5.83236">
        <ele>719.60127</ele>
        <time>2010-08-08T16:55:16Z</time>
      </trkpt>
      <trkpt lat="45.57596" lon="5.8324">
        <ele>717.4842</ele>
        <time>2010-08-08T16:55:19Z</time>
      </trkpt>
      <trkpt lat="45.57609" lon="5.83247">
        <ele>715.374552</ele>
        <time>2010-08-08T16:55:25Z</time>
      </trkpt>
      <trkpt lat="45.57613" lon="5.83248">
        <ele>713.347053</ele>
        <time>2010-08-08T16:55:28Z</time>
      </trkpt>
      <trkpt lat="45.57619" lon="5.8325">
        <ele>711.753006</ele>
        <time>2010-08-08T16:55:36Z</time>
      </trkpt>
      <trkpt lat="45.57617" lon="5.83249">
        <ele>710.855661</ele>
        <time>2010-08-08T16:55:44Z</time>
      </trkpt>
      <trkpt lat="45.5758" lon="5.83244">
        <ele>710.240903</ele>
        <time>2010-08-08T16:56:24Z</time>
      </trkpt>
      <trkpt lat="45.57577" lon="5.83246">
        <ele>709.640135</ele>
        <time>2010-08-08T16:56:34Z</time>
      </trkpt>
      <trkpt lat="45.57573" lon="5.83244">
        <ele>709.225357</ele>
        <time>2010-08-08T16:56:39Z</time>
      </trkpt>
      <trkpt lat="45.57569" lon="5.83242">
        <ele>709.084631</ele>
        <time>2010-08-08T16:56:43Z</time>
      </trkpt>
      <trkpt lat="45.57566" lon="5.8324">
        <ele>709.235167</ele>
        <time>2010-08-08T16:56:46Z</time>
      </trkpt>
      <trkpt lat="45.57563" lon="5.83239">
        <ele>709.644449</ele>
        <time>2010-08-08T16:56:49Z</time>
      </trkpt>
      <trkpt lat="45.57556" lon="5.83233">
        <ele>710.047501</ele>
        <time>2010-08-08T16:56:53Z</time>
      </trkpt>
      <trkpt lat="45.57556" lon="5.83233">
        <ele>710.23397</ele>
        <time>2010-08-08T16:57:05Z</time>
      </trkpt>
      <trkpt lat="45.57532" lon="5.8321">
        <ele>710.259349</ele>
        <time>2010-08-08T16:57:14Z</time>
      </trkpt>
      <trkpt lat="45.57518" lon="5.83204">
        <ele>710.225304</ele>
        <time>2010-08-08T16:57:17Z</time>
      </trkpt>
      <trkpt lat="45.57512" lon="5.83202">
        <ele>710.060858</ele>
        <time>2010-08-08T16:57:20Z</time>
      </trkpt>
      <trkpt lat="45.57508" lon="5.83201">
        <ele>709.558332</ele>
        <time>2010-08-08T16:57:23Z</time>
      </trkpt>
      <trkpt lat="45.57502" lon="5.83199">
        <ele>708.827542</ele>
        <time>2010-08-08T16:57:28Z</time>
      </trkpt>
      <trkpt lat="45.57502" lon="5.83199">
        <ele>708.276452</ele>
        <time>2010-08-08T16:57:40Z</time>
      </trkpt>
      <trkpt lat="45.57463" lon="5.83197">
        <ele>708.070269</ele>
        <time>2010-08-08T16:57:57Z</time>
      </trkpt>
      <trkpt lat="45.57455" lon="5.83203">
        <ele>708.048415</ele>
        <time>2010-08-08T16:58:04Z</time>
      </trkpt>
      <trkpt lat="45.57446" lon="5.83218">
        <ele>707.932232</ele>
        <time>2010-08-08T16:58:12Z</time>
      </trkpt>
      <trkpt lat="45.57441" lon="5.83226">
        <ele>706.648178</ele>
        <time>2010-08-08T16:58:15Z</time>
      </trkpt>
      <trkpt lat="45.57437" lon="5.83232">
        <ele>703.809459</ele>
        <time>2010-08-08T16:58:17Z</time>
      </trkpt>
      <trkpt lat="45.57434" lon="5.83237">
        <ele>701.073446</ele>
        <time>2010-08-08T16:58:19Z</time>
      </trkpt>
      <trkpt lat="45.57426" lon="5.83246">
        <ele>699.824872</ele>
        <time>2010-08-08T16:58:22Z</time>
      </trkpt>
      <trkpt lat="45.57414" lon="5.83258">
        <ele>699.803716</ele>
        <time>2010-08-08T16:58:25Z</time>
      </trkpt>
      <trkpt lat="45.57405" lon="5.83264">
        <ele>700.399542</ele>
        <time>2010-08-08T16:58:28Z</time>
      </trkpt>
      <trkpt lat="45.57394" lon="5.83272">
        <ele>700.991789</ele>
        <time>2010-08-08T16:58:31Z</time>
      </trkpt>
      <trkpt lat="45.57394" lon="5.83272">
        <ele>701.267375</ele>
        <time>2010-08-08T16:58:32Z</time>
      </trkpt>
      <trkpt lat="45.57382" lon="5.83286">
        <ele>701.305861</ele>
        <time>2010-08-08T16:58:36Z</time>
      </trkpt>
      <trkpt lat="45.57377" lon="5.83292">
        <ele>701.256281</ele>
        <time>2010-08-08T16:58:38Z</time>
      </trkpt>
      <trkpt lat="45.57373" lon="5.83296">
        <ele>701.069855</ele>
        <time>2010-08-08T16:58:41Z</time>
      </trkpt>
      <trkpt lat="45.57405" lon="5.83289">
        <ele>700.687808</ele>
        <time>2010-08-08T16:59:06Z</time>
      </trkpt>
      <trkpt lat="45.57411" lon="5.83287">
        <ele>700.314326</ele>
        <time>2010-08-08T16:59:08Z</time>
      </trkpt>
      <trkpt lat="45.57428" lon="5.83279">
        <ele>700.003189</ele>
        <time>2010-08-08T16:59:10Z</time>
      </trkpt>
      <trkpt lat="45.57441" lon="5.8327">
        <ele>697.824305</ele>
        <time>2010-08-08T16:59:12Z</time>
      </trkpt>
      <trkpt lat="45.57451" lon="5.83264">
        <ele>692.809632</ele>
        <time>2010-08-08T16:59:14Z</time>
      </trkpt>
      <trkpt lat="45.5746" lon="5.83259">
        <ele>687.58691</ele>
        <time>2010-08-08T16:59:16Z</time>
      </trkpt>
      <trkpt lat="45.5747" lon="5.83256">
        <ele>684.300061</ele>
        <time>2010-08-08T16:59:19Z</time>
      </trkpt>
      <trkpt lat="45.57474" lon="5.83255">
        <ele>682.390026</ele>
        <time>2010-08-08T16:59:21Z</time>
      </trkpt>
      <trkpt lat="45.57501" lon="5.83251">
        <ele>681.21972</ele>
        <time>2010-08-08T16:59:38Z</time>
      </trkpt>
      <trkpt lat="45.57501" lon="5.83251">
        <ele>680.489737</ele>
        <time>2010-08-08T16:59:42Z</time>
      </trkpt>
      <trkpt lat="45.57532" lon="5.83287">
        <ele>679.859727</ele>
        <time>2010-08-08T16:59:53Z</time>
      </trkpt>
      <trkpt lat="45.57539" lon="5.83289">
        <ele>678.943817</ele>
        <time>2010-08-08T16:59:55Z</time>
      </trkpt>
      <trkpt lat="45.57545" lon="5.83296">
        <ele>677.487711</ele>
        <time>2010-08-08T16:59:58Z</time>
      </trkpt>
      <trkpt lat="45.57568" lon="5.83322">
        <ele>675.747592</ele>
        <time>2010-08-08T17:00:08Z</time>
      </trkpt>
      <trkpt lat="45.57594" lon="5.83338">
        <ele>674.439425</ele>
        <time>2010-08-08T17:00:20Z</time>
      </trkpt>
      <trkpt lat="45.57608" lon="5.83336">
        <ele>673.951526</ele>
        <time>2010-08-08T17:00:28Z</time>
      </trkpt>
      <trkpt lat="45.57608" lon="5.83336">
        <ele>673.819191</ele>
        <time>2010-08-08T17:00:43Z</time>
      </trkpt>
      <trkpt lat="45.57636" lon="5.83328">
        <ele>673.740885</ele>
        <time>2010-08-08T17:00:55Z</time>
      </trkpt>
      <trkpt lat="45.5765" lon="5.83328">
        <ele>673.837515</ele>
        <time>2010-08-08T17:00:58Z</time>
      </trkpt>
      <trkpt lat="45.57672" lon="5.83323">
        <ele>674.208844</ele>
        <time>2010-08-08T17:01:04Z</time>
      </trkpt>
      <trkpt lat="45.57683" lon="5.83325">
        <ele>674.716527</ele>
        <time>2010-08-08T17:01:10Z</time>
      </trkpt>
      <trkpt lat="45.57695" lon="5.83328">
        <ele>675.130665</ele>
        <time>2010-08-08T17:01:13Z</time>
      </trkpt>
      <trkpt lat="45.57718" lon="5.83337">
        <ele>675.297433</ele>
        <time>2010-08-08T17:01:16Z</time>
      </trkpt>
      <trkpt lat="45.57733" lon="5.83344">
        <ele>675.304839</ele>
        <time>2010-08-08T17:01:19Z</time>
      </trkpt>
      <trkpt lat="45.57745" lon="5.8335">
        <ele>675.124715</ele>
        <time>2010-08-08T17:01:22Z</time>
      </trkpt>
      <trkpt lat="45.57745" lon="5.8335">
        <ele>674.73117</ele>
        <time>2010-08-08T17:01:24Z</time>
      </trkpt>
      <trkpt lat="45.57748" lon="5.8338">
        <ele>674.348381</ele>
        <time>2010-08-08T17:02:04Z</time>
      </trkpt>
      <trkpt lat="45.57736" lon="5.83383">
        <ele>674.172666</ele>
        <time>2010-08-08T17:02:07Z</time>
      </trkpt>
      <trkpt lat="45.57727" lon="5.83383">
        <ele>674.166833</ele>
        <time>2010-08-08T17:02:09Z</time>
      </trkpt>
      <trkpt lat="45.57714" lon="5.83378">
        <ele>675.747161</ele>
        <time>2010-08-08T17:02:12Z</time>
      </trkpt>
      <trkpt lat="45.57705" lon="5.83378">
        <ele>679.738342</ele>
        <time>2010-08-08T17:02:15Z</time>
      </trkpt>
      <trkpt lat="45.57699" lon="5.83377">
        <ele>683.79203</ele>
        <time>2010-08-08T17:02:18Z</time>
      </trkpt>
      <trkpt lat="45.57699" lon="5.83377">
        <ele>685.70309</ele>
        <time>2010-08-08T17:02:20Z</time>
      </trkpt>
      <trkpt lat="45.57699" lon="5.83377">
        <ele>685.944129</ele>
        <time>2010-08-08T17:02:48Z</time>
      </trkpt>
      <trkpt lat="45.57652" lon="5.83405">
        <ele>685.407721</ele>
        <time>2010-08-08T17:06:11Z</time>
      </trkpt>
      <trkpt lat="45.57638" lon="5.83408">
        <ele>684.576496</ele>
        <time>2010-08-08T17:06:24Z</time>
      </trkpt>
      <trkpt lat="45.57634" lon="5.8341">
        <ele>683.722402</ele>
        <time>2010-08-08T17:06:28Z</time>
      </trkpt>
      <trkpt lat="45.57631" lon="5.83411">
        <ele>680.667105</ele>
        <time>2010-08-08T17:06:31Z</time>
      </trkpt>
      <trkpt lat="45.57628" lon="5.83413">
        <ele>673.615176</ele>
        <time>2010-08-08T17:06:34Z</time>
      </trkpt>
      <trkpt lat="45.57624" lon="5.83415">
        <ele>665.956456</ele>
        <time>2010-08-08T17:06:39Z</time>
      </trkpt>
      <trkpt lat="45.57621" lon="5.83418">
        <ele>661.792076</ele>
        <time>2010-08-08T17:06:43Z</time>
      </trkpt>
      <trkpt lat="45.57618" lon="5.83419">
        <ele>660.704566</ele>
        <time>2010-08-08T17:06:47Z</time>
      </trkpt>
      <trkpt lat="45.57615" lon="5.8342">
        <ele>660.817335</ele>
        <time>2010-08-08T17:06:50Z</time>
      </trkpt>
      <trkpt lat="45.57612" lon="5.83421">
        <ele>661.073812</ele>
        <time>2010-08-08T17:06:54Z</time>
      </trkpt>
      <trkpt lat="45.57609" lon="5.83422">
        <ele>661.234544</ele>
        <time>2010-08-08T17:07:00Z</time>
      </trkpt>
      <trkpt lat="45.57609" lon="5.83422">
        <ele>661.176564</ele>
        <time>2010-08-08T17:07:06Z</time>
      </trkpt>
      <trkpt lat="45.57639" lon="5.83445">
        <ele>660.858813</ele>
        <time>2010-08-08T17:07:26Z</time>
      </trkpt>
      <trkpt lat="45.57644" lon="5.83447">
        <ele>660.470585</ele>
        <time>2010-08-08T17:07:28Z</time>
      </trkpt>
      <trkpt lat="45.57649" lon="5.83448">
        <ele>660.236777</ele>
        <time>2010-08-08T17:07:31Z</time>
      </trkpt>
      <trkpt lat="45.57656" lon="5.83451">
        <ele>659.342508</ele>
        <time>2010-08-08T17:07:34Z</time>
      </trkpt>
      <trkpt lat="45.57656" lon="5.83451">
        <ele>657.200743</ele>
        <time>2010-08-08T17:07:47Z</time>
      </trkpt>
      <trkpt lat="45.57682" lon="5.83461">
        <ele>654.877759</ele>
        <time>2010-08-08T17:07:51Z</time>
      </trkpt>
      <trkpt lat="45.57692" lon="5.83467">
        <ele>653.208847</ele>
        <time>2010-08-08T17:07:56Z</time>
      </trkpt>
      <trkpt lat="45.57707" lon="5.83485">
        <ele>651.689244</ele>
        <time>2010-08-08T17:08:05Z</time>
      </trkpt>
      <trkpt lat="45.57736" lon="5.83505">
        <ele>649.266489</ele>
        <time>2010-08-08T17:08:19Z</time>
      </trkpt>
      <trkpt lat="45.57765" lon="5.83514">
        <ele>645.394829</ele>
        <time>2010-08-08T17:08:30Z</time>
      </trkpt>
      <trkpt lat="45.57793" lon="5.83526">
        <ele>641.024027</ele>
        <time>2010-08-08T17:08:36Z</time>
      </trkpt>
      <trkpt lat="45.57802" lon="5.83532">
        <ele>636.828891</ele>
        <time>2010-08-08T17:08:39Z</time>
      </trkpt>
      <trkpt lat="45.57806" lon="5.83534">
        <ele>632.278285</ele>
        <time>2010-08-08T17:08:42Z</time>
      </trkpt>
      <trkpt lat="45.57831" lon="5.83548">
        <ele>627.528133</ele>
        <time>2010-08-08T17:08:46Z</time>
      </trkpt>
      <trkpt lat="45.57847" lon="5.83556">
        <ele>623.655721</ele>
        <time>2010-08-08T17:08:51Z</time>
      </trkpt>
      <trkpt lat="45.57859" lon="5.83564">
        <ele>621.426701</ele>
        <time>2010-08-08T17:08:54Z</time>
      </trkpt>
      <trkpt lat="45.5787" lon="5.83571">
        <ele>620.301179</ele>
        <time>2010-08-08T17:08:57Z</time>
      </trkpt>
      <trkpt lat="45.57873" lon="5.83573">
        <ele>619.045606</ele>
        <time>2010-08-08T17:08:59Z</time>
      </trkpt>
      <trkpt lat="45.57899" lon="5.83591">
        <ele>617.357458</ele>
        <time>2010-08-08T17:09:12Z</time>
      </trkpt>
      <trkpt lat="45.57899" lon="5.83591">
        <ele>615.913426</ele>
        <time>2010-08-08T17:09:16Z</time>
      </trkpt>
      <trkpt lat="45.57929" lon="5.83592">
        <ele>615.032197</ele>
        <time>2010-08-08T17:09:24Z</time>
      </trkpt>
      <trkpt lat="45.57929" lon="5.83592">
        <ele>614.524994</ele>
        <time>2010-08-08T17:09:28Z</time>
      </trkpt>
      <trkpt lat="45.57958" lon="5.83597">
        <ele>614.11832</ele>
        <time>2010-08-08T17:09:32Z</time>
      </trkpt>
      <trkpt lat="45.57985" lon="5.83609">
        <ele>613.148329</ele>
        <time>2010-08-08T17:09:35Z</time>
      </trkpt>
      <trkpt lat="45.57993" lon="5.83631">
        <ele>611.234496</ele>
        <time>2010-08-08T17:09:41Z</time>
      </trkpt>
      <trkpt lat="45.57996" lon="5.8367">
        <ele>609.263031</ele>
        <time>2010-08-08T17:09:44Z</time>
      </trkpt>
      <trkpt lat="45.57999" lon="5.83695">
        <ele>608.049493</ele>
        <time>2010-08-08T17:09:46Z</time>
      </trkpt>
      <trkpt lat="45.58003" lon="5.83727">
        <ele>607.442682</ele>
        <time>2010-08-08T17:09:49Z</time>
      </trkpt>
      <trkpt lat="45.58014" lon="5.83757">
        <ele>607.055788</ele>
        <time>2010-08-08T17:09:52Z</time>
      </trkpt>
      <trkpt lat="45.58027" lon="5.83786">
        <ele>606.543587</ele>
        <time>2010-08-08T17:09:55Z</time>
      </trkpt>
      <trkpt lat="45.58042" lon="5.83813">
        <ele>605.736321</ele>
        <time>2010-08-08T17:09:58Z</time>
      </trkpt>
      <trkpt lat="45.58052" lon="5.83833">
        <ele>604.742878</ele>
        <time>2010-08-08T17:10:00Z</time>
      </trkpt>
      <trkpt lat="45.58063" lon="5.83866">
        <ele>603.831686</ele>
        <time>2010-08-08T17:10:03Z</time>
      </trkpt>
      <trkpt lat="45.58071" lon="5.83899">
        <ele>603.153198</ele>
        <time>2010-08-08T17:10:06Z</time>
      </trkpt>
      <trkpt lat="45.58068" lon="5.83941">
        <ele>602.508453</ele>
        <time>2010-08-08T17:10:09Z</time>
      </trkpt>
      <trkpt lat="45.5806" lon="5.83965">
        <ele>601.408244</ele>
        <time>2010-08-08T17:10:11Z</time>
      </trkpt>
      <trkpt lat="45.58048" lon="5.83984">
        <ele>599.720309</ele>
        <time>2010-08-08T17:10:13Z</time>
      </trkpt>
      <trkpt lat="45.58031" lon="5.84014">
        <ele>597.955814</ele>
        <time>2010-08-08T17:10:16Z</time>
      </trkpt>
      <trkpt lat="45.5802" lon="5.84049">
        <ele>596.577561</ele>
        <time>2010-08-08T17:10:19Z</time>
      </trkpt>
      <trkpt lat="45.58025" lon="5.8408">
        <ele>595.511562</ele>
        <time>2010-08-08T17:10:22Z</time>
      </trkpt>
      <trkpt lat="45.58036" lon="5.8412">
        <ele>594.57032</ele>
        <time>2010-08-08T17:10:25Z</time>
      </trkpt>
      <trkpt lat="45.58068" lon="5.84176">
        <ele>593.495743</ele>
        <time>2010-08-08T17:10:28Z</time>
      </trkpt>
      <trkpt lat="45.58092" lon="5.84227">
        <ele>592.029371</ele>
        <time>2010-08-08T17:10:31Z</time>
      </trkpt>
      <trkpt lat="45.58114" lon="5.84271">
        <ele>590.306372</ele>
        <time>2010-08-08T17:10:34Z</time>
      </trkpt>
      <trkpt lat="45.58132" lon="5.84295">
        <ele>588.758015</ele>
        <time>2010-08-08T17:10:36Z</time>
      </trkpt>
      <trkpt lat="45.58147" lon="5.84334">
        <ele>587.414104</ele>
        <time>2010-08-08T17:10:39Z</time>
      </trkpt>
      <trkpt lat="45.58157" lon="5.84371">
        <ele>585.918182</ele>
        <time>2010-08-08T17:10:42Z</time>
      </trkpt>
      <trkpt lat="45.58153" lon="5.84416">
        <ele>584.111523</ele>
        <time>2010-08-08T17:10:45Z</time>
      </trkpt>
      <trkpt lat="45.58143" lon="5.84466">
        <ele>581.838157</ele>
        <time>2010-08-08T17:10:48Z</time>
      </trkpt>
      <trkpt lat="45.58139" lon="5.84526">
        <ele>579.06676</ele>
        <time>2010-08-08T17:10:51Z</time>
      </trkpt>
      <trkpt lat="45.58139" lon="5.84601">
        <ele>576.289454</ele>
        <time>2010-08-08T17:10:54Z</time>
      </trkpt>
      <trkpt lat="45.5814" lon="5.84666">
        <ele>573.787782</ele>
        <time>2010-08-08T17:10:57Z</time>
      </trkpt>
      <trkpt lat="45.58143" lon="5.84712">
        <ele>570.96272</ele>
        <time>2010-08-08T17:11:00Z</time>
      </trkpt>
      <trkpt lat="45.58146" lon="5.84744">
        <ele>567.580326</ele>
        <time>2010-08-08T17:11:03Z</time>
      </trkpt>
      <trkpt lat="45.58154" lon="5.8475">
        <ele>564.500761</ele>
        <time>2010-08-08T17:11:05Z</time>
      </trkpt>
      <trkpt lat="45.58164" lon="5.84749">
        <ele>562.201876</ele>
        <time>2010-08-08T17:11:07Z</time>
      </trkpt>
      <trkpt lat="45.58175" lon="5.84747">
        <ele>560.029956</ele>
        <time>2010-08-08T17:11:10Z</time>
      </trkpt>
      <trkpt lat="45.58185" lon="5.84745">
        <ele>557.592899</ele>
        <time>2010-08-08T17:11:13Z</time>
      </trkpt>
      <trkpt lat="45.58194" lon="5.84741">
        <ele>555.314457</ele>
        <time>2010-08-08T17:11:16Z</time>
      </trkpt>
      <trkpt lat="45.58201" lon="5.84737">
        <ele>553.624996</ele>
        <time>2010-08-08T17:11:18Z</time>
      </trkpt>
      <trkpt lat="45.58207" lon="5.84738">
        <ele>552.471416</ele>
        <time>2010-08-08T17:11:20Z</time>
      </trkpt>
      <trkpt lat="45.58216" lon="5.84729">
        <ele>551.552984</ele>
        <time>2010-08-08T17:11:23Z</time>
      </trkpt>
      <trkpt lat="45.58236" lon="5.84721">
        <ele>550.520515</ele>
        <time>2010-08-08T17:11:30Z</time>
      </trkpt>
      <trkpt lat="45.58247" lon="5.84719">
        <ele>549.355663</ele>
        <time>2010-08-08T17:11:33Z</time>
      </trkpt>
      <trkpt lat="45.58255" lon="5.84716">
        <ele>548.359373</ele>
        <time>2010-08-08T17:11:36Z</time>
      </trkpt>
      <trkpt lat="45.58264" lon="5.84714">
        <ele>547.409746</ele>
        <time>2010-08-08T17:11:39Z</time>
      </trkpt>
      <trkpt lat="45.58276" lon="5.84713">
        <ele>546.329372</ele>
        <time>2010-08-08T17:11:42Z</time>
      </trkpt>
      <trkpt lat="45.58289" lon="5.84711">
        <ele>545.373004</ele>
        <time>2010-08-08T17:11:45Z</time>
      </trkpt>
      <trkpt lat="45.58299" lon="5.8471">
        <ele>544.705683</ele>
        <time>2010-08-08T17:11:47Z</time>
      </trkpt>
      <trkpt lat="45.58307" lon="5.8471">
        <ele>544.061837</ele>
        <time>2010-08-08T17:11:49Z</time>
      </trkpt>
      <trkpt lat="45.58316" lon="5.84712">
        <ele>543.117669</ele>
        <time>2010-08-08T17:11:51Z</time>
      </trkpt>
      <trkpt lat="45.58323" lon="5.84713">
        <ele>541.920612</ele>
        <time>2010-08-08T17:11:53Z</time>
      </trkpt>
      <trkpt lat="45.58334" lon="5.84716">
        <ele>540.895315</ele>
        <time>2010-08-08T17:11:56Z</time>
      </trkpt>
      <trkpt lat="45.5834" lon="5.84718">
        <ele>540.327217</ele>
        <time>2010-08-08T17:11:58Z</time>
      </trkpt>
      <trkpt lat="45.5835" lon="5.8472">
        <ele>540.053978</ele>
        <time>2010-08-08T17:12:01Z</time>
      </trkpt>
      <trkpt lat="45.58359" lon="5.84721">
        <ele>539.616211</ele>
        <time>2010-08-08T17:12:04Z</time>
      </trkpt>
      <trkpt lat="45.58369" lon="5.84721">
        <ele>538.970712</ele>
        <time>2010-08-08T17:12:07Z</time>
      </trkpt>
      <trkpt lat="45.58377" lon="5.84718">
        <ele>538.333692</ele>
        <time>2010-08-08T17:12:09Z</time>
      </trkpt>
      <trkpt lat="45.58399" lon="5.84713">
        <ele>537.782605</ele>
        <time>2010-08-08T17:12:12Z</time>
      </trkpt>
      <trkpt lat="45.58412" lon="5.8471">
        <ele>537.411529</ele>
        <time>2010-08-08T17:12:14Z</time>
      </trkpt>
      <trkpt lat="45.58434" lon="5.84702">
        <ele>537.28951</ele>
        <time>2010-08-08T17:12:17Z</time>
      </trkpt>
      <trkpt lat="45.58451" lon="5.84692">
        <ele>537.303483</ele>
        <time>2010-08-08T17:12:19Z</time>
      </trkpt>
      <trkpt lat="45.58473" lon="5.84681">
        <ele>537.210579</ele>
        <time>2010-08-08T17:12:22Z</time>
      </trkpt>
      <trkpt lat="45.58492" lon="5.84683">
        <ele>536.88075</ele>
        <time>2010-08-08T17:12:25Z</time>
      </trkpt>
      <trkpt lat="45.58504" lon="5.84684">
        <ele>536.521022</ele>
        <time>2010-08-08T17:12:27Z</time>
      </trkpt>
      <trkpt lat="45.58519" lon="5.8469">
        <ele>536.206316</ele>
        <time>2010-08-08T17:12:30Z</time>
      </trkpt>
      <trkpt lat="45.5853" lon="5.84704">
        <ele>535.677998</ele>
        <time>2010-08-08T17:12:33Z</time>
      </trkpt>
      <trkpt lat="45.58533" lon="5.84716">
        <ele>534.976222</ele>
        <time>2010-08-08T17:12:35Z</time>
      </trkpt>
      <trkpt lat="45.58537" lon="5.8473">
        <ele>534.322684</ele>
        <time>2010-08-08T17:12:38Z</time>
      </trkpt>
      <trkpt lat="45.5854" lon="5.84737">
        <ele>533.637032</ele>
        <time>2010-08-08T17:12:40Z</time>
      </trkpt>
      <trkpt lat="45.5854" lon="5.84745">
        <ele>532.77531</ele>
        <time>2010-08-08T17:12:42Z</time>
      </trkpt>
      <trkpt lat="45.58535" lon="5.84767">
        <ele>531.928516</ele>
        <time>2010-08-08T17:13:03Z</time>
      </trkpt>
      <trkpt lat="45.58538" lon="5.84768">
        <ele>531.260924</ele>
        <time>2010-08-08T17:13:05Z</time>
      </trkpt>
      <trkpt lat="45.58556" lon="5.84779">
        <ele>530.606023</ele>
        <time>2010-08-08T17:13:08Z</time>
      </trkpt>
      <trkpt lat="45.58565" lon="5.84787">
        <ele>529.080539</ele>
        <time>2010-08-08T17:13:10Z</time>
      </trkpt>
      <trkpt lat="45.58573" lon="5.84797">
        <ele>526.445922</ele>
        <time>2010-08-08T17:13:12Z</time>
      </trkpt>
      <trkpt lat="45.58572" lon="5.84812">
        <ele>524.070355</ele>
        <time>2010-08-08T17:13:15Z</time>
      </trkpt>
      <trkpt lat="45.58567" lon="5.8482">
        <ele>523.03467</ele>
        <time>2010-08-08T17:13:18Z</time>
      </trkpt>
    </trkseg>
  </trk>
</gpx>